<?xml version="1.0" encoding="UTF-8" standalone="no" ?><gpx xmlns="http://www.topografix.com/GPX/1/1" xmlns:gpxx="http://www.garmin.com/xmlschemas/GpxExtensions/v3" xmlns:wptx1="http://www.garmin.com/xmlschemas/WaypointExtension/v1" xmlns:gpxtpx="http://www.garmin.com/xmlschemas/TrackPointExtension/v1" creator="GuideVTT.com" version="1.1" xmlns:xsi="http://www.w3.org/2001/XMLSchema-instance" xsi:schemaLocation="http://www.topografix.com/GPX/1/1 http://www.topografix.com/GPX/1/1/gpx.xsd http://www.garmin.com/xmlschemas/GpxExtensions/v3 http://www8.garmin.com/xmlschemas/GpxExtensionsv3.xsd http://www.garmin.com/xmlschemas/WaypointExtension/v1 http://www8.garmin.com/xmlschemas/WaypointExtensionv1.xsd http://www.garmin.com/xmlschemas/TrackPointExtension/v1 http://www.garmin.com/xmlschemas/TrackPointExtensionv1.xsd">
<metadata><link href="http://www.garmin.com"><text>Garmin International</text></link><time>2013-06-22T15:13:50Z</time></metadata>
<trk><name>2020-05-24-01.gpx</name><extensions><gpxx:TrackExtension><gpxx:DisplayColor>Cyan</gpxx:DisplayColor></gpxx:TrackExtension></extensions><trkseg>
<trkpt lat="48.442252" lon="2.615914"><ele></ele><time>2021-3-5T17:0:58Z</time></trkpt>
<trkpt lat="48.442252" lon="2.615913"><ele></ele><time>2021-3-5T17:1:1Z</time></trkpt>
<trkpt lat="48.442252" lon="2.615913"><ele></ele><time>2021-3-5T17:1:4Z</time></trkpt>
<trkpt lat="48.44225" lon="2.615914"><ele></ele><time>2021-3-5T17:1:7Z</time></trkpt>
<trkpt lat="48.44225" lon="2.615912"><ele></ele><time>2021-3-5T17:1:10Z</time></trkpt>
<trkpt lat="48.442245" lon="2.615914"><ele></ele><time>2021-3-5T17:1:13Z</time></trkpt>
<trkpt lat="48.442246" lon="2.615925"><ele></ele><time>2021-3-5T17:1:16Z</time></trkpt>
<trkpt lat="48.442246" lon="2.615939"><ele></ele><time>2021-3-5T17:1:19Z</time></trkpt>
<trkpt lat="48.442248" lon="2.615938"><ele></ele><time>2021-3-5T17:1:22Z</time></trkpt>
<trkpt lat="48.442239" lon="2.615946"><ele></ele><time>2021-3-5T17:1:25Z</time></trkpt>
<trkpt lat="48.442203" lon="2.616001"><ele></ele><time>2021-3-5T17:1:28Z</time></trkpt>
<trkpt lat="48.442205" lon="2.616088"><ele></ele><time>2021-3-5T17:1:31Z</time></trkpt>
<trkpt lat="48.442178" lon="2.616206"><ele></ele><time>2021-3-5T17:1:34Z</time></trkpt>
<trkpt lat="48.442157" lon="2.616285"><ele></ele><time>2021-3-5T17:1:37Z</time></trkpt>
<trkpt lat="48.442158" lon="2.616289"><ele></ele><time>2021-3-5T17:1:40Z</time></trkpt>
<trkpt lat="48.442161" lon="2.616293"><ele></ele><time>2021-3-5T17:1:43Z</time></trkpt>
<trkpt lat="48.442161" lon="2.616288"><ele></ele><time>2021-3-5T17:1:46Z</time></trkpt>
<trkpt lat="48.442163" lon="2.616279"><ele></ele><time>2021-3-5T17:1:49Z</time></trkpt>
<trkpt lat="48.442163" lon="2.616278"><ele></ele><time>2021-3-5T17:1:52Z</time></trkpt>
<trkpt lat="48.442163" lon="2.616278"><ele></ele><time>2021-3-5T17:1:55Z</time></trkpt>
<trkpt lat="48.442166" lon="2.616274"><ele></ele><time>2021-3-5T17:1:58Z</time></trkpt>
<trkpt lat="48.442156" lon="2.616279"><ele></ele><time>2021-3-5T17:2:1Z</time></trkpt>
<trkpt lat="48.442149" lon="2.616313"><ele></ele><time>2021-3-5T17:2:4Z</time></trkpt>
<trkpt lat="48.442144" lon="2.616389"><ele></ele><time>2021-3-5T17:2:7Z</time></trkpt>
<trkpt lat="48.442128" lon="2.616498"><ele></ele><time>2021-3-5T17:2:10Z</time></trkpt>
<trkpt lat="48.442111" lon="2.616668"><ele></ele><time>2021-3-5T17:2:13Z</time></trkpt>
<trkpt lat="48.442107" lon="2.616842"><ele></ele><time>2021-3-5T17:2:16Z</time></trkpt>
<trkpt lat="48.442047" lon="2.617095"><ele></ele><time>2021-3-5T17:2:19Z</time></trkpt>
<trkpt lat="48.442049" lon="2.617358"><ele></ele><time>2021-3-5T17:2:22Z</time></trkpt>
<trkpt lat="48.442048" lon="2.617607"><ele></ele><time>2021-3-5T17:2:25Z</time></trkpt>
<trkpt lat="48.441986" lon="2.617845"><ele></ele><time>2021-3-5T17:2:28Z</time></trkpt>
<trkpt lat="48.441937" lon="2.618051"><ele></ele><time>2021-3-5T17:2:31Z</time></trkpt>
<trkpt lat="48.441891" lon="2.618281"><ele></ele><time>2021-3-5T17:2:34Z</time></trkpt>
<trkpt lat="48.441857" lon="2.618521"><ele></ele><time>2021-3-5T17:2:37Z</time></trkpt>
<trkpt lat="48.441817" lon="2.618741"><ele></ele><time>2021-3-5T17:2:40Z</time></trkpt>
<trkpt lat="48.441776" lon="2.618948"><ele></ele><time>2021-3-5T17:2:43Z</time></trkpt>
<trkpt lat="48.441738" lon="2.61916"><ele></ele><time>2021-3-5T17:2:46Z</time></trkpt>
<trkpt lat="48.441646" lon="2.619421"><ele></ele><time>2021-3-5T17:2:49Z</time></trkpt>
<trkpt lat="48.44164" lon="2.619649"><ele></ele><time>2021-3-5T17:2:52Z</time></trkpt>
<trkpt lat="48.441628" lon="2.619929"><ele></ele><time>2021-3-5T17:2:55Z</time></trkpt>
<trkpt lat="48.441564" lon="2.620169"><ele></ele><time>2021-3-5T17:2:58Z</time></trkpt>
<trkpt lat="48.441522" lon="2.620459"><ele></ele><time>2021-3-5T17:3:1Z</time></trkpt>
<trkpt lat="48.441505" lon="2.620724"><ele></ele><time>2021-3-5T17:3:4Z</time></trkpt>
<trkpt lat="48.441473" lon="2.62094"><ele></ele><time>2021-3-5T17:3:7Z</time></trkpt>
<trkpt lat="48.441462" lon="2.621142"><ele></ele><time>2021-3-5T17:3:10Z</time></trkpt>
<trkpt lat="48.441444" lon="2.621378"><ele></ele><time>2021-3-5T17:3:13Z</time></trkpt>
<trkpt lat="48.441397" lon="2.621557"><ele></ele><time>2021-3-5T17:3:16Z</time></trkpt>
<trkpt lat="48.44136" lon="2.621754"><ele></ele><time>2021-3-5T17:3:19Z</time></trkpt>
<trkpt lat="48.441339" lon="2.621923"><ele></ele><time>2021-3-5T17:3:22Z</time></trkpt>
<trkpt lat="48.441292" lon="2.622214"><ele></ele><time>2021-3-5T17:3:25Z</time></trkpt>
<trkpt lat="48.441261" lon="2.622448"><ele></ele><time>2021-3-5T17:3:28Z</time></trkpt>
<trkpt lat="48.441225" lon="2.622753"><ele></ele><time>2021-3-5T17:3:31Z</time></trkpt>
<trkpt lat="48.441187" lon="2.623038"><ele></ele><time>2021-3-5T17:3:34Z</time></trkpt>
<trkpt lat="48.441135" lon="2.623288"><ele></ele><time>2021-3-5T17:3:37Z</time></trkpt>
<trkpt lat="48.441091" lon="2.623522"><ele></ele><time>2021-3-5T17:3:40Z</time></trkpt>
<trkpt lat="48.441036" lon="2.623753"><ele></ele><time>2021-3-5T17:3:43Z</time></trkpt>
<trkpt lat="48.441007" lon="2.623928"><ele></ele><time>2021-3-5T17:3:46Z</time></trkpt>
<trkpt lat="48.440945" lon="2.624144"><ele></ele><time>2021-3-5T17:3:49Z</time></trkpt>
<trkpt lat="48.440935" lon="2.624353"><ele></ele><time>2021-3-5T17:3:52Z</time></trkpt>
<trkpt lat="48.44098" lon="2.624537"><ele></ele><time>2021-3-5T17:3:55Z</time></trkpt>
<trkpt lat="48.441094" lon="2.62471"><ele></ele><time>2021-3-5T17:3:58Z</time></trkpt>
<trkpt lat="48.44111" lon="2.624873"><ele></ele><time>2021-3-5T17:4:1Z</time></trkpt>
<trkpt lat="48.441166" lon="2.625035"><ele></ele><time>2021-3-5T17:4:4Z</time></trkpt>
<trkpt lat="48.441165" lon="2.625208"><ele></ele><time>2021-3-5T17:4:7Z</time></trkpt>
<trkpt lat="48.441213" lon="2.625383"><ele></ele><time>2021-3-5T17:4:10Z</time></trkpt>
<trkpt lat="48.441267" lon="2.625529"><ele></ele><time>2021-3-5T17:4:13Z</time></trkpt>
<trkpt lat="48.441346" lon="2.625685"><ele></ele><time>2021-3-5T17:4:16Z</time></trkpt>
<trkpt lat="48.44144" lon="2.625832"><ele></ele><time>2021-3-5T17:4:19Z</time></trkpt>
<trkpt lat="48.441494" lon="2.625962"><ele></ele><time>2021-3-5T17:4:22Z</time></trkpt>
<trkpt lat="48.44154" lon="2.626094"><ele></ele><time>2021-3-5T17:4:25Z</time></trkpt>
<trkpt lat="48.441568" lon="2.62626"><ele></ele><time>2021-3-5T17:4:28Z</time></trkpt>
<trkpt lat="48.441651" lon="2.626463"><ele></ele><time>2021-3-5T17:4:31Z</time></trkpt>
<trkpt lat="48.441734" lon="2.626664"><ele></ele><time>2021-3-5T17:4:34Z</time></trkpt>
<trkpt lat="48.441793" lon="2.626889"><ele></ele><time>2021-3-5T17:4:37Z</time></trkpt>
<trkpt lat="48.441889" lon="2.627114"><ele></ele><time>2021-3-5T17:4:40Z</time></trkpt>
<trkpt lat="48.441967" lon="2.627294"><ele></ele><time>2021-3-5T17:4:43Z</time></trkpt>
<trkpt lat="48.442052" lon="2.627535"><ele></ele><time>2021-3-5T17:4:46Z</time></trkpt>
<trkpt lat="48.442117" lon="2.627688"><ele></ele><time>2021-3-5T17:4:49Z</time></trkpt>
<trkpt lat="48.442154" lon="2.627905"><ele></ele><time>2021-3-5T17:4:52Z</time></trkpt>
<trkpt lat="48.442216" lon="2.62807"><ele></ele><time>2021-3-5T17:4:55Z</time></trkpt>
<trkpt lat="48.44229" lon="2.628253"><ele></ele><time>2021-3-5T17:4:58Z</time></trkpt>
<trkpt lat="48.442351" lon="2.628426"><ele></ele><time>2021-3-5T17:5:1Z</time></trkpt>
<trkpt lat="48.442397" lon="2.628643"><ele></ele><time>2021-3-5T17:5:4Z</time></trkpt>
<trkpt lat="48.442432" lon="2.628892"><ele></ele><time>2021-3-5T17:5:7Z</time></trkpt>
<trkpt lat="48.442446" lon="2.629098"><ele></ele><time>2021-3-5T17:5:10Z</time></trkpt>
<trkpt lat="48.44253" lon="2.629315"><ele></ele><time>2021-3-5T17:5:13Z</time></trkpt>
<trkpt lat="48.442651" lon="2.629479"><ele></ele><time>2021-3-5T17:5:16Z</time></trkpt>
<trkpt lat="48.442697" lon="2.629641"><ele></ele><time>2021-3-5T17:5:19Z</time></trkpt>
<trkpt lat="48.442795" lon="2.629766"><ele></ele><time>2021-3-5T17:5:22Z</time></trkpt>
<trkpt lat="48.442904" lon="2.629877"><ele></ele><time>2021-3-5T17:5:25Z</time></trkpt>
<trkpt lat="48.442961" lon="2.629979"><ele></ele><time>2021-3-5T17:5:28Z</time></trkpt>
<trkpt lat="48.443041" lon="2.630092"><ele></ele><time>2021-3-5T17:5:31Z</time></trkpt>
<trkpt lat="48.443174" lon="2.630301"><ele></ele><time>2021-3-5T17:5:34Z</time></trkpt>
<trkpt lat="48.443254" lon="2.630481"><ele></ele><time>2021-3-5T17:5:37Z</time></trkpt>
<trkpt lat="48.443356" lon="2.630654"><ele></ele><time>2021-3-5T17:5:40Z</time></trkpt>
<trkpt lat="48.443435" lon="2.630865"><ele></ele><time>2021-3-5T17:5:43Z</time></trkpt>
<trkpt lat="48.443491" lon="2.631086"><ele></ele><time>2021-3-5T17:5:46Z</time></trkpt>
<trkpt lat="48.443559" lon="2.631285"><ele></ele><time>2021-3-5T17:5:49Z</time></trkpt>
<trkpt lat="48.44363" lon="2.631501"><ele></ele><time>2021-3-5T17:5:52Z</time></trkpt>
<trkpt lat="48.443672" lon="2.631653"><ele></ele><time>2021-3-5T17:5:55Z</time></trkpt>
<trkpt lat="48.443768" lon="2.631832"><ele></ele><time>2021-3-5T17:5:58Z</time></trkpt>
<trkpt lat="48.443832" lon="2.632033"><ele></ele><time>2021-3-5T17:6:1Z</time></trkpt>
<trkpt lat="48.44387" lon="2.632252"><ele></ele><time>2021-3-5T17:6:4Z</time></trkpt>
<trkpt lat="48.443967" lon="2.632451"><ele></ele><time>2021-3-5T17:6:7Z</time></trkpt>
<trkpt lat="48.444012" lon="2.632617"><ele></ele><time>2021-3-5T17:6:10Z</time></trkpt>
<trkpt lat="48.444031" lon="2.632811"><ele></ele><time>2021-3-5T17:6:13Z</time></trkpt>
<trkpt lat="48.444019" lon="2.632949"><ele></ele><time>2021-3-5T17:6:16Z</time></trkpt>
<trkpt lat="48.444039" lon="2.633098"><ele></ele><time>2021-3-5T17:6:19Z</time></trkpt>
<trkpt lat="48.444069" lon="2.63328"><ele></ele><time>2021-3-5T17:6:22Z</time></trkpt>
<trkpt lat="48.444057" lon="2.633412"><ele></ele><time>2021-3-5T17:6:25Z</time></trkpt>
<trkpt lat="48.444082" lon="2.633554"><ele></ele><time>2021-3-5T17:6:28Z</time></trkpt>
<trkpt lat="48.444108" lon="2.633732"><ele></ele><time>2021-3-5T17:6:31Z</time></trkpt>
<trkpt lat="48.44417" lon="2.6339"><ele></ele><time>2021-3-5T17:6:34Z</time></trkpt>
<trkpt lat="48.444259" lon="2.634133"><ele></ele><time>2021-3-5T17:6:37Z</time></trkpt>
<trkpt lat="48.444291" lon="2.634372"><ele></ele><time>2021-3-5T17:6:40Z</time></trkpt>
<trkpt lat="48.444396" lon="2.634613"><ele></ele><time>2021-3-5T17:6:43Z</time></trkpt>
<trkpt lat="48.444465" lon="2.634777"><ele></ele><time>2021-3-5T17:6:46Z</time></trkpt>
<trkpt lat="48.44453" lon="2.634957"><ele></ele><time>2021-3-5T17:6:49Z</time></trkpt>
<trkpt lat="48.444615" lon="2.635143"><ele></ele><time>2021-3-5T17:6:52Z</time></trkpt>
<trkpt lat="48.44471" lon="2.635336"><ele></ele><time>2021-3-5T17:6:55Z</time></trkpt>
<trkpt lat="48.444834" lon="2.635586"><ele></ele><time>2021-3-5T17:6:58Z</time></trkpt>
<trkpt lat="48.444952" lon="2.635717"><ele></ele><time>2021-3-5T17:7:1Z</time></trkpt>
<trkpt lat="48.445011" lon="2.635921"><ele></ele><time>2021-3-5T17:7:4Z</time></trkpt>
<trkpt lat="48.44506" lon="2.636084"><ele></ele><time>2021-3-5T17:7:7Z</time></trkpt>
<trkpt lat="48.445136" lon="2.636281"><ele></ele><time>2021-3-5T17:7:10Z</time></trkpt>
<trkpt lat="48.445195" lon="2.636456"><ele></ele><time>2021-3-5T17:7:13Z</time></trkpt>
<trkpt lat="48.445272" lon="2.636573"><ele></ele><time>2021-3-5T17:7:16Z</time></trkpt>
<trkpt lat="48.445288" lon="2.636695"><ele></ele><time>2021-3-5T17:7:19Z</time></trkpt>
<trkpt lat="48.445259" lon="2.636824"><ele></ele><time>2021-3-5T17:7:22Z</time></trkpt>
<trkpt lat="48.445205" lon="2.636954"><ele></ele><time>2021-3-5T17:7:25Z</time></trkpt>
<trkpt lat="48.445146" lon="2.637086"><ele></ele><time>2021-3-5T17:7:28Z</time></trkpt>
<trkpt lat="48.445106" lon="2.637233"><ele></ele><time>2021-3-5T17:7:31Z</time></trkpt>
<trkpt lat="48.445123" lon="2.63738"><ele></ele><time>2021-3-5T17:7:34Z</time></trkpt>
<trkpt lat="48.44515" lon="2.63741"><ele></ele><time>2021-3-5T17:7:37Z</time></trkpt>
<trkpt lat="48.44515" lon="2.637422"><ele></ele><time>2021-3-5T17:7:40Z</time></trkpt>
<trkpt lat="48.445146" lon="2.637427"><ele></ele><time>2021-3-5T17:7:43Z</time></trkpt>
<trkpt lat="48.445143" lon="2.637429"><ele></ele><time>2021-3-5T17:7:46Z</time></trkpt>
<trkpt lat="48.445143" lon="2.637428"><ele></ele><time>2021-3-5T17:7:49Z</time></trkpt>
<trkpt lat="48.445143" lon="2.637428"><ele></ele><time>2021-3-5T17:7:52Z</time></trkpt>
<trkpt lat="48.445143" lon="2.637428"><ele></ele><time>2021-3-5T17:7:55Z</time></trkpt>
<trkpt lat="48.445143" lon="2.637428"><ele></ele><time>2021-3-5T17:7:58Z</time></trkpt>
<trkpt lat="48.445144" lon="2.637428"><ele></ele><time>2021-3-5T17:8:1Z</time></trkpt>
<trkpt lat="48.445161" lon="2.637444"><ele></ele><time>2021-3-5T17:8:4Z</time></trkpt>
<trkpt lat="48.445223" lon="2.637459"><ele></ele><time>2021-3-5T17:8:7Z</time></trkpt>
<trkpt lat="48.445287" lon="2.637389"><ele></ele><time>2021-3-5T17:8:10Z</time></trkpt>
<trkpt lat="48.445334" lon="2.637309"><ele></ele><time>2021-3-5T17:8:13Z</time></trkpt>
<trkpt lat="48.445385" lon="2.637293"><ele></ele><time>2021-3-5T17:8:16Z</time></trkpt>
<trkpt lat="48.445437" lon="2.637304"><ele></ele><time>2021-3-5T17:8:19Z</time></trkpt>
<trkpt lat="48.445494" lon="2.637351"><ele></ele><time>2021-3-5T17:8:22Z</time></trkpt>
<trkpt lat="48.44561" lon="2.63739"><ele></ele><time>2021-3-5T17:8:25Z</time></trkpt>
<trkpt lat="48.445764" lon="2.637402"><ele></ele><time>2021-3-5T17:8:28Z</time></trkpt>
<trkpt lat="48.445856" lon="2.637374"><ele></ele><time>2021-3-5T17:8:31Z</time></trkpt>
<trkpt lat="48.445907" lon="2.637465"><ele></ele><time>2021-3-5T17:8:34Z</time></trkpt>
<trkpt lat="48.445933" lon="2.637552"><ele></ele><time>2021-3-5T17:8:37Z</time></trkpt>
<trkpt lat="48.445954" lon="2.637675"><ele></ele><time>2021-3-5T17:8:40Z</time></trkpt>
<trkpt lat="48.445996" lon="2.637794"><ele></ele><time>2021-3-5T17:8:43Z</time></trkpt>
<trkpt lat="48.44603" lon="2.637902"><ele></ele><time>2021-3-5T17:8:46Z</time></trkpt>
<trkpt lat="48.446096" lon="2.638001"><ele></ele><time>2021-3-5T17:8:49Z</time></trkpt>
<trkpt lat="48.446112" lon="2.638119"><ele></ele><time>2021-3-5T17:8:52Z</time></trkpt>
<trkpt lat="48.446101" lon="2.63827"><ele></ele><time>2021-3-5T17:8:55Z</time></trkpt>
<trkpt lat="48.446073" lon="2.638411"><ele></ele><time>2021-3-5T17:8:58Z</time></trkpt>
<trkpt lat="48.446047" lon="2.638564"><ele></ele><time>2021-3-5T17:9:1Z</time></trkpt>
<trkpt lat="48.446012" lon="2.638715"><ele></ele><time>2021-3-5T17:9:4Z</time></trkpt>
<trkpt lat="48.445997" lon="2.63887"><ele></ele><time>2021-3-5T17:9:7Z</time></trkpt>
<trkpt lat="48.445979" lon="2.639011"><ele></ele><time>2021-3-5T17:9:10Z</time></trkpt>
<trkpt lat="48.445958" lon="2.639168"><ele></ele><time>2021-3-5T17:9:13Z</time></trkpt>
<trkpt lat="48.445914" lon="2.639347"><ele></ele><time>2021-3-5T17:9:16Z</time></trkpt>
<trkpt lat="48.445887" lon="2.639543"><ele></ele><time>2021-3-5T17:9:19Z</time></trkpt>
<trkpt lat="48.445846" lon="2.63972"><ele></ele><time>2021-3-5T17:9:22Z</time></trkpt>
<trkpt lat="48.445796" lon="2.639883"><ele></ele><time>2021-3-5T17:9:25Z</time></trkpt>
<trkpt lat="48.445775" lon="2.640027"><ele></ele><time>2021-3-5T17:9:28Z</time></trkpt>
<trkpt lat="48.445733" lon="2.640169"><ele></ele><time>2021-3-5T17:9:31Z</time></trkpt>
<trkpt lat="48.445692" lon="2.640321"><ele></ele><time>2021-3-5T17:9:34Z</time></trkpt>
<trkpt lat="48.445665" lon="2.64048"><ele></ele><time>2021-3-5T17:9:37Z</time></trkpt>
<trkpt lat="48.445665" lon="2.640654"><ele></ele><time>2021-3-5T17:9:40Z</time></trkpt>
<trkpt lat="48.445631" lon="2.640764"><ele></ele><time>2021-3-5T17:9:43Z</time></trkpt>
<trkpt lat="48.445576" lon="2.640881"><ele></ele><time>2021-3-5T17:9:46Z</time></trkpt>
<trkpt lat="48.445545" lon="2.641056"><ele></ele><time>2021-3-5T17:9:49Z</time></trkpt>
<trkpt lat="48.445507" lon="2.641245"><ele></ele><time>2021-3-5T17:9:52Z</time></trkpt>
<trkpt lat="48.445433" lon="2.641453"><ele></ele><time>2021-3-5T17:9:55Z</time></trkpt>
<trkpt lat="48.445415" lon="2.641645"><ele></ele><time>2021-3-5T17:9:58Z</time></trkpt>
<trkpt lat="48.445427" lon="2.641845"><ele></ele><time>2021-3-5T17:10:1Z</time></trkpt>
<trkpt lat="48.445441" lon="2.642036"><ele></ele><time>2021-3-5T17:10:4Z</time></trkpt>
<trkpt lat="48.445447" lon="2.642135"><ele></ele><time>2021-3-5T17:10:7Z</time></trkpt>
<trkpt lat="48.445435" lon="2.642291"><ele></ele><time>2021-3-5T17:10:10Z</time></trkpt>
<trkpt lat="48.445405" lon="2.642449"><ele></ele><time>2021-3-5T17:10:13Z</time></trkpt>
<trkpt lat="48.445364" lon="2.64263"><ele></ele><time>2021-3-5T17:10:16Z</time></trkpt>
<trkpt lat="48.44538" lon="2.642821"><ele></ele><time>2021-3-5T17:10:19Z</time></trkpt>
<trkpt lat="48.445393" lon="2.642963"><ele></ele><time>2021-3-5T17:10:22Z</time></trkpt>
<trkpt lat="48.445397" lon="2.643147"><ele></ele><time>2021-3-5T17:10:25Z</time></trkpt>
<trkpt lat="48.445391" lon="2.643327"><ele></ele><time>2021-3-5T17:10:28Z</time></trkpt>
<trkpt lat="48.445375" lon="2.643531"><ele></ele><time>2021-3-5T17:10:31Z</time></trkpt>
<trkpt lat="48.445349" lon="2.643718"><ele></ele><time>2021-3-5T17:10:34Z</time></trkpt>
<trkpt lat="48.445327" lon="2.643876"><ele></ele><time>2021-3-5T17:10:37Z</time></trkpt>
<trkpt lat="48.445276" lon="2.643998"><ele></ele><time>2021-3-5T17:10:40Z</time></trkpt>
<trkpt lat="48.4452" lon="2.644093"><ele></ele><time>2021-3-5T17:10:43Z</time></trkpt>
<trkpt lat="48.445135" lon="2.644218"><ele></ele><time>2021-3-5T17:10:46Z</time></trkpt>
<trkpt lat="48.445091" lon="2.644338"><ele></ele><time>2021-3-5T17:10:49Z</time></trkpt>
<trkpt lat="48.445043" lon="2.644456"><ele></ele><time>2021-3-5T17:10:52Z</time></trkpt>
<trkpt lat="48.445035" lon="2.644594"><ele></ele><time>2021-3-5T17:10:55Z</time></trkpt>
<trkpt lat="48.445014" lon="2.64474"><ele></ele><time>2021-3-5T17:10:58Z</time></trkpt>
<trkpt lat="48.444998" lon="2.644901"><ele></ele><time>2021-3-5T17:11:1Z</time></trkpt>
<trkpt lat="48.444964" lon="2.645059"><ele></ele><time>2021-3-5T17:11:4Z</time></trkpt>
<trkpt lat="48.444939" lon="2.645192"><ele></ele><time>2021-3-5T17:11:7Z</time></trkpt>
<trkpt lat="48.444893" lon="2.645344"><ele></ele><time>2021-3-5T17:11:10Z</time></trkpt>
<trkpt lat="48.444872" lon="2.645501"><ele></ele><time>2021-3-5T17:11:13Z</time></trkpt>
<trkpt lat="48.444829" lon="2.645634"><ele></ele><time>2021-3-5T17:11:16Z</time></trkpt>
<trkpt lat="48.444797" lon="2.645761"><ele></ele><time>2021-3-5T17:11:19Z</time></trkpt>
<trkpt lat="48.444795" lon="2.645881"><ele></ele><time>2021-3-5T17:11:22Z</time></trkpt>
<trkpt lat="48.44478" lon="2.646027"><ele></ele><time>2021-3-5T17:11:25Z</time></trkpt>
<trkpt lat="48.444762" lon="2.646155"><ele></ele><time>2021-3-5T17:11:28Z</time></trkpt>
<trkpt lat="48.44473" lon="2.646318"><ele></ele><time>2021-3-5T17:11:31Z</time></trkpt>
<trkpt lat="48.444697" lon="2.646477"><ele></ele><time>2021-3-5T17:11:34Z</time></trkpt>
<trkpt lat="48.444645" lon="2.646631"><ele></ele><time>2021-3-5T17:11:37Z</time></trkpt>
<trkpt lat="48.444594" lon="2.646784"><ele></ele><time>2021-3-5T17:11:40Z</time></trkpt>
<trkpt lat="48.44453" lon="2.646963"><ele></ele><time>2021-3-5T17:11:43Z</time></trkpt>
<trkpt lat="48.444435" lon="2.647195"><ele></ele><time>2021-3-5T17:11:46Z</time></trkpt>
<trkpt lat="48.444428" lon="2.647425"><ele></ele><time>2021-3-5T17:11:49Z</time></trkpt>
<trkpt lat="48.444439" lon="2.64767"><ele></ele><time>2021-3-5T17:11:52Z</time></trkpt>
<trkpt lat="48.444445" lon="2.647882"><ele></ele><time>2021-3-5T17:11:55Z</time></trkpt>
<trkpt lat="48.444439" lon="2.648026"><ele></ele><time>2021-3-5T17:11:58Z</time></trkpt>
<trkpt lat="48.444443" lon="2.648231"><ele></ele><time>2021-3-5T17:12:1Z</time></trkpt>
<trkpt lat="48.444434" lon="2.64841"><ele></ele><time>2021-3-5T17:12:4Z</time></trkpt>
<trkpt lat="48.444419" lon="2.648584"><ele></ele><time>2021-3-5T17:12:7Z</time></trkpt>
<trkpt lat="48.444432" lon="2.648742"><ele></ele><time>2021-3-5T17:12:10Z</time></trkpt>
<trkpt lat="48.444372" lon="2.648898"><ele></ele><time>2021-3-5T17:12:13Z</time></trkpt>
<trkpt lat="48.444277" lon="2.649073"><ele></ele><time>2021-3-5T17:12:16Z</time></trkpt>
<trkpt lat="48.444198" lon="2.649262"><ele></ele><time>2021-3-5T17:12:19Z</time></trkpt>
<trkpt lat="48.444101" lon="2.649503"><ele></ele><time>2021-3-5T17:12:22Z</time></trkpt>
<trkpt lat="48.444042" lon="2.649669"><ele></ele><time>2021-3-5T17:12:25Z</time></trkpt>
<trkpt lat="48.444026" lon="2.649818"><ele></ele><time>2021-3-5T17:12:28Z</time></trkpt>
<trkpt lat="48.443956" lon="2.649982"><ele></ele><time>2021-3-5T17:12:31Z</time></trkpt>
<trkpt lat="48.443958" lon="2.650198"><ele></ele><time>2021-3-5T17:12:34Z</time></trkpt>
<trkpt lat="48.443918" lon="2.650414"><ele></ele><time>2021-3-5T17:12:37Z</time></trkpt>
<trkpt lat="48.44391" lon="2.650617"><ele></ele><time>2021-3-5T17:12:40Z</time></trkpt>
<trkpt lat="48.443898" lon="2.650816"><ele></ele><time>2021-3-5T17:12:43Z</time></trkpt>
<trkpt lat="48.443884" lon="2.651053"><ele></ele><time>2021-3-5T17:12:46Z</time></trkpt>
<trkpt lat="48.443885" lon="2.651261"><ele></ele><time>2021-3-5T17:12:49Z</time></trkpt>
<trkpt lat="48.443865" lon="2.651437"><ele></ele><time>2021-3-5T17:12:52Z</time></trkpt>
<trkpt lat="48.443838" lon="2.651621"><ele></ele><time>2021-3-5T17:12:55Z</time></trkpt>
<trkpt lat="48.443823" lon="2.651777"><ele></ele><time>2021-3-5T17:12:58Z</time></trkpt>
<trkpt lat="48.44385" lon="2.651838"><ele></ele><time>2021-3-5T17:13:1Z</time></trkpt>
<trkpt lat="48.443903" lon="2.651883"><ele></ele><time>2021-3-5T17:13:4Z</time></trkpt>
<trkpt lat="48.44397" lon="2.651936"><ele></ele><time>2021-3-5T17:13:7Z</time></trkpt>
<trkpt lat="48.444022" lon="2.65198"><ele></ele><time>2021-3-5T17:13:10Z</time></trkpt>
<trkpt lat="48.444083" lon="2.652038"><ele></ele><time>2021-3-5T17:13:13Z</time></trkpt>
<trkpt lat="48.444107" lon="2.652093"><ele></ele><time>2021-3-5T17:13:16Z</time></trkpt>
<trkpt lat="48.444153" lon="2.652137"><ele></ele><time>2021-3-5T17:13:19Z</time></trkpt>
<trkpt lat="48.444221" lon="2.652199"><ele></ele><time>2021-3-5T17:13:22Z</time></trkpt>
<trkpt lat="48.444281" lon="2.652254"><ele></ele><time>2021-3-5T17:13:25Z</time></trkpt>
<trkpt lat="48.444352" lon="2.652297"><ele></ele><time>2021-3-5T17:13:28Z</time></trkpt>
<trkpt lat="48.444398" lon="2.65236"><ele></ele><time>2021-3-5T17:13:31Z</time></trkpt>
<trkpt lat="48.444457" lon="2.652452"><ele></ele><time>2021-3-5T17:13:34Z</time></trkpt>
<trkpt lat="48.444497" lon="2.652551"><ele></ele><time>2021-3-5T17:13:37Z</time></trkpt>
<trkpt lat="48.444542" lon="2.652627"><ele></ele><time>2021-3-5T17:13:40Z</time></trkpt>
<trkpt lat="48.44459" lon="2.652692"><ele></ele><time>2021-3-5T17:13:43Z</time></trkpt>
<trkpt lat="48.444645" lon="2.65278"><ele></ele><time>2021-3-5T17:13:46Z</time></trkpt>
<trkpt lat="48.444668" lon="2.652844"><ele></ele><time>2021-3-5T17:13:49Z</time></trkpt>
<trkpt lat="48.444724" lon="2.652891"><ele></ele><time>2021-3-5T17:13:52Z</time></trkpt>
<trkpt lat="48.444779" lon="2.65292"><ele></ele><time>2021-3-5T17:13:55Z</time></trkpt>
<trkpt lat="48.444821" lon="2.652964"><ele></ele><time>2021-3-5T17:13:58Z</time></trkpt>
<trkpt lat="48.44487" lon="2.652987"><ele></ele><time>2021-3-5T17:14:1Z</time></trkpt>
<trkpt lat="48.44491" lon="2.653003"><ele></ele><time>2021-3-5T17:14:4Z</time></trkpt>
<trkpt lat="48.444953" lon="2.653015"><ele></ele><time>2021-3-5T17:14:7Z</time></trkpt>
<trkpt lat="48.444998" lon="2.652987"><ele></ele><time>2021-3-5T17:14:10Z</time></trkpt>
<trkpt lat="48.445036" lon="2.652982"><ele></ele><time>2021-3-5T17:14:13Z</time></trkpt>
<trkpt lat="48.445072" lon="2.652981"><ele></ele><time>2021-3-5T17:14:16Z</time></trkpt>
<trkpt lat="48.445122" lon="2.652964"><ele></ele><time>2021-3-5T17:14:19Z</time></trkpt>
<trkpt lat="48.445136" lon="2.652937"><ele></ele><time>2021-3-5T17:14:22Z</time></trkpt>
<trkpt lat="48.445161" lon="2.652925"><ele></ele><time>2021-3-5T17:14:25Z</time></trkpt>
<trkpt lat="48.445179" lon="2.652926"><ele></ele><time>2021-3-5T17:14:28Z</time></trkpt>
<trkpt lat="48.445182" lon="2.652933"><ele></ele><time>2021-3-5T17:14:31Z</time></trkpt>
<trkpt lat="48.445194" lon="2.652936"><ele></ele><time>2021-3-5T17:14:34Z</time></trkpt>
<trkpt lat="48.44519" lon="2.652937"><ele></ele><time>2021-3-5T17:14:37Z</time></trkpt>
<trkpt lat="48.44518" lon="2.652937"><ele></ele><time>2021-3-5T17:14:40Z</time></trkpt>
<trkpt lat="48.445178" lon="2.652939"><ele></ele><time>2021-3-5T17:14:43Z</time></trkpt>
<trkpt lat="48.445181" lon="2.652936"><ele></ele><time>2021-3-5T17:14:46Z</time></trkpt>
<trkpt lat="48.445181" lon="2.652939"><ele></ele><time>2021-3-5T17:14:49Z</time></trkpt>
<trkpt lat="48.445178" lon="2.652931"><ele></ele><time>2021-3-5T17:14:52Z</time></trkpt>
<trkpt lat="48.445197" lon="2.652922"><ele></ele><time>2021-3-5T17:14:55Z</time></trkpt>
<trkpt lat="48.445228" lon="2.652922"><ele></ele><time>2021-3-5T17:14:58Z</time></trkpt>
<trkpt lat="48.445282" lon="2.652919"><ele></ele><time>2021-3-5T17:15:1Z</time></trkpt>
<trkpt lat="48.445312" lon="2.652927"><ele></ele><time>2021-3-5T17:15:4Z</time></trkpt>
<trkpt lat="48.445328" lon="2.652943"><ele></ele><time>2021-3-5T17:15:7Z</time></trkpt>
<trkpt lat="48.44535" lon="2.652988"><ele></ele><time>2021-3-5T17:15:10Z</time></trkpt>
<trkpt lat="48.445374" lon="2.652974"><ele></ele><time>2021-3-5T17:15:13Z</time></trkpt>
<trkpt lat="48.445383" lon="2.652975"><ele></ele><time>2021-3-5T17:15:16Z</time></trkpt>
<trkpt lat="48.445389" lon="2.652978"><ele></ele><time>2021-3-5T17:15:19Z</time></trkpt>
<trkpt lat="48.445403" lon="2.652983"><ele></ele><time>2021-3-5T17:15:22Z</time></trkpt>
<trkpt lat="48.445411" lon="2.652992"><ele></ele><time>2021-3-5T17:15:25Z</time></trkpt>
<trkpt lat="48.445415" lon="2.65298"><ele></ele><time>2021-3-5T17:15:28Z</time></trkpt>
<trkpt lat="48.445422" lon="2.652969"><ele></ele><time>2021-3-5T17:15:31Z</time></trkpt>
<trkpt lat="48.445441" lon="2.652973"><ele></ele><time>2021-3-5T17:15:34Z</time></trkpt>
<trkpt lat="48.445461" lon="2.652979"><ele></ele><time>2021-3-5T17:15:37Z</time></trkpt>
<trkpt lat="48.445481" lon="2.652987"><ele></ele><time>2021-3-5T17:15:40Z</time></trkpt>
<trkpt lat="48.445486" lon="2.652985"><ele></ele><time>2021-3-5T17:15:43Z</time></trkpt>
<trkpt lat="48.445511" lon="2.652996"><ele></ele><time>2021-3-5T17:15:46Z</time></trkpt>
<trkpt lat="48.44553" lon="2.653004"><ele></ele><time>2021-3-5T17:15:49Z</time></trkpt>
<trkpt lat="48.44555" lon="2.653026"><ele></ele><time>2021-3-5T17:15:52Z</time></trkpt>
<trkpt lat="48.445563" lon="2.653029"><ele></ele><time>2021-3-5T17:15:55Z</time></trkpt>
<trkpt lat="48.445586" lon="2.653032"><ele></ele><time>2021-3-5T17:15:58Z</time></trkpt>
<trkpt lat="48.445612" lon="2.653018"><ele></ele><time>2021-3-5T17:16:1Z</time></trkpt>
<trkpt lat="48.44563" lon="2.653001"><ele></ele><time>2021-3-5T17:16:4Z</time></trkpt>
<trkpt lat="48.445657" lon="2.652998"><ele></ele><time>2021-3-5T17:16:7Z</time></trkpt>
<trkpt lat="48.445672" lon="2.652977"><ele></ele><time>2021-3-5T17:16:10Z</time></trkpt>
<trkpt lat="48.445691" lon="2.652974"><ele></ele><time>2021-3-5T17:16:13Z</time></trkpt>
<trkpt lat="48.445723" lon="2.652976"><ele></ele><time>2021-3-5T17:16:16Z</time></trkpt>
<trkpt lat="48.445743" lon="2.652976"><ele></ele><time>2021-3-5T17:16:19Z</time></trkpt>
<trkpt lat="48.445755" lon="2.652992"><ele></ele><time>2021-3-5T17:16:22Z</time></trkpt>
<trkpt lat="48.445766" lon="2.653011"><ele></ele><time>2021-3-5T17:16:25Z</time></trkpt>
<trkpt lat="48.445779" lon="2.65304"><ele></ele><time>2021-3-5T17:16:28Z</time></trkpt>
<trkpt lat="48.445802" lon="2.653062"><ele></ele><time>2021-3-5T17:16:31Z</time></trkpt>
<trkpt lat="48.445806" lon="2.653066"><ele></ele><time>2021-3-5T17:16:34Z</time></trkpt>
<trkpt lat="48.445822" lon="2.653069"><ele></ele><time>2021-3-5T17:16:37Z</time></trkpt>
<trkpt lat="48.445871" lon="2.6531"><ele></ele><time>2021-3-5T17:16:40Z</time></trkpt>
<trkpt lat="48.445914" lon="2.65312"><ele></ele><time>2021-3-5T17:16:43Z</time></trkpt>
<trkpt lat="48.445973" lon="2.653131"><ele></ele><time>2021-3-5T17:16:46Z</time></trkpt>
<trkpt lat="48.446058" lon="2.653187"><ele></ele><time>2021-3-5T17:16:49Z</time></trkpt>
<trkpt lat="48.44619" lon="2.65332"><ele></ele><time>2021-3-5T17:16:52Z</time></trkpt>
<trkpt lat="48.446319" lon="2.653439"><ele></ele><time>2021-3-5T17:16:55Z</time></trkpt>
<trkpt lat="48.446452" lon="2.653539"><ele></ele><time>2021-3-5T17:16:58Z</time></trkpt>
<trkpt lat="48.446552" lon="2.653642"><ele></ele><time>2021-3-5T17:17:1Z</time></trkpt>
<trkpt lat="48.446643" lon="2.653719"><ele></ele><time>2021-3-5T17:17:4Z</time></trkpt>
<trkpt lat="48.44673" lon="2.653781"><ele></ele><time>2021-3-5T17:17:7Z</time></trkpt>
<trkpt lat="48.446781" lon="2.653812"><ele></ele><time>2021-3-5T17:17:10Z</time></trkpt>
<trkpt lat="48.446825" lon="2.653856"><ele></ele><time>2021-3-5T17:17:13Z</time></trkpt>
<trkpt lat="48.446856" lon="2.653902"><ele></ele><time>2021-3-5T17:17:16Z</time></trkpt>
<trkpt lat="48.446893" lon="2.65394"><ele></ele><time>2021-3-5T17:17:19Z</time></trkpt>
<trkpt lat="48.44691" lon="2.653974"><ele></ele><time>2021-3-5T17:17:22Z</time></trkpt>
<trkpt lat="48.446942" lon="2.654011"><ele></ele><time>2021-3-5T17:17:25Z</time></trkpt>
<trkpt lat="48.446971" lon="2.654027"><ele></ele><time>2021-3-5T17:17:28Z</time></trkpt>
<trkpt lat="48.446976" lon="2.654023"><ele></ele><time>2021-3-5T17:17:31Z</time></trkpt>
<trkpt lat="48.446979" lon="2.654035"><ele></ele><time>2021-3-5T17:17:34Z</time></trkpt>
<trkpt lat="48.446988" lon="2.654062"><ele></ele><time>2021-3-5T17:17:37Z</time></trkpt>
<trkpt lat="48.447" lon="2.654083"><ele></ele><time>2021-3-5T17:17:40Z</time></trkpt>
<trkpt lat="48.447022" lon="2.65411"><ele></ele><time>2021-3-5T17:17:43Z</time></trkpt>
<trkpt lat="48.447038" lon="2.654129"><ele></ele><time>2021-3-5T17:17:46Z</time></trkpt>
<trkpt lat="48.447061" lon="2.65415"><ele></ele><time>2021-3-5T17:17:49Z</time></trkpt>
<trkpt lat="48.447089" lon="2.654168"><ele></ele><time>2021-3-5T17:17:52Z</time></trkpt>
<trkpt lat="48.44711" lon="2.654189"><ele></ele><time>2021-3-5T17:17:55Z</time></trkpt>
<trkpt lat="48.447107" lon="2.654196"><ele></ele><time>2021-3-5T17:17:58Z</time></trkpt>
<trkpt lat="48.447109" lon="2.654193"><ele></ele><time>2021-3-5T17:18:1Z</time></trkpt>
<trkpt lat="48.447113" lon="2.654186"><ele></ele><time>2021-3-5T17:18:4Z</time></trkpt>
<trkpt lat="48.44713" lon="2.654206"><ele></ele><time>2021-3-5T17:18:7Z</time></trkpt>
<trkpt lat="48.447166" lon="2.654253"><ele></ele><time>2021-3-5T17:18:10Z</time></trkpt>
<trkpt lat="48.4472" lon="2.654311"><ele></ele><time>2021-3-5T17:18:13Z</time></trkpt>
<trkpt lat="48.447257" lon="2.654395"><ele></ele><time>2021-3-5T17:18:16Z</time></trkpt>
<trkpt lat="48.447287" lon="2.654516"><ele></ele><time>2021-3-5T17:18:19Z</time></trkpt>
<trkpt lat="48.447277" lon="2.654604"><ele></ele><time>2021-3-5T17:18:22Z</time></trkpt>
<trkpt lat="48.447263" lon="2.654707"><ele></ele><time>2021-3-5T17:18:25Z</time></trkpt>
<trkpt lat="48.447242" lon="2.654857"><ele></ele><time>2021-3-5T17:18:28Z</time></trkpt>
<trkpt lat="48.447229" lon="2.655023"><ele></ele><time>2021-3-5T17:18:31Z</time></trkpt>
<trkpt lat="48.447205" lon="2.655165"><ele></ele><time>2021-3-5T17:18:34Z</time></trkpt>
<trkpt lat="48.447185" lon="2.655321"><ele></ele><time>2021-3-5T17:18:37Z</time></trkpt>
<trkpt lat="48.447155" lon="2.655476"><ele></ele><time>2021-3-5T17:18:40Z</time></trkpt>
<trkpt lat="48.447133" lon="2.655673"><ele></ele><time>2021-3-5T17:18:43Z</time></trkpt>
<trkpt lat="48.447094" lon="2.655835"><ele></ele><time>2021-3-5T17:18:46Z</time></trkpt>
<trkpt lat="48.447056" lon="2.655981"><ele></ele><time>2021-3-5T17:18:49Z</time></trkpt>
<trkpt lat="48.44703" lon="2.656119"><ele></ele><time>2021-3-5T17:18:52Z</time></trkpt>
<trkpt lat="48.44699" lon="2.656277"><ele></ele><time>2021-3-5T17:18:55Z</time></trkpt>
<trkpt lat="48.446964" lon="2.656421"><ele></ele><time>2021-3-5T17:18:58Z</time></trkpt>
<trkpt lat="48.44693" lon="2.656555"><ele></ele><time>2021-3-5T17:19:1Z</time></trkpt>
<trkpt lat="48.446901" lon="2.656711"><ele></ele><time>2021-3-5T17:19:4Z</time></trkpt>
<trkpt lat="48.446888" lon="2.656872"><ele></ele><time>2021-3-5T17:19:7Z</time></trkpt>
<trkpt lat="48.446861" lon="2.657006"><ele></ele><time>2021-3-5T17:19:10Z</time></trkpt>
<trkpt lat="48.446808" lon="2.657147"><ele></ele><time>2021-3-5T17:19:13Z</time></trkpt>
<trkpt lat="48.446771" lon="2.657293"><ele></ele><time>2021-3-5T17:19:16Z</time></trkpt>
<trkpt lat="48.44676" lon="2.657429"><ele></ele><time>2021-3-5T17:19:19Z</time></trkpt>
<trkpt lat="48.446734" lon="2.657558"><ele></ele><time>2021-3-5T17:19:22Z</time></trkpt>
<trkpt lat="48.446712" lon="2.657658"><ele></ele><time>2021-3-5T17:19:25Z</time></trkpt>
<trkpt lat="48.446686" lon="2.657748"><ele></ele><time>2021-3-5T17:19:28Z</time></trkpt>
<trkpt lat="48.446681" lon="2.657839"><ele></ele><time>2021-3-5T17:19:31Z</time></trkpt>
<trkpt lat="48.446682" lon="2.657925"><ele></ele><time>2021-3-5T17:19:34Z</time></trkpt>
<trkpt lat="48.446658" lon="2.657999"><ele></ele><time>2021-3-5T17:19:37Z</time></trkpt>
<trkpt lat="48.446641" lon="2.658062"><ele></ele><time>2021-3-5T17:19:40Z</time></trkpt>
<trkpt lat="48.446635" lon="2.658115"><ele></ele><time>2021-3-5T17:19:43Z</time></trkpt>
<trkpt lat="48.446643" lon="2.658179"><ele></ele><time>2021-3-5T17:19:46Z</time></trkpt>
<trkpt lat="48.446654" lon="2.658246"><ele></ele><time>2021-3-5T17:19:49Z</time></trkpt>
<trkpt lat="48.446646" lon="2.658287"><ele></ele><time>2021-3-5T17:19:52Z</time></trkpt>
<trkpt lat="48.446619" lon="2.658335"><ele></ele><time>2021-3-5T17:19:55Z</time></trkpt>
<trkpt lat="48.446594" lon="2.658378"><ele></ele><time>2021-3-5T17:19:58Z</time></trkpt>
<trkpt lat="48.446585" lon="2.658428"><ele></ele><time>2021-3-5T17:20:1Z</time></trkpt>
<trkpt lat="48.44656" lon="2.658474"><ele></ele><time>2021-3-5T17:20:4Z</time></trkpt>
<trkpt lat="48.446519" lon="2.658524"><ele></ele><time>2021-3-5T17:20:7Z</time></trkpt>
<trkpt lat="48.44651" lon="2.658574"><ele></ele><time>2021-3-5T17:20:10Z</time></trkpt>
<trkpt lat="48.446496" lon="2.658614"><ele></ele><time>2021-3-5T17:20:13Z</time></trkpt>
<trkpt lat="48.446482" lon="2.658659"><ele></ele><time>2021-3-5T17:20:16Z</time></trkpt>
<trkpt lat="48.446467" lon="2.658705"><ele></ele><time>2021-3-5T17:20:19Z</time></trkpt>
<trkpt lat="48.446444" lon="2.658741"><ele></ele><time>2021-3-5T17:20:22Z</time></trkpt>
<trkpt lat="48.44642" lon="2.658781"><ele></ele><time>2021-3-5T17:20:25Z</time></trkpt>
<trkpt lat="48.446398" lon="2.658821"><ele></ele><time>2021-3-5T17:20:28Z</time></trkpt>
<trkpt lat="48.446377" lon="2.658862"><ele></ele><time>2021-3-5T17:20:31Z</time></trkpt>
<trkpt lat="48.446361" lon="2.658909"><ele></ele><time>2021-3-5T17:20:34Z</time></trkpt>
<trkpt lat="48.446351" lon="2.658977"><ele></ele><time>2021-3-5T17:20:37Z</time></trkpt>
<trkpt lat="48.446342" lon="2.659041"><ele></ele><time>2021-3-5T17:20:40Z</time></trkpt>
<trkpt lat="48.446333" lon="2.65908"><ele></ele><time>2021-3-5T17:20:43Z</time></trkpt>
<trkpt lat="48.446313" lon="2.65913"><ele></ele><time>2021-3-5T17:20:46Z</time></trkpt>
<trkpt lat="48.446294" lon="2.659168"><ele></ele><time>2021-3-5T17:20:49Z</time></trkpt>
<trkpt lat="48.446271" lon="2.659207"><ele></ele><time>2021-3-5T17:20:52Z</time></trkpt>
<trkpt lat="48.446249" lon="2.659234"><ele></ele><time>2021-3-5T17:20:55Z</time></trkpt>
<trkpt lat="48.446245" lon="2.659234"><ele></ele><time>2021-3-5T17:20:58Z</time></trkpt>
<trkpt lat="48.446239" lon="2.659243"><ele></ele><time>2021-3-5T17:21:1Z</time></trkpt>
<trkpt lat="48.446223" lon="2.659266"><ele></ele><time>2021-3-5T17:21:4Z</time></trkpt>
<trkpt lat="48.446209" lon="2.659309"><ele></ele><time>2021-3-5T17:21:7Z</time></trkpt>
<trkpt lat="48.4462" lon="2.659365"><ele></ele><time>2021-3-5T17:21:10Z</time></trkpt>
<trkpt lat="48.446192" lon="2.659389"><ele></ele><time>2021-3-5T17:21:13Z</time></trkpt>
<trkpt lat="48.446193" lon="2.659382"><ele></ele><time>2021-3-5T17:21:16Z</time></trkpt>
<trkpt lat="48.446196" lon="2.659381"><ele></ele><time>2021-3-5T17:21:19Z</time></trkpt>
<trkpt lat="48.446201" lon="2.659386"><ele></ele><time>2021-3-5T17:21:22Z</time></trkpt>
<trkpt lat="48.446205" lon="2.659386"><ele></ele><time>2021-3-5T17:21:25Z</time></trkpt>
<trkpt lat="48.446206" lon="2.659387"><ele></ele><time>2021-3-5T17:21:28Z</time></trkpt>
<trkpt lat="48.446207" lon="2.659387"><ele></ele><time>2021-3-5T17:21:31Z</time></trkpt>
<trkpt lat="48.446207" lon="2.659387"><ele></ele><time>2021-3-5T17:21:34Z</time></trkpt>
<trkpt lat="48.446207" lon="2.659387"><ele></ele><time>2021-3-5T17:21:37Z</time></trkpt>
<trkpt lat="48.446202" lon="2.659398"><ele></ele><time>2021-3-5T17:21:40Z</time></trkpt>
<trkpt lat="48.446179" lon="2.659437"><ele></ele><time>2021-3-5T17:21:43Z</time></trkpt>
<trkpt lat="48.446142" lon="2.659479"><ele></ele><time>2021-3-5T17:21:46Z</time></trkpt>
<trkpt lat="48.446109" lon="2.659549"><ele></ele><time>2021-3-5T17:21:49Z</time></trkpt>
<trkpt lat="48.446079" lon="2.659594"><ele></ele><time>2021-3-5T17:21:52Z</time></trkpt>
<trkpt lat="48.446044" lon="2.659639"><ele></ele><time>2021-3-5T17:21:55Z</time></trkpt>
<trkpt lat="48.445987" lon="2.659734"><ele></ele><time>2021-3-5T17:21:58Z</time></trkpt>
<trkpt lat="48.445922" lon="2.659853"><ele></ele><time>2021-3-5T17:22:1Z</time></trkpt>
<trkpt lat="48.445868" lon="2.659982"><ele></ele><time>2021-3-5T17:22:4Z</time></trkpt>
<trkpt lat="48.445833" lon="2.660128"><ele></ele><time>2021-3-5T17:22:7Z</time></trkpt>
<trkpt lat="48.44579" lon="2.660257"><ele></ele><time>2021-3-5T17:22:10Z</time></trkpt>
<trkpt lat="48.445737" lon="2.660401"><ele></ele><time>2021-3-5T17:22:13Z</time></trkpt>
<trkpt lat="48.445682" lon="2.660535"><ele></ele><time>2021-3-5T17:22:16Z</time></trkpt>
<trkpt lat="48.445623" lon="2.660669"><ele></ele><time>2021-3-5T17:22:19Z</time></trkpt>
<trkpt lat="48.445568" lon="2.660803"><ele></ele><time>2021-3-5T17:22:22Z</time></trkpt>
<trkpt lat="48.445504" lon="2.660929"><ele></ele><time>2021-3-5T17:22:25Z</time></trkpt>
<trkpt lat="48.445444" lon="2.661074"><ele></ele><time>2021-3-5T17:22:28Z</time></trkpt>
<trkpt lat="48.445389" lon="2.661209"><ele></ele><time>2021-3-5T17:22:31Z</time></trkpt>
<trkpt lat="48.445336" lon="2.661338"><ele></ele><time>2021-3-5T17:22:34Z</time></trkpt>
<trkpt lat="48.445269" lon="2.661451"><ele></ele><time>2021-3-5T17:22:37Z</time></trkpt>
<trkpt lat="48.445228" lon="2.661563"><ele></ele><time>2021-3-5T17:22:40Z</time></trkpt>
<trkpt lat="48.44523" lon="2.661665"><ele></ele><time>2021-3-5T17:22:43Z</time></trkpt>
<trkpt lat="48.445294" lon="2.66176"><ele></ele><time>2021-3-5T17:22:46Z</time></trkpt>
<trkpt lat="48.44538" lon="2.661831"><ele></ele><time>2021-3-5T17:22:49Z</time></trkpt>
<trkpt lat="48.445476" lon="2.661911"><ele></ele><time>2021-3-5T17:22:52Z</time></trkpt>
<trkpt lat="48.445566" lon="2.66199"><ele></ele><time>2021-3-5T17:22:55Z</time></trkpt>
<trkpt lat="48.445637" lon="2.662076"><ele></ele><time>2021-3-5T17:22:58Z</time></trkpt>
<trkpt lat="48.445745" lon="2.662177"><ele></ele><time>2021-3-5T17:23:1Z</time></trkpt>
<trkpt lat="48.445831" lon="2.662268"><ele></ele><time>2021-3-5T17:23:4Z</time></trkpt>
<trkpt lat="48.445927" lon="2.662355"><ele></ele><time>2021-3-5T17:23:7Z</time></trkpt>
<trkpt lat="48.446011" lon="2.662433"><ele></ele><time>2021-3-5T17:23:10Z</time></trkpt>
<trkpt lat="48.446115" lon="2.662519"><ele></ele><time>2021-3-5T17:23:13Z</time></trkpt>
<trkpt lat="48.446211" lon="2.662609"><ele></ele><time>2021-3-5T17:23:16Z</time></trkpt>
<trkpt lat="48.446293" lon="2.662711"><ele></ele><time>2021-3-5T17:23:19Z</time></trkpt>
<trkpt lat="48.446377" lon="2.662821"><ele></ele><time>2021-3-5T17:23:22Z</time></trkpt>
<trkpt lat="48.446457" lon="2.662899"><ele></ele><time>2021-3-5T17:23:25Z</time></trkpt>
<trkpt lat="48.446562" lon="2.663013"><ele></ele><time>2021-3-5T17:23:28Z</time></trkpt>
<trkpt lat="48.446683" lon="2.663103"><ele></ele><time>2021-3-5T17:23:31Z</time></trkpt>
<trkpt lat="48.446777" lon="2.663195"><ele></ele><time>2021-3-5T17:23:34Z</time></trkpt>
<trkpt lat="48.446877" lon="2.663274"><ele></ele><time>2021-3-5T17:23:37Z</time></trkpt>
<trkpt lat="48.446998" lon="2.663368"><ele></ele><time>2021-3-5T17:23:40Z</time></trkpt>
<trkpt lat="48.447106" lon="2.663491"><ele></ele><time>2021-3-5T17:23:43Z</time></trkpt>
<trkpt lat="48.447214" lon="2.663568"><ele></ele><time>2021-3-5T17:23:46Z</time></trkpt>
<trkpt lat="48.447328" lon="2.663677"><ele></ele><time>2021-3-5T17:23:49Z</time></trkpt>
<trkpt lat="48.44743" lon="2.663798"><ele></ele><time>2021-3-5T17:23:52Z</time></trkpt>
<trkpt lat="48.447544" lon="2.663925"><ele></ele><time>2021-3-5T17:23:55Z</time></trkpt>
<trkpt lat="48.44764" lon="2.664017"><ele></ele><time>2021-3-5T17:23:58Z</time></trkpt>
<trkpt lat="48.447748" lon="2.664129"><ele></ele><time>2021-3-5T17:24:1Z</time></trkpt>
<trkpt lat="48.447853" lon="2.664204"><ele></ele><time>2021-3-5T17:24:4Z</time></trkpt>
<trkpt lat="48.447965" lon="2.664303"><ele></ele><time>2021-3-5T17:24:7Z</time></trkpt>
<trkpt lat="48.448076" lon="2.664382"><ele></ele><time>2021-3-5T17:24:10Z</time></trkpt>
<trkpt lat="48.448197" lon="2.664521"><ele></ele><time>2021-3-5T17:24:13Z</time></trkpt>
<trkpt lat="48.448312" lon="2.664627"><ele></ele><time>2021-3-5T17:24:16Z</time></trkpt>
<trkpt lat="48.448428" lon="2.66476"><ele></ele><time>2021-3-5T17:24:19Z</time></trkpt>
<trkpt lat="48.448542" lon="2.664882"><ele></ele><time>2021-3-5T17:24:22Z</time></trkpt>
<trkpt lat="48.448672" lon="2.664992"><ele></ele><time>2021-3-5T17:24:25Z</time></trkpt>
<trkpt lat="48.448776" lon="2.665116"><ele></ele><time>2021-3-5T17:24:28Z</time></trkpt>
<trkpt lat="48.448864" lon="2.665214"><ele></ele><time>2021-3-5T17:24:31Z</time></trkpt>
<trkpt lat="48.449002" lon="2.665348"><ele></ele><time>2021-3-5T17:24:34Z</time></trkpt>
<trkpt lat="48.449106" lon="2.665457"><ele></ele><time>2021-3-5T17:24:37Z</time></trkpt>
<trkpt lat="48.449215" lon="2.665575"><ele></ele><time>2021-3-5T17:24:40Z</time></trkpt>
<trkpt lat="48.449292" lon="2.665654"><ele></ele><time>2021-3-5T17:24:43Z</time></trkpt>
<trkpt lat="48.449419" lon="2.665763"><ele></ele><time>2021-3-5T17:24:46Z</time></trkpt>
<trkpt lat="48.449558" lon="2.665858"><ele></ele><time>2021-3-5T17:24:49Z</time></trkpt>
<trkpt lat="48.449667" lon="2.665955"><ele></ele><time>2021-3-5T17:24:52Z</time></trkpt>
<trkpt lat="48.449791" lon="2.66608"><ele></ele><time>2021-3-5T17:24:55Z</time></trkpt>
<trkpt lat="48.4499" lon="2.666164"><ele></ele><time>2021-3-5T17:24:58Z</time></trkpt>
<trkpt lat="48.449978" lon="2.66629"><ele></ele><time>2021-3-5T17:25:1Z</time></trkpt>
<trkpt lat="48.450043" lon="2.666438"><ele></ele><time>2021-3-5T17:25:4Z</time></trkpt>
<trkpt lat="48.450009" lon="2.666629"><ele></ele><time>2021-3-5T17:25:7Z</time></trkpt>
<trkpt lat="48.44996" lon="2.666797"><ele></ele><time>2021-3-5T17:25:10Z</time></trkpt>
<trkpt lat="48.449915" lon="2.66699"><ele></ele><time>2021-3-5T17:25:13Z</time></trkpt>
<trkpt lat="48.449864" lon="2.667176"><ele></ele><time>2021-3-5T17:25:16Z</time></trkpt>
<trkpt lat="48.449818" lon="2.667375"><ele></ele><time>2021-3-5T17:25:19Z</time></trkpt>
<trkpt lat="48.449772" lon="2.667582"><ele></ele><time>2021-3-5T17:25:22Z</time></trkpt>
<trkpt lat="48.449743" lon="2.6678"><ele></ele><time>2021-3-5T17:25:25Z</time></trkpt>
<trkpt lat="48.449669" lon="2.668016"><ele></ele><time>2021-3-5T17:25:28Z</time></trkpt>
<trkpt lat="48.449594" lon="2.668164"><ele></ele><time>2021-3-5T17:25:31Z</time></trkpt>
<trkpt lat="48.449541" lon="2.668372"><ele></ele><time>2021-3-5T17:25:34Z</time></trkpt>
<trkpt lat="48.44949" lon="2.668563"><ele></ele><time>2021-3-5T17:25:37Z</time></trkpt>
<trkpt lat="48.449461" lon="2.668719"><ele></ele><time>2021-3-5T17:25:40Z</time></trkpt>
<trkpt lat="48.449395" lon="2.668922"><ele></ele><time>2021-3-5T17:25:43Z</time></trkpt>
<trkpt lat="48.449349" lon="2.669101"><ele></ele><time>2021-3-5T17:25:46Z</time></trkpt>
<trkpt lat="48.449306" lon="2.669261"><ele></ele><time>2021-3-5T17:25:49Z</time></trkpt>
<trkpt lat="48.44925" lon="2.669497"><ele></ele><time>2021-3-5T17:25:52Z</time></trkpt>
<trkpt lat="48.449201" lon="2.669688"><ele></ele><time>2021-3-5T17:25:55Z</time></trkpt>
<trkpt lat="48.449141" lon="2.669835"><ele></ele><time>2021-3-5T17:25:58Z</time></trkpt>
<trkpt lat="48.449086" lon="2.669977"><ele></ele><time>2021-3-5T17:26:1Z</time></trkpt>
<trkpt lat="48.449035" lon="2.670032"><ele></ele><time>2021-3-5T17:26:4Z</time></trkpt>
<trkpt lat="48.449023" lon="2.670089"><ele></ele><time>2021-3-5T17:26:7Z</time></trkpt>
<trkpt lat="48.449013" lon="2.670165"><ele></ele><time>2021-3-5T17:26:10Z</time></trkpt>
<trkpt lat="48.449051" lon="2.670204"><ele></ele><time>2021-3-5T17:26:13Z</time></trkpt>
<trkpt lat="48.449089" lon="2.670264"><ele></ele><time>2021-3-5T17:26:16Z</time></trkpt>
<trkpt lat="48.449137" lon="2.670447"><ele></ele><time>2021-3-5T17:26:19Z</time></trkpt>
<trkpt lat="48.449185" lon="2.670589"><ele></ele><time>2021-3-5T17:26:22Z</time></trkpt>
<trkpt lat="48.449191" lon="2.670694"><ele></ele><time>2021-3-5T17:26:25Z</time></trkpt>
<trkpt lat="48.44919" lon="2.670803"><ele></ele><time>2021-3-5T17:26:28Z</time></trkpt>
<trkpt lat="48.449223" lon="2.670937"><ele></ele><time>2021-3-5T17:26:31Z</time></trkpt>
<trkpt lat="48.449208" lon="2.671014"><ele></ele><time>2021-3-5T17:26:34Z</time></trkpt>
<trkpt lat="48.449217" lon="2.671084"><ele></ele><time>2021-3-5T17:26:37Z</time></trkpt>
<trkpt lat="48.449253" lon="2.6711"><ele></ele><time>2021-3-5T17:26:40Z</time></trkpt>
<trkpt lat="48.449266" lon="2.671112"><ele></ele><time>2021-3-5T17:26:43Z</time></trkpt>
<trkpt lat="48.449268" lon="2.671115"><ele></ele><time>2021-3-5T17:26:46Z</time></trkpt>
<trkpt lat="48.449251" lon="2.671093"><ele></ele><time>2021-3-5T17:26:49Z</time></trkpt>
<trkpt lat="48.449248" lon="2.671089"><ele></ele><time>2021-3-5T17:26:52Z</time></trkpt>
<trkpt lat="48.449247" lon="2.67109"><ele></ele><time>2021-3-5T17:26:55Z</time></trkpt>
<trkpt lat="48.449246" lon="2.67109"><ele></ele><time>2021-3-5T17:26:58Z</time></trkpt>
<trkpt lat="48.449243" lon="2.671112"><ele></ele><time>2021-3-5T17:27:1Z</time></trkpt>
<trkpt lat="48.449256" lon="2.671188"><ele></ele><time>2021-3-5T17:27:4Z</time></trkpt>
<trkpt lat="48.44926" lon="2.67132"><ele></ele><time>2021-3-5T17:27:7Z</time></trkpt>
<trkpt lat="48.449268" lon="2.671462"><ele></ele><time>2021-3-5T17:27:10Z</time></trkpt>
<trkpt lat="48.449279" lon="2.671598"><ele></ele><time>2021-3-5T17:27:13Z</time></trkpt>
<trkpt lat="48.449314" lon="2.671764"><ele></ele><time>2021-3-5T17:27:16Z</time></trkpt>
<trkpt lat="48.449363" lon="2.671949"><ele></ele><time>2021-3-5T17:27:19Z</time></trkpt>
<trkpt lat="48.449401" lon="2.672131"><ele></ele><time>2021-3-5T17:27:22Z</time></trkpt>
<trkpt lat="48.44943" lon="2.672339"><ele></ele><time>2021-3-5T17:27:25Z</time></trkpt>
<trkpt lat="48.449468" lon="2.672502"><ele></ele><time>2021-3-5T17:27:28Z</time></trkpt>
<trkpt lat="48.44944" lon="2.672754"><ele></ele><time>2021-3-5T17:27:31Z</time></trkpt>
<trkpt lat="48.449457" lon="2.672937"><ele></ele><time>2021-3-5T17:27:34Z</time></trkpt>
<trkpt lat="48.449509" lon="2.673202"><ele></ele><time>2021-3-5T17:27:37Z</time></trkpt>
<trkpt lat="48.449584" lon="2.673452"><ele></ele><time>2021-3-5T17:27:40Z</time></trkpt>
<trkpt lat="48.449609" lon="2.673685"><ele></ele><time>2021-3-5T17:27:43Z</time></trkpt>
<trkpt lat="48.449678" lon="2.673916"><ele></ele><time>2021-3-5T17:27:46Z</time></trkpt>
<trkpt lat="48.449674" lon="2.674144"><ele></ele><time>2021-3-5T17:27:49Z</time></trkpt>
<trkpt lat="48.449667" lon="2.67432"><ele></ele><time>2021-3-5T17:27:52Z</time></trkpt>
<trkpt lat="48.449672" lon="2.674348"><ele></ele><time>2021-3-5T17:27:55Z</time></trkpt>
<trkpt lat="48.449677" lon="2.674344"><ele></ele><time>2021-3-5T17:27:58Z</time></trkpt>
<trkpt lat="48.449669" lon="2.674336"><ele></ele><time>2021-3-5T17:28:1Z</time></trkpt>
<trkpt lat="48.449654" lon="2.674334"><ele></ele><time>2021-3-5T17:28:4Z</time></trkpt>
<trkpt lat="48.449653" lon="2.674325"><ele></ele><time>2021-3-5T17:28:7Z</time></trkpt>
<trkpt lat="48.449647" lon="2.674327"><ele></ele><time>2021-3-5T17:28:10Z</time></trkpt>
<trkpt lat="48.449619" lon="2.67432"><ele></ele><time>2021-3-5T17:28:13Z</time></trkpt>
<trkpt lat="48.449607" lon="2.674338"><ele></ele><time>2021-3-5T17:28:16Z</time></trkpt>
<trkpt lat="48.449604" lon="2.674369"><ele></ele><time>2021-3-5T17:28:19Z</time></trkpt>
<trkpt lat="48.449583" lon="2.674393"><ele></ele><time>2021-3-5T17:28:22Z</time></trkpt>
<trkpt lat="48.449563" lon="2.674425"><ele></ele><time>2021-3-5T17:28:25Z</time></trkpt>
<trkpt lat="48.44956" lon="2.674463"><ele></ele><time>2021-3-5T17:28:28Z</time></trkpt>
<trkpt lat="48.449551" lon="2.674486"><ele></ele><time>2021-3-5T17:28:31Z</time></trkpt>
<trkpt lat="48.449551" lon="2.674523"><ele></ele><time>2021-3-5T17:28:34Z</time></trkpt>
<trkpt lat="48.449566" lon="2.674565"><ele></ele><time>2021-3-5T17:28:37Z</time></trkpt>
<trkpt lat="48.449579" lon="2.674606"><ele></ele><time>2021-3-5T17:28:40Z</time></trkpt>
<trkpt lat="48.449594" lon="2.67467"><ele></ele><time>2021-3-5T17:28:43Z</time></trkpt>
<trkpt lat="48.449604" lon="2.67472"><ele></ele><time>2021-3-5T17:28:46Z</time></trkpt>
<trkpt lat="48.449596" lon="2.674759"><ele></ele><time>2021-3-5T17:28:49Z</time></trkpt>
<trkpt lat="48.449597" lon="2.674782"><ele></ele><time>2021-3-5T17:28:52Z</time></trkpt>
<trkpt lat="48.449623" lon="2.674801"><ele></ele><time>2021-3-5T17:28:55Z</time></trkpt>
<trkpt lat="48.44965" lon="2.674791"><ele></ele><time>2021-3-5T17:28:58Z</time></trkpt>
<trkpt lat="48.449676" lon="2.674775"><ele></ele><time>2021-3-5T17:29:1Z</time></trkpt>
<trkpt lat="48.449694" lon="2.674771"><ele></ele><time>2021-3-5T17:29:4Z</time></trkpt>
<trkpt lat="48.449706" lon="2.67478"><ele></ele><time>2021-3-5T17:29:7Z</time></trkpt>
<trkpt lat="48.449715" lon="2.674813"><ele></ele><time>2021-3-5T17:29:10Z</time></trkpt>
<trkpt lat="48.449716" lon="2.674826"><ele></ele><time>2021-3-5T17:29:13Z</time></trkpt>
<trkpt lat="48.449728" lon="2.674887"><ele></ele><time>2021-3-5T17:29:16Z</time></trkpt>
<trkpt lat="48.449739" lon="2.67501"><ele></ele><time>2021-3-5T17:29:19Z</time></trkpt>
<trkpt lat="48.449773" lon="2.675161"><ele></ele><time>2021-3-5T17:29:22Z</time></trkpt>
<trkpt lat="48.449788" lon="2.675346"><ele></ele><time>2021-3-5T17:29:25Z</time></trkpt>
<trkpt lat="48.449792" lon="2.67551"><ele></ele><time>2021-3-5T17:29:28Z</time></trkpt>
<trkpt lat="48.449804" lon="2.675682"><ele></ele><time>2021-3-5T17:29:31Z</time></trkpt>
<trkpt lat="48.449854" lon="2.675953"><ele></ele><time>2021-3-5T17:29:34Z</time></trkpt>
<trkpt lat="48.44987" lon="2.676246"><ele></ele><time>2021-3-5T17:29:37Z</time></trkpt>
<trkpt lat="48.449907" lon="2.676555"><ele></ele><time>2021-3-5T17:29:40Z</time></trkpt>
<trkpt lat="48.450014" lon="2.676818"><ele></ele><time>2021-3-5T17:29:43Z</time></trkpt>
<trkpt lat="48.450152" lon="2.67709"><ele></ele><time>2021-3-5T17:29:46Z</time></trkpt>
<trkpt lat="48.450295" lon="2.677382"><ele></ele><time>2021-3-5T17:29:49Z</time></trkpt>
<trkpt lat="48.4504" lon="2.677669"><ele></ele><time>2021-3-5T17:29:52Z</time></trkpt>
<trkpt lat="48.45052" lon="2.677989"><ele></ele><time>2021-3-5T17:29:55Z</time></trkpt>
<trkpt lat="48.450583" lon="2.678378"><ele></ele><time>2021-3-5T17:29:58Z</time></trkpt>
<trkpt lat="48.450697" lon="2.678712"><ele></ele><time>2021-3-5T17:30:1Z</time></trkpt>
<trkpt lat="48.450758" lon="2.679011"><ele></ele><time>2021-3-5T17:30:4Z</time></trkpt>
<trkpt lat="48.450805" lon="2.679326"><ele></ele><time>2021-3-5T17:30:7Z</time></trkpt>
<trkpt lat="48.450892" lon="2.679678"><ele></ele><time>2021-3-5T17:30:10Z</time></trkpt>
<trkpt lat="48.450946" lon="2.679961"><ele></ele><time>2021-3-5T17:30:13Z</time></trkpt>
<trkpt lat="48.451034" lon="2.68025"><ele></ele><time>2021-3-5T17:30:16Z</time></trkpt>
<trkpt lat="48.451115" lon="2.680528"><ele></ele><time>2021-3-5T17:30:19Z</time></trkpt>
<trkpt lat="48.451211" lon="2.680856"><ele></ele><time>2021-3-5T17:30:22Z</time></trkpt>
<trkpt lat="48.451336" lon="2.681167"><ele></ele><time>2021-3-5T17:30:25Z</time></trkpt>
<trkpt lat="48.451421" lon="2.681437"><ele></ele><time>2021-3-5T17:30:28Z</time></trkpt>
<trkpt lat="48.451546" lon="2.681713"><ele></ele><time>2021-3-5T17:30:31Z</time></trkpt>
<trkpt lat="48.451632" lon="2.681962"><ele></ele><time>2021-3-5T17:30:34Z</time></trkpt>
<trkpt lat="48.451756" lon="2.682166"><ele></ele><time>2021-3-5T17:30:37Z</time></trkpt>
<trkpt lat="48.451826" lon="2.68243"><ele></ele><time>2021-3-5T17:30:40Z</time></trkpt>
<trkpt lat="48.451913" lon="2.682644"><ele></ele><time>2021-3-5T17:30:43Z</time></trkpt>
<trkpt lat="48.451976" lon="2.682834"><ele></ele><time>2021-3-5T17:30:46Z</time></trkpt>
<trkpt lat="48.451993" lon="2.682988"><ele></ele><time>2021-3-5T17:30:49Z</time></trkpt>
<trkpt lat="48.452024" lon="2.683117"><ele></ele><time>2021-3-5T17:30:52Z</time></trkpt>
<trkpt lat="48.452094" lon="2.683252"><ele></ele><time>2021-3-5T17:30:55Z</time></trkpt>
<trkpt lat="48.452195" lon="2.683388"><ele></ele><time>2021-3-5T17:30:58Z</time></trkpt>
<trkpt lat="48.452304" lon="2.683534"><ele></ele><time>2021-3-5T17:31:1Z</time></trkpt>
<trkpt lat="48.452425" lon="2.683705"><ele></ele><time>2021-3-5T17:31:4Z</time></trkpt>
<trkpt lat="48.452556" lon="2.683845"><ele></ele><time>2021-3-5T17:31:7Z</time></trkpt>
<trkpt lat="48.452698" lon="2.683993"><ele></ele><time>2021-3-5T17:31:10Z</time></trkpt>
<trkpt lat="48.452821" lon="2.684157"><ele></ele><time>2021-3-5T17:31:13Z</time></trkpt>
<trkpt lat="48.452943" lon="2.684319"><ele></ele><time>2021-3-5T17:31:16Z</time></trkpt>
<trkpt lat="48.453055" lon="2.684479"><ele></ele><time>2021-3-5T17:31:19Z</time></trkpt>
<trkpt lat="48.45318" lon="2.68461"><ele></ele><time>2021-3-5T17:31:22Z</time></trkpt>
<trkpt lat="48.453296" lon="2.684741"><ele></ele><time>2021-3-5T17:31:25Z</time></trkpt>
<trkpt lat="48.453403" lon="2.684853"><ele></ele><time>2021-3-5T17:31:28Z</time></trkpt>
<trkpt lat="48.45343" lon="2.684901"><ele></ele><time>2021-3-5T17:31:31Z</time></trkpt>
<trkpt lat="48.453369" lon="2.684978"><ele></ele><time>2021-3-5T17:31:34Z</time></trkpt>
<trkpt lat="48.453281" lon="2.684983"><ele></ele><time>2021-3-5T17:31:37Z</time></trkpt>
<trkpt lat="48.453191" lon="2.68501"><ele></ele><time>2021-3-5T17:31:40Z</time></trkpt>
<trkpt lat="48.453145" lon="2.685151"><ele></ele><time>2021-3-5T17:31:43Z</time></trkpt>
<trkpt lat="48.45318" lon="2.68535"><ele></ele><time>2021-3-5T17:31:46Z</time></trkpt>
<trkpt lat="48.453214" lon="2.685501"><ele></ele><time>2021-3-5T17:31:49Z</time></trkpt>
<trkpt lat="48.453287" lon="2.685672"><ele></ele><time>2021-3-5T17:31:52Z</time></trkpt>
<trkpt lat="48.453353" lon="2.685834"><ele></ele><time>2021-3-5T17:31:55Z</time></trkpt>
<trkpt lat="48.453398" lon="2.685997"><ele></ele><time>2021-3-5T17:31:58Z</time></trkpt>
<trkpt lat="48.453436" lon="2.686168"><ele></ele><time>2021-3-5T17:32:1Z</time></trkpt>
<trkpt lat="48.453456" lon="2.686354"><ele></ele><time>2021-3-5T17:32:4Z</time></trkpt>
<trkpt lat="48.453497" lon="2.686584"><ele></ele><time>2021-3-5T17:32:7Z</time></trkpt>
<trkpt lat="48.453581" lon="2.686814"><ele></ele><time>2021-3-5T17:32:10Z</time></trkpt>
<trkpt lat="48.453601" lon="2.687116"><ele></ele><time>2021-3-5T17:32:13Z</time></trkpt>
<trkpt lat="48.453631" lon="2.687428"><ele></ele><time>2021-3-5T17:32:16Z</time></trkpt>
<trkpt lat="48.453674" lon="2.687688"><ele></ele><time>2021-3-5T17:32:19Z</time></trkpt>
<trkpt lat="48.453703" lon="2.687975"><ele></ele><time>2021-3-5T17:32:22Z</time></trkpt>
<trkpt lat="48.453775" lon="2.688224"><ele></ele><time>2021-3-5T17:32:25Z</time></trkpt>
<trkpt lat="48.453786" lon="2.688501"><ele></ele><time>2021-3-5T17:32:28Z</time></trkpt>
<trkpt lat="48.453826" lon="2.688765"><ele></ele><time>2021-3-5T17:32:31Z</time></trkpt>
<trkpt lat="48.453848" lon="2.688976"><ele></ele><time>2021-3-5T17:32:34Z</time></trkpt>
<trkpt lat="48.453872" lon="2.689227"><ele></ele><time>2021-3-5T17:32:37Z</time></trkpt>
<trkpt lat="48.453894" lon="2.68941"><ele></ele><time>2021-3-5T17:32:40Z</time></trkpt>
<trkpt lat="48.453945" lon="2.68963"><ele></ele><time>2021-3-5T17:32:43Z</time></trkpt>
<trkpt lat="48.453965" lon="2.68985"><ele></ele><time>2021-3-5T17:32:46Z</time></trkpt>
<trkpt lat="48.453998" lon="2.690041"><ele></ele><time>2021-3-5T17:32:49Z</time></trkpt>
<trkpt lat="48.454026" lon="2.690193"><ele></ele><time>2021-3-5T17:32:52Z</time></trkpt>
<trkpt lat="48.454047" lon="2.690349"><ele></ele><time>2021-3-5T17:32:55Z</time></trkpt>
<trkpt lat="48.454023" lon="2.690439"><ele></ele><time>2021-3-5T17:32:58Z</time></trkpt>
<trkpt lat="48.453984" lon="2.690446"><ele></ele><time>2021-3-5T17:33:1Z</time></trkpt>
<trkpt lat="48.453947" lon="2.690452"><ele></ele><time>2021-3-5T17:33:4Z</time></trkpt>
<trkpt lat="48.453921" lon="2.690453"><ele></ele><time>2021-3-5T17:33:7Z</time></trkpt>
<trkpt lat="48.453911" lon="2.690435"><ele></ele><time>2021-3-5T17:33:10Z</time></trkpt>
<trkpt lat="48.453903" lon="2.69039"><ele></ele><time>2021-3-5T17:33:13Z</time></trkpt>
<trkpt lat="48.453893" lon="2.69037"><ele></ele><time>2021-3-5T17:33:16Z</time></trkpt>
<trkpt lat="48.453898" lon="2.690387"><ele></ele><time>2021-3-5T17:33:19Z</time></trkpt>
<trkpt lat="48.453901" lon="2.6904"><ele></ele><time>2021-3-5T17:33:22Z</time></trkpt>
<trkpt lat="48.453897" lon="2.690403"><ele></ele><time>2021-3-5T17:33:25Z</time></trkpt>
<trkpt lat="48.453877" lon="2.690388"><ele></ele><time>2021-3-5T17:33:28Z</time></trkpt>
<trkpt lat="48.453841" lon="2.690364"><ele></ele><time>2021-3-5T17:33:31Z</time></trkpt>
<trkpt lat="48.45377" lon="2.690324"><ele></ele><time>2021-3-5T17:33:34Z</time></trkpt>
<trkpt lat="48.453598" lon="2.690284"><ele></ele><time>2021-3-5T17:33:37Z</time></trkpt>
<trkpt lat="48.453494" lon="2.690235"><ele></ele><time>2021-3-5T17:33:40Z</time></trkpt>
<trkpt lat="48.453375" lon="2.690191"><ele></ele><time>2021-3-5T17:33:43Z</time></trkpt>
<trkpt lat="48.453256" lon="2.690173"><ele></ele><time>2021-3-5T17:33:46Z</time></trkpt>
<trkpt lat="48.453194" lon="2.690109"><ele></ele><time>2021-3-5T17:33:49Z</time></trkpt>
<trkpt lat="48.453161" lon="2.690062"><ele></ele><time>2021-3-5T17:33:52Z</time></trkpt>
<trkpt lat="48.453138" lon="2.690043"><ele></ele><time>2021-3-5T17:33:55Z</time></trkpt>
<trkpt lat="48.453126" lon="2.69001"><ele></ele><time>2021-3-5T17:33:58Z</time></trkpt>
<trkpt lat="48.453121" lon="2.689954"><ele></ele><time>2021-3-5T17:34:1Z</time></trkpt>
<trkpt lat="48.453107" lon="2.689899"><ele></ele><time>2021-3-5T17:34:4Z</time></trkpt>
<trkpt lat="48.453059" lon="2.689876"><ele></ele><time>2021-3-5T17:34:7Z</time></trkpt>
<trkpt lat="48.453013" lon="2.689842"><ele></ele><time>2021-3-5T17:34:10Z</time></trkpt>
<trkpt lat="48.452999" lon="2.689826"><ele></ele><time>2021-3-5T17:34:13Z</time></trkpt>
<trkpt lat="48.452989" lon="2.689801"><ele></ele><time>2021-3-5T17:34:16Z</time></trkpt>
<trkpt lat="48.452972" lon="2.689757"><ele></ele><time>2021-3-5T17:34:19Z</time></trkpt>
<trkpt lat="48.452935" lon="2.689714"><ele></ele><time>2021-3-5T17:34:22Z</time></trkpt>
<trkpt lat="48.452834" lon="2.689578"><ele></ele><time>2021-3-5T17:34:25Z</time></trkpt>
<trkpt lat="48.452717" lon="2.689495"><ele></ele><time>2021-3-5T17:34:28Z</time></trkpt>
<trkpt lat="48.452628" lon="2.689417"><ele></ele><time>2021-3-5T17:34:31Z</time></trkpt>
<trkpt lat="48.452593" lon="2.689376"><ele></ele><time>2021-3-5T17:34:34Z</time></trkpt>
<trkpt lat="48.452552" lon="2.689354"><ele></ele><time>2021-3-5T17:34:37Z</time></trkpt>
<trkpt lat="48.452508" lon="2.689318"><ele></ele><time>2021-3-5T17:34:40Z</time></trkpt>
<trkpt lat="48.452469" lon="2.689277"><ele></ele><time>2021-3-5T17:34:43Z</time></trkpt>
<trkpt lat="48.452424" lon="2.689242"><ele></ele><time>2021-3-5T17:34:46Z</time></trkpt>
<trkpt lat="48.452391" lon="2.689234"><ele></ele><time>2021-3-5T17:34:49Z</time></trkpt>
<trkpt lat="48.452357" lon="2.689215"><ele></ele><time>2021-3-5T17:34:52Z</time></trkpt>
<trkpt lat="48.452325" lon="2.689199"><ele></ele><time>2021-3-5T17:34:55Z</time></trkpt>
<trkpt lat="48.452289" lon="2.689178"><ele></ele><time>2021-3-5T17:34:58Z</time></trkpt>
<trkpt lat="48.452261" lon="2.689159"><ele></ele><time>2021-3-5T17:35:1Z</time></trkpt>
<trkpt lat="48.452229" lon="2.689162"><ele></ele><time>2021-3-5T17:35:4Z</time></trkpt>
<trkpt lat="48.45219" lon="2.689166"><ele></ele><time>2021-3-5T17:35:7Z</time></trkpt>
<trkpt lat="48.452148" lon="2.689176"><ele></ele><time>2021-3-5T17:35:10Z</time></trkpt>
<trkpt lat="48.452116" lon="2.689183"><ele></ele><time>2021-3-5T17:35:13Z</time></trkpt>
<trkpt lat="48.452078" lon="2.689165"><ele></ele><time>2021-3-5T17:35:16Z</time></trkpt>
<trkpt lat="48.452048" lon="2.689177"><ele></ele><time>2021-3-5T17:35:19Z</time></trkpt>
<trkpt lat="48.451995" lon="2.689256"><ele></ele><time>2021-3-5T17:35:22Z</time></trkpt>
<trkpt lat="48.451953" lon="2.689322"><ele></ele><time>2021-3-5T17:35:25Z</time></trkpt>
<trkpt lat="48.45186" lon="2.689502"><ele></ele><time>2021-3-5T17:35:28Z</time></trkpt>
<trkpt lat="48.451819" lon="2.689627"><ele></ele><time>2021-3-5T17:35:31Z</time></trkpt>
<trkpt lat="48.451811" lon="2.689698"><ele></ele><time>2021-3-5T17:35:34Z</time></trkpt>
<trkpt lat="48.451738" lon="2.689761"><ele></ele><time>2021-3-5T17:35:37Z</time></trkpt>
<trkpt lat="48.451647" lon="2.689851"><ele></ele><time>2021-3-5T17:35:40Z</time></trkpt>
<trkpt lat="48.451521" lon="2.689997"><ele></ele><time>2021-3-5T17:35:43Z</time></trkpt>
<trkpt lat="48.451401" lon="2.690178"><ele></ele><time>2021-3-5T17:35:46Z</time></trkpt>
<trkpt lat="48.451254" lon="2.690431"><ele></ele><time>2021-3-5T17:35:49Z</time></trkpt>
<trkpt lat="48.451147" lon="2.690583"><ele></ele><time>2021-3-5T17:35:52Z</time></trkpt>
<trkpt lat="48.451074" lon="2.690791"><ele></ele><time>2021-3-5T17:35:55Z</time></trkpt>
<trkpt lat="48.45108" lon="2.690999"><ele></ele><time>2021-3-5T17:35:58Z</time></trkpt>
<trkpt lat="48.451114" lon="2.691173"><ele></ele><time>2021-3-5T17:36:1Z</time></trkpt>
<trkpt lat="48.451111" lon="2.691351"><ele></ele><time>2021-3-5T17:36:4Z</time></trkpt>
<trkpt lat="48.450999" lon="2.691487"><ele></ele><time>2021-3-5T17:36:7Z</time></trkpt>
<trkpt lat="48.450934" lon="2.69158"><ele></ele><time>2021-3-5T17:36:10Z</time></trkpt>
<trkpt lat="48.450781" lon="2.691566"><ele></ele><time>2021-3-5T17:36:13Z</time></trkpt>
<trkpt lat="48.450658" lon="2.691664"><ele></ele><time>2021-3-5T17:36:16Z</time></trkpt>
<trkpt lat="48.450563" lon="2.691756"><ele></ele><time>2021-3-5T17:36:19Z</time></trkpt>
<trkpt lat="48.450424" lon="2.691751"><ele></ele><time>2021-3-5T17:36:22Z</time></trkpt>
<trkpt lat="48.450328" lon="2.691805"><ele></ele><time>2021-3-5T17:36:25Z</time></trkpt>
<trkpt lat="48.450218" lon="2.691837"><ele></ele><time>2021-3-5T17:36:28Z</time></trkpt>
<trkpt lat="48.450105" lon="2.691938"><ele></ele><time>2021-3-5T17:36:31Z</time></trkpt>
<trkpt lat="48.450004" lon="2.692021"><ele></ele><time>2021-3-5T17:36:34Z</time></trkpt>
<trkpt lat="48.449876" lon="2.692061"><ele></ele><time>2021-3-5T17:36:37Z</time></trkpt>
<trkpt lat="48.449813" lon="2.692199"><ele></ele><time>2021-3-5T17:36:40Z</time></trkpt>
<trkpt lat="48.449734" lon="2.692314"><ele></ele><time>2021-3-5T17:36:43Z</time></trkpt>
<trkpt lat="48.44968" lon="2.692452"><ele></ele><time>2021-3-5T17:36:46Z</time></trkpt>
<trkpt lat="48.449648" lon="2.692528"><ele></ele><time>2021-3-5T17:36:49Z</time></trkpt>
<trkpt lat="48.449612" lon="2.692607"><ele></ele><time>2021-3-5T17:36:52Z</time></trkpt>
<trkpt lat="48.449527" lon="2.692733"><ele></ele><time>2021-3-5T17:36:55Z</time></trkpt>
<trkpt lat="48.449445" lon="2.692819"><ele></ele><time>2021-3-5T17:36:58Z</time></trkpt>
<trkpt lat="48.449379" lon="2.692947"><ele></ele><time>2021-3-5T17:37:1Z</time></trkpt>
<trkpt lat="48.449294" lon="2.693093"><ele></ele><time>2021-3-5T17:37:4Z</time></trkpt>
<trkpt lat="48.449209" lon="2.69321"><ele></ele><time>2021-3-5T17:37:7Z</time></trkpt>
<trkpt lat="48.449108" lon="2.693359"><ele></ele><time>2021-3-5T17:37:10Z</time></trkpt>
<trkpt lat="48.448991" lon="2.693428"><ele></ele><time>2021-3-5T17:37:13Z</time></trkpt>
<trkpt lat="48.448873" lon="2.693452"><ele></ele><time>2021-3-5T17:37:16Z</time></trkpt>
<trkpt lat="48.448813" lon="2.693435"><ele></ele><time>2021-3-5T17:37:19Z</time></trkpt>
<trkpt lat="48.448718" lon="2.693455"><ele></ele><time>2021-3-5T17:37:22Z</time></trkpt>
<trkpt lat="48.44861" lon="2.693465"><ele></ele><time>2021-3-5T17:37:25Z</time></trkpt>
<trkpt lat="48.448513" lon="2.693519"><ele></ele><time>2021-3-5T17:37:28Z</time></trkpt>
<trkpt lat="48.448451" lon="2.693583"><ele></ele><time>2021-3-5T17:37:31Z</time></trkpt>
<trkpt lat="48.448375" lon="2.693628"><ele></ele><time>2021-3-5T17:37:34Z</time></trkpt>
<trkpt lat="48.448277" lon="2.693626"><ele></ele><time>2021-3-5T17:37:37Z</time></trkpt>
<trkpt lat="48.448193" lon="2.693678"><ele></ele><time>2021-3-5T17:37:40Z</time></trkpt>
<trkpt lat="48.448083" lon="2.693717"><ele></ele><time>2021-3-5T17:37:43Z</time></trkpt>
<trkpt lat="48.447972" lon="2.693744"><ele></ele><time>2021-3-5T17:37:46Z</time></trkpt>
<trkpt lat="48.447889" lon="2.693737"><ele></ele><time>2021-3-5T17:37:49Z</time></trkpt>
<trkpt lat="48.447808" lon="2.693656"><ele></ele><time>2021-3-5T17:37:52Z</time></trkpt>
<trkpt lat="48.447773" lon="2.693616"><ele></ele><time>2021-3-5T17:37:55Z</time></trkpt>
<trkpt lat="48.447766" lon="2.693611"><ele></ele><time>2021-3-5T17:37:58Z</time></trkpt>
<trkpt lat="48.447766" lon="2.693603"><ele></ele><time>2021-3-5T17:38:1Z</time></trkpt>
<trkpt lat="48.447763" lon="2.693605"><ele></ele><time>2021-3-5T17:38:4Z</time></trkpt>
<trkpt lat="48.447762" lon="2.693606"><ele></ele><time>2021-3-5T17:38:7Z</time></trkpt>
<trkpt lat="48.44776" lon="2.693606"><ele></ele><time>2021-3-5T17:38:10Z</time></trkpt>
<trkpt lat="48.44776" lon="2.693607"><ele></ele><time>2021-3-5T17:38:13Z</time></trkpt>
<trkpt lat="48.447759" lon="2.693607"><ele></ele><time>2021-3-5T17:38:16Z</time></trkpt>
<trkpt lat="48.447762" lon="2.693604"><ele></ele><time>2021-3-5T17:38:19Z</time></trkpt>
<trkpt lat="48.447767" lon="2.693617"><ele></ele><time>2021-3-5T17:38:22Z</time></trkpt>
<trkpt lat="48.44777" lon="2.693619"><ele></ele><time>2021-3-5T17:38:25Z</time></trkpt>
<trkpt lat="48.447775" lon="2.693616"><ele></ele><time>2021-3-5T17:38:28Z</time></trkpt>
<trkpt lat="48.447802" lon="2.693567"><ele></ele><time>2021-3-5T17:38:31Z</time></trkpt>
<trkpt lat="48.447811" lon="2.693463"><ele></ele><time>2021-3-5T17:38:34Z</time></trkpt>
<trkpt lat="48.44782" lon="2.693359"><ele></ele><time>2021-3-5T17:38:37Z</time></trkpt>
<trkpt lat="48.447829" lon="2.693258"><ele></ele><time>2021-3-5T17:38:40Z</time></trkpt>
<trkpt lat="48.447846" lon="2.693134"><ele></ele><time>2021-3-5T17:38:43Z</time></trkpt>
<trkpt lat="48.447859" lon="2.692986"><ele></ele><time>2021-3-5T17:38:46Z</time></trkpt>
<trkpt lat="48.447888" lon="2.692818"><ele></ele><time>2021-3-5T17:38:49Z</time></trkpt>
<trkpt lat="48.447913" lon="2.692659"><ele></ele><time>2021-3-5T17:38:52Z</time></trkpt>
<trkpt lat="48.447924" lon="2.692447"><ele></ele><time>2021-3-5T17:38:55Z</time></trkpt>
<trkpt lat="48.447878" lon="2.692318"><ele></ele><time>2021-3-5T17:38:58Z</time></trkpt>
<trkpt lat="48.447831" lon="2.69226"><ele></ele><time>2021-3-5T17:39:1Z</time></trkpt>
<trkpt lat="48.447755" lon="2.69227"><ele></ele><time>2021-3-5T17:39:4Z</time></trkpt>
<trkpt lat="48.447704" lon="2.692303"><ele></ele><time>2021-3-5T17:39:7Z</time></trkpt>
<trkpt lat="48.447619" lon="2.692336"><ele></ele><time>2021-3-5T17:39:10Z</time></trkpt>
<trkpt lat="48.447526" lon="2.692361"><ele></ele><time>2021-3-5T17:39:13Z</time></trkpt>
<trkpt lat="48.447414" lon="2.692379"><ele></ele><time>2021-3-5T17:39:16Z</time></trkpt>
<trkpt lat="48.447298" lon="2.692442"><ele></ele><time>2021-3-5T17:39:19Z</time></trkpt>
<trkpt lat="48.447154" lon="2.69249"><ele></ele><time>2021-3-5T17:39:22Z</time></trkpt>
<trkpt lat="48.44703" lon="2.692537"><ele></ele><time>2021-3-5T17:39:25Z</time></trkpt>
<trkpt lat="48.446876" lon="2.692598"><ele></ele><time>2021-3-5T17:39:28Z</time></trkpt>
<trkpt lat="48.446756" lon="2.692647"><ele></ele><time>2021-3-5T17:39:31Z</time></trkpt>
<trkpt lat="48.446633" lon="2.692691"><ele></ele><time>2021-3-5T17:39:34Z</time></trkpt>
<trkpt lat="48.446511" lon="2.69273"><ele></ele><time>2021-3-5T17:39:37Z</time></trkpt>
<trkpt lat="48.44637" lon="2.692788"><ele></ele><time>2021-3-5T17:39:40Z</time></trkpt>
<trkpt lat="48.446223" lon="2.692842"><ele></ele><time>2021-3-5T17:39:43Z</time></trkpt>
<trkpt lat="48.446071" lon="2.692908"><ele></ele><time>2021-3-5T17:39:46Z</time></trkpt>
<trkpt lat="48.445953" lon="2.692934"><ele></ele><time>2021-3-5T17:39:49Z</time></trkpt>
<trkpt lat="48.445809" lon="2.692937"><ele></ele><time>2021-3-5T17:39:52Z</time></trkpt>
<trkpt lat="48.445679" lon="2.692987"><ele></ele><time>2021-3-5T17:39:55Z</time></trkpt>
<trkpt lat="48.44556" lon="2.693027"><ele></ele><time>2021-3-5T17:39:58Z</time></trkpt>
<trkpt lat="48.445436" lon="2.693073"><ele></ele><time>2021-3-5T17:40:1Z</time></trkpt>
<trkpt lat="48.445307" lon="2.693124"><ele></ele><time>2021-3-5T17:40:4Z</time></trkpt>
<trkpt lat="48.445184" lon="2.693149"><ele></ele><time>2021-3-5T17:40:7Z</time></trkpt>
<trkpt lat="48.445064" lon="2.693194"><ele></ele><time>2021-3-5T17:40:10Z</time></trkpt>
<trkpt lat="48.444961" lon="2.693221"><ele></ele><time>2021-3-5T17:40:13Z</time></trkpt>
<trkpt lat="48.444855" lon="2.693272"><ele></ele><time>2021-3-5T17:40:16Z</time></trkpt>
<trkpt lat="48.444746" lon="2.693294"><ele></ele><time>2021-3-5T17:40:19Z</time></trkpt>
<trkpt lat="48.444675" lon="2.693286"><ele></ele><time>2021-3-5T17:40:22Z</time></trkpt>
<trkpt lat="48.444601" lon="2.693306"><ele></ele><time>2021-3-5T17:40:25Z</time></trkpt>
<trkpt lat="48.444539" lon="2.693327"><ele></ele><time>2021-3-5T17:40:28Z</time></trkpt>
<trkpt lat="48.444448" lon="2.693375"><ele></ele><time>2021-3-5T17:40:31Z</time></trkpt>
<trkpt lat="48.444324" lon="2.693416"><ele></ele><time>2021-3-5T17:40:34Z</time></trkpt>
<trkpt lat="48.444179" lon="2.693427"><ele></ele><time>2021-3-5T17:40:37Z</time></trkpt>
<trkpt lat="48.444027" lon="2.693454"><ele></ele><time>2021-3-5T17:40:40Z</time></trkpt>
<trkpt lat="48.443909" lon="2.693486"><ele></ele><time>2021-3-5T17:40:43Z</time></trkpt>
<trkpt lat="48.443779" lon="2.693518"><ele></ele><time>2021-3-5T17:40:46Z</time></trkpt>
<trkpt lat="48.443667" lon="2.693567"><ele></ele><time>2021-3-5T17:40:49Z</time></trkpt>
<trkpt lat="48.44353" lon="2.693631"><ele></ele><time>2021-3-5T17:40:52Z</time></trkpt>
<trkpt lat="48.443364" lon="2.693706"><ele></ele><time>2021-3-5T17:40:55Z</time></trkpt>
<trkpt lat="48.443236" lon="2.693748"><ele></ele><time>2021-3-5T17:40:58Z</time></trkpt>
<trkpt lat="48.443121" lon="2.693792"><ele></ele><time>2021-3-5T17:41:1Z</time></trkpt>
<trkpt lat="48.443033" lon="2.693849"><ele></ele><time>2021-3-5T17:41:4Z</time></trkpt>
<trkpt lat="48.442912" lon="2.693882"><ele></ele><time>2021-3-5T17:41:7Z</time></trkpt>
<trkpt lat="48.442787" lon="2.693914"><ele></ele><time>2021-3-5T17:41:10Z</time></trkpt>
<trkpt lat="48.442662" lon="2.693948"><ele></ele><time>2021-3-5T17:41:13Z</time></trkpt>
<trkpt lat="48.442541" lon="2.693994"><ele></ele><time>2021-3-5T17:41:16Z</time></trkpt>
<trkpt lat="48.442437" lon="2.694027"><ele></ele><time>2021-3-5T17:41:19Z</time></trkpt>
<trkpt lat="48.442349" lon="2.694051"><ele></ele><time>2021-3-5T17:41:22Z</time></trkpt>
<trkpt lat="48.442243" lon="2.694025"><ele></ele><time>2021-3-5T17:41:25Z</time></trkpt>
<trkpt lat="48.442141" lon="2.693935"><ele></ele><time>2021-3-5T17:41:28Z</time></trkpt>
<trkpt lat="48.442037" lon="2.693838"><ele></ele><time>2021-3-5T17:41:31Z</time></trkpt>
<trkpt lat="48.441928" lon="2.693747"><ele></ele><time>2021-3-5T17:41:34Z</time></trkpt>
<trkpt lat="48.441817" lon="2.693648"><ele></ele><time>2021-3-5T17:41:37Z</time></trkpt>
<trkpt lat="48.441696" lon="2.693514"><ele></ele><time>2021-3-5T17:41:40Z</time></trkpt>
<trkpt lat="48.441548" lon="2.69343"><ele></ele><time>2021-3-5T17:41:43Z</time></trkpt>
<trkpt lat="48.441432" lon="2.693294"><ele></ele><time>2021-3-5T17:41:46Z</time></trkpt>
<trkpt lat="48.441313" lon="2.693146"><ele></ele><time>2021-3-5T17:41:49Z</time></trkpt>
<trkpt lat="48.441191" lon="2.693048"><ele></ele><time>2021-3-5T17:41:52Z</time></trkpt>
<trkpt lat="48.441061" lon="2.69296"><ele></ele><time>2021-3-5T17:41:55Z</time></trkpt>
<trkpt lat="48.440928" lon="2.692869"><ele></ele><time>2021-3-5T17:41:58Z</time></trkpt>
<trkpt lat="48.440823" lon="2.692754"><ele></ele><time>2021-3-5T17:42:1Z</time></trkpt>
<trkpt lat="48.440719" lon="2.692613"><ele></ele><time>2021-3-5T17:42:4Z</time></trkpt>
<trkpt lat="48.440617" lon="2.692497"><ele></ele><time>2021-3-5T17:42:7Z</time></trkpt>
<trkpt lat="48.440518" lon="2.692436"><ele></ele><time>2021-3-5T17:42:10Z</time></trkpt>
<trkpt lat="48.440431" lon="2.692305"><ele></ele><time>2021-3-5T17:42:13Z</time></trkpt>
<trkpt lat="48.440325" lon="2.692267"><ele></ele><time>2021-3-5T17:42:16Z</time></trkpt>
<trkpt lat="48.440266" lon="2.692325"><ele></ele><time>2021-3-5T17:42:19Z</time></trkpt>
<trkpt lat="48.440305" lon="2.692456"><ele></ele><time>2021-3-5T17:42:22Z</time></trkpt>
<trkpt lat="48.440339" lon="2.692585"><ele></ele><time>2021-3-5T17:42:25Z</time></trkpt>
<trkpt lat="48.440376" lon="2.692759"><ele></ele><time>2021-3-5T17:42:28Z</time></trkpt>
<trkpt lat="48.440412" lon="2.69294"><ele></ele><time>2021-3-5T17:42:31Z</time></trkpt>
<trkpt lat="48.440452" lon="2.693151"><ele></ele><time>2021-3-5T17:42:34Z</time></trkpt>
<trkpt lat="48.440543" lon="2.693339"><ele></ele><time>2021-3-5T17:42:37Z</time></trkpt>
<trkpt lat="48.440641" lon="2.693555"><ele></ele><time>2021-3-5T17:42:40Z</time></trkpt>
<trkpt lat="48.440702" lon="2.693764"><ele></ele><time>2021-3-5T17:42:43Z</time></trkpt>
<trkpt lat="48.440771" lon="2.693954"><ele></ele><time>2021-3-5T17:42:46Z</time></trkpt>
<trkpt lat="48.440832" lon="2.694146"><ele></ele><time>2021-3-5T17:42:49Z</time></trkpt>
<trkpt lat="48.440873" lon="2.694332"><ele></ele><time>2021-3-5T17:42:52Z</time></trkpt>
<trkpt lat="48.44093" lon="2.694489"><ele></ele><time>2021-3-5T17:42:55Z</time></trkpt>
<trkpt lat="48.440971" lon="2.69469"><ele></ele><time>2021-3-5T17:42:58Z</time></trkpt>
<trkpt lat="48.441041" lon="2.694853"><ele></ele><time>2021-3-5T17:43:1Z</time></trkpt>
<trkpt lat="48.441103" lon="2.695035"><ele></ele><time>2021-3-5T17:43:4Z</time></trkpt>
<trkpt lat="48.441176" lon="2.695212"><ele></ele><time>2021-3-5T17:43:7Z</time></trkpt>
<trkpt lat="48.44123" lon="2.695375"><ele></ele><time>2021-3-5T17:43:10Z</time></trkpt>
<trkpt lat="48.441291" lon="2.695541"><ele></ele><time>2021-3-5T17:43:13Z</time></trkpt>
<trkpt lat="48.441376" lon="2.695691"><ele></ele><time>2021-3-5T17:43:16Z</time></trkpt>
<trkpt lat="48.441414" lon="2.695867"><ele></ele><time>2021-3-5T17:43:19Z</time></trkpt>
<trkpt lat="48.44146" lon="2.696009"><ele></ele><time>2021-3-5T17:43:22Z</time></trkpt>
<trkpt lat="48.441511" lon="2.696167"><ele></ele><time>2021-3-5T17:43:25Z</time></trkpt>
<trkpt lat="48.441545" lon="2.696327"><ele></ele><time>2021-3-5T17:43:28Z</time></trkpt>
<trkpt lat="48.441586" lon="2.696493"><ele></ele><time>2021-3-5T17:43:31Z</time></trkpt>
<trkpt lat="48.441637" lon="2.696654"><ele></ele><time>2021-3-5T17:43:34Z</time></trkpt>
<trkpt lat="48.441675" lon="2.696822"><ele></ele><time>2021-3-5T17:43:37Z</time></trkpt>
<trkpt lat="48.441728" lon="2.696963"><ele></ele><time>2021-3-5T17:43:40Z</time></trkpt>
<trkpt lat="48.441789" lon="2.697095"><ele></ele><time>2021-3-5T17:43:43Z</time></trkpt>
<trkpt lat="48.441836" lon="2.697223"><ele></ele><time>2021-3-5T17:43:46Z</time></trkpt>
<trkpt lat="48.441931" lon="2.697385"><ele></ele><time>2021-3-5T17:43:49Z</time></trkpt>
<trkpt lat="48.441994" lon="2.697551"><ele></ele><time>2021-3-5T17:43:52Z</time></trkpt>
<trkpt lat="48.442031" lon="2.697679"><ele></ele><time>2021-3-5T17:43:55Z</time></trkpt>
<trkpt lat="48.442086" lon="2.697829"><ele></ele><time>2021-3-5T17:43:58Z</time></trkpt>
<trkpt lat="48.442142" lon="2.697879"><ele></ele><time>2021-3-5T17:44:1Z</time></trkpt>
<trkpt lat="48.442259" lon="2.697904"><ele></ele><time>2021-3-5T17:44:4Z</time></trkpt>
<trkpt lat="48.44241" lon="2.697883"><ele></ele><time>2021-3-5T17:44:7Z</time></trkpt>
<trkpt lat="48.442538" lon="2.697868"><ele></ele><time>2021-3-5T17:44:10Z</time></trkpt>
<trkpt lat="48.442649" lon="2.697872"><ele></ele><time>2021-3-5T17:44:13Z</time></trkpt>
<trkpt lat="48.442742" lon="2.697834"><ele></ele><time>2021-3-5T17:44:16Z</time></trkpt>
<trkpt lat="48.44286" lon="2.697859"><ele></ele><time>2021-3-5T17:44:19Z</time></trkpt>
<trkpt lat="48.442952" lon="2.697954"><ele></ele><time>2021-3-5T17:44:22Z</time></trkpt>
<trkpt lat="48.443008" lon="2.698115"><ele></ele><time>2021-3-5T17:44:25Z</time></trkpt>
<trkpt lat="48.442989" lon="2.698279"><ele></ele><time>2021-3-5T17:44:28Z</time></trkpt>
<trkpt lat="48.443049" lon="2.69847"><ele></ele><time>2021-3-5T17:44:31Z</time></trkpt>
<trkpt lat="48.443072" lon="2.698668"><ele></ele><time>2021-3-5T17:44:34Z</time></trkpt>
<trkpt lat="48.443121" lon="2.698809"><ele></ele><time>2021-3-5T17:44:37Z</time></trkpt>
<trkpt lat="48.443225" lon="2.698887"><ele></ele><time>2021-3-5T17:44:40Z</time></trkpt>
<trkpt lat="48.443317" lon="2.69904"><ele></ele><time>2021-3-5T17:44:43Z</time></trkpt>
<trkpt lat="48.4434" lon="2.699235"><ele></ele><time>2021-3-5T17:44:46Z</time></trkpt>
<trkpt lat="48.443418" lon="2.699406"><ele></ele><time>2021-3-5T17:44:49Z</time></trkpt>
<trkpt lat="48.443499" lon="2.699567"><ele></ele><time>2021-3-5T17:44:52Z</time></trkpt>
<trkpt lat="48.443582" lon="2.699735"><ele></ele><time>2021-3-5T17:44:55Z</time></trkpt>
<trkpt lat="48.443625" lon="2.699952"><ele></ele><time>2021-3-5T17:44:58Z</time></trkpt>
<trkpt lat="48.443627" lon="2.700134"><ele></ele><time>2021-3-5T17:45:1Z</time></trkpt>
<trkpt lat="48.443621" lon="2.700321"><ele></ele><time>2021-3-5T17:45:4Z</time></trkpt>
<trkpt lat="48.443637" lon="2.700531"><ele></ele><time>2021-3-5T17:45:7Z</time></trkpt>
<trkpt lat="48.443688" lon="2.700702"><ele></ele><time>2021-3-5T17:45:10Z</time></trkpt>
<trkpt lat="48.443722" lon="2.700903"><ele></ele><time>2021-3-5T17:45:13Z</time></trkpt>
<trkpt lat="48.44372" lon="2.701079"><ele></ele><time>2021-3-5T17:45:16Z</time></trkpt>
<trkpt lat="48.443684" lon="2.701224"><ele></ele><time>2021-3-5T17:45:19Z</time></trkpt>
<trkpt lat="48.443649" lon="2.701356"><ele></ele><time>2021-3-5T17:45:22Z</time></trkpt>
<trkpt lat="48.443599" lon="2.701585"><ele></ele><time>2021-3-5T17:45:25Z</time></trkpt>
<trkpt lat="48.443647" lon="2.701775"><ele></ele><time>2021-3-5T17:45:28Z</time></trkpt>
<trkpt lat="48.443661" lon="2.701873"><ele></ele><time>2021-3-5T17:45:31Z</time></trkpt>
<trkpt lat="48.443602" lon="2.701961"><ele></ele><time>2021-3-5T17:45:34Z</time></trkpt>
<trkpt lat="48.443554" lon="2.702047"><ele></ele><time>2021-3-5T17:45:37Z</time></trkpt>
<trkpt lat="48.443527" lon="2.702104"><ele></ele><time>2021-3-5T17:45:40Z</time></trkpt>
<trkpt lat="48.443502" lon="2.702175"><ele></ele><time>2021-3-5T17:45:43Z</time></trkpt>
<trkpt lat="48.443472" lon="2.702308"><ele></ele><time>2021-3-5T17:45:46Z</time></trkpt>
<trkpt lat="48.44342" lon="2.702463"><ele></ele><time>2021-3-5T17:45:49Z</time></trkpt>
<trkpt lat="48.443356" lon="2.702635"><ele></ele><time>2021-3-5T17:45:52Z</time></trkpt>
<trkpt lat="48.443285" lon="2.702795"><ele></ele><time>2021-3-5T17:45:55Z</time></trkpt>
<trkpt lat="48.443267" lon="2.702955"><ele></ele><time>2021-3-5T17:45:58Z</time></trkpt>
<trkpt lat="48.443283" lon="2.703115"><ele></ele><time>2021-3-5T17:46:1Z</time></trkpt>
<trkpt lat="48.443374" lon="2.703319"><ele></ele><time>2021-3-5T17:46:4Z</time></trkpt>
<trkpt lat="48.443435" lon="2.703464"><ele></ele><time>2021-3-5T17:46:7Z</time></trkpt>
<trkpt lat="48.443476" lon="2.703658"><ele></ele><time>2021-3-5T17:46:10Z</time></trkpt>
<trkpt lat="48.443513" lon="2.703845"><ele></ele><time>2021-3-5T17:46:13Z</time></trkpt>
<trkpt lat="48.44355" lon="2.704008"><ele></ele><time>2021-3-5T17:46:16Z</time></trkpt>
<trkpt lat="48.443576" lon="2.704197"><ele></ele><time>2021-3-5T17:46:19Z</time></trkpt>
<trkpt lat="48.443628" lon="2.704327"><ele></ele><time>2021-3-5T17:46:22Z</time></trkpt>
<trkpt lat="48.443726" lon="2.704481"><ele></ele><time>2021-3-5T17:46:25Z</time></trkpt>
<trkpt lat="48.443825" lon="2.704601"><ele></ele><time>2021-3-5T17:46:28Z</time></trkpt>
<trkpt lat="48.443913" lon="2.704691"><ele></ele><time>2021-3-5T17:46:31Z</time></trkpt>
<trkpt lat="48.444061" lon="2.704837"><ele></ele><time>2021-3-5T17:46:34Z</time></trkpt>
<trkpt lat="48.444159" lon="2.704974"><ele></ele><time>2021-3-5T17:46:37Z</time></trkpt>
<trkpt lat="48.44427" lon="2.705087"><ele></ele><time>2021-3-5T17:46:40Z</time></trkpt>
<trkpt lat="48.444356" lon="2.705173"><ele></ele><time>2021-3-5T17:46:43Z</time></trkpt>
<trkpt lat="48.444494" lon="2.705368"><ele></ele><time>2021-3-5T17:46:46Z</time></trkpt>
<trkpt lat="48.444581" lon="2.705542"><ele></ele><time>2021-3-5T17:46:49Z</time></trkpt>
<trkpt lat="48.444667" lon="2.705672"><ele></ele><time>2021-3-5T17:46:52Z</time></trkpt>
<trkpt lat="48.444722" lon="2.705789"><ele></ele><time>2021-3-5T17:46:55Z</time></trkpt>
<trkpt lat="48.444709" lon="2.705924"><ele></ele><time>2021-3-5T17:46:58Z</time></trkpt>
<trkpt lat="48.444751" lon="2.706106"><ele></ele><time>2021-3-5T17:47:1Z</time></trkpt>
<trkpt lat="48.444824" lon="2.706238"><ele></ele><time>2021-3-5T17:47:4Z</time></trkpt>
<trkpt lat="48.444883" lon="2.70636"><ele></ele><time>2021-3-5T17:47:7Z</time></trkpt>
<trkpt lat="48.444959" lon="2.706417"><ele></ele><time>2021-3-5T17:47:10Z</time></trkpt>
<trkpt lat="48.44504" lon="2.706398"><ele></ele><time>2021-3-5T17:47:13Z</time></trkpt>
<trkpt lat="48.445136" lon="2.706381"><ele></ele><time>2021-3-5T17:47:16Z</time></trkpt>
<trkpt lat="48.445257" lon="2.706377"><ele></ele><time>2021-3-5T17:47:19Z</time></trkpt>
<trkpt lat="48.445354" lon="2.706547"><ele></ele><time>2021-3-5T17:47:22Z</time></trkpt>
<trkpt lat="48.445515" lon="2.706636"><ele></ele><time>2021-3-5T17:47:25Z</time></trkpt>
<trkpt lat="48.445588" lon="2.706723"><ele></ele><time>2021-3-5T17:47:28Z</time></trkpt>
<trkpt lat="48.445638" lon="2.706722"><ele></ele><time>2021-3-5T17:47:31Z</time></trkpt>
<trkpt lat="48.445693" lon="2.70672"><ele></ele><time>2021-3-5T17:47:34Z</time></trkpt>
<trkpt lat="48.445788" lon="2.706776"><ele></ele><time>2021-3-5T17:47:37Z</time></trkpt>
<trkpt lat="48.445875" lon="2.706794"><ele></ele><time>2021-3-5T17:47:40Z</time></trkpt>
<trkpt lat="48.445966" lon="2.706831"><ele></ele><time>2021-3-5T17:47:43Z</time></trkpt>
<trkpt lat="48.446054" lon="2.706876"><ele></ele><time>2021-3-5T17:47:46Z</time></trkpt>
<trkpt lat="48.446145" lon="2.706867"><ele></ele><time>2021-3-5T17:47:49Z</time></trkpt>
<trkpt lat="48.446209" lon="2.706987"><ele></ele><time>2021-3-5T17:47:52Z</time></trkpt>
<trkpt lat="48.446233" lon="2.707123"><ele></ele><time>2021-3-5T17:47:55Z</time></trkpt>
<trkpt lat="48.446301" lon="2.707279"><ele></ele><time>2021-3-5T17:47:58Z</time></trkpt>
<trkpt lat="48.446382" lon="2.707373"><ele></ele><time>2021-3-5T17:48:1Z</time></trkpt>
<trkpt lat="48.446454" lon="2.707381"><ele></ele><time>2021-3-5T17:48:4Z</time></trkpt>
<trkpt lat="48.446446" lon="2.707546"><ele></ele><time>2021-3-5T17:48:7Z</time></trkpt>
<trkpt lat="48.446469" lon="2.707723"><ele></ele><time>2021-3-5T17:48:10Z</time></trkpt>
<trkpt lat="48.446486" lon="2.707868"><ele></ele><time>2021-3-5T17:48:13Z</time></trkpt>
<trkpt lat="48.446531" lon="2.707992"><ele></ele><time>2021-3-5T17:48:16Z</time></trkpt>
<trkpt lat="48.44658" lon="2.708158"><ele></ele><time>2021-3-5T17:48:19Z</time></trkpt>
<trkpt lat="48.446645" lon="2.708335"><ele></ele><time>2021-3-5T17:48:22Z</time></trkpt>
<trkpt lat="48.446709" lon="2.708515"><ele></ele><time>2021-3-5T17:48:25Z</time></trkpt>
<trkpt lat="48.446753" lon="2.708691"><ele></ele><time>2021-3-5T17:48:28Z</time></trkpt>
<trkpt lat="48.446745" lon="2.708865"><ele></ele><time>2021-3-5T17:48:31Z</time></trkpt>
<trkpt lat="48.446708" lon="2.708964"><ele></ele><time>2021-3-5T17:48:34Z</time></trkpt>
<trkpt lat="48.44671" lon="2.709135"><ele></ele><time>2021-3-5T17:48:37Z</time></trkpt>
<trkpt lat="48.446646" lon="2.709344"><ele></ele><time>2021-3-5T17:48:40Z</time></trkpt>
<trkpt lat="48.446668" lon="2.709507"><ele></ele><time>2021-3-5T17:48:43Z</time></trkpt>
<trkpt lat="48.446555" lon="2.709665"><ele></ele><time>2021-3-5T17:48:46Z</time></trkpt>
<trkpt lat="48.446476" lon="2.709827"><ele></ele><time>2021-3-5T17:48:49Z</time></trkpt>
<trkpt lat="48.446453" lon="2.70996"><ele></ele><time>2021-3-5T17:48:52Z</time></trkpt>
<trkpt lat="48.446419" lon="2.710105"><ele></ele><time>2021-3-5T17:48:55Z</time></trkpt>
<trkpt lat="48.446374" lon="2.710225"><ele></ele><time>2021-3-5T17:48:58Z</time></trkpt>
<trkpt lat="48.446363" lon="2.710397"><ele></ele><time>2021-3-5T17:49:1Z</time></trkpt>
<trkpt lat="48.446403" lon="2.71055"><ele></ele><time>2021-3-5T17:49:4Z</time></trkpt>
<trkpt lat="48.446473" lon="2.710788"><ele></ele><time>2021-3-5T17:49:7Z</time></trkpt>
<trkpt lat="48.446496" lon="2.710994"><ele></ele><time>2021-3-5T17:49:10Z</time></trkpt>
<trkpt lat="48.44649" lon="2.711124"><ele></ele><time>2021-3-5T17:49:13Z</time></trkpt>
<trkpt lat="48.446482" lon="2.711213"><ele></ele><time>2021-3-5T17:49:16Z</time></trkpt>
<trkpt lat="48.446475" lon="2.711258"><ele></ele><time>2021-3-5T17:49:19Z</time></trkpt>
<trkpt lat="48.446421" lon="2.711331"><ele></ele><time>2021-3-5T17:49:22Z</time></trkpt>
<trkpt lat="48.446324" lon="2.711401"><ele></ele><time>2021-3-5T17:49:25Z</time></trkpt>
<trkpt lat="48.446187" lon="2.711598"><ele></ele><time>2021-3-5T17:49:28Z</time></trkpt>
<trkpt lat="48.446144" lon="2.71173"><ele></ele><time>2021-3-5T17:49:31Z</time></trkpt>
<trkpt lat="48.446135" lon="2.711843"><ele></ele><time>2021-3-5T17:49:34Z</time></trkpt>
<trkpt lat="48.446169" lon="2.711961"><ele></ele><time>2021-3-5T17:49:37Z</time></trkpt>
<trkpt lat="48.446207" lon="2.712053"><ele></ele><time>2021-3-5T17:49:40Z</time></trkpt>
<trkpt lat="48.446268" lon="2.712131"><ele></ele><time>2021-3-5T17:49:43Z</time></trkpt>
<trkpt lat="48.446328" lon="2.712158"><ele></ele><time>2021-3-5T17:49:46Z</time></trkpt>
<trkpt lat="48.446411" lon="2.71219"><ele></ele><time>2021-3-5T17:49:49Z</time></trkpt>
<trkpt lat="48.446503" lon="2.712211"><ele></ele><time>2021-3-5T17:49:52Z</time></trkpt>
<trkpt lat="48.446617" lon="2.712253"><ele></ele><time>2021-3-5T17:49:55Z</time></trkpt>
<trkpt lat="48.446719" lon="2.712264"><ele></ele><time>2021-3-5T17:49:58Z</time></trkpt>
<trkpt lat="48.446845" lon="2.712224"><ele></ele><time>2021-3-5T17:50:1Z</time></trkpt>
<trkpt lat="48.447021" lon="2.712256"><ele></ele><time>2021-3-5T17:50:4Z</time></trkpt>
<trkpt lat="48.447116" lon="2.712364"><ele></ele><time>2021-3-5T17:50:7Z</time></trkpt>
<trkpt lat="48.447222" lon="2.712404"><ele></ele><time>2021-3-5T17:50:10Z</time></trkpt>
<trkpt lat="48.447299" lon="2.712467"><ele></ele><time>2021-3-5T17:50:13Z</time></trkpt>
<trkpt lat="48.447367" lon="2.712547"><ele></ele><time>2021-3-5T17:50:16Z</time></trkpt>
<trkpt lat="48.447459" lon="2.712532"><ele></ele><time>2021-3-5T17:50:19Z</time></trkpt>
<trkpt lat="48.447509" lon="2.712479"><ele></ele><time>2021-3-5T17:50:22Z</time></trkpt>
<trkpt lat="48.447551" lon="2.712455"><ele></ele><time>2021-3-5T17:50:25Z</time></trkpt>
<trkpt lat="48.44763" lon="2.712412"><ele></ele><time>2021-3-5T17:50:28Z</time></trkpt>
<trkpt lat="48.44775" lon="2.712401"><ele></ele><time>2021-3-5T17:50:31Z</time></trkpt>
<trkpt lat="48.447868" lon="2.712355"><ele></ele><time>2021-3-5T17:50:34Z</time></trkpt>
<trkpt lat="48.447962" lon="2.712304"><ele></ele><time>2021-3-5T17:50:37Z</time></trkpt>
<trkpt lat="48.448032" lon="2.712283"><ele></ele><time>2021-3-5T17:50:40Z</time></trkpt>
<trkpt lat="48.44813" lon="2.712242"><ele></ele><time>2021-3-5T17:50:43Z</time></trkpt>
<trkpt lat="48.448213" lon="2.712195"><ele></ele><time>2021-3-5T17:50:46Z</time></trkpt>
<trkpt lat="48.448313" lon="2.712163"><ele></ele><time>2021-3-5T17:50:49Z</time></trkpt>
<trkpt lat="48.448413" lon="2.712162"><ele></ele><time>2021-3-5T17:50:52Z</time></trkpt>
<trkpt lat="48.448455" lon="2.712236"><ele></ele><time>2021-3-5T17:50:55Z</time></trkpt>
<trkpt lat="48.448527" lon="2.712282"><ele></ele><time>2021-3-5T17:50:58Z</time></trkpt>
<trkpt lat="48.448586" lon="2.712337"><ele></ele><time>2021-3-5T17:51:1Z</time></trkpt>
<trkpt lat="48.44865" lon="2.712431"><ele></ele><time>2021-3-5T17:51:4Z</time></trkpt>
<trkpt lat="48.448701" lon="2.712546"><ele></ele><time>2021-3-5T17:51:7Z</time></trkpt>
<trkpt lat="48.44869" lon="2.712691"><ele></ele><time>2021-3-5T17:51:10Z</time></trkpt>
<trkpt lat="48.44868" lon="2.712835"><ele></ele><time>2021-3-5T17:51:13Z</time></trkpt>
<trkpt lat="48.448629" lon="2.712947"><ele></ele><time>2021-3-5T17:51:16Z</time></trkpt>
<trkpt lat="48.448588" lon="2.713069"><ele></ele><time>2021-3-5T17:51:19Z</time></trkpt>
<trkpt lat="48.448563" lon="2.713232"><ele></ele><time>2021-3-5T17:51:22Z</time></trkpt>
<trkpt lat="48.448513" lon="2.713351"><ele></ele><time>2021-3-5T17:51:25Z</time></trkpt>
<trkpt lat="48.448443" lon="2.713612"><ele></ele><time>2021-3-5T17:51:28Z</time></trkpt>
<trkpt lat="48.448422" lon="2.713867"><ele></ele><time>2021-3-5T17:51:31Z</time></trkpt>
<trkpt lat="48.448404" lon="2.714001"><ele></ele><time>2021-3-5T17:51:34Z</time></trkpt>
<trkpt lat="48.448382" lon="2.714164"><ele></ele><time>2021-3-5T17:51:37Z</time></trkpt>
<trkpt lat="48.448327" lon="2.714328"><ele></ele><time>2021-3-5T17:51:40Z</time></trkpt>
<trkpt lat="48.448281" lon="2.714505"><ele></ele><time>2021-3-5T17:51:43Z</time></trkpt>
<trkpt lat="48.448245" lon="2.714667"><ele></ele><time>2021-3-5T17:51:46Z</time></trkpt>
<trkpt lat="48.448218" lon="2.714829"><ele></ele><time>2021-3-5T17:51:49Z</time></trkpt>
<trkpt lat="48.448193" lon="2.714999"><ele></ele><time>2021-3-5T17:51:52Z</time></trkpt>
<trkpt lat="48.448149" lon="2.715157"><ele></ele><time>2021-3-5T17:51:55Z</time></trkpt>
<trkpt lat="48.448107" lon="2.715313"><ele></ele><time>2021-3-5T17:51:58Z</time></trkpt>
<trkpt lat="48.448096" lon="2.715494"><ele></ele><time>2021-3-5T17:52:1Z</time></trkpt>
<trkpt lat="48.448048" lon="2.715661"><ele></ele><time>2021-3-5T17:52:4Z</time></trkpt>
<trkpt lat="48.448021" lon="2.715771"><ele></ele><time>2021-3-5T17:52:7Z</time></trkpt>
<trkpt lat="48.448" lon="2.7159"><ele></ele><time>2021-3-5T17:52:10Z</time></trkpt>
<trkpt lat="48.447949" lon="2.715993"><ele></ele><time>2021-3-5T17:52:13Z</time></trkpt>
<trkpt lat="48.447874" lon="2.716102"><ele></ele><time>2021-3-5T17:52:16Z</time></trkpt>
<trkpt lat="48.447781" lon="2.7162"><ele></ele><time>2021-3-5T17:52:19Z</time></trkpt>
<trkpt lat="48.447722" lon="2.716345"><ele></ele><time>2021-3-5T17:52:22Z</time></trkpt>
<trkpt lat="48.447645" lon="2.716421"><ele></ele><time>2021-3-5T17:52:25Z</time></trkpt>
<trkpt lat="48.447555" lon="2.716518"><ele></ele><time>2021-3-5T17:52:28Z</time></trkpt>
<trkpt lat="48.447547" lon="2.71667"><ele></ele><time>2021-3-5T17:52:31Z</time></trkpt>
<trkpt lat="48.447581" lon="2.716846"><ele></ele><time>2021-3-5T17:52:34Z</time></trkpt>
<trkpt lat="48.447607" lon="2.716978"><ele></ele><time>2021-3-5T17:52:37Z</time></trkpt>
<trkpt lat="48.447653" lon="2.717125"><ele></ele><time>2021-3-5T17:52:40Z</time></trkpt>
<trkpt lat="48.447658" lon="2.717281"><ele></ele><time>2021-3-5T17:52:43Z</time></trkpt>
<trkpt lat="48.447593" lon="2.717425"><ele></ele><time>2021-3-5T17:52:46Z</time></trkpt>
<trkpt lat="48.447556" lon="2.717604"><ele></ele><time>2021-3-5T17:52:49Z</time></trkpt>
<trkpt lat="48.447529" lon="2.717784"><ele></ele><time>2021-3-5T17:52:52Z</time></trkpt>
<trkpt lat="48.447532" lon="2.717972"><ele></ele><time>2021-3-5T17:52:55Z</time></trkpt>
<trkpt lat="48.447569" lon="2.718111"><ele></ele><time>2021-3-5T17:52:58Z</time></trkpt>
<trkpt lat="48.447613" lon="2.718145"><ele></ele><time>2021-3-5T17:53:1Z</time></trkpt>
<trkpt lat="48.447675" lon="2.718181"><ele></ele><time>2021-3-5T17:53:4Z</time></trkpt>
<trkpt lat="48.44773" lon="2.718252"><ele></ele><time>2021-3-5T17:53:7Z</time></trkpt>
<trkpt lat="48.447831" lon="2.71846"><ele></ele><time>2021-3-5T17:53:10Z</time></trkpt>
<trkpt lat="48.447843" lon="2.718658"><ele></ele><time>2021-3-5T17:53:13Z</time></trkpt>
<trkpt lat="48.447812" lon="2.718814"><ele></ele><time>2021-3-5T17:53:16Z</time></trkpt>
<trkpt lat="48.447793" lon="2.718943"><ele></ele><time>2021-3-5T17:53:19Z</time></trkpt>
<trkpt lat="48.447771" lon="2.719032"><ele></ele><time>2021-3-5T17:53:22Z</time></trkpt>
<trkpt lat="48.447805" lon="2.719097"><ele></ele><time>2021-3-5T17:53:25Z</time></trkpt>
<trkpt lat="48.447832" lon="2.719183"><ele></ele><time>2021-3-5T17:53:28Z</time></trkpt>
<trkpt lat="48.447776" lon="2.719275"><ele></ele><time>2021-3-5T17:53:31Z</time></trkpt>
<trkpt lat="48.44772" lon="2.719289"><ele></ele><time>2021-3-5T17:53:34Z</time></trkpt>
<trkpt lat="48.447649" lon="2.719285"><ele></ele><time>2021-3-5T17:53:37Z</time></trkpt>
<trkpt lat="48.447572" lon="2.719293"><ele></ele><time>2021-3-5T17:53:40Z</time></trkpt>
<trkpt lat="48.447461" lon="2.719278"><ele></ele><time>2021-3-5T17:53:43Z</time></trkpt>
<trkpt lat="48.447299" lon="2.7192"><ele></ele><time>2021-3-5T17:53:46Z</time></trkpt>
<trkpt lat="48.447213" lon="2.719085"><ele></ele><time>2021-3-5T17:53:49Z</time></trkpt>
<trkpt lat="48.447132" lon="2.718982"><ele></ele><time>2021-3-5T17:53:52Z</time></trkpt>
<trkpt lat="48.447022" lon="2.718911"><ele></ele><time>2021-3-5T17:53:55Z</time></trkpt>
<trkpt lat="48.44695" lon="2.718923"><ele></ele><time>2021-3-5T17:53:58Z</time></trkpt>
<trkpt lat="48.446932" lon="2.719044"><ele></ele><time>2021-3-5T17:54:1Z</time></trkpt>
<trkpt lat="48.44694" lon="2.719174"><ele></ele><time>2021-3-5T17:54:4Z</time></trkpt>
<trkpt lat="48.447011" lon="2.719351"><ele></ele><time>2021-3-5T17:54:7Z</time></trkpt>
<trkpt lat="48.44712" lon="2.719526"><ele></ele><time>2021-3-5T17:54:10Z</time></trkpt>
<trkpt lat="48.44714" lon="2.719664"><ele></ele><time>2021-3-5T17:54:13Z</time></trkpt>
<trkpt lat="48.447108" lon="2.719804"><ele></ele><time>2021-3-5T17:54:16Z</time></trkpt>
<trkpt lat="48.447093" lon="2.719882"><ele></ele><time>2021-3-5T17:54:19Z</time></trkpt>
<trkpt lat="48.447097" lon="2.719986"><ele></ele><time>2021-3-5T17:54:22Z</time></trkpt>
<trkpt lat="48.447093" lon="2.720108"><ele></ele><time>2021-3-5T17:54:25Z</time></trkpt>
<trkpt lat="48.447077" lon="2.720211"><ele></ele><time>2021-3-5T17:54:28Z</time></trkpt>
<trkpt lat="48.447059" lon="2.720352"><ele></ele><time>2021-3-5T17:54:31Z</time></trkpt>
<trkpt lat="48.447056" lon="2.720514"><ele></ele><time>2021-3-5T17:54:34Z</time></trkpt>
<trkpt lat="48.447052" lon="2.720622"><ele></ele><time>2021-3-5T17:54:37Z</time></trkpt>
<trkpt lat="48.447022" lon="2.720711"><ele></ele><time>2021-3-5T17:54:40Z</time></trkpt>
<trkpt lat="48.447032" lon="2.720893"><ele></ele><time>2021-3-5T17:54:43Z</time></trkpt>
<trkpt lat="48.447094" lon="2.721097"><ele></ele><time>2021-3-5T17:54:46Z</time></trkpt>
<trkpt lat="48.447169" lon="2.721192"><ele></ele><time>2021-3-5T17:54:49Z</time></trkpt>
<trkpt lat="48.447232" lon="2.721287"><ele></ele><time>2021-3-5T17:54:52Z</time></trkpt>
<trkpt lat="48.447307" lon="2.721373"><ele></ele><time>2021-3-5T17:54:55Z</time></trkpt>
<trkpt lat="48.447521" lon="2.721471"><ele></ele><time>2021-3-5T17:54:58Z</time></trkpt>
<trkpt lat="48.447599" lon="2.721519"><ele></ele><time>2021-3-5T17:55:1Z</time></trkpt>
<trkpt lat="48.447692" lon="2.721587"><ele></ele><time>2021-3-5T17:55:4Z</time></trkpt>
<trkpt lat="48.447761" lon="2.721629"><ele></ele><time>2021-3-5T17:55:7Z</time></trkpt>
<trkpt lat="48.447836" lon="2.721676"><ele></ele><time>2021-3-5T17:55:10Z</time></trkpt>
<trkpt lat="48.447965" lon="2.721841"><ele></ele><time>2021-3-5T17:55:13Z</time></trkpt>
<trkpt lat="48.448004" lon="2.721999"><ele></ele><time>2021-3-5T17:55:16Z</time></trkpt>
<trkpt lat="48.448013" lon="2.722162"><ele></ele><time>2021-3-5T17:55:19Z</time></trkpt>
<trkpt lat="48.448036" lon="2.722314"><ele></ele><time>2021-3-5T17:55:22Z</time></trkpt>
<trkpt lat="48.448053" lon="2.722438"><ele></ele><time>2021-3-5T17:55:25Z</time></trkpt>
<trkpt lat="48.448074" lon="2.722595"><ele></ele><time>2021-3-5T17:55:28Z</time></trkpt>
<trkpt lat="48.448149" lon="2.722732"><ele></ele><time>2021-3-5T17:55:31Z</time></trkpt>
<trkpt lat="48.448218" lon="2.72283"><ele></ele><time>2021-3-5T17:55:34Z</time></trkpt>
<trkpt lat="48.448267" lon="2.722998"><ele></ele><time>2021-3-5T17:55:37Z</time></trkpt>
<trkpt lat="48.448347" lon="2.723194"><ele></ele><time>2021-3-5T17:55:40Z</time></trkpt>
<trkpt lat="48.448399" lon="2.723345"><ele></ele><time>2021-3-5T17:55:43Z</time></trkpt>
<trkpt lat="48.448457" lon="2.723506"><ele></ele><time>2021-3-5T17:55:46Z</time></trkpt>
<trkpt lat="48.448532" lon="2.723688"><ele></ele><time>2021-3-5T17:55:49Z</time></trkpt>
<trkpt lat="48.44859" lon="2.723813"><ele></ele><time>2021-3-5T17:55:52Z</time></trkpt>
<trkpt lat="48.448626" lon="2.723952"><ele></ele><time>2021-3-5T17:55:55Z</time></trkpt>
<trkpt lat="48.448634" lon="2.724117"><ele></ele><time>2021-3-5T17:55:58Z</time></trkpt>
<trkpt lat="48.448633" lon="2.724282"><ele></ele><time>2021-3-5T17:56:1Z</time></trkpt>
<trkpt lat="48.448644" lon="2.724434"><ele></ele><time>2021-3-5T17:56:4Z</time></trkpt>
<trkpt lat="48.448655" lon="2.724611"><ele></ele><time>2021-3-5T17:56:7Z</time></trkpt>
<trkpt lat="48.448661" lon="2.724752"><ele></ele><time>2021-3-5T17:56:10Z</time></trkpt>
<trkpt lat="48.448712" lon="2.724883"><ele></ele><time>2021-3-5T17:56:13Z</time></trkpt>
<trkpt lat="48.448773" lon="2.725052"><ele></ele><time>2021-3-5T17:56:16Z</time></trkpt>
<trkpt lat="48.448802" lon="2.725212"><ele></ele><time>2021-3-5T17:56:19Z</time></trkpt>
<trkpt lat="48.448828" lon="2.725391"><ele></ele><time>2021-3-5T17:56:22Z</time></trkpt>
<trkpt lat="48.448769" lon="2.725534"><ele></ele><time>2021-3-5T17:56:25Z</time></trkpt>
<trkpt lat="48.448716" lon="2.725705"><ele></ele><time>2021-3-5T17:56:28Z</time></trkpt>
<trkpt lat="48.44868" lon="2.725984"><ele></ele><time>2021-3-5T17:56:31Z</time></trkpt>
<trkpt lat="48.448663" lon="2.726196"><ele></ele><time>2021-3-5T17:56:34Z</time></trkpt>
<trkpt lat="48.448642" lon="2.726417"><ele></ele><time>2021-3-5T17:56:37Z</time></trkpt>
<trkpt lat="48.44862" lon="2.726662"><ele></ele><time>2021-3-5T17:56:40Z</time></trkpt>
<trkpt lat="48.448631" lon="2.726802"><ele></ele><time>2021-3-5T17:56:43Z</time></trkpt>
<trkpt lat="48.448694" lon="2.726951"><ele></ele><time>2021-3-5T17:56:46Z</time></trkpt>
<trkpt lat="48.448729" lon="2.72711"><ele></ele><time>2021-3-5T17:56:49Z</time></trkpt>
<trkpt lat="48.448753" lon="2.72734"><ele></ele><time>2021-3-5T17:56:52Z</time></trkpt>
<trkpt lat="48.44884" lon="2.727526"><ele></ele><time>2021-3-5T17:56:55Z</time></trkpt>
<trkpt lat="48.448888" lon="2.727706"><ele></ele><time>2021-3-5T17:56:58Z</time></trkpt>
<trkpt lat="48.448792" lon="2.727891"><ele></ele><time>2021-3-5T17:57:1Z</time></trkpt>
<trkpt lat="48.448671" lon="2.728062"><ele></ele><time>2021-3-5T17:57:4Z</time></trkpt>
<trkpt lat="48.448586" lon="2.728265"><ele></ele><time>2021-3-5T17:57:7Z</time></trkpt>
<trkpt lat="48.448694" lon="2.728335"><ele></ele><time>2021-3-5T17:57:10Z</time></trkpt>
<trkpt lat="48.44877" lon="2.728426"><ele></ele><time>2021-3-5T17:57:13Z</time></trkpt>
<trkpt lat="48.448736" lon="2.728566"><ele></ele><time>2021-3-5T17:57:16Z</time></trkpt>
<trkpt lat="48.448694" lon="2.728659"><ele></ele><time>2021-3-5T17:57:19Z</time></trkpt>
<trkpt lat="48.44864" lon="2.728728"><ele></ele><time>2021-3-5T17:57:22Z</time></trkpt>
<trkpt lat="48.448592" lon="2.728791"><ele></ele><time>2021-3-5T17:57:25Z</time></trkpt>
<trkpt lat="48.44853" lon="2.728866"><ele></ele><time>2021-3-5T17:57:28Z</time></trkpt>
<trkpt lat="48.448471" lon="2.72893"><ele></ele><time>2021-3-5T17:57:31Z</time></trkpt>
<trkpt lat="48.448414" lon="2.729006"><ele></ele><time>2021-3-5T17:57:34Z</time></trkpt>
<trkpt lat="48.448372" lon="2.729058"><ele></ele><time>2021-3-5T17:57:37Z</time></trkpt>
<trkpt lat="48.448359" lon="2.729075"><ele></ele><time>2021-3-5T17:57:40Z</time></trkpt>
<trkpt lat="48.448349" lon="2.729068"><ele></ele><time>2021-3-5T17:57:43Z</time></trkpt>
<trkpt lat="48.44834" lon="2.729059"><ele></ele><time>2021-3-5T17:57:46Z</time></trkpt>
<trkpt lat="48.448337" lon="2.729047"><ele></ele><time>2021-3-5T17:57:49Z</time></trkpt>
<trkpt lat="48.448339" lon="2.729045"><ele></ele><time>2021-3-5T17:57:52Z</time></trkpt>
<trkpt lat="48.448342" lon="2.729054"><ele></ele><time>2021-3-5T17:57:55Z</time></trkpt>
<trkpt lat="48.448343" lon="2.729059"><ele></ele><time>2021-3-5T17:57:58Z</time></trkpt>
<trkpt lat="48.448342" lon="2.729061"><ele></ele><time>2021-3-5T17:58:1Z</time></trkpt>
<trkpt lat="48.448341" lon="2.729062"><ele></ele><time>2021-3-5T17:58:4Z</time></trkpt>
<trkpt lat="48.44834" lon="2.729062"><ele></ele><time>2021-3-5T17:58:7Z</time></trkpt>
<trkpt lat="48.44834" lon="2.729062"><ele></ele><time>2021-3-5T17:58:10Z</time></trkpt>
<trkpt lat="48.44834" lon="2.729062"><ele></ele><time>2021-3-5T17:58:13Z</time></trkpt>
<trkpt lat="48.44834" lon="2.729062"><ele></ele><time>2021-3-5T17:58:16Z</time></trkpt>
<trkpt lat="48.44834" lon="2.729062"><ele></ele><time>2021-3-5T17:58:19Z</time></trkpt>
<trkpt lat="48.44834" lon="2.729062"><ele></ele><time>2021-3-5T17:58:22Z</time></trkpt>
<trkpt lat="48.448339" lon="2.72906"><ele></ele><time>2021-3-5T17:58:25Z</time></trkpt>
<trkpt lat="48.448338" lon="2.729044"><ele></ele><time>2021-3-5T17:58:28Z</time></trkpt>
<trkpt lat="48.448353" lon="2.729018"><ele></ele><time>2021-3-5T17:58:31Z</time></trkpt>
<trkpt lat="48.448399" lon="2.728984"><ele></ele><time>2021-3-5T17:58:34Z</time></trkpt>
<trkpt lat="48.448452" lon="2.728933"><ele></ele><time>2021-3-5T17:58:37Z</time></trkpt>
<trkpt lat="48.448514" lon="2.728866"><ele></ele><time>2021-3-5T17:58:40Z</time></trkpt>
<trkpt lat="48.448602" lon="2.728781"><ele></ele><time>2021-3-5T17:58:43Z</time></trkpt>
<trkpt lat="48.44872" lon="2.728717"><ele></ele><time>2021-3-5T17:58:46Z</time></trkpt>
<trkpt lat="48.448807" lon="2.728597"><ele></ele><time>2021-3-5T17:58:49Z</time></trkpt>
<trkpt lat="48.448816" lon="2.728466"><ele></ele><time>2021-3-5T17:58:52Z</time></trkpt>
<trkpt lat="48.448725" lon="2.728333"><ele></ele><time>2021-3-5T17:58:55Z</time></trkpt>
<trkpt lat="48.44861" lon="2.728251"><ele></ele><time>2021-3-5T17:58:58Z</time></trkpt>
<trkpt lat="48.448531" lon="2.728262"><ele></ele><time>2021-3-5T17:59:1Z</time></trkpt>
<trkpt lat="48.448461" lon="2.728358"><ele></ele><time>2021-3-5T17:59:4Z</time></trkpt>
<trkpt lat="48.448394" lon="2.728428"><ele></ele><time>2021-3-5T17:59:7Z</time></trkpt>
<trkpt lat="48.44834" lon="2.728502"><ele></ele><time>2021-3-5T17:59:10Z</time></trkpt>
<trkpt lat="48.448291" lon="2.728607"><ele></ele><time>2021-3-5T17:59:13Z</time></trkpt>
<trkpt lat="48.448242" lon="2.72872"><ele></ele><time>2021-3-5T17:59:16Z</time></trkpt>
<trkpt lat="48.448172" lon="2.728837"><ele></ele><time>2021-3-5T17:59:19Z</time></trkpt>
<trkpt lat="48.448119" lon="2.728913"><ele></ele><time>2021-3-5T17:59:22Z</time></trkpt>
<trkpt lat="48.448074" lon="2.728963"><ele></ele><time>2021-3-5T17:59:25Z</time></trkpt>
<trkpt lat="48.448039" lon="2.729"><ele></ele><time>2021-3-5T17:59:28Z</time></trkpt>
<trkpt lat="48.448006" lon="2.729045"><ele></ele><time>2021-3-5T17:59:31Z</time></trkpt>
<trkpt lat="48.447999" lon="2.729052"><ele></ele><time>2021-3-5T17:59:34Z</time></trkpt>
<trkpt lat="48.448004" lon="2.729062"><ele></ele><time>2021-3-5T17:59:37Z</time></trkpt>
<trkpt lat="48.447999" lon="2.729071"><ele></ele><time>2021-3-5T17:59:40Z</time></trkpt>
<trkpt lat="48.447968" lon="2.729095"><ele></ele><time>2021-3-5T17:59:43Z</time></trkpt>
<trkpt lat="48.447906" lon="2.729156"><ele></ele><time>2021-3-5T17:59:46Z</time></trkpt>
<trkpt lat="48.447806" lon="2.729258"><ele></ele><time>2021-3-5T17:59:49Z</time></trkpt>
<trkpt lat="48.447703" lon="2.729376"><ele></ele><time>2021-3-5T17:59:52Z</time></trkpt>
<trkpt lat="48.447603" lon="2.729495"><ele></ele><time>2021-3-5T17:59:55Z</time></trkpt>
<trkpt lat="48.447496" lon="2.729638"><ele></ele><time>2021-3-5T17:59:58Z</time></trkpt>
<trkpt lat="48.447393" lon="2.72975"><ele></ele><time>2021-3-5T18:0:1Z</time></trkpt>
<trkpt lat="48.447286" lon="2.729879"><ele></ele><time>2021-3-5T18:0:4Z</time></trkpt>
<trkpt lat="48.447178" lon="2.730033"><ele></ele><time>2021-3-5T18:0:7Z</time></trkpt>
<trkpt lat="48.447061" lon="2.730177"><ele></ele><time>2021-3-5T18:0:10Z</time></trkpt>
<trkpt lat="48.446958" lon="2.73031"><ele></ele><time>2021-3-5T18:0:13Z</time></trkpt>
<trkpt lat="48.446848" lon="2.730454"><ele></ele><time>2021-3-5T18:0:16Z</time></trkpt>
<trkpt lat="48.446731" lon="2.730593"><ele></ele><time>2021-3-5T18:0:19Z</time></trkpt>
<trkpt lat="48.446627" lon="2.73069"><ele></ele><time>2021-3-5T18:0:22Z</time></trkpt>
<trkpt lat="48.4465" lon="2.730832"><ele></ele><time>2021-3-5T18:0:25Z</time></trkpt>
<trkpt lat="48.446393" lon="2.730965"><ele></ele><time>2021-3-5T18:0:28Z</time></trkpt>
<trkpt lat="48.446261" lon="2.731087"><ele></ele><time>2021-3-5T18:0:31Z</time></trkpt>
<trkpt lat="48.446155" lon="2.731272"><ele></ele><time>2021-3-5T18:0:34Z</time></trkpt>
<trkpt lat="48.446037" lon="2.73139"><ele></ele><time>2021-3-5T18:0:37Z</time></trkpt>
<trkpt lat="48.445927" lon="2.731532"><ele></ele><time>2021-3-5T18:0:40Z</time></trkpt>
<trkpt lat="48.445807" lon="2.731697"><ele></ele><time>2021-3-5T18:0:43Z</time></trkpt>
<trkpt lat="48.445698" lon="2.73185"><ele></ele><time>2021-3-5T18:0:46Z</time></trkpt>
<trkpt lat="48.445587" lon="2.731977"><ele></ele><time>2021-3-5T18:0:49Z</time></trkpt>
<trkpt lat="48.445464" lon="2.732103"><ele></ele><time>2021-3-5T18:0:52Z</time></trkpt>
<trkpt lat="48.445345" lon="2.732235"><ele></ele><time>2021-3-5T18:0:55Z</time></trkpt>
<trkpt lat="48.44523" lon="2.732371"><ele></ele><time>2021-3-5T18:0:58Z</time></trkpt>
<trkpt lat="48.445133" lon="2.732461"><ele></ele><time>2021-3-5T18:1:1Z</time></trkpt>
<trkpt lat="48.445012" lon="2.732602"><ele></ele><time>2021-3-5T18:1:4Z</time></trkpt>
<trkpt lat="48.444918" lon="2.732726"><ele></ele><time>2021-3-5T18:1:7Z</time></trkpt>
<trkpt lat="48.444845" lon="2.732809"><ele></ele><time>2021-3-5T18:1:10Z</time></trkpt>
<trkpt lat="48.444766" lon="2.732913"><ele></ele><time>2021-3-5T18:1:13Z</time></trkpt>
<trkpt lat="48.444661" lon="2.732998"><ele></ele><time>2021-3-5T18:1:16Z</time></trkpt>
<trkpt lat="48.444577" lon="2.733153"><ele></ele><time>2021-3-5T18:1:19Z</time></trkpt>
<trkpt lat="48.444462" lon="2.733277"><ele></ele><time>2021-3-5T18:1:22Z</time></trkpt>
<trkpt lat="48.44434" lon="2.733396"><ele></ele><time>2021-3-5T18:1:25Z</time></trkpt>
<trkpt lat="48.444209" lon="2.733486"><ele></ele><time>2021-3-5T18:1:28Z</time></trkpt>
<trkpt lat="48.444077" lon="2.733607"><ele></ele><time>2021-3-5T18:1:31Z</time></trkpt>
<trkpt lat="48.443965" lon="2.733753"><ele></ele><time>2021-3-5T18:1:34Z</time></trkpt>
<trkpt lat="48.443837" lon="2.733877"><ele></ele><time>2021-3-5T18:1:37Z</time></trkpt>
<trkpt lat="48.443704" lon="2.733972"><ele></ele><time>2021-3-5T18:1:40Z</time></trkpt>
<trkpt lat="48.443562" lon="2.734109"><ele></ele><time>2021-3-5T18:1:43Z</time></trkpt>
<trkpt lat="48.443434" lon="2.734246"><ele></ele><time>2021-3-5T18:1:46Z</time></trkpt>
<trkpt lat="48.443288" lon="2.734333"><ele></ele><time>2021-3-5T18:1:49Z</time></trkpt>
<trkpt lat="48.44314" lon="2.73442"><ele></ele><time>2021-3-5T18:1:52Z</time></trkpt>
<trkpt lat="48.443005" lon="2.73448"><ele></ele><time>2021-3-5T18:1:55Z</time></trkpt>
<trkpt lat="48.442855" lon="2.734576"><ele></ele><time>2021-3-5T18:1:58Z</time></trkpt>
<trkpt lat="48.442716" lon="2.734659"><ele></ele><time>2021-3-5T18:2:1Z</time></trkpt>
<trkpt lat="48.442579" lon="2.734713"><ele></ele><time>2021-3-5T18:2:4Z</time></trkpt>
<trkpt lat="48.442442" lon="2.734806"><ele></ele><time>2021-3-5T18:2:7Z</time></trkpt>
<trkpt lat="48.442294" lon="2.734894"><ele></ele><time>2021-3-5T18:2:10Z</time></trkpt>
<trkpt lat="48.442147" lon="2.735005"><ele></ele><time>2021-3-5T18:2:13Z</time></trkpt>
<trkpt lat="48.442006" lon="2.735142"><ele></ele><time>2021-3-5T18:2:16Z</time></trkpt>
<trkpt lat="48.441858" lon="2.73527"><ele></ele><time>2021-3-5T18:2:19Z</time></trkpt>
<trkpt lat="48.441684" lon="2.735402"><ele></ele><time>2021-3-5T18:2:22Z</time></trkpt>
<trkpt lat="48.441527" lon="2.735538"><ele></ele><time>2021-3-5T18:2:25Z</time></trkpt>
<trkpt lat="48.441368" lon="2.735698"><ele></ele><time>2021-3-5T18:2:28Z</time></trkpt>
<trkpt lat="48.441229" lon="2.735829"><ele></ele><time>2021-3-5T18:2:31Z</time></trkpt>
<trkpt lat="48.441096" lon="2.73594"><ele></ele><time>2021-3-5T18:2:34Z</time></trkpt>
<trkpt lat="48.440984" lon="2.73605"><ele></ele><time>2021-3-5T18:2:37Z</time></trkpt>
<trkpt lat="48.440843" lon="2.736137"><ele></ele><time>2021-3-5T18:2:40Z</time></trkpt>
<trkpt lat="48.440689" lon="2.736244"><ele></ele><time>2021-3-5T18:2:43Z</time></trkpt>
<trkpt lat="48.440524" lon="2.736342"><ele></ele><time>2021-3-5T18:2:46Z</time></trkpt>
<trkpt lat="48.440397" lon="2.736419"><ele></ele><time>2021-3-5T18:2:49Z</time></trkpt>
<trkpt lat="48.440256" lon="2.736483"><ele></ele><time>2021-3-5T18:2:52Z</time></trkpt>
<trkpt lat="48.440105" lon="2.736548"><ele></ele><time>2021-3-5T18:2:55Z</time></trkpt>
<trkpt lat="48.439953" lon="2.736632"><ele></ele><time>2021-3-5T18:2:58Z</time></trkpt>
<trkpt lat="48.439824" lon="2.736717"><ele></ele><time>2021-3-5T18:3:1Z</time></trkpt>
<trkpt lat="48.439705" lon="2.73672"><ele></ele><time>2021-3-5T18:3:4Z</time></trkpt>
<trkpt lat="48.439548" lon="2.736827"><ele></ele><time>2021-3-5T18:3:7Z</time></trkpt>
<trkpt lat="48.439446" lon="2.73687"><ele></ele><time>2021-3-5T18:3:10Z</time></trkpt>
<trkpt lat="48.439338" lon="2.736883"><ele></ele><time>2021-3-5T18:3:13Z</time></trkpt>
<trkpt lat="48.439245" lon="2.736955"><ele></ele><time>2021-3-5T18:3:16Z</time></trkpt>
<trkpt lat="48.43916" lon="2.737008"><ele></ele><time>2021-3-5T18:3:19Z</time></trkpt>
<trkpt lat="48.439063" lon="2.73706"><ele></ele><time>2021-3-5T18:3:22Z</time></trkpt>
<trkpt lat="48.438957" lon="2.737118"><ele></ele><time>2021-3-5T18:3:25Z</time></trkpt>
<trkpt lat="48.438826" lon="2.737168"><ele></ele><time>2021-3-5T18:3:28Z</time></trkpt>
<trkpt lat="48.438708" lon="2.737203"><ele></ele><time>2021-3-5T18:3:31Z</time></trkpt>
<trkpt lat="48.438599" lon="2.737236"><ele></ele><time>2021-3-5T18:3:34Z</time></trkpt>
<trkpt lat="48.43849" lon="2.737297"><ele></ele><time>2021-3-5T18:3:37Z</time></trkpt>
<trkpt lat="48.438361" lon="2.73736"><ele></ele><time>2021-3-5T18:3:40Z</time></trkpt>
<trkpt lat="48.438242" lon="2.737417"><ele></ele><time>2021-3-5T18:3:43Z</time></trkpt>
<trkpt lat="48.438119" lon="2.737461"><ele></ele><time>2021-3-5T18:3:46Z</time></trkpt>
<trkpt lat="48.437991" lon="2.737492"><ele></ele><time>2021-3-5T18:3:49Z</time></trkpt>
<trkpt lat="48.437857" lon="2.737513"><ele></ele><time>2021-3-5T18:3:52Z</time></trkpt>
<trkpt lat="48.437741" lon="2.73757"><ele></ele><time>2021-3-5T18:3:55Z</time></trkpt>
<trkpt lat="48.437625" lon="2.737575"><ele></ele><time>2021-3-5T18:3:58Z</time></trkpt>
<trkpt lat="48.437518" lon="2.737599"><ele></ele><time>2021-3-5T18:4:1Z</time></trkpt>
<trkpt lat="48.437406" lon="2.737614"><ele></ele><time>2021-3-5T18:4:4Z</time></trkpt>
<trkpt lat="48.437268" lon="2.737659"><ele></ele><time>2021-3-5T18:4:7Z</time></trkpt>
<trkpt lat="48.437126" lon="2.737711"><ele></ele><time>2021-3-5T18:4:10Z</time></trkpt>
<trkpt lat="48.436982" lon="2.737731"><ele></ele><time>2021-3-5T18:4:13Z</time></trkpt>
<trkpt lat="48.436836" lon="2.737768"><ele></ele><time>2021-3-5T18:4:16Z</time></trkpt>
<trkpt lat="48.43672" lon="2.737799"><ele></ele><time>2021-3-5T18:4:19Z</time></trkpt>
<trkpt lat="48.436585" lon="2.73784"><ele></ele><time>2021-3-5T18:4:22Z</time></trkpt>
<trkpt lat="48.436451" lon="2.737866"><ele></ele><time>2021-3-5T18:4:25Z</time></trkpt>
<trkpt lat="48.436322" lon="2.737886"><ele></ele><time>2021-3-5T18:4:28Z</time></trkpt>
<trkpt lat="48.436208" lon="2.73789"><ele></ele><time>2021-3-5T18:4:31Z</time></trkpt>
<trkpt lat="48.436088" lon="2.737928"><ele></ele><time>2021-3-5T18:4:34Z</time></trkpt>
<trkpt lat="48.435953" lon="2.737944"><ele></ele><time>2021-3-5T18:4:37Z</time></trkpt>
<trkpt lat="48.435819" lon="2.737936"><ele></ele><time>2021-3-5T18:4:40Z</time></trkpt>
<trkpt lat="48.435699" lon="2.737965"><ele></ele><time>2021-3-5T18:4:43Z</time></trkpt>
<trkpt lat="48.435586" lon="2.738008"><ele></ele><time>2021-3-5T18:4:46Z</time></trkpt>
<trkpt lat="48.435467" lon="2.738005"><ele></ele><time>2021-3-5T18:4:49Z</time></trkpt>
<trkpt lat="48.435332" lon="2.737998"><ele></ele><time>2021-3-5T18:4:52Z</time></trkpt>
<trkpt lat="48.43523" lon="2.738034"><ele></ele><time>2021-3-5T18:4:55Z</time></trkpt>
<trkpt lat="48.435125" lon="2.738054"><ele></ele><time>2021-3-5T18:4:58Z</time></trkpt>
<trkpt lat="48.435036" lon="2.738049"><ele></ele><time>2021-3-5T18:5:1Z</time></trkpt>
<trkpt lat="48.434968" lon="2.738013"><ele></ele><time>2021-3-5T18:5:4Z</time></trkpt>
<trkpt lat="48.434907" lon="2.737989"><ele></ele><time>2021-3-5T18:5:7Z</time></trkpt>
<trkpt lat="48.434861" lon="2.737985"><ele></ele><time>2021-3-5T18:5:10Z</time></trkpt>
<trkpt lat="48.434819" lon="2.737944"><ele></ele><time>2021-3-5T18:5:13Z</time></trkpt>
<trkpt lat="48.434783" lon="2.737917"><ele></ele><time>2021-3-5T18:5:16Z</time></trkpt>
<trkpt lat="48.434748" lon="2.737898"><ele></ele><time>2021-3-5T18:5:19Z</time></trkpt>
<trkpt lat="48.434717" lon="2.737902"><ele></ele><time>2021-3-5T18:5:22Z</time></trkpt>
<trkpt lat="48.434686" lon="2.737894"><ele></ele><time>2021-3-5T18:5:25Z</time></trkpt>
<trkpt lat="48.434619" lon="2.737881"><ele></ele><time>2021-3-5T18:5:28Z</time></trkpt>
<trkpt lat="48.434519" lon="2.737908"><ele></ele><time>2021-3-5T18:5:31Z</time></trkpt>
<trkpt lat="48.434406" lon="2.737906"><ele></ele><time>2021-3-5T18:5:34Z</time></trkpt>
<trkpt lat="48.43434" lon="2.737909"><ele></ele><time>2021-3-5T18:5:37Z</time></trkpt>
<trkpt lat="48.4343" lon="2.737903"><ele></ele><time>2021-3-5T18:5:40Z</time></trkpt>
<trkpt lat="48.434294" lon="2.737798"><ele></ele><time>2021-3-5T18:5:43Z</time></trkpt>
<trkpt lat="48.434331" lon="2.737714"><ele></ele><time>2021-3-5T18:5:46Z</time></trkpt>
<trkpt lat="48.434386" lon="2.737594"><ele></ele><time>2021-3-5T18:5:49Z</time></trkpt>
<trkpt lat="48.434417" lon="2.737435"><ele></ele><time>2021-3-5T18:5:52Z</time></trkpt>
<trkpt lat="48.434423" lon="2.737318"><ele></ele><time>2021-3-5T18:5:55Z</time></trkpt>
<trkpt lat="48.434432" lon="2.73726"><ele></ele><time>2021-3-5T18:5:58Z</time></trkpt>
<trkpt lat="48.434425" lon="2.737247"><ele></ele><time>2021-3-5T18:6:1Z</time></trkpt>
<trkpt lat="48.434439" lon="2.737238"><ele></ele><time>2021-3-5T18:6:4Z</time></trkpt>
<trkpt lat="48.434454" lon="2.737231"><ele></ele><time>2021-3-5T18:6:7Z</time></trkpt>
<trkpt lat="48.434452" lon="2.737221"><ele></ele><time>2021-3-5T18:6:10Z</time></trkpt>
<trkpt lat="48.434448" lon="2.737219"><ele></ele><time>2021-3-5T18:6:13Z</time></trkpt>
<trkpt lat="48.43445" lon="2.737215"><ele></ele><time>2021-3-5T18:6:16Z</time></trkpt>
<trkpt lat="48.434446" lon="2.737216"><ele></ele><time>2021-3-5T18:6:19Z</time></trkpt>
<trkpt lat="48.434446" lon="2.737217"><ele></ele><time>2021-3-5T18:6:22Z</time></trkpt>
<trkpt lat="48.43445" lon="2.737213"><ele></ele><time>2021-3-5T18:6:25Z</time></trkpt>
<trkpt lat="48.434447" lon="2.73721"><ele></ele><time>2021-3-5T18:6:28Z</time></trkpt>
<trkpt lat="48.434436" lon="2.737244"><ele></ele><time>2021-3-5T18:6:31Z</time></trkpt>
<trkpt lat="48.434422" lon="2.737319"><ele></ele><time>2021-3-5T18:6:34Z</time></trkpt>
<trkpt lat="48.434407" lon="2.737442"><ele></ele><time>2021-3-5T18:6:37Z</time></trkpt>
<trkpt lat="48.434367" lon="2.737597"><ele></ele><time>2021-3-5T18:6:40Z</time></trkpt>
<trkpt lat="48.434282" lon="2.737689"><ele></ele><time>2021-3-5T18:6:43Z</time></trkpt>
<trkpt lat="48.434178" lon="2.737728"><ele></ele><time>2021-3-5T18:6:46Z</time></trkpt>
<trkpt lat="48.434051" lon="2.737736"><ele></ele><time>2021-3-5T18:6:49Z</time></trkpt>
<trkpt lat="48.43394" lon="2.737725"><ele></ele><time>2021-3-5T18:6:52Z</time></trkpt>
<trkpt lat="48.433878" lon="2.737642"><ele></ele><time>2021-3-5T18:6:55Z</time></trkpt>
<trkpt lat="48.433873" lon="2.73754"><ele></ele><time>2021-3-5T18:6:58Z</time></trkpt>
<trkpt lat="48.433891" lon="2.737429"><ele></ele><time>2021-3-5T18:7:1Z</time></trkpt>
<trkpt lat="48.433883" lon="2.737249"><ele></ele><time>2021-3-5T18:7:4Z</time></trkpt>
<trkpt lat="48.433884" lon="2.73709"><ele></ele><time>2021-3-5T18:7:7Z</time></trkpt>
<trkpt lat="48.433891" lon="2.736889"><ele></ele><time>2021-3-5T18:7:10Z</time></trkpt>
<trkpt lat="48.433844" lon="2.736624"><ele></ele><time>2021-3-5T18:7:13Z</time></trkpt>
<trkpt lat="48.43381" lon="2.736485"><ele></ele><time>2021-3-5T18:7:16Z</time></trkpt>
<trkpt lat="48.433742" lon="2.736346"><ele></ele><time>2021-3-5T18:7:19Z</time></trkpt>
<trkpt lat="48.433652" lon="2.736246"><ele></ele><time>2021-3-5T18:7:22Z</time></trkpt>
<trkpt lat="48.433616" lon="2.736142"><ele></ele><time>2021-3-5T18:7:25Z</time></trkpt>
<trkpt lat="48.433547" lon="2.736073"><ele></ele><time>2021-3-5T18:7:28Z</time></trkpt>
<trkpt lat="48.433451" lon="2.736028"><ele></ele><time>2021-3-5T18:7:31Z</time></trkpt>
<trkpt lat="48.433367" lon="2.735996"><ele></ele><time>2021-3-5T18:7:34Z</time></trkpt>
<trkpt lat="48.433298" lon="2.735939"><ele></ele><time>2021-3-5T18:7:37Z</time></trkpt>
<trkpt lat="48.4332" lon="2.735904"><ele></ele><time>2021-3-5T18:7:40Z</time></trkpt>
<trkpt lat="48.43311" lon="2.735909"><ele></ele><time>2021-3-5T18:7:43Z</time></trkpt>
<trkpt lat="48.433034" lon="2.735876"><ele></ele><time>2021-3-5T18:7:46Z</time></trkpt>
<trkpt lat="48.432977" lon="2.735831"><ele></ele><time>2021-3-5T18:7:49Z</time></trkpt>
<trkpt lat="48.432905" lon="2.73579"><ele></ele><time>2021-3-5T18:7:52Z</time></trkpt>
<trkpt lat="48.432843" lon="2.735744"><ele></ele><time>2021-3-5T18:7:55Z</time></trkpt>
<trkpt lat="48.432799" lon="2.735723"><ele></ele><time>2021-3-5T18:7:58Z</time></trkpt>
<trkpt lat="48.432737" lon="2.735665"><ele></ele><time>2021-3-5T18:8:1Z</time></trkpt>
<trkpt lat="48.432657" lon="2.735589"><ele></ele><time>2021-3-5T18:8:4Z</time></trkpt>
<trkpt lat="48.432575" lon="2.735544"><ele></ele><time>2021-3-5T18:8:7Z</time></trkpt>
<trkpt lat="48.432516" lon="2.735483"><ele></ele><time>2021-3-5T18:8:10Z</time></trkpt>
<trkpt lat="48.432489" lon="2.735424"><ele></ele><time>2021-3-5T18:8:13Z</time></trkpt>
<trkpt lat="48.432502" lon="2.735348"><ele></ele><time>2021-3-5T18:8:16Z</time></trkpt>
<trkpt lat="48.432524" lon="2.735284"><ele></ele><time>2021-3-5T18:8:19Z</time></trkpt>
<trkpt lat="48.432558" lon="2.735204"><ele></ele><time>2021-3-5T18:8:22Z</time></trkpt>
<trkpt lat="48.432615" lon="2.735175"><ele></ele><time>2021-3-5T18:8:25Z</time></trkpt>
<trkpt lat="48.432638" lon="2.735093"><ele></ele><time>2021-3-5T18:8:28Z</time></trkpt>
<trkpt lat="48.432624" lon="2.734992"><ele></ele><time>2021-3-5T18:8:31Z</time></trkpt>
<trkpt lat="48.432633" lon="2.734885"><ele></ele><time>2021-3-5T18:8:34Z</time></trkpt>
<trkpt lat="48.432662" lon="2.734767"><ele></ele><time>2021-3-5T18:8:37Z</time></trkpt>
<trkpt lat="48.432691" lon="2.734668"><ele></ele><time>2021-3-5T18:8:40Z</time></trkpt>
<trkpt lat="48.432693" lon="2.734603"><ele></ele><time>2021-3-5T18:8:43Z</time></trkpt>
<trkpt lat="48.432692" lon="2.734567"><ele></ele><time>2021-3-5T18:8:46Z</time></trkpt>
<trkpt lat="48.43269" lon="2.734531"><ele></ele><time>2021-3-5T18:8:49Z</time></trkpt>
<trkpt lat="48.432665" lon="2.734506"><ele></ele><time>2021-3-5T18:8:52Z</time></trkpt>
<trkpt lat="48.432654" lon="2.734481"><ele></ele><time>2021-3-5T18:8:55Z</time></trkpt>
<trkpt lat="48.432656" lon="2.734446"><ele></ele><time>2021-3-5T18:8:58Z</time></trkpt>
<trkpt lat="48.432656" lon="2.734391"><ele></ele><time>2021-3-5T18:9:1Z</time></trkpt>
<trkpt lat="48.432648" lon="2.734309"><ele></ele><time>2021-3-5T18:9:4Z</time></trkpt>
<trkpt lat="48.432655" lon="2.734214"><ele></ele><time>2021-3-5T18:9:7Z</time></trkpt>
<trkpt lat="48.432628" lon="2.734123"><ele></ele><time>2021-3-5T18:9:10Z</time></trkpt>
<trkpt lat="48.432568" lon="2.734053"><ele></ele><time>2021-3-5T18:9:13Z</time></trkpt>
<trkpt lat="48.432547" lon="2.733973"><ele></ele><time>2021-3-5T18:9:16Z</time></trkpt>
<trkpt lat="48.432554" lon="2.73387"><ele></ele><time>2021-3-5T18:9:19Z</time></trkpt>
<trkpt lat="48.432578" lon="2.733783"><ele></ele><time>2021-3-5T18:9:22Z</time></trkpt>
<trkpt lat="48.432586" lon="2.733715"><ele></ele><time>2021-3-5T18:9:25Z</time></trkpt>
<trkpt lat="48.432593" lon="2.733651"><ele></ele><time>2021-3-5T18:9:28Z</time></trkpt>
<trkpt lat="48.432592" lon="2.733599"><ele></ele><time>2021-3-5T18:9:31Z</time></trkpt>
<trkpt lat="48.432598" lon="2.733552"><ele></ele><time>2021-3-5T18:9:34Z</time></trkpt>
<trkpt lat="48.4326" lon="2.733514"><ele></ele><time>2021-3-5T18:9:37Z</time></trkpt>
<trkpt lat="48.432589" lon="2.733467"><ele></ele><time>2021-3-5T18:9:40Z</time></trkpt>
<trkpt lat="48.43257" lon="2.733421"><ele></ele><time>2021-3-5T18:9:43Z</time></trkpt>
<trkpt lat="48.432554" lon="2.733365"><ele></ele><time>2021-3-5T18:9:46Z</time></trkpt>
<trkpt lat="48.432538" lon="2.733315"><ele></ele><time>2021-3-5T18:9:49Z</time></trkpt>
<trkpt lat="48.432541" lon="2.733257"><ele></ele><time>2021-3-5T18:9:52Z</time></trkpt>
<trkpt lat="48.432528" lon="2.73317"><ele></ele><time>2021-3-5T18:9:55Z</time></trkpt>
<trkpt lat="48.432528" lon="2.733096"><ele></ele><time>2021-3-5T18:9:58Z</time></trkpt>
<trkpt lat="48.432559" lon="2.73307"><ele></ele><time>2021-3-5T18:10:1Z</time></trkpt>
<trkpt lat="48.432587" lon="2.733067"><ele></ele><time>2021-3-5T18:10:4Z</time></trkpt>
<trkpt lat="48.432601" lon="2.733076"><ele></ele><time>2021-3-5T18:10:7Z</time></trkpt>
<trkpt lat="48.432653" lon="2.733084"><ele></ele><time>2021-3-5T18:10:10Z</time></trkpt>
<trkpt lat="48.432684" lon="2.733057"><ele></ele><time>2021-3-5T18:10:13Z</time></trkpt>
<trkpt lat="48.432716" lon="2.733021"><ele></ele><time>2021-3-5T18:10:16Z</time></trkpt>
<trkpt lat="48.432766" lon="2.733004"><ele></ele><time>2021-3-5T18:10:19Z</time></trkpt>
<trkpt lat="48.43282" lon="2.733013"><ele></ele><time>2021-3-5T18:10:22Z</time></trkpt>
<trkpt lat="48.432861" lon="2.733006"><ele></ele><time>2021-3-5T18:10:25Z</time></trkpt>
<trkpt lat="48.432889" lon="2.732984"><ele></ele><time>2021-3-5T18:10:28Z</time></trkpt>
<trkpt lat="48.432924" lon="2.732961"><ele></ele><time>2021-3-5T18:10:31Z</time></trkpt>
<trkpt lat="48.432981" lon="2.732911"><ele></ele><time>2021-3-5T18:10:34Z</time></trkpt>
<trkpt lat="48.43302" lon="2.732869"><ele></ele><time>2021-3-5T18:10:37Z</time></trkpt>
<trkpt lat="48.433051" lon="2.732816"><ele></ele><time>2021-3-5T18:10:40Z</time></trkpt>
<trkpt lat="48.433069" lon="2.732778"><ele></ele><time>2021-3-5T18:10:43Z</time></trkpt>
<trkpt lat="48.433088" lon="2.732728"><ele></ele><time>2021-3-5T18:10:46Z</time></trkpt>
<trkpt lat="48.433097" lon="2.732697"><ele></ele><time>2021-3-5T18:10:49Z</time></trkpt>
<trkpt lat="48.433096" lon="2.732696"><ele></ele><time>2021-3-5T18:10:52Z</time></trkpt>
<trkpt lat="48.433092" lon="2.732667"><ele></ele><time>2021-3-5T18:10:55Z</time></trkpt>
<trkpt lat="48.433092" lon="2.732611"><ele></ele><time>2021-3-5T18:10:58Z</time></trkpt>
<trkpt lat="48.433085" lon="2.732535"><ele></ele><time>2021-3-5T18:11:1Z</time></trkpt>
<trkpt lat="48.433066" lon="2.732439"><ele></ele><time>2021-3-5T18:11:4Z</time></trkpt>
<trkpt lat="48.433082" lon="2.73236"><ele></ele><time>2021-3-5T18:11:7Z</time></trkpt>
<trkpt lat="48.433097" lon="2.732277"><ele></ele><time>2021-3-5T18:11:10Z</time></trkpt>
<trkpt lat="48.433104" lon="2.732173"><ele></ele><time>2021-3-5T18:11:13Z</time></trkpt>
<trkpt lat="48.433074" lon="2.732041"><ele></ele><time>2021-3-5T18:11:16Z</time></trkpt>
<trkpt lat="48.433033" lon="2.731945"><ele></ele><time>2021-3-5T18:11:19Z</time></trkpt>
<trkpt lat="48.432969" lon="2.73187"><ele></ele><time>2021-3-5T18:11:22Z</time></trkpt>
<trkpt lat="48.432926" lon="2.731784"><ele></ele><time>2021-3-5T18:11:25Z</time></trkpt>
<trkpt lat="48.432919" lon="2.731719"><ele></ele><time>2021-3-5T18:11:28Z</time></trkpt>
<trkpt lat="48.432899" lon="2.73164"><ele></ele><time>2021-3-5T18:11:31Z</time></trkpt>
<trkpt lat="48.43284" lon="2.731641"><ele></ele><time>2021-3-5T18:11:34Z</time></trkpt>
<trkpt lat="48.432819" lon="2.731761"><ele></ele><time>2021-3-5T18:11:37Z</time></trkpt>
<trkpt lat="48.432691" lon="2.731893"><ele></ele><time>2021-3-5T18:11:40Z</time></trkpt>
<trkpt lat="48.432533" lon="2.732035"><ele></ele><time>2021-3-5T18:11:43Z</time></trkpt>
<trkpt lat="48.432356" lon="2.732125"><ele></ele><time>2021-3-5T18:11:46Z</time></trkpt>
<trkpt lat="48.432154" lon="2.732209"><ele></ele><time>2021-3-5T18:11:49Z</time></trkpt>
<trkpt lat="48.431992" lon="2.732328"><ele></ele><time>2021-3-5T18:11:52Z</time></trkpt>
<trkpt lat="48.431847" lon="2.732349"><ele></ele><time>2021-3-5T18:11:55Z</time></trkpt>
<trkpt lat="48.431773" lon="2.732275"><ele></ele><time>2021-3-5T18:11:58Z</time></trkpt>
<trkpt lat="48.43177" lon="2.732182"><ele></ele><time>2021-3-5T18:12:1Z</time></trkpt>
<trkpt lat="48.431769" lon="2.732081"><ele></ele><time>2021-3-5T18:12:4Z</time></trkpt>
<trkpt lat="48.431771" lon="2.73201"><ele></ele><time>2021-3-5T18:12:7Z</time></trkpt>
<trkpt lat="48.431777" lon="2.731953"><ele></ele><time>2021-3-5T18:12:10Z</time></trkpt>
<trkpt lat="48.43177" lon="2.731887"><ele></ele><time>2021-3-5T18:12:13Z</time></trkpt>
<trkpt lat="48.431772" lon="2.731846"><ele></ele><time>2021-3-5T18:12:16Z</time></trkpt>
<trkpt lat="48.431761" lon="2.731843"><ele></ele><time>2021-3-5T18:12:19Z</time></trkpt>
<trkpt lat="48.431764" lon="2.731854"><ele></ele><time>2021-3-5T18:12:22Z</time></trkpt>
<trkpt lat="48.431768" lon="2.731857"><ele></ele><time>2021-3-5T18:12:25Z</time></trkpt>
<trkpt lat="48.431771" lon="2.73186"><ele></ele><time>2021-3-5T18:12:28Z</time></trkpt>
<trkpt lat="48.431771" lon="2.73186"><ele></ele><time>2021-3-5T18:12:31Z</time></trkpt>
<trkpt lat="48.431771" lon="2.731859"><ele></ele><time>2021-3-5T18:12:34Z</time></trkpt>
<trkpt lat="48.431771" lon="2.731859"><ele></ele><time>2021-3-5T18:12:37Z</time></trkpt>
<trkpt lat="48.431771" lon="2.731859"><ele></ele><time>2021-3-5T18:12:40Z</time></trkpt>
<trkpt lat="48.431771" lon="2.731858"><ele></ele><time>2021-3-5T18:12:43Z</time></trkpt>
<trkpt lat="48.431771" lon="2.731858"><ele></ele><time>2021-3-5T18:12:46Z</time></trkpt>
<trkpt lat="48.431771" lon="2.731858"><ele></ele><time>2021-3-5T18:12:49Z</time></trkpt>
<trkpt lat="48.431771" lon="2.731857"><ele></ele><time>2021-3-5T18:12:52Z</time></trkpt>
<trkpt lat="48.431771" lon="2.731857"><ele></ele><time>2021-3-5T18:12:55Z</time></trkpt>
<trkpt lat="48.431771" lon="2.731856"><ele></ele><time>2021-3-5T18:12:58Z</time></trkpt>
<trkpt lat="48.43177" lon="2.731856"><ele></ele><time>2021-3-5T18:13:1Z</time></trkpt>
<trkpt lat="48.431769" lon="2.731855"><ele></ele><time>2021-3-5T18:13:4Z</time></trkpt>
<trkpt lat="48.431761" lon="2.731851"><ele></ele><time>2021-3-5T18:13:7Z</time></trkpt>
<trkpt lat="48.431756" lon="2.731848"><ele></ele><time>2021-3-5T18:13:10Z</time></trkpt>
<trkpt lat="48.431757" lon="2.731852"><ele></ele><time>2021-3-5T18:13:13Z</time></trkpt>
<trkpt lat="48.431768" lon="2.73186"><ele></ele><time>2021-3-5T18:13:16Z</time></trkpt>
<trkpt lat="48.431775" lon="2.731865"><ele></ele><time>2021-3-5T18:13:19Z</time></trkpt>
<trkpt lat="48.43178" lon="2.731871"><ele></ele><time>2021-3-5T18:13:22Z</time></trkpt>
<trkpt lat="48.431781" lon="2.731873"><ele></ele><time>2021-3-5T18:13:25Z</time></trkpt>
<trkpt lat="48.431781" lon="2.731873"><ele></ele><time>2021-3-5T18:13:28Z</time></trkpt>
<trkpt lat="48.43178" lon="2.731873"><ele></ele><time>2021-3-5T18:13:31Z</time></trkpt>
<trkpt lat="48.43178" lon="2.731872"><ele></ele><time>2021-3-5T18:13:34Z</time></trkpt>
<trkpt lat="48.43178" lon="2.731871"><ele></ele><time>2021-3-5T18:13:37Z</time></trkpt>
<trkpt lat="48.43178" lon="2.73187"><ele></ele><time>2021-3-5T18:13:40Z</time></trkpt>
<trkpt lat="48.431779" lon="2.73187"><ele></ele><time>2021-3-5T18:13:43Z</time></trkpt>
<trkpt lat="48.431779" lon="2.73187"><ele></ele><time>2021-3-5T18:13:46Z</time></trkpt>
<trkpt lat="48.431779" lon="2.731869"><ele></ele><time>2021-3-5T18:13:49Z</time></trkpt>
<trkpt lat="48.431779" lon="2.731869"><ele></ele><time>2021-3-5T18:13:52Z</time></trkpt>
<trkpt lat="48.431779" lon="2.731869"><ele></ele><time>2021-3-5T18:13:55Z</time></trkpt>
<trkpt lat="48.431779" lon="2.731869"><ele></ele><time>2021-3-5T18:13:58Z</time></trkpt>
<trkpt lat="48.431779" lon="2.731868"><ele></ele><time>2021-3-5T18:14:1Z</time></trkpt>
<trkpt lat="48.431779" lon="2.731868"><ele></ele><time>2021-3-5T18:14:4Z</time></trkpt>
<trkpt lat="48.431778" lon="2.731868"><ele></ele><time>2021-3-5T18:14:7Z</time></trkpt>
<trkpt lat="48.431778" lon="2.731867"><ele></ele><time>2021-3-5T18:14:10Z</time></trkpt>
<trkpt lat="48.431778" lon="2.731867"><ele></ele><time>2021-3-5T18:14:13Z</time></trkpt>
<trkpt lat="48.431776" lon="2.731863"><ele></ele><time>2021-3-5T18:14:16Z</time></trkpt>
<trkpt lat="48.431775" lon="2.731856"><ele></ele><time>2021-3-5T18:14:19Z</time></trkpt>
<trkpt lat="48.431779" lon="2.731829"><ele></ele><time>2021-3-5T18:14:22Z</time></trkpt>
<trkpt lat="48.431794" lon="2.731736"><ele></ele><time>2021-3-5T18:14:25Z</time></trkpt>
<trkpt lat="48.43179" lon="2.731591"><ele></ele><time>2021-3-5T18:14:28Z</time></trkpt>
<trkpt lat="48.431792" lon="2.731421"><ele></ele><time>2021-3-5T18:14:31Z</time></trkpt>
<trkpt lat="48.431795" lon="2.731254"><ele></ele><time>2021-3-5T18:14:34Z</time></trkpt>
<trkpt lat="48.431807" lon="2.731084"><ele></ele><time>2021-3-5T18:14:37Z</time></trkpt>
<trkpt lat="48.431816" lon="2.730937"><ele></ele><time>2021-3-5T18:14:40Z</time></trkpt>
<trkpt lat="48.431804" lon="2.730791"><ele></ele><time>2021-3-5T18:14:43Z</time></trkpt>
<trkpt lat="48.43179" lon="2.730606"><ele></ele><time>2021-3-5T18:14:46Z</time></trkpt>
<trkpt lat="48.431777" lon="2.73043"><ele></ele><time>2021-3-5T18:14:49Z</time></trkpt>
<trkpt lat="48.431768" lon="2.730272"><ele></ele><time>2021-3-5T18:14:52Z</time></trkpt>
<trkpt lat="48.431779" lon="2.730103"><ele></ele><time>2021-3-5T18:14:55Z</time></trkpt>
<trkpt lat="48.431796" lon="2.729921"><ele></ele><time>2021-3-5T18:14:58Z</time></trkpt>
<trkpt lat="48.431763" lon="2.729676"><ele></ele><time>2021-3-5T18:15:1Z</time></trkpt>
<trkpt lat="48.431767" lon="2.729435"><ele></ele><time>2021-3-5T18:15:4Z</time></trkpt>
<trkpt lat="48.431776" lon="2.729225"><ele></ele><time>2021-3-5T18:15:7Z</time></trkpt>
<trkpt lat="48.431783" lon="2.729029"><ele></ele><time>2021-3-5T18:15:10Z</time></trkpt>
<trkpt lat="48.431763" lon="2.72885"><ele></ele><time>2021-3-5T18:15:13Z</time></trkpt>
<trkpt lat="48.43178" lon="2.728659"><ele></ele><time>2021-3-5T18:15:16Z</time></trkpt>
<trkpt lat="48.431781" lon="2.728476"><ele></ele><time>2021-3-5T18:15:19Z</time></trkpt>
<trkpt lat="48.431788" lon="2.728304"><ele></ele><time>2021-3-5T18:15:22Z</time></trkpt>
<trkpt lat="48.431791" lon="2.728149"><ele></ele><time>2021-3-5T18:15:25Z</time></trkpt>
<trkpt lat="48.431806" lon="2.727981"><ele></ele><time>2021-3-5T18:15:28Z</time></trkpt>
<trkpt lat="48.431807" lon="2.727848"><ele></ele><time>2021-3-5T18:15:31Z</time></trkpt>
<trkpt lat="48.4318" lon="2.727762"><ele></ele><time>2021-3-5T18:15:34Z</time></trkpt>
<trkpt lat="48.431809" lon="2.727664"><ele></ele><time>2021-3-5T18:15:37Z</time></trkpt>
<trkpt lat="48.431819" lon="2.72755"><ele></ele><time>2021-3-5T18:15:40Z</time></trkpt>
<trkpt lat="48.431811" lon="2.727396"><ele></ele><time>2021-3-5T18:15:43Z</time></trkpt>
<trkpt lat="48.43181" lon="2.727249"><ele></ele><time>2021-3-5T18:15:46Z</time></trkpt>
<trkpt lat="48.431797" lon="2.727108"><ele></ele><time>2021-3-5T18:15:49Z</time></trkpt>
<trkpt lat="48.431777" lon="2.726961"><ele></ele><time>2021-3-5T18:15:52Z</time></trkpt>
<trkpt lat="48.431766" lon="2.726831"><ele></ele><time>2021-3-5T18:15:55Z</time></trkpt>
<trkpt lat="48.431769" lon="2.726719"><ele></ele><time>2021-3-5T18:15:58Z</time></trkpt>
<trkpt lat="48.431789" lon="2.726599"><ele></ele><time>2021-3-5T18:16:1Z</time></trkpt>
<trkpt lat="48.431803" lon="2.726495"><ele></ele><time>2021-3-5T18:16:4Z</time></trkpt>
<trkpt lat="48.431787" lon="2.726378"><ele></ele><time>2021-3-5T18:16:7Z</time></trkpt>
<trkpt lat="48.431778" lon="2.726273"><ele></ele><time>2021-3-5T18:16:10Z</time></trkpt>
<trkpt lat="48.431792" lon="2.726197"><ele></ele><time>2021-3-5T18:16:13Z</time></trkpt>
<trkpt lat="48.431791" lon="2.726113"><ele></ele><time>2021-3-5T18:16:16Z</time></trkpt>
<trkpt lat="48.431779" lon="2.726031"><ele></ele><time>2021-3-5T18:16:19Z</time></trkpt>
<trkpt lat="48.431747" lon="2.725941"><ele></ele><time>2021-3-5T18:16:22Z</time></trkpt>
<trkpt lat="48.431697" lon="2.725857"><ele></ele><time>2021-3-5T18:16:25Z</time></trkpt>
<trkpt lat="48.431658" lon="2.725781"><ele></ele><time>2021-3-5T18:16:28Z</time></trkpt>
<trkpt lat="48.431637" lon="2.725752"><ele></ele><time>2021-3-5T18:16:31Z</time></trkpt>
<trkpt lat="48.431598" lon="2.725756"><ele></ele><time>2021-3-5T18:16:34Z</time></trkpt>
<trkpt lat="48.431558" lon="2.725783"><ele></ele><time>2021-3-5T18:16:37Z</time></trkpt>
<trkpt lat="48.431492" lon="2.725816"><ele></ele><time>2021-3-5T18:16:40Z</time></trkpt>
<trkpt lat="48.431466" lon="2.725829"><ele></ele><time>2021-3-5T18:16:43Z</time></trkpt>
<trkpt lat="48.43144" lon="2.725821"><ele></ele><time>2021-3-5T18:16:46Z</time></trkpt>
<trkpt lat="48.431426" lon="2.725819"><ele></ele><time>2021-3-5T18:16:49Z</time></trkpt>
<trkpt lat="48.431424" lon="2.725818"><ele></ele><time>2021-3-5T18:16:52Z</time></trkpt>
<trkpt lat="48.43142" lon="2.725812"><ele></ele><time>2021-3-5T18:16:55Z</time></trkpt>
<trkpt lat="48.431417" lon="2.725807"><ele></ele><time>2021-3-5T18:16:58Z</time></trkpt>
<trkpt lat="48.431415" lon="2.725804"><ele></ele><time>2021-3-5T18:17:1Z</time></trkpt>
<trkpt lat="48.431417" lon="2.725802"><ele></ele><time>2021-3-5T18:17:4Z</time></trkpt>
<trkpt lat="48.431436" lon="2.725806"><ele></ele><time>2021-3-5T18:17:7Z</time></trkpt>
<trkpt lat="48.431482" lon="2.725783"><ele></ele><time>2021-3-5T18:17:10Z</time></trkpt>
<trkpt lat="48.43153" lon="2.725752"><ele></ele><time>2021-3-5T18:17:13Z</time></trkpt>
<trkpt lat="48.431565" lon="2.725748"><ele></ele><time>2021-3-5T18:17:16Z</time></trkpt>
<trkpt lat="48.43163" lon="2.725726"><ele></ele><time>2021-3-5T18:17:19Z</time></trkpt>
<trkpt lat="48.431678" lon="2.725675"><ele></ele><time>2021-3-5T18:17:22Z</time></trkpt>
<trkpt lat="48.431733" lon="2.725597"><ele></ele><time>2021-3-5T18:17:25Z</time></trkpt>
<trkpt lat="48.431784" lon="2.725518"><ele></ele><time>2021-3-5T18:17:28Z</time></trkpt>
<trkpt lat="48.4318" lon="2.725447"><ele></ele><time>2021-3-5T18:17:31Z</time></trkpt>
<trkpt lat="48.43173" lon="2.725424"><ele></ele><time>2021-3-5T18:17:34Z</time></trkpt>
<trkpt lat="48.431648" lon="2.725424"><ele></ele><time>2021-3-5T18:17:37Z</time></trkpt>
<trkpt lat="48.431584" lon="2.725426"><ele></ele><time>2021-3-5T18:17:40Z</time></trkpt>
<trkpt lat="48.431532" lon="2.725431"><ele></ele><time>2021-3-5T18:17:43Z</time></trkpt>
<trkpt lat="48.431493" lon="2.725451"><ele></ele><time>2021-3-5T18:17:46Z</time></trkpt>
<trkpt lat="48.431457" lon="2.725461"><ele></ele><time>2021-3-5T18:17:49Z</time></trkpt>
<trkpt lat="48.431408" lon="2.725462"><ele></ele><time>2021-3-5T18:17:52Z</time></trkpt>
<trkpt lat="48.431342" lon="2.725459"><ele></ele><time>2021-3-5T18:17:55Z</time></trkpt>
<trkpt lat="48.431261" lon="2.725472"><ele></ele><time>2021-3-5T18:17:58Z</time></trkpt>
<trkpt lat="48.431127" lon="2.725521"><ele></ele><time>2021-3-5T18:18:1Z</time></trkpt>
<trkpt lat="48.430984" lon="2.725484"><ele></ele><time>2021-3-5T18:18:4Z</time></trkpt>
<trkpt lat="48.430854" lon="2.725481"><ele></ele><time>2021-3-5T18:18:7Z</time></trkpt>
<trkpt lat="48.430744" lon="2.72554"><ele></ele><time>2021-3-5T18:18:10Z</time></trkpt>
<trkpt lat="48.430651" lon="2.725559"><ele></ele><time>2021-3-5T18:18:13Z</time></trkpt>
<trkpt lat="48.430532" lon="2.725542"><ele></ele><time>2021-3-5T18:18:16Z</time></trkpt>
<trkpt lat="48.430435" lon="2.725557"><ele></ele><time>2021-3-5T18:18:19Z</time></trkpt>
<trkpt lat="48.430311" lon="2.725591"><ele></ele><time>2021-3-5T18:18:22Z</time></trkpt>
<trkpt lat="48.430189" lon="2.72562"><ele></ele><time>2021-3-5T18:18:25Z</time></trkpt>
<trkpt lat="48.430083" lon="2.725581"><ele></ele><time>2021-3-5T18:18:28Z</time></trkpt>
<trkpt lat="48.429974" lon="2.725519"><ele></ele><time>2021-3-5T18:18:31Z</time></trkpt>
<trkpt lat="48.429903" lon="2.72547"><ele></ele><time>2021-3-5T18:18:34Z</time></trkpt>
<trkpt lat="48.42983" lon="2.725443"><ele></ele><time>2021-3-5T18:18:37Z</time></trkpt>
<trkpt lat="48.429733" lon="2.725418"><ele></ele><time>2021-3-5T18:18:40Z</time></trkpt>
<trkpt lat="48.429653" lon="2.72537"><ele></ele><time>2021-3-5T18:18:43Z</time></trkpt>
<trkpt lat="48.429567" lon="2.725294"><ele></ele><time>2021-3-5T18:18:46Z</time></trkpt>
<trkpt lat="48.429498" lon="2.725213"><ele></ele><time>2021-3-5T18:18:49Z</time></trkpt>
<trkpt lat="48.429417" lon="2.725099"><ele></ele><time>2021-3-5T18:18:52Z</time></trkpt>
<trkpt lat="48.429355" lon="2.724958"><ele></ele><time>2021-3-5T18:18:55Z</time></trkpt>
<trkpt lat="48.429283" lon="2.724816"><ele></ele><time>2021-3-5T18:18:58Z</time></trkpt>
<trkpt lat="48.42922" lon="2.724686"><ele></ele><time>2021-3-5T18:19:1Z</time></trkpt>
<trkpt lat="48.429146" lon="2.724518"><ele></ele><time>2021-3-5T18:19:4Z</time></trkpt>
<trkpt lat="48.429097" lon="2.724314"><ele></ele><time>2021-3-5T18:19:7Z</time></trkpt>
<trkpt lat="48.429026" lon="2.72412"><ele></ele><time>2021-3-5T18:19:10Z</time></trkpt>
<trkpt lat="48.42897" lon="2.723945"><ele></ele><time>2021-3-5T18:19:13Z</time></trkpt>
<trkpt lat="48.428943" lon="2.723815"><ele></ele><time>2021-3-5T18:19:16Z</time></trkpt>
<trkpt lat="48.428901" lon="2.72366"><ele></ele><time>2021-3-5T18:19:19Z</time></trkpt>
<trkpt lat="48.428853" lon="2.723467"><ele></ele><time>2021-3-5T18:19:22Z</time></trkpt>
<trkpt lat="48.428822" lon="2.723298"><ele></ele><time>2021-3-5T18:19:25Z</time></trkpt>
<trkpt lat="48.42876" lon="2.723132"><ele></ele><time>2021-3-5T18:19:28Z</time></trkpt>
<trkpt lat="48.428736" lon="2.722947"><ele></ele><time>2021-3-5T18:19:31Z</time></trkpt>
<trkpt lat="48.428696" lon="2.722731"><ele></ele><time>2021-3-5T18:19:34Z</time></trkpt>
<trkpt lat="48.42865" lon="2.72255"><ele></ele><time>2021-3-5T18:19:37Z</time></trkpt>
<trkpt lat="48.42861" lon="2.722406"><ele></ele><time>2021-3-5T18:19:40Z</time></trkpt>
<trkpt lat="48.428575" lon="2.722255"><ele></ele><time>2021-3-5T18:19:43Z</time></trkpt>
<trkpt lat="48.428533" lon="2.722121"><ele></ele><time>2021-3-5T18:19:46Z</time></trkpt>
<trkpt lat="48.428502" lon="2.721992"><ele></ele><time>2021-3-5T18:19:49Z</time></trkpt>
<trkpt lat="48.428476" lon="2.721854"><ele></ele><time>2021-3-5T18:19:52Z</time></trkpt>
<trkpt lat="48.428452" lon="2.721742"><ele></ele><time>2021-3-5T18:19:55Z</time></trkpt>
<trkpt lat="48.428416" lon="2.721594"><ele></ele><time>2021-3-5T18:19:58Z</time></trkpt>
<trkpt lat="48.428367" lon="2.721457"><ele></ele><time>2021-3-5T18:20:1Z</time></trkpt>
<trkpt lat="48.428324" lon="2.721324"><ele></ele><time>2021-3-5T18:20:4Z</time></trkpt>
<trkpt lat="48.428288" lon="2.721198"><ele></ele><time>2021-3-5T18:20:7Z</time></trkpt>
<trkpt lat="48.428253" lon="2.721063"><ele></ele><time>2021-3-5T18:20:10Z</time></trkpt>
<trkpt lat="48.428216" lon="2.720919"><ele></ele><time>2021-3-5T18:20:13Z</time></trkpt>
<trkpt lat="48.428182" lon="2.72083"><ele></ele><time>2021-3-5T18:20:16Z</time></trkpt>
<trkpt lat="48.428136" lon="2.72073"><ele></ele><time>2021-3-5T18:20:19Z</time></trkpt>
<trkpt lat="48.428099" lon="2.720629"><ele></ele><time>2021-3-5T18:20:22Z</time></trkpt>
<trkpt lat="48.428102" lon="2.720541"><ele></ele><time>2021-3-5T18:20:25Z</time></trkpt>
<trkpt lat="48.428095" lon="2.72047"><ele></ele><time>2021-3-5T18:20:28Z</time></trkpt>
<trkpt lat="48.428063" lon="2.720417"><ele></ele><time>2021-3-5T18:20:31Z</time></trkpt>
<trkpt lat="48.428023" lon="2.720388"><ele></ele><time>2021-3-5T18:20:34Z</time></trkpt>
<trkpt lat="48.428001" lon="2.720359"><ele></ele><time>2021-3-5T18:20:37Z</time></trkpt>
<trkpt lat="48.427971" lon="2.720341"><ele></ele><time>2021-3-5T18:20:40Z</time></trkpt>
<trkpt lat="48.427931" lon="2.72034"><ele></ele><time>2021-3-5T18:20:43Z</time></trkpt>
<trkpt lat="48.427898" lon="2.72039"><ele></ele><time>2021-3-5T18:20:46Z</time></trkpt>
<trkpt lat="48.427865" lon="2.720443"><ele></ele><time>2021-3-5T18:20:49Z</time></trkpt>
<trkpt lat="48.427839" lon="2.7205"><ele></ele><time>2021-3-5T18:20:52Z</time></trkpt>
<trkpt lat="48.427828" lon="2.720582"><ele></ele><time>2021-3-5T18:20:55Z</time></trkpt>
<trkpt lat="48.42782" lon="2.720655"><ele></ele><time>2021-3-5T18:20:58Z</time></trkpt>
<trkpt lat="48.427793" lon="2.72075"><ele></ele><time>2021-3-5T18:21:1Z</time></trkpt>
<trkpt lat="48.427783" lon="2.72084"><ele></ele><time>2021-3-5T18:21:4Z</time></trkpt>
<trkpt lat="48.427769" lon="2.720904"><ele></ele><time>2021-3-5T18:21:7Z</time></trkpt>
<trkpt lat="48.427754" lon="2.720961"><ele></ele><time>2021-3-5T18:21:10Z</time></trkpt>
<trkpt lat="48.427718" lon="2.721044"><ele></ele><time>2021-3-5T18:21:13Z</time></trkpt>
<trkpt lat="48.427696" lon="2.721135"><ele></ele><time>2021-3-5T18:21:16Z</time></trkpt>
<trkpt lat="48.427674" lon="2.721212"><ele></ele><time>2021-3-5T18:21:19Z</time></trkpt>
<trkpt lat="48.427627" lon="2.721254"><ele></ele><time>2021-3-5T18:21:22Z</time></trkpt>
<trkpt lat="48.427618" lon="2.721221"><ele></ele><time>2021-3-5T18:21:25Z</time></trkpt>
<trkpt lat="48.427629" lon="2.721173"><ele></ele><time>2021-3-5T18:21:28Z</time></trkpt>
<trkpt lat="48.427634" lon="2.721116"><ele></ele><time>2021-3-5T18:21:31Z</time></trkpt>
<trkpt lat="48.427613" lon="2.721044"><ele></ele><time>2021-3-5T18:21:34Z</time></trkpt>
<trkpt lat="48.427619" lon="2.720984"><ele></ele><time>2021-3-5T18:21:37Z</time></trkpt>
<trkpt lat="48.427621" lon="2.720919"><ele></ele><time>2021-3-5T18:21:40Z</time></trkpt>
<trkpt lat="48.427606" lon="2.72087"><ele></ele><time>2021-3-5T18:21:43Z</time></trkpt>
<trkpt lat="48.427608" lon="2.72082"><ele></ele><time>2021-3-5T18:21:46Z</time></trkpt>
<trkpt lat="48.427614" lon="2.720753"><ele></ele><time>2021-3-5T18:21:49Z</time></trkpt>
<trkpt lat="48.42762" lon="2.720682"><ele></ele><time>2021-3-5T18:21:52Z</time></trkpt>
<trkpt lat="48.427632" lon="2.720638"><ele></ele><time>2021-3-5T18:21:55Z</time></trkpt>
<trkpt lat="48.42763" lon="2.720589"><ele></ele><time>2021-3-5T18:21:58Z</time></trkpt>
<trkpt lat="48.42763" lon="2.720542"><ele></ele><time>2021-3-5T18:22:1Z</time></trkpt>
<trkpt lat="48.427633" lon="2.72049"><ele></ele><time>2021-3-5T18:22:4Z</time></trkpt>
<trkpt lat="48.427647" lon="2.720415"><ele></ele><time>2021-3-5T18:22:7Z</time></trkpt>
<trkpt lat="48.427641" lon="2.720354"><ele></ele><time>2021-3-5T18:22:10Z</time></trkpt>
<trkpt lat="48.427626" lon="2.720351"><ele></ele><time>2021-3-5T18:22:13Z</time></trkpt>
<trkpt lat="48.427636" lon="2.720342"><ele></ele><time>2021-3-5T18:22:16Z</time></trkpt>
<trkpt lat="48.427651" lon="2.720332"><ele></ele><time>2021-3-5T18:22:19Z</time></trkpt>
<trkpt lat="48.427658" lon="2.720332"><ele></ele><time>2021-3-5T18:22:22Z</time></trkpt>
<trkpt lat="48.427662" lon="2.720311"><ele></ele><time>2021-3-5T18:22:25Z</time></trkpt>
<trkpt lat="48.427652" lon="2.72026"><ele></ele><time>2021-3-5T18:22:28Z</time></trkpt>
<trkpt lat="48.427634" lon="2.720204"><ele></ele><time>2021-3-5T18:22:31Z</time></trkpt>
<trkpt lat="48.42761" lon="2.720161"><ele></ele><time>2021-3-5T18:22:34Z</time></trkpt>
<trkpt lat="48.427561" lon="2.720094"><ele></ele><time>2021-3-5T18:22:37Z</time></trkpt>
<trkpt lat="48.427529" lon="2.720029"><ele></ele><time>2021-3-5T18:22:40Z</time></trkpt>
<trkpt lat="48.427481" lon="2.720023"><ele></ele><time>2021-3-5T18:22:43Z</time></trkpt>
<trkpt lat="48.42745" lon="2.720013"><ele></ele><time>2021-3-5T18:22:46Z</time></trkpt>
<trkpt lat="48.427426" lon="2.719993"><ele></ele><time>2021-3-5T18:22:49Z</time></trkpt>
<trkpt lat="48.427395" lon="2.719996"><ele></ele><time>2021-3-5T18:22:52Z</time></trkpt>
<trkpt lat="48.427361" lon="2.719978"><ele></ele><time>2021-3-5T18:22:55Z</time></trkpt>
<trkpt lat="48.427317" lon="2.719986"><ele></ele><time>2021-3-5T18:22:58Z</time></trkpt>
<trkpt lat="48.427279" lon="2.720005"><ele></ele><time>2021-3-5T18:23:1Z</time></trkpt>
<trkpt lat="48.427235" lon="2.720001"><ele></ele><time>2021-3-5T18:23:4Z</time></trkpt>
<trkpt lat="48.427167" lon="2.719989"><ele></ele><time>2021-3-5T18:23:7Z</time></trkpt>
<trkpt lat="48.427098" lon="2.719983"><ele></ele><time>2021-3-5T18:23:10Z</time></trkpt>
<trkpt lat="48.427015" lon="2.719956"><ele></ele><time>2021-3-5T18:23:13Z</time></trkpt>
<trkpt lat="48.426948" lon="2.719892"><ele></ele><time>2021-3-5T18:23:16Z</time></trkpt>
<trkpt lat="48.426881" lon="2.719861"><ele></ele><time>2021-3-5T18:23:19Z</time></trkpt>
<trkpt lat="48.426819" lon="2.719878"><ele></ele><time>2021-3-5T18:23:22Z</time></trkpt>
<trkpt lat="48.426775" lon="2.719851"><ele></ele><time>2021-3-5T18:23:25Z</time></trkpt>
<trkpt lat="48.426729" lon="2.719799"><ele></ele><time>2021-3-5T18:23:28Z</time></trkpt>
<trkpt lat="48.426677" lon="2.719764"><ele></ele><time>2021-3-5T18:23:31Z</time></trkpt>
<trkpt lat="48.426593" lon="2.719838"><ele></ele><time>2021-3-5T18:23:34Z</time></trkpt>
<trkpt lat="48.426545" lon="2.719987"><ele></ele><time>2021-3-5T18:23:37Z</time></trkpt>
<trkpt lat="48.426481" lon="2.720085"><ele></ele><time>2021-3-5T18:23:40Z</time></trkpt>
<trkpt lat="48.426441" lon="2.720215"><ele></ele><time>2021-3-5T18:23:43Z</time></trkpt>
<trkpt lat="48.426406" lon="2.720342"><ele></ele><time>2021-3-5T18:23:46Z</time></trkpt>
<trkpt lat="48.426384" lon="2.720466"><ele></ele><time>2021-3-5T18:23:49Z</time></trkpt>
<trkpt lat="48.426367" lon="2.720567"><ele></ele><time>2021-3-5T18:23:52Z</time></trkpt>
<trkpt lat="48.426307" lon="2.720659"><ele></ele><time>2021-3-5T18:23:55Z</time></trkpt>
<trkpt lat="48.426295" lon="2.720727"><ele></ele><time>2021-3-5T18:23:58Z</time></trkpt>
<trkpt lat="48.426276" lon="2.720791"><ele></ele><time>2021-3-5T18:24:1Z</time></trkpt>
<trkpt lat="48.426216" lon="2.720842"><ele></ele><time>2021-3-5T18:24:4Z</time></trkpt>
<trkpt lat="48.426146" lon="2.720907"><ele></ele><time>2021-3-5T18:24:7Z</time></trkpt>
<trkpt lat="48.426075" lon="2.720939"><ele></ele><time>2021-3-5T18:24:10Z</time></trkpt>
<trkpt lat="48.426023" lon="2.720907"><ele></ele><time>2021-3-5T18:24:13Z</time></trkpt>
<trkpt lat="48.425969" lon="2.72084"><ele></ele><time>2021-3-5T18:24:16Z</time></trkpt>
<trkpt lat="48.425929" lon="2.720821"><ele></ele><time>2021-3-5T18:24:19Z</time></trkpt>
<trkpt lat="48.425872" lon="2.720822"><ele></ele><time>2021-3-5T18:24:22Z</time></trkpt>
<trkpt lat="48.425758" lon="2.720846"><ele></ele><time>2021-3-5T18:24:25Z</time></trkpt>
<trkpt lat="48.425676" lon="2.720841"><ele></ele><time>2021-3-5T18:24:28Z</time></trkpt>
<trkpt lat="48.425596" lon="2.720834"><ele></ele><time>2021-3-5T18:24:31Z</time></trkpt>
<trkpt lat="48.425513" lon="2.720846"><ele></ele><time>2021-3-5T18:24:34Z</time></trkpt>
<trkpt lat="48.425448" lon="2.720902"><ele></ele><time>2021-3-5T18:24:37Z</time></trkpt>
<trkpt lat="48.425384" lon="2.720974"><ele></ele><time>2021-3-5T18:24:40Z</time></trkpt>
<trkpt lat="48.425351" lon="2.721077"><ele></ele><time>2021-3-5T18:24:43Z</time></trkpt>
<trkpt lat="48.425315" lon="2.721167"><ele></ele><time>2021-3-5T18:24:46Z</time></trkpt>
<trkpt lat="48.425238" lon="2.721208"><ele></ele><time>2021-3-5T18:24:49Z</time></trkpt>
<trkpt lat="48.425161" lon="2.721158"><ele></ele><time>2021-3-5T18:24:52Z</time></trkpt>
<trkpt lat="48.4251" lon="2.721097"><ele></ele><time>2021-3-5T18:24:55Z</time></trkpt>
<trkpt lat="48.425022" lon="2.721106"><ele></ele><time>2021-3-5T18:24:58Z</time></trkpt>
<trkpt lat="48.424937" lon="2.72117"><ele></ele><time>2021-3-5T18:25:1Z</time></trkpt>
<trkpt lat="48.424851" lon="2.721232"><ele></ele><time>2021-3-5T18:25:4Z</time></trkpt>
<trkpt lat="48.424752" lon="2.721291"><ele></ele><time>2021-3-5T18:25:7Z</time></trkpt>
<trkpt lat="48.424668" lon="2.721201"><ele></ele><time>2021-3-5T18:25:10Z</time></trkpt>
<trkpt lat="48.424624" lon="2.721039"><ele></ele><time>2021-3-5T18:25:13Z</time></trkpt>
<trkpt lat="48.424582" lon="2.72087"><ele></ele><time>2021-3-5T18:25:16Z</time></trkpt>
<trkpt lat="48.424571" lon="2.720711"><ele></ele><time>2021-3-5T18:25:19Z</time></trkpt>
<trkpt lat="48.424519" lon="2.720599"><ele></ele><time>2021-3-5T18:25:22Z</time></trkpt>
<trkpt lat="48.424473" lon="2.72046"><ele></ele><time>2021-3-5T18:25:25Z</time></trkpt>
<trkpt lat="48.424446" lon="2.720339"><ele></ele><time>2021-3-5T18:25:28Z</time></trkpt>
<trkpt lat="48.424442" lon="2.720168"><ele></ele><time>2021-3-5T18:25:31Z</time></trkpt>
<trkpt lat="48.424398" lon="2.72003"><ele></ele><time>2021-3-5T18:25:34Z</time></trkpt>
<trkpt lat="48.424383" lon="2.719974"><ele></ele><time>2021-3-5T18:25:37Z</time></trkpt>
<trkpt lat="48.424359" lon="2.71987"><ele></ele><time>2021-3-5T18:25:40Z</time></trkpt>
<trkpt lat="48.424366" lon="2.719798"><ele></ele><time>2021-3-5T18:25:43Z</time></trkpt>
<trkpt lat="48.42437" lon="2.719721"><ele></ele><time>2021-3-5T18:25:46Z</time></trkpt>
<trkpt lat="48.424325" lon="2.719664"><ele></ele><time>2021-3-5T18:25:49Z</time></trkpt>
<trkpt lat="48.424269" lon="2.719677"><ele></ele><time>2021-3-5T18:25:52Z</time></trkpt>
<trkpt lat="48.424207" lon="2.719702"><ele></ele><time>2021-3-5T18:25:55Z</time></trkpt>
<trkpt lat="48.424156" lon="2.719693"><ele></ele><time>2021-3-5T18:25:58Z</time></trkpt>
<trkpt lat="48.424109" lon="2.719639"><ele></ele><time>2021-3-5T18:26:1Z</time></trkpt>
<trkpt lat="48.424047" lon="2.719572"><ele></ele><time>2021-3-5T18:26:4Z</time></trkpt>
<trkpt lat="48.423982" lon="2.719524"><ele></ele><time>2021-3-5T18:26:7Z</time></trkpt>
<trkpt lat="48.423929" lon="2.719498"><ele></ele><time>2021-3-5T18:26:10Z</time></trkpt>
<trkpt lat="48.423879" lon="2.71946"><ele></ele><time>2021-3-5T18:26:13Z</time></trkpt>
<trkpt lat="48.423842" lon="2.719383"><ele></ele><time>2021-3-5T18:26:16Z</time></trkpt>
<trkpt lat="48.423808" lon="2.719338"><ele></ele><time>2021-3-5T18:26:19Z</time></trkpt>
<trkpt lat="48.423766" lon="2.719285"><ele></ele><time>2021-3-5T18:26:22Z</time></trkpt>
<trkpt lat="48.423688" lon="2.719293"><ele></ele><time>2021-3-5T18:26:25Z</time></trkpt>
<trkpt lat="48.423598" lon="2.719311"><ele></ele><time>2021-3-5T18:26:28Z</time></trkpt>
<trkpt lat="48.423535" lon="2.719227"><ele></ele><time>2021-3-5T18:26:31Z</time></trkpt>
<trkpt lat="48.423486" lon="2.719138"><ele></ele><time>2021-3-5T18:26:34Z</time></trkpt>
<trkpt lat="48.423389" lon="2.71905"><ele></ele><time>2021-3-5T18:26:37Z</time></trkpt>
<trkpt lat="48.423288" lon="2.718996"><ele></ele><time>2021-3-5T18:26:40Z</time></trkpt>
<trkpt lat="48.423165" lon="2.718916"><ele></ele><time>2021-3-5T18:26:43Z</time></trkpt>
<trkpt lat="48.423077" lon="2.71886"><ele></ele><time>2021-3-5T18:26:46Z</time></trkpt>
<trkpt lat="48.422986" lon="2.718813"><ele></ele><time>2021-3-5T18:26:49Z</time></trkpt>
<trkpt lat="48.422922" lon="2.718776"><ele></ele><time>2021-3-5T18:26:52Z</time></trkpt>
<trkpt lat="48.422835" lon="2.718795"><ele></ele><time>2021-3-5T18:26:55Z</time></trkpt>
<trkpt lat="48.42276" lon="2.718821"><ele></ele><time>2021-3-5T18:26:58Z</time></trkpt>
<trkpt lat="48.422736" lon="2.718911"><ele></ele><time>2021-3-5T18:27:1Z</time></trkpt>
<trkpt lat="48.42269" lon="2.718988"><ele></ele><time>2021-3-5T18:27:4Z</time></trkpt>
<trkpt lat="48.422603" lon="2.719064"><ele></ele><time>2021-3-5T18:27:7Z</time></trkpt>
<trkpt lat="48.422516" lon="2.719121"><ele></ele><time>2021-3-5T18:27:10Z</time></trkpt>
<trkpt lat="48.422454" lon="2.719202"><ele></ele><time>2021-3-5T18:27:13Z</time></trkpt>
<trkpt lat="48.422406" lon="2.719402"><ele></ele><time>2021-3-5T18:27:16Z</time></trkpt>
<trkpt lat="48.422359" lon="2.719607"><ele></ele><time>2021-3-5T18:27:19Z</time></trkpt>
<trkpt lat="48.422355" lon="2.71967"><ele></ele><time>2021-3-5T18:27:22Z</time></trkpt>
<trkpt lat="48.422349" lon="2.719674"><ele></ele><time>2021-3-5T18:27:25Z</time></trkpt>
<trkpt lat="48.422323" lon="2.719677"><ele></ele><time>2021-3-5T18:27:28Z</time></trkpt>
<trkpt lat="48.422308" lon="2.719672"><ele></ele><time>2021-3-5T18:27:31Z</time></trkpt>
<trkpt lat="48.422316" lon="2.719656"><ele></ele><time>2021-3-5T18:27:34Z</time></trkpt>
<trkpt lat="48.42231" lon="2.719658"><ele></ele><time>2021-3-5T18:27:37Z</time></trkpt>
<trkpt lat="48.422311" lon="2.719647"><ele></ele><time>2021-3-5T18:27:40Z</time></trkpt>
<trkpt lat="48.422323" lon="2.719596"><ele></ele><time>2021-3-5T18:27:43Z</time></trkpt>
<trkpt lat="48.422325" lon="2.71956"><ele></ele><time>2021-3-5T18:27:46Z</time></trkpt>
<trkpt lat="48.422345" lon="2.719473"><ele></ele><time>2021-3-5T18:27:49Z</time></trkpt>
<trkpt lat="48.422372" lon="2.719383"><ele></ele><time>2021-3-5T18:27:52Z</time></trkpt>
<trkpt lat="48.422401" lon="2.719318"><ele></ele><time>2021-3-5T18:27:55Z</time></trkpt>
<trkpt lat="48.422405" lon="2.71923"><ele></ele><time>2021-3-5T18:27:58Z</time></trkpt>
<trkpt lat="48.422376" lon="2.719176"><ele></ele><time>2021-3-5T18:28:1Z</time></trkpt>
<trkpt lat="48.422347" lon="2.719162"><ele></ele><time>2021-3-5T18:28:4Z</time></trkpt>
<trkpt lat="48.422374" lon="2.719175"><ele></ele><time>2021-3-5T18:28:7Z</time></trkpt>
<trkpt lat="48.422418" lon="2.719134"><ele></ele><time>2021-3-5T18:28:10Z</time></trkpt>
<trkpt lat="48.422434" lon="2.71904"><ele></ele><time>2021-3-5T18:28:13Z</time></trkpt>
<trkpt lat="48.422448" lon="2.718966"><ele></ele><time>2021-3-5T18:28:16Z</time></trkpt>
<trkpt lat="48.422458" lon="2.718894"><ele></ele><time>2021-3-5T18:28:19Z</time></trkpt>
<trkpt lat="48.422479" lon="2.718813"><ele></ele><time>2021-3-5T18:28:22Z</time></trkpt>
<trkpt lat="48.422494" lon="2.718766"><ele></ele><time>2021-3-5T18:28:25Z</time></trkpt>
<trkpt lat="48.422519" lon="2.718703"><ele></ele><time>2021-3-5T18:28:28Z</time></trkpt>
<trkpt lat="48.422544" lon="2.718631"><ele></ele><time>2021-3-5T18:28:31Z</time></trkpt>
<trkpt lat="48.422536" lon="2.718553"><ele></ele><time>2021-3-5T18:28:34Z</time></trkpt>
<trkpt lat="48.422525" lon="2.718454"><ele></ele><time>2021-3-5T18:28:37Z</time></trkpt>
<trkpt lat="48.42251" lon="2.718335"><ele></ele><time>2021-3-5T18:28:40Z</time></trkpt>
<trkpt lat="48.422487" lon="2.718232"><ele></ele><time>2021-3-5T18:28:43Z</time></trkpt>
<trkpt lat="48.422486" lon="2.718151"><ele></ele><time>2021-3-5T18:28:46Z</time></trkpt>
<trkpt lat="48.422497" lon="2.718052"><ele></ele><time>2021-3-5T18:28:49Z</time></trkpt>
<trkpt lat="48.422486" lon="2.717933"><ele></ele><time>2021-3-5T18:28:52Z</time></trkpt>
<trkpt lat="48.42246" lon="2.71781"><ele></ele><time>2021-3-5T18:28:55Z</time></trkpt>
<trkpt lat="48.422428" lon="2.717667"><ele></ele><time>2021-3-5T18:28:58Z</time></trkpt>
<trkpt lat="48.422396" lon="2.717567"><ele></ele><time>2021-3-5T18:29:1Z</time></trkpt>
<trkpt lat="48.422374" lon="2.717521"><ele></ele><time>2021-3-5T18:29:4Z</time></trkpt>
<trkpt lat="48.422339" lon="2.717492"><ele></ele><time>2021-3-5T18:29:7Z</time></trkpt>
<trkpt lat="48.422254" lon="2.717405"><ele></ele><time>2021-3-5T18:29:10Z</time></trkpt>
<trkpt lat="48.422128" lon="2.717347"><ele></ele><time>2021-3-5T18:29:13Z</time></trkpt>
<trkpt lat="48.42203" lon="2.717256"><ele></ele><time>2021-3-5T18:29:16Z</time></trkpt>
<trkpt lat="48.422019" lon="2.717098"><ele></ele><time>2021-3-5T18:29:19Z</time></trkpt>
<trkpt lat="48.422033" lon="2.716967"><ele></ele><time>2021-3-5T18:29:22Z</time></trkpt>
<trkpt lat="48.422022" lon="2.716828"><ele></ele><time>2021-3-5T18:29:25Z</time></trkpt>
<trkpt lat="48.422004" lon="2.716728"><ele></ele><time>2021-3-5T18:29:28Z</time></trkpt>
<trkpt lat="48.421966" lon="2.716624"><ele></ele><time>2021-3-5T18:29:31Z</time></trkpt>
<trkpt lat="48.421918" lon="2.716562"><ele></ele><time>2021-3-5T18:29:34Z</time></trkpt>
<trkpt lat="48.421864" lon="2.716517"><ele></ele><time>2021-3-5T18:29:37Z</time></trkpt>
<trkpt lat="48.42181" lon="2.716482"><ele></ele><time>2021-3-5T18:29:40Z</time></trkpt>
<trkpt lat="48.421758" lon="2.716444"><ele></ele><time>2021-3-5T18:29:43Z</time></trkpt>
<trkpt lat="48.421701" lon="2.716388"><ele></ele><time>2021-3-5T18:29:46Z</time></trkpt>
<trkpt lat="48.421633" lon="2.716337"><ele></ele><time>2021-3-5T18:29:49Z</time></trkpt>
<trkpt lat="48.421585" lon="2.716294"><ele></ele><time>2021-3-5T18:29:52Z</time></trkpt>
<trkpt lat="48.421528" lon="2.716255"><ele></ele><time>2021-3-5T18:29:55Z</time></trkpt>
<trkpt lat="48.421475" lon="2.716222"><ele></ele><time>2021-3-5T18:29:58Z</time></trkpt>
<trkpt lat="48.421407" lon="2.71627"><ele></ele><time>2021-3-5T18:30:1Z</time></trkpt>
<trkpt lat="48.42133" lon="2.716293"><ele></ele><time>2021-3-5T18:30:4Z</time></trkpt>
<trkpt lat="48.421221" lon="2.716229"><ele></ele><time>2021-3-5T18:30:7Z</time></trkpt>
<trkpt lat="48.421073" lon="2.716149"><ele></ele><time>2021-3-5T18:30:10Z</time></trkpt>
<trkpt lat="48.42103" lon="2.716034"><ele></ele><time>2021-3-5T18:30:13Z</time></trkpt>
<trkpt lat="48.421002" lon="2.715916"><ele></ele><time>2021-3-5T18:30:16Z</time></trkpt>
<trkpt lat="48.420985" lon="2.71582"><ele></ele><time>2021-3-5T18:30:19Z</time></trkpt>
<trkpt lat="48.420929" lon="2.715782"><ele></ele><time>2021-3-5T18:30:22Z</time></trkpt>
<trkpt lat="48.420884" lon="2.715771"><ele></ele><time>2021-3-5T18:30:25Z</time></trkpt>
<trkpt lat="48.420853" lon="2.715748"><ele></ele><time>2021-3-5T18:30:28Z</time></trkpt>
<trkpt lat="48.420787" lon="2.715738"><ele></ele><time>2021-3-5T18:30:31Z</time></trkpt>
<trkpt lat="48.420723" lon="2.715723"><ele></ele><time>2021-3-5T18:30:34Z</time></trkpt>
<trkpt lat="48.420636" lon="2.715675"><ele></ele><time>2021-3-5T18:30:37Z</time></trkpt>
<trkpt lat="48.420569" lon="2.715662"><ele></ele><time>2021-3-5T18:30:40Z</time></trkpt>
<trkpt lat="48.420522" lon="2.715623"><ele></ele><time>2021-3-5T18:30:43Z</time></trkpt>
<trkpt lat="48.420472" lon="2.71553"><ele></ele><time>2021-3-5T18:30:46Z</time></trkpt>
<trkpt lat="48.420428" lon="2.715413"><ele></ele><time>2021-3-5T18:30:49Z</time></trkpt>
<trkpt lat="48.420356" lon="2.715343"><ele></ele><time>2021-3-5T18:30:52Z</time></trkpt>
<trkpt lat="48.420287" lon="2.715339"><ele></ele><time>2021-3-5T18:30:55Z</time></trkpt>
<trkpt lat="48.420227" lon="2.715309"><ele></ele><time>2021-3-5T18:30:58Z</time></trkpt>
<trkpt lat="48.420162" lon="2.715285"><ele></ele><time>2021-3-5T18:31:1Z</time></trkpt>
<trkpt lat="48.420071" lon="2.715274"><ele></ele><time>2021-3-5T18:31:4Z</time></trkpt>
<trkpt lat="48.419962" lon="2.715271"><ele></ele><time>2021-3-5T18:31:7Z</time></trkpt>
<trkpt lat="48.419886" lon="2.715255"><ele></ele><time>2021-3-5T18:31:10Z</time></trkpt>
<trkpt lat="48.419812" lon="2.715192"><ele></ele><time>2021-3-5T18:31:13Z</time></trkpt>
<trkpt lat="48.419774" lon="2.715125"><ele></ele><time>2021-3-5T18:31:16Z</time></trkpt>
<trkpt lat="48.419763" lon="2.715026"><ele></ele><time>2021-3-5T18:31:19Z</time></trkpt>
<trkpt lat="48.419767" lon="2.714957"><ele></ele><time>2021-3-5T18:31:22Z</time></trkpt>
<trkpt lat="48.419782" lon="2.714881"><ele></ele><time>2021-3-5T18:31:25Z</time></trkpt>
<trkpt lat="48.419825" lon="2.714841"><ele></ele><time>2021-3-5T18:31:28Z</time></trkpt>
<trkpt lat="48.419885" lon="2.714867"><ele></ele><time>2021-3-5T18:31:31Z</time></trkpt>
<trkpt lat="48.419945" lon="2.714897"><ele></ele><time>2021-3-5T18:31:34Z</time></trkpt>
<trkpt lat="48.420006" lon="2.714926"><ele></ele><time>2021-3-5T18:31:37Z</time></trkpt>
<trkpt lat="48.420059" lon="2.714945"><ele></ele><time>2021-3-5T18:31:40Z</time></trkpt>
<trkpt lat="48.420135" lon="2.71498"><ele></ele><time>2021-3-5T18:31:43Z</time></trkpt>
<trkpt lat="48.420225" lon="2.715011"><ele></ele><time>2021-3-5T18:31:46Z</time></trkpt>
<trkpt lat="48.420323" lon="2.715038"><ele></ele><time>2021-3-5T18:31:49Z</time></trkpt>
<trkpt lat="48.420458" lon="2.715097"><ele></ele><time>2021-3-5T18:31:52Z</time></trkpt>
<trkpt lat="48.420581" lon="2.715137"><ele></ele><time>2021-3-5T18:31:55Z</time></trkpt>
<trkpt lat="48.420698" lon="2.715177"><ele></ele><time>2021-3-5T18:31:58Z</time></trkpt>
<trkpt lat="48.420792" lon="2.715243"><ele></ele><time>2021-3-5T18:32:1Z</time></trkpt>
<trkpt lat="48.420875" lon="2.715272"><ele></ele><time>2021-3-5T18:32:4Z</time></trkpt>
<trkpt lat="48.420992" lon="2.715297"><ele></ele><time>2021-3-5T18:32:7Z</time></trkpt>
<trkpt lat="48.421117" lon="2.715323"><ele></ele><time>2021-3-5T18:32:10Z</time></trkpt>
<trkpt lat="48.42124" lon="2.715372"><ele></ele><time>2021-3-5T18:32:13Z</time></trkpt>
<trkpt lat="48.421343" lon="2.715426"><ele></ele><time>2021-3-5T18:32:16Z</time></trkpt>
<trkpt lat="48.421445" lon="2.715463"><ele></ele><time>2021-3-5T18:32:19Z</time></trkpt>
<trkpt lat="48.421576" lon="2.715531"><ele></ele><time>2021-3-5T18:32:22Z</time></trkpt>
<trkpt lat="48.421679" lon="2.715536"><ele></ele><time>2021-3-5T18:32:25Z</time></trkpt>
<trkpt lat="48.42172" lon="2.715402"><ele></ele><time>2021-3-5T18:32:28Z</time></trkpt>
<trkpt lat="48.421794" lon="2.715227"><ele></ele><time>2021-3-5T18:32:31Z</time></trkpt>
<trkpt lat="48.421836" lon="2.715054"><ele></ele><time>2021-3-5T18:32:34Z</time></trkpt>
<trkpt lat="48.421884" lon="2.714894"><ele></ele><time>2021-3-5T18:32:37Z</time></trkpt>
<trkpt lat="48.421949" lon="2.714781"><ele></ele><time>2021-3-5T18:32:40Z</time></trkpt>
<trkpt lat="48.422043" lon="2.714732"><ele></ele><time>2021-3-5T18:32:43Z</time></trkpt>
<trkpt lat="48.42212" lon="2.714657"><ele></ele><time>2021-3-5T18:32:46Z</time></trkpt>
<trkpt lat="48.422224" lon="2.714618"><ele></ele><time>2021-3-5T18:32:49Z</time></trkpt>
<trkpt lat="48.422423" lon="2.714591"><ele></ele><time>2021-3-5T18:32:52Z</time></trkpt>
<trkpt lat="48.422552" lon="2.714511"><ele></ele><time>2021-3-5T18:32:55Z</time></trkpt>
<trkpt lat="48.422678" lon="2.714428"><ele></ele><time>2021-3-5T18:32:58Z</time></trkpt>
<trkpt lat="48.422812" lon="2.714351"><ele></ele><time>2021-3-5T18:33:1Z</time></trkpt>
<trkpt lat="48.422908" lon="2.714315"><ele></ele><time>2021-3-5T18:33:4Z</time></trkpt>
<trkpt lat="48.423027" lon="2.714427"><ele></ele><time>2021-3-5T18:33:7Z</time></trkpt>
<trkpt lat="48.423141" lon="2.71454"><ele></ele><time>2021-3-5T18:33:10Z</time></trkpt>
<trkpt lat="48.423223" lon="2.714534"><ele></ele><time>2021-3-5T18:33:13Z</time></trkpt>
<trkpt lat="48.423262" lon="2.714563"><ele></ele><time>2021-3-5T18:33:16Z</time></trkpt>
<trkpt lat="48.423326" lon="2.714577"><ele></ele><time>2021-3-5T18:33:19Z</time></trkpt>
<trkpt lat="48.423392" lon="2.71453"><ele></ele><time>2021-3-5T18:33:22Z</time></trkpt>
<trkpt lat="48.423458" lon="2.714462"><ele></ele><time>2021-3-5T18:33:25Z</time></trkpt>
<trkpt lat="48.423546" lon="2.714422"><ele></ele><time>2021-3-5T18:33:28Z</time></trkpt>
<trkpt lat="48.423624" lon="2.714498"><ele></ele><time>2021-3-5T18:33:31Z</time></trkpt>
<trkpt lat="48.423667" lon="2.714598"><ele></ele><time>2021-3-5T18:33:34Z</time></trkpt>
<trkpt lat="48.423696" lon="2.71462"><ele></ele><time>2021-3-5T18:33:37Z</time></trkpt>
<trkpt lat="48.423744" lon="2.714623"><ele></ele><time>2021-3-5T18:33:40Z</time></trkpt>
<trkpt lat="48.42379" lon="2.714663"><ele></ele><time>2021-3-5T18:33:43Z</time></trkpt>
<trkpt lat="48.423822" lon="2.71466"><ele></ele><time>2021-3-5T18:33:46Z</time></trkpt>
<trkpt lat="48.423851" lon="2.714616"><ele></ele><time>2021-3-5T18:33:49Z</time></trkpt>
<trkpt lat="48.423868" lon="2.714595"><ele></ele><time>2021-3-5T18:33:52Z</time></trkpt>
<trkpt lat="48.423874" lon="2.714583"><ele></ele><time>2021-3-5T18:33:55Z</time></trkpt>
<trkpt lat="48.423881" lon="2.714577"><ele></ele><time>2021-3-5T18:33:58Z</time></trkpt>
<trkpt lat="48.423884" lon="2.714573"><ele></ele><time>2021-3-5T18:34:1Z</time></trkpt>
<trkpt lat="48.423893" lon="2.714576"><ele></ele><time>2021-3-5T18:34:4Z</time></trkpt>
<trkpt lat="48.423882" lon="2.714593"><ele></ele><time>2021-3-5T18:34:7Z</time></trkpt>
<trkpt lat="48.423885" lon="2.714597"><ele></ele><time>2021-3-5T18:34:10Z</time></trkpt>
<trkpt lat="48.423892" lon="2.714628"><ele></ele><time>2021-3-5T18:34:13Z</time></trkpt>
<trkpt lat="48.423923" lon="2.714682"><ele></ele><time>2021-3-5T18:34:16Z</time></trkpt>
<trkpt lat="48.423954" lon="2.714716"><ele></ele><time>2021-3-5T18:34:19Z</time></trkpt>
<trkpt lat="48.423982" lon="2.714728"><ele></ele><time>2021-3-5T18:34:22Z</time></trkpt>
<trkpt lat="48.424008" lon="2.714721"><ele></ele><time>2021-3-5T18:34:25Z</time></trkpt>
<trkpt lat="48.424023" lon="2.714717"><ele></ele><time>2021-3-5T18:34:28Z</time></trkpt>
<trkpt lat="48.424031" lon="2.714703"><ele></ele><time>2021-3-5T18:34:31Z</time></trkpt>
<trkpt lat="48.424038" lon="2.714701"><ele></ele><time>2021-3-5T18:34:34Z</time></trkpt>
<trkpt lat="48.424044" lon="2.714691"><ele></ele><time>2021-3-5T18:34:37Z</time></trkpt>
<trkpt lat="48.424048" lon="2.714696"><ele></ele><time>2021-3-5T18:34:40Z</time></trkpt>
<trkpt lat="48.424077" lon="2.714707"><ele></ele><time>2021-3-5T18:34:43Z</time></trkpt>
<trkpt lat="48.424106" lon="2.714697"><ele></ele><time>2021-3-5T18:34:46Z</time></trkpt>
<trkpt lat="48.42413" lon="2.714677"><ele></ele><time>2021-3-5T18:34:49Z</time></trkpt>
<trkpt lat="48.424157" lon="2.714646"><ele></ele><time>2021-3-5T18:34:52Z</time></trkpt>
<trkpt lat="48.424174" lon="2.714623"><ele></ele><time>2021-3-5T18:34:55Z</time></trkpt>
<trkpt lat="48.424178" lon="2.714625"><ele></ele><time>2021-3-5T18:34:58Z</time></trkpt>
<trkpt lat="48.424186" lon="2.714624"><ele></ele><time>2021-3-5T18:35:1Z</time></trkpt>
<trkpt lat="48.424179" lon="2.714597"><ele></ele><time>2021-3-5T18:35:4Z</time></trkpt>
<trkpt lat="48.424169" lon="2.71456"><ele></ele><time>2021-3-5T18:35:7Z</time></trkpt>
<trkpt lat="48.424158" lon="2.714519"><ele></ele><time>2021-3-5T18:35:10Z</time></trkpt>
<trkpt lat="48.42417" lon="2.714512"><ele></ele><time>2021-3-5T18:35:13Z</time></trkpt>
<trkpt lat="48.424169" lon="2.714506"><ele></ele><time>2021-3-5T18:35:16Z</time></trkpt>
<trkpt lat="48.424175" lon="2.714496"><ele></ele><time>2021-3-5T18:35:19Z</time></trkpt>
<trkpt lat="48.424177" lon="2.714492"><ele></ele><time>2021-3-5T18:35:22Z</time></trkpt>
<trkpt lat="48.424169" lon="2.714474"><ele></ele><time>2021-3-5T18:35:25Z</time></trkpt>
<trkpt lat="48.424143" lon="2.714428"><ele></ele><time>2021-3-5T18:35:28Z</time></trkpt>
<trkpt lat="48.424089" lon="2.714369"><ele></ele><time>2021-3-5T18:35:31Z</time></trkpt>
<trkpt lat="48.424072" lon="2.714246"><ele></ele><time>2021-3-5T18:35:34Z</time></trkpt>
<trkpt lat="48.424088" lon="2.714132"><ele></ele><time>2021-3-5T18:35:37Z</time></trkpt>
<trkpt lat="48.424196" lon="2.714059"><ele></ele><time>2021-3-5T18:35:40Z</time></trkpt>
<trkpt lat="48.424222" lon="2.714053"><ele></ele><time>2021-3-5T18:35:43Z</time></trkpt>
<trkpt lat="48.42423" lon="2.714052"><ele></ele><time>2021-3-5T18:35:46Z</time></trkpt>
<trkpt lat="48.424247" lon="2.714052"><ele></ele><time>2021-3-5T18:35:49Z</time></trkpt>
<trkpt lat="48.42425" lon="2.714053"><ele></ele><time>2021-3-5T18:35:52Z</time></trkpt>
<trkpt lat="48.424265" lon="2.714031"><ele></ele><time>2021-3-5T18:35:55Z</time></trkpt>
<trkpt lat="48.424265" lon="2.714029"><ele></ele><time>2021-3-5T18:35:58Z</time></trkpt>
<trkpt lat="48.424273" lon="2.714037"><ele></ele><time>2021-3-5T18:36:1Z</time></trkpt>
<trkpt lat="48.424273" lon="2.714038"><ele></ele><time>2021-3-5T18:36:4Z</time></trkpt>
<trkpt lat="48.424305" lon="2.714069"><ele></ele><time>2021-3-5T18:36:7Z</time></trkpt>
<trkpt lat="48.424371" lon="2.714066"><ele></ele><time>2021-3-5T18:36:10Z</time></trkpt>
<trkpt lat="48.424422" lon="2.71403"><ele></ele><time>2021-3-5T18:36:13Z</time></trkpt>
<trkpt lat="48.424469" lon="2.713985"><ele></ele><time>2021-3-5T18:36:16Z</time></trkpt>
<trkpt lat="48.424507" lon="2.713913"><ele></ele><time>2021-3-5T18:36:19Z</time></trkpt>
<trkpt lat="48.424544" lon="2.713859"><ele></ele><time>2021-3-5T18:36:22Z</time></trkpt>
<trkpt lat="48.424558" lon="2.713671"><ele></ele><time>2021-3-5T18:36:25Z</time></trkpt>
<trkpt lat="48.424559" lon="2.713606"><ele></ele><time>2021-3-5T18:36:28Z</time></trkpt>
<trkpt lat="48.424575" lon="2.713589"><ele></ele><time>2021-3-5T18:36:31Z</time></trkpt>
<trkpt lat="48.424604" lon="2.713569"><ele></ele><time>2021-3-5T18:36:34Z</time></trkpt>
<trkpt lat="48.424623" lon="2.71355"><ele></ele><time>2021-3-5T18:36:37Z</time></trkpt>
<trkpt lat="48.424642" lon="2.713519"><ele></ele><time>2021-3-5T18:36:40Z</time></trkpt>
<trkpt lat="48.424645" lon="2.713516"><ele></ele><time>2021-3-5T18:36:43Z</time></trkpt>
<trkpt lat="48.424649" lon="2.713512"><ele></ele><time>2021-3-5T18:36:46Z</time></trkpt>
<trkpt lat="48.42469" lon="2.713517"><ele></ele><time>2021-3-5T18:36:49Z</time></trkpt>
<trkpt lat="48.42475" lon="2.713536"><ele></ele><time>2021-3-5T18:36:52Z</time></trkpt>
<trkpt lat="48.424819" lon="2.713485"><ele></ele><time>2021-3-5T18:36:55Z</time></trkpt>
<trkpt lat="48.424867" lon="2.713405"><ele></ele><time>2021-3-5T18:36:58Z</time></trkpt>
<trkpt lat="48.424968" lon="2.713201"><ele></ele><time>2021-3-5T18:37:1Z</time></trkpt>
<trkpt lat="48.424954" lon="2.713137"><ele></ele><time>2021-3-5T18:37:4Z</time></trkpt>
<trkpt lat="48.424973" lon="2.713086"><ele></ele><time>2021-3-5T18:37:7Z</time></trkpt>
<trkpt lat="48.425028" lon="2.712999"><ele></ele><time>2021-3-5T18:37:10Z</time></trkpt>
<trkpt lat="48.425075" lon="2.712874"><ele></ele><time>2021-3-5T18:37:13Z</time></trkpt>
<trkpt lat="48.425148" lon="2.712752"><ele></ele><time>2021-3-5T18:37:16Z</time></trkpt>
<trkpt lat="48.425202" lon="2.712627"><ele></ele><time>2021-3-5T18:37:19Z</time></trkpt>
<trkpt lat="48.42522" lon="2.712498"><ele></ele><time>2021-3-5T18:37:22Z</time></trkpt>
<trkpt lat="48.425234" lon="2.712379"><ele></ele><time>2021-3-5T18:37:25Z</time></trkpt>
<trkpt lat="48.425263" lon="2.712274"><ele></ele><time>2021-3-5T18:37:28Z</time></trkpt>
<trkpt lat="48.4253" lon="2.712151"><ele></ele><time>2021-3-5T18:37:31Z</time></trkpt>
<trkpt lat="48.425333" lon="2.712013"><ele></ele><time>2021-3-5T18:37:34Z</time></trkpt>
<trkpt lat="48.425316" lon="2.711822"><ele></ele><time>2021-3-5T18:37:37Z</time></trkpt>
<trkpt lat="48.425306" lon="2.711647"><ele></ele><time>2021-3-5T18:37:40Z</time></trkpt>
<trkpt lat="48.4253" lon="2.711513"><ele></ele><time>2021-3-5T18:37:43Z</time></trkpt>
<trkpt lat="48.425294" lon="2.711397"><ele></ele><time>2021-3-5T18:37:46Z</time></trkpt>
<trkpt lat="48.425315" lon="2.711292"><ele></ele><time>2021-3-5T18:37:49Z</time></trkpt>
<trkpt lat="48.425363" lon="2.711129"><ele></ele><time>2021-3-5T18:37:52Z</time></trkpt>
<trkpt lat="48.425424" lon="2.710978"><ele></ele><time>2021-3-5T18:37:55Z</time></trkpt>
<trkpt lat="48.425428" lon="2.710844"><ele></ele><time>2021-3-5T18:37:58Z</time></trkpt>
<trkpt lat="48.425393" lon="2.710753"><ele></ele><time>2021-3-5T18:38:1Z</time></trkpt>
<trkpt lat="48.425326" lon="2.710717"><ele></ele><time>2021-3-5T18:38:4Z</time></trkpt>
<trkpt lat="48.425273" lon="2.710727"><ele></ele><time>2021-3-5T18:38:7Z</time></trkpt>
<trkpt lat="48.425247" lon="2.710725"><ele></ele><time>2021-3-5T18:38:10Z</time></trkpt>
<trkpt lat="48.42526" lon="2.71072"><ele></ele><time>2021-3-5T18:38:13Z</time></trkpt>
<trkpt lat="48.425298" lon="2.710712"><ele></ele><time>2021-3-5T18:38:16Z</time></trkpt>
<trkpt lat="48.425377" lon="2.710697"><ele></ele><time>2021-3-5T18:38:19Z</time></trkpt>
<trkpt lat="48.42544" lon="2.710624"><ele></ele><time>2021-3-5T18:38:22Z</time></trkpt>
<trkpt lat="48.425443" lon="2.710541"><ele></ele><time>2021-3-5T18:38:25Z</time></trkpt>
<trkpt lat="48.425423" lon="2.710446"><ele></ele><time>2021-3-5T18:38:28Z</time></trkpt>
<trkpt lat="48.425403" lon="2.71036"><ele></ele><time>2021-3-5T18:38:31Z</time></trkpt>
<trkpt lat="48.425365" lon="2.710282"><ele></ele><time>2021-3-5T18:38:34Z</time></trkpt>
<trkpt lat="48.425367" lon="2.710216"><ele></ele><time>2021-3-5T18:38:37Z</time></trkpt>
<trkpt lat="48.425368" lon="2.710204"><ele></ele><time>2021-3-5T18:38:40Z</time></trkpt>
<trkpt lat="48.425373" lon="2.710199"><ele></ele><time>2021-3-5T18:38:43Z</time></trkpt>
<trkpt lat="48.425374" lon="2.710175"><ele></ele><time>2021-3-5T18:38:46Z</time></trkpt>
<trkpt lat="48.425374" lon="2.710135"><ele></ele><time>2021-3-5T18:38:49Z</time></trkpt>
<trkpt lat="48.425386" lon="2.710104"><ele></ele><time>2021-3-5T18:38:52Z</time></trkpt>
<trkpt lat="48.425384" lon="2.710076"><ele></ele><time>2021-3-5T18:38:55Z</time></trkpt>
<trkpt lat="48.425395" lon="2.710045"><ele></ele><time>2021-3-5T18:38:58Z</time></trkpt>
<trkpt lat="48.425398" lon="2.710029"><ele></ele><time>2021-3-5T18:39:1Z</time></trkpt>
<trkpt lat="48.425406" lon="2.710016"><ele></ele><time>2021-3-5T18:39:4Z</time></trkpt>
<trkpt lat="48.425412" lon="2.709996"><ele></ele><time>2021-3-5T18:39:7Z</time></trkpt>
<trkpt lat="48.425429" lon="2.709936"><ele></ele><time>2021-3-5T18:39:10Z</time></trkpt>
<trkpt lat="48.425459" lon="2.709854"><ele></ele><time>2021-3-5T18:39:13Z</time></trkpt>
<trkpt lat="48.425476" lon="2.709757"><ele></ele><time>2021-3-5T18:39:16Z</time></trkpt>
<trkpt lat="48.425467" lon="2.709661"><ele></ele><time>2021-3-5T18:39:19Z</time></trkpt>
<trkpt lat="48.425415" lon="2.709586"><ele></ele><time>2021-3-5T18:39:22Z</time></trkpt>
<trkpt lat="48.425342" lon="2.709504"><ele></ele><time>2021-3-5T18:39:25Z</time></trkpt>
<trkpt lat="48.425269" lon="2.709376"><ele></ele><time>2021-3-5T18:39:28Z</time></trkpt>
<trkpt lat="48.425197" lon="2.709249"><ele></ele><time>2021-3-5T18:39:31Z</time></trkpt>
<trkpt lat="48.425105" lon="2.709136"><ele></ele><time>2021-3-5T18:39:34Z</time></trkpt>
<trkpt lat="48.425004" lon="2.709021"><ele></ele><time>2021-3-5T18:39:37Z</time></trkpt>
<trkpt lat="48.424891" lon="2.708924"><ele></ele><time>2021-3-5T18:39:40Z</time></trkpt>
<trkpt lat="48.424776" lon="2.708842"><ele></ele><time>2021-3-5T18:39:43Z</time></trkpt>
<trkpt lat="48.424671" lon="2.708705"><ele></ele><time>2021-3-5T18:39:46Z</time></trkpt>
<trkpt lat="48.42456" lon="2.708587"><ele></ele><time>2021-3-5T18:39:49Z</time></trkpt>
<trkpt lat="48.424428" lon="2.708455"><ele></ele><time>2021-3-5T18:39:52Z</time></trkpt>
<trkpt lat="48.424309" lon="2.70833"><ele></ele><time>2021-3-5T18:39:55Z</time></trkpt>
<trkpt lat="48.424217" lon="2.708225"><ele></ele><time>2021-3-5T18:39:58Z</time></trkpt>
<trkpt lat="48.424149" lon="2.708206"><ele></ele><time>2021-3-5T18:40:1Z</time></trkpt>
<trkpt lat="48.424176" lon="2.708267"><ele></ele><time>2021-3-5T18:40:4Z</time></trkpt>
<trkpt lat="48.42422" lon="2.708359"><ele></ele><time>2021-3-5T18:40:7Z</time></trkpt>
<trkpt lat="48.424224" lon="2.708497"><ele></ele><time>2021-3-5T18:40:10Z</time></trkpt>
<trkpt lat="48.424152" lon="2.708565"><ele></ele><time>2021-3-5T18:40:13Z</time></trkpt>
<trkpt lat="48.424085" lon="2.708539"><ele></ele><time>2021-3-5T18:40:16Z</time></trkpt>
<trkpt lat="48.424003" lon="2.708573"><ele></ele><time>2021-3-5T18:40:19Z</time></trkpt>
<trkpt lat="48.423937" lon="2.708621"><ele></ele><time>2021-3-5T18:40:22Z</time></trkpt>
<trkpt lat="48.423896" lon="2.708674"><ele></ele><time>2021-3-5T18:40:25Z</time></trkpt>
<trkpt lat="48.423857" lon="2.708715"><ele></ele><time>2021-3-5T18:40:28Z</time></trkpt>
<trkpt lat="48.423754" lon="2.708831"><ele></ele><time>2021-3-5T18:40:31Z</time></trkpt>
<trkpt lat="48.423621" lon="2.708935"><ele></ele><time>2021-3-5T18:40:34Z</time></trkpt>
<trkpt lat="48.423504" lon="2.709"><ele></ele><time>2021-3-5T18:40:37Z</time></trkpt>
<trkpt lat="48.423385" lon="2.709063"><ele></ele><time>2021-3-5T18:40:40Z</time></trkpt>
<trkpt lat="48.4233" lon="2.709117"><ele></ele><time>2021-3-5T18:40:43Z</time></trkpt>
<trkpt lat="48.423197" lon="2.709158"><ele></ele><time>2021-3-5T18:40:46Z</time></trkpt>
<trkpt lat="48.423095" lon="2.709207"><ele></ele><time>2021-3-5T18:40:49Z</time></trkpt>
<trkpt lat="48.422981" lon="2.709151"><ele></ele><time>2021-3-5T18:40:52Z</time></trkpt>
<trkpt lat="48.422896" lon="2.708995"><ele></ele><time>2021-3-5T18:40:55Z</time></trkpt>
<trkpt lat="48.422826" lon="2.708872"><ele></ele><time>2021-3-5T18:40:58Z</time></trkpt>
<trkpt lat="48.422763" lon="2.7088"><ele></ele><time>2021-3-5T18:41:1Z</time></trkpt>
<trkpt lat="48.422722" lon="2.708733"><ele></ele><time>2021-3-5T18:41:4Z</time></trkpt>
<trkpt lat="48.422684" lon="2.708668"><ele></ele><time>2021-3-5T18:41:7Z</time></trkpt>
<trkpt lat="48.422627" lon="2.70861"><ele></ele><time>2021-3-5T18:41:10Z</time></trkpt>
<trkpt lat="48.422513" lon="2.70859"><ele></ele><time>2021-3-5T18:41:13Z</time></trkpt>
<trkpt lat="48.422381" lon="2.708613"><ele></ele><time>2021-3-5T18:41:16Z</time></trkpt>
<trkpt lat="48.422313" lon="2.708599"><ele></ele><time>2021-3-5T18:41:19Z</time></trkpt>
<trkpt lat="48.42226" lon="2.708549"><ele></ele><time>2021-3-5T18:41:22Z</time></trkpt>
<trkpt lat="48.422215" lon="2.70856"><ele></ele><time>2021-3-5T18:41:25Z</time></trkpt>
<trkpt lat="48.422137" lon="2.70859"><ele></ele><time>2021-3-5T18:41:28Z</time></trkpt>
<trkpt lat="48.422029" lon="2.708577"><ele></ele><time>2021-3-5T18:41:31Z</time></trkpt>
<trkpt lat="48.421993" lon="2.708444"><ele></ele><time>2021-3-5T18:41:34Z</time></trkpt>
<trkpt lat="48.422003" lon="2.708315"><ele></ele><time>2021-3-5T18:41:37Z</time></trkpt>
<trkpt lat="48.421993" lon="2.708243"><ele></ele><time>2021-3-5T18:41:40Z</time></trkpt>
<trkpt lat="48.421934" lon="2.708173"><ele></ele><time>2021-3-5T18:41:43Z</time></trkpt>
<trkpt lat="48.421911" lon="2.708129"><ele></ele><time>2021-3-5T18:41:46Z</time></trkpt>
<trkpt lat="48.421874" lon="2.708082"><ele></ele><time>2021-3-5T18:41:49Z</time></trkpt>
<trkpt lat="48.421873" lon="2.708024"><ele></ele><time>2021-3-5T18:41:52Z</time></trkpt>
<trkpt lat="48.421888" lon="2.707964"><ele></ele><time>2021-3-5T18:41:55Z</time></trkpt>
<trkpt lat="48.42188" lon="2.707909"><ele></ele><time>2021-3-5T18:41:58Z</time></trkpt>
<trkpt lat="48.421875" lon="2.707887"><ele></ele><time>2021-3-5T18:42:1Z</time></trkpt>
<trkpt lat="48.421873" lon="2.707855"><ele></ele><time>2021-3-5T18:42:4Z</time></trkpt>
<trkpt lat="48.42187" lon="2.707833"><ele></ele><time>2021-3-5T18:42:7Z</time></trkpt>
<trkpt lat="48.42187" lon="2.707828"><ele></ele><time>2021-3-5T18:42:10Z</time></trkpt>
<trkpt lat="48.421885" lon="2.707791"><ele></ele><time>2021-3-5T18:42:13Z</time></trkpt>
<trkpt lat="48.421885" lon="2.707765"><ele></ele><time>2021-3-5T18:42:16Z</time></trkpt>
<trkpt lat="48.421886" lon="2.707737"><ele></ele><time>2021-3-5T18:42:19Z</time></trkpt>
<trkpt lat="48.421899" lon="2.707703"><ele></ele><time>2021-3-5T18:42:22Z</time></trkpt>
<trkpt lat="48.421897" lon="2.707691"><ele></ele><time>2021-3-5T18:42:25Z</time></trkpt>
<trkpt lat="48.421896" lon="2.707668"><ele></ele><time>2021-3-5T18:42:28Z</time></trkpt>
<trkpt lat="48.421903" lon="2.707668"><ele></ele><time>2021-3-5T18:42:31Z</time></trkpt>
<trkpt lat="48.421913" lon="2.707651"><ele></ele><time>2021-3-5T18:42:34Z</time></trkpt>
<trkpt lat="48.421931" lon="2.707643"><ele></ele><time>2021-3-5T18:42:37Z</time></trkpt>
<trkpt lat="48.421975" lon="2.707628"><ele></ele><time>2021-3-5T18:42:40Z</time></trkpt>
<trkpt lat="48.42202" lon="2.707609"><ele></ele><time>2021-3-5T18:42:43Z</time></trkpt>
<trkpt lat="48.422067" lon="2.707534"><ele></ele><time>2021-3-5T18:42:46Z</time></trkpt>
<trkpt lat="48.422117" lon="2.707452"><ele></ele><time>2021-3-5T18:42:49Z</time></trkpt>
<trkpt lat="48.42212" lon="2.707342"><ele></ele><time>2021-3-5T18:42:52Z</time></trkpt>
<trkpt lat="48.422097" lon="2.707257"><ele></ele><time>2021-3-5T18:42:55Z</time></trkpt>
<trkpt lat="48.422087" lon="2.707165"><ele></ele><time>2021-3-5T18:42:58Z</time></trkpt>
<trkpt lat="48.422073" lon="2.707066"><ele></ele><time>2021-3-5T18:43:1Z</time></trkpt>
<trkpt lat="48.422059" lon="2.707009"><ele></ele><time>2021-3-5T18:43:4Z</time></trkpt>
<trkpt lat="48.422018" lon="2.706959"><ele></ele><time>2021-3-5T18:43:7Z</time></trkpt>
<trkpt lat="48.421906" lon="2.706881"><ele></ele><time>2021-3-5T18:43:10Z</time></trkpt>
<trkpt lat="48.421825" lon="2.706851"><ele></ele><time>2021-3-5T18:43:13Z</time></trkpt>
<trkpt lat="48.421737" lon="2.706828"><ele></ele><time>2021-3-5T18:43:16Z</time></trkpt>
<trkpt lat="48.42167" lon="2.706779"><ele></ele><time>2021-3-5T18:43:19Z</time></trkpt>
<trkpt lat="48.421659" lon="2.706689"><ele></ele><time>2021-3-5T18:43:22Z</time></trkpt>
<trkpt lat="48.421657" lon="2.706583"><ele></ele><time>2021-3-5T18:43:25Z</time></trkpt>
<trkpt lat="48.421679" lon="2.706455"><ele></ele><time>2021-3-5T18:43:28Z</time></trkpt>
<trkpt lat="48.42166" lon="2.706331"><ele></ele><time>2021-3-5T18:43:31Z</time></trkpt>
<trkpt lat="48.42161" lon="2.706211"><ele></ele><time>2021-3-5T18:43:34Z</time></trkpt>
<trkpt lat="48.421615" lon="2.706093"><ele></ele><time>2021-3-5T18:43:37Z</time></trkpt>
<trkpt lat="48.421625" lon="2.705976"><ele></ele><time>2021-3-5T18:43:40Z</time></trkpt>
<trkpt lat="48.421586" lon="2.705894"><ele></ele><time>2021-3-5T18:43:43Z</time></trkpt>
<trkpt lat="48.421581" lon="2.70576"><ele></ele><time>2021-3-5T18:43:46Z</time></trkpt>
<trkpt lat="48.421578" lon="2.705605"><ele></ele><time>2021-3-5T18:43:49Z</time></trkpt>
<trkpt lat="48.421559" lon="2.705457"><ele></ele><time>2021-3-5T18:43:52Z</time></trkpt>
<trkpt lat="48.421516" lon="2.705357"><ele></ele><time>2021-3-5T18:43:55Z</time></trkpt>
<trkpt lat="48.421467" lon="2.705324"><ele></ele><time>2021-3-5T18:43:58Z</time></trkpt>
<trkpt lat="48.421411" lon="2.705255"><ele></ele><time>2021-3-5T18:44:1Z</time></trkpt>
<trkpt lat="48.421419" lon="2.705126"><ele></ele><time>2021-3-5T18:44:4Z</time></trkpt>
<trkpt lat="48.421442" lon="2.704987"><ele></ele><time>2021-3-5T18:44:7Z</time></trkpt>
<trkpt lat="48.421478" lon="2.704873"><ele></ele><time>2021-3-5T18:44:10Z</time></trkpt>
<trkpt lat="48.421536" lon="2.704747"><ele></ele><time>2021-3-5T18:44:13Z</time></trkpt>
<trkpt lat="48.421594" lon="2.704628"><ele></ele><time>2021-3-5T18:44:16Z</time></trkpt>
<trkpt lat="48.421653" lon="2.704556"><ele></ele><time>2021-3-5T18:44:19Z</time></trkpt>
<trkpt lat="48.421723" lon="2.704512"><ele></ele><time>2021-3-5T18:44:22Z</time></trkpt>
<trkpt lat="48.421759" lon="2.704485"><ele></ele><time>2021-3-5T18:44:25Z</time></trkpt>
<trkpt lat="48.421769" lon="2.704477"><ele></ele><time>2021-3-5T18:44:28Z</time></trkpt>
<trkpt lat="48.421782" lon="2.704472"><ele></ele><time>2021-3-5T18:44:31Z</time></trkpt>
<trkpt lat="48.4218" lon="2.704447"><ele></ele><time>2021-3-5T18:44:34Z</time></trkpt>
<trkpt lat="48.421798" lon="2.704434"><ele></ele><time>2021-3-5T18:44:37Z</time></trkpt>
<trkpt lat="48.421794" lon="2.704417"><ele></ele><time>2021-3-5T18:44:40Z</time></trkpt>
<trkpt lat="48.421799" lon="2.704408"><ele></ele><time>2021-3-5T18:44:43Z</time></trkpt>
<trkpt lat="48.421803" lon="2.704408"><ele></ele><time>2021-3-5T18:44:46Z</time></trkpt>
<trkpt lat="48.421833" lon="2.704381"><ele></ele><time>2021-3-5T18:44:49Z</time></trkpt>
<trkpt lat="48.421899" lon="2.704336"><ele></ele><time>2021-3-5T18:44:52Z</time></trkpt>
<trkpt lat="48.421954" lon="2.704272"><ele></ele><time>2021-3-5T18:44:55Z</time></trkpt>
<trkpt lat="48.422003" lon="2.704193"><ele></ele><time>2021-3-5T18:44:58Z</time></trkpt>
<trkpt lat="48.42203" lon="2.704158"><ele></ele><time>2021-3-5T18:45:1Z</time></trkpt>
<trkpt lat="48.422041" lon="2.70414"><ele></ele><time>2021-3-5T18:45:4Z</time></trkpt>
<trkpt lat="48.422048" lon="2.704127"><ele></ele><time>2021-3-5T18:45:7Z</time></trkpt>
<trkpt lat="48.42205" lon="2.704107"><ele></ele><time>2021-3-5T18:45:10Z</time></trkpt>
<trkpt lat="48.422048" lon="2.704093"><ele></ele><time>2021-3-5T18:45:13Z</time></trkpt>
<trkpt lat="48.422044" lon="2.704091"><ele></ele><time>2021-3-5T18:45:16Z</time></trkpt>
<trkpt lat="48.422042" lon="2.704086"><ele></ele><time>2021-3-5T18:45:19Z</time></trkpt>
<trkpt lat="48.422068" lon="2.704018"><ele></ele><time>2021-3-5T18:45:22Z</time></trkpt>
<trkpt lat="48.422104" lon="2.703946"><ele></ele><time>2021-3-5T18:45:25Z</time></trkpt>
<trkpt lat="48.422086" lon="2.70385"><ele></ele><time>2021-3-5T18:45:28Z</time></trkpt>
<trkpt lat="48.422083" lon="2.703749"><ele></ele><time>2021-3-5T18:45:31Z</time></trkpt>
<trkpt lat="48.422114" lon="2.703592"><ele></ele><time>2021-3-5T18:45:34Z</time></trkpt>
<trkpt lat="48.422095" lon="2.703458"><ele></ele><time>2021-3-5T18:45:37Z</time></trkpt>
<trkpt lat="48.422034" lon="2.703378"><ele></ele><time>2021-3-5T18:45:40Z</time></trkpt>
<trkpt lat="48.421967" lon="2.703313"><ele></ele><time>2021-3-5T18:45:43Z</time></trkpt>
<trkpt lat="48.421919" lon="2.703241"><ele></ele><time>2021-3-5T18:45:46Z</time></trkpt>
<trkpt lat="48.421901" lon="2.703132"><ele></ele><time>2021-3-5T18:45:49Z</time></trkpt>
<trkpt lat="48.421882" lon="2.702999"><ele></ele><time>2021-3-5T18:45:52Z</time></trkpt>
<trkpt lat="48.421823" lon="2.702877"><ele></ele><time>2021-3-5T18:45:55Z</time></trkpt>
<trkpt lat="48.421801" lon="2.702715"><ele></ele><time>2021-3-5T18:45:58Z</time></trkpt>
<trkpt lat="48.421802" lon="2.702633"><ele></ele><time>2021-3-5T18:46:1Z</time></trkpt>
<trkpt lat="48.421831" lon="2.70259"><ele></ele><time>2021-3-5T18:46:4Z</time></trkpt>
<trkpt lat="48.421839" lon="2.702551"><ele></ele><time>2021-3-5T18:46:7Z</time></trkpt>
<trkpt lat="48.421857" lon="2.702512"><ele></ele><time>2021-3-5T18:46:10Z</time></trkpt>
<trkpt lat="48.421866" lon="2.702465"><ele></ele><time>2021-3-5T18:46:13Z</time></trkpt>
<trkpt lat="48.421866" lon="2.702372"><ele></ele><time>2021-3-5T18:46:16Z</time></trkpt>
<trkpt lat="48.421853" lon="2.702259"><ele></ele><time>2021-3-5T18:46:19Z</time></trkpt>
<trkpt lat="48.421848" lon="2.702207"><ele></ele><time>2021-3-5T18:46:22Z</time></trkpt>
<trkpt lat="48.421847" lon="2.702167"><ele></ele><time>2021-3-5T18:46:25Z</time></trkpt>
<trkpt lat="48.421863" lon="2.702047"><ele></ele><time>2021-3-5T18:46:28Z</time></trkpt>
<trkpt lat="48.421872" lon="2.701966"><ele></ele><time>2021-3-5T18:46:31Z</time></trkpt>
<trkpt lat="48.421859" lon="2.70195"><ele></ele><time>2021-3-5T18:46:34Z</time></trkpt>
<trkpt lat="48.421857" lon="2.701952"><ele></ele><time>2021-3-5T18:46:37Z</time></trkpt>
<trkpt lat="48.421843" lon="2.70194"><ele></ele><time>2021-3-5T18:46:40Z</time></trkpt>
<trkpt lat="48.421789" lon="2.701912"><ele></ele><time>2021-3-5T18:46:43Z</time></trkpt>
<trkpt lat="48.421723" lon="2.701873"><ele></ele><time>2021-3-5T18:46:46Z</time></trkpt>
<trkpt lat="48.421656" lon="2.701872"><ele></ele><time>2021-3-5T18:46:49Z</time></trkpt>
<trkpt lat="48.421596" lon="2.701811"><ele></ele><time>2021-3-5T18:46:52Z</time></trkpt>
<trkpt lat="48.421548" lon="2.701791"><ele></ele><time>2021-3-5T18:46:55Z</time></trkpt>
<trkpt lat="48.421452" lon="2.701778"><ele></ele><time>2021-3-5T18:46:58Z</time></trkpt>
<trkpt lat="48.421414" lon="2.701711"><ele></ele><time>2021-3-5T18:47:1Z</time></trkpt>
<trkpt lat="48.421429" lon="2.701614"><ele></ele><time>2021-3-5T18:47:4Z</time></trkpt>
<trkpt lat="48.42145" lon="2.701489"><ele></ele><time>2021-3-5T18:47:7Z</time></trkpt>
<trkpt lat="48.421502" lon="2.701367"><ele></ele><time>2021-3-5T18:47:10Z</time></trkpt>
<trkpt lat="48.42151" lon="2.701245"><ele></ele><time>2021-3-5T18:47:13Z</time></trkpt>
<trkpt lat="48.421515" lon="2.701124"><ele></ele><time>2021-3-5T18:47:16Z</time></trkpt>
<trkpt lat="48.421523" lon="2.701031"><ele></ele><time>2021-3-5T18:47:19Z</time></trkpt>
<trkpt lat="48.421525" lon="2.700971"><ele></ele><time>2021-3-5T18:47:22Z</time></trkpt>
<trkpt lat="48.421521" lon="2.700819"><ele></ele><time>2021-3-5T18:47:25Z</time></trkpt>
<trkpt lat="48.421506" lon="2.700653"><ele></ele><time>2021-3-5T18:47:28Z</time></trkpt>
<trkpt lat="48.421433" lon="2.700563"><ele></ele><time>2021-3-5T18:47:31Z</time></trkpt>
<trkpt lat="48.421347" lon="2.700476"><ele></ele><time>2021-3-5T18:47:34Z</time></trkpt>
<trkpt lat="48.421245" lon="2.700383"><ele></ele><time>2021-3-5T18:47:37Z</time></trkpt>
<trkpt lat="48.421179" lon="2.70027"><ele></ele><time>2021-3-5T18:47:40Z</time></trkpt>
<trkpt lat="48.421096" lon="2.700139"><ele></ele><time>2021-3-5T18:47:43Z</time></trkpt>
<trkpt lat="48.420998" lon="2.700113"><ele></ele><time>2021-3-5T18:47:46Z</time></trkpt>
<trkpt lat="48.420916" lon="2.700122"><ele></ele><time>2021-3-5T18:47:49Z</time></trkpt>
<trkpt lat="48.420848" lon="2.700024"><ele></ele><time>2021-3-5T18:47:52Z</time></trkpt>
<trkpt lat="48.420791" lon="2.699898"><ele></ele><time>2021-3-5T18:47:55Z</time></trkpt>
<trkpt lat="48.42074" lon="2.699684"><ele></ele><time>2021-3-5T18:47:58Z</time></trkpt>
<trkpt lat="48.42076" lon="2.699532"><ele></ele><time>2021-3-5T18:48:1Z</time></trkpt>
<trkpt lat="48.42079" lon="2.699435"><ele></ele><time>2021-3-5T18:48:4Z</time></trkpt>
<trkpt lat="48.420801" lon="2.699341"><ele></ele><time>2021-3-5T18:48:7Z</time></trkpt>
<trkpt lat="48.420849" lon="2.699211"><ele></ele><time>2021-3-5T18:48:10Z</time></trkpt>
<trkpt lat="48.420858" lon="2.699103"><ele></ele><time>2021-3-5T18:48:13Z</time></trkpt>
<trkpt lat="48.420854" lon="2.698984"><ele></ele><time>2021-3-5T18:48:16Z</time></trkpt>
<trkpt lat="48.420868" lon="2.698851"><ele></ele><time>2021-3-5T18:48:19Z</time></trkpt>
<trkpt lat="48.420874" lon="2.698728"><ele></ele><time>2021-3-5T18:48:22Z</time></trkpt>
<trkpt lat="48.420825" lon="2.698599"><ele></ele><time>2021-3-5T18:48:25Z</time></trkpt>
<trkpt lat="48.420732" lon="2.69851"><ele></ele><time>2021-3-5T18:48:28Z</time></trkpt>
<trkpt lat="48.420659" lon="2.698401"><ele></ele><time>2021-3-5T18:48:31Z</time></trkpt>
<trkpt lat="48.420595" lon="2.69825"><ele></ele><time>2021-3-5T18:48:34Z</time></trkpt>
<trkpt lat="48.42047" lon="2.698109"><ele></ele><time>2021-3-5T18:48:37Z</time></trkpt>
<trkpt lat="48.420334" lon="2.697993"><ele></ele><time>2021-3-5T18:48:40Z</time></trkpt>
<trkpt lat="48.42023" lon="2.697877"><ele></ele><time>2021-3-5T18:48:43Z</time></trkpt>
<trkpt lat="48.420141" lon="2.697735"><ele></ele><time>2021-3-5T18:48:46Z</time></trkpt>
<trkpt lat="48.420022" lon="2.697604"><ele></ele><time>2021-3-5T18:48:49Z</time></trkpt>
<trkpt lat="48.419899" lon="2.697408"><ele></ele><time>2021-3-5T18:48:52Z</time></trkpt>
<trkpt lat="48.419758" lon="2.697254"><ele></ele><time>2021-3-5T18:48:55Z</time></trkpt>
<trkpt lat="48.419663" lon="2.697078"><ele></ele><time>2021-3-5T18:48:58Z</time></trkpt>
<trkpt lat="48.419556" lon="2.696904"><ele></ele><time>2021-3-5T18:49:1Z</time></trkpt>
<trkpt lat="48.41944" lon="2.696725"><ele></ele><time>2021-3-5T18:49:4Z</time></trkpt>
<trkpt lat="48.419337" lon="2.696574"><ele></ele><time>2021-3-5T18:49:7Z</time></trkpt>
<trkpt lat="48.419218" lon="2.696441"><ele></ele><time>2021-3-5T18:49:10Z</time></trkpt>
<trkpt lat="48.419104" lon="2.69632"><ele></ele><time>2021-3-5T18:49:13Z</time></trkpt>
<trkpt lat="48.419013" lon="2.696181"><ele></ele><time>2021-3-5T18:49:16Z</time></trkpt>
<trkpt lat="48.418932" lon="2.696061"><ele></ele><time>2021-3-5T18:49:19Z</time></trkpt>
<trkpt lat="48.418856" lon="2.695948"><ele></ele><time>2021-3-5T18:49:22Z</time></trkpt>
<trkpt lat="48.418788" lon="2.695881"><ele></ele><time>2021-3-5T18:49:25Z</time></trkpt>
<trkpt lat="48.418723" lon="2.695787"><ele></ele><time>2021-3-5T18:49:28Z</time></trkpt>
<trkpt lat="48.418647" lon="2.695672"><ele></ele><time>2021-3-5T18:49:31Z</time></trkpt>
<trkpt lat="48.418561" lon="2.695571"><ele></ele><time>2021-3-5T18:49:34Z</time></trkpt>
<trkpt lat="48.418476" lon="2.695451"><ele></ele><time>2021-3-5T18:49:37Z</time></trkpt>
<trkpt lat="48.418405" lon="2.695302"><ele></ele><time>2021-3-5T18:49:40Z</time></trkpt>
<trkpt lat="48.41831" lon="2.695182"><ele></ele><time>2021-3-5T18:49:43Z</time></trkpt>
<trkpt lat="48.418216" lon="2.695068"><ele></ele><time>2021-3-5T18:49:46Z</time></trkpt>
<trkpt lat="48.418123" lon="2.694962"><ele></ele><time>2021-3-5T18:49:49Z</time></trkpt>
<trkpt lat="48.418043" lon="2.694849"><ele></ele><time>2021-3-5T18:49:52Z</time></trkpt>
<trkpt lat="48.417968" lon="2.694784"><ele></ele><time>2021-3-5T18:49:55Z</time></trkpt>
<trkpt lat="48.417883" lon="2.694709"><ele></ele><time>2021-3-5T18:49:58Z</time></trkpt>
<trkpt lat="48.417806" lon="2.694655"><ele></ele><time>2021-3-5T18:50:1Z</time></trkpt>
<trkpt lat="48.417762" lon="2.69462"><ele></ele><time>2021-3-5T18:50:4Z</time></trkpt>
<trkpt lat="48.417724" lon="2.694602"><ele></ele><time>2021-3-5T18:50:7Z</time></trkpt>
<trkpt lat="48.417677" lon="2.694602"><ele></ele><time>2021-3-5T18:50:10Z</time></trkpt>
<trkpt lat="48.41762" lon="2.694592"><ele></ele><time>2021-3-5T18:50:13Z</time></trkpt>
<trkpt lat="48.417554" lon="2.694568"><ele></ele><time>2021-3-5T18:50:16Z</time></trkpt>
<trkpt lat="48.41748" lon="2.694555"><ele></ele><time>2021-3-5T18:50:19Z</time></trkpt>
<trkpt lat="48.417396" lon="2.694537"><ele></ele><time>2021-3-5T18:50:22Z</time></trkpt>
<trkpt lat="48.417324" lon="2.694498"><ele></ele><time>2021-3-5T18:50:25Z</time></trkpt>
<trkpt lat="48.417245" lon="2.694462"><ele></ele><time>2021-3-5T18:50:28Z</time></trkpt>
<trkpt lat="48.417174" lon="2.694417"><ele></ele><time>2021-3-5T18:50:31Z</time></trkpt>
<trkpt lat="48.417113" lon="2.694372"><ele></ele><time>2021-3-5T18:50:34Z</time></trkpt>
<trkpt lat="48.417024" lon="2.694372"><ele></ele><time>2021-3-5T18:50:37Z</time></trkpt>
<trkpt lat="48.416945" lon="2.694357"><ele></ele><time>2021-3-5T18:50:40Z</time></trkpt>
<trkpt lat="48.416866" lon="2.694316"><ele></ele><time>2021-3-5T18:50:43Z</time></trkpt>
<trkpt lat="48.416782" lon="2.694299"><ele></ele><time>2021-3-5T18:50:46Z</time></trkpt>
<trkpt lat="48.416715" lon="2.694294"><ele></ele><time>2021-3-5T18:50:49Z</time></trkpt>
<trkpt lat="48.416658" lon="2.694265"><ele></ele><time>2021-3-5T18:50:52Z</time></trkpt>
<trkpt lat="48.416615" lon="2.694237"><ele></ele><time>2021-3-5T18:50:55Z</time></trkpt>
<trkpt lat="48.416569" lon="2.694198"><ele></ele><time>2021-3-5T18:50:58Z</time></trkpt>
<trkpt lat="48.416526" lon="2.694165"><ele></ele><time>2021-3-5T18:51:1Z</time></trkpt>
<trkpt lat="48.416448" lon="2.694135"><ele></ele><time>2021-3-5T18:51:4Z</time></trkpt>
<trkpt lat="48.416374" lon="2.694102"><ele></ele><time>2021-3-5T18:51:7Z</time></trkpt>
<trkpt lat="48.416322" lon="2.69406"><ele></ele><time>2021-3-5T18:51:10Z</time></trkpt>
<trkpt lat="48.416265" lon="2.694019"><ele></ele><time>2021-3-5T18:51:13Z</time></trkpt>
<trkpt lat="48.416201" lon="2.693988"><ele></ele><time>2021-3-5T18:51:16Z</time></trkpt>
<trkpt lat="48.416146" lon="2.693966"><ele></ele><time>2021-3-5T18:51:19Z</time></trkpt>
<trkpt lat="48.416095" lon="2.693943"><ele></ele><time>2021-3-5T18:51:22Z</time></trkpt>
<trkpt lat="48.416062" lon="2.693902"><ele></ele><time>2021-3-5T18:51:25Z</time></trkpt>
<trkpt lat="48.416029" lon="2.693884"><ele></ele><time>2021-3-5T18:51:28Z</time></trkpt>
<trkpt lat="48.415986" lon="2.693876"><ele></ele><time>2021-3-5T18:51:31Z</time></trkpt>
<trkpt lat="48.415946" lon="2.693865"><ele></ele><time>2021-3-5T18:51:34Z</time></trkpt>
<trkpt lat="48.415926" lon="2.693857"><ele></ele><time>2021-3-5T18:51:37Z</time></trkpt>
<trkpt lat="48.415926" lon="2.693853"><ele></ele><time>2021-3-5T18:51:40Z</time></trkpt>
<trkpt lat="48.415924" lon="2.69385"><ele></ele><time>2021-3-5T18:51:43Z</time></trkpt>
<trkpt lat="48.415907" lon="2.693846"><ele></ele><time>2021-3-5T18:51:46Z</time></trkpt>
<trkpt lat="48.415861" lon="2.693833"><ele></ele><time>2021-3-5T18:51:49Z</time></trkpt>
<trkpt lat="48.41583" lon="2.693806"><ele></ele><time>2021-3-5T18:51:52Z</time></trkpt>
<trkpt lat="48.415814" lon="2.693777"><ele></ele><time>2021-3-5T18:51:55Z</time></trkpt>
<trkpt lat="48.415794" lon="2.693751"><ele></ele><time>2021-3-5T18:51:58Z</time></trkpt>
<trkpt lat="48.415768" lon="2.693733"><ele></ele><time>2021-3-5T18:52:1Z</time></trkpt>
<trkpt lat="48.415748" lon="2.693735"><ele></ele><time>2021-3-5T18:52:4Z</time></trkpt>
<trkpt lat="48.415731" lon="2.693722"><ele></ele><time>2021-3-5T18:52:7Z</time></trkpt>
<trkpt lat="48.415708" lon="2.693708"><ele></ele><time>2021-3-5T18:52:10Z</time></trkpt>
<trkpt lat="48.415678" lon="2.693703"><ele></ele><time>2021-3-5T18:52:13Z</time></trkpt>
<trkpt lat="48.415646" lon="2.69371"><ele></ele><time>2021-3-5T18:52:16Z</time></trkpt>
<trkpt lat="48.415605" lon="2.693719"><ele></ele><time>2021-3-5T18:52:19Z</time></trkpt>
<trkpt lat="48.415573" lon="2.693721"><ele></ele><time>2021-3-5T18:52:22Z</time></trkpt>
<trkpt lat="48.415552" lon="2.693716"><ele></ele><time>2021-3-5T18:52:25Z</time></trkpt>
<trkpt lat="48.415527" lon="2.69369"><ele></ele><time>2021-3-5T18:52:28Z</time></trkpt>
<trkpt lat="48.4155" lon="2.69368"><ele></ele><time>2021-3-5T18:52:31Z</time></trkpt>
<trkpt lat="48.415461" lon="2.693681"><ele></ele><time>2021-3-5T18:52:34Z</time></trkpt>
<trkpt lat="48.415416" lon="2.693666"><ele></ele><time>2021-3-5T18:52:37Z</time></trkpt>
<trkpt lat="48.415381" lon="2.69364"><ele></ele><time>2021-3-5T18:52:40Z</time></trkpt>
<trkpt lat="48.415346" lon="2.693628"><ele></ele><time>2021-3-5T18:52:43Z</time></trkpt>
<trkpt lat="48.415325" lon="2.693613"><ele></ele><time>2021-3-5T18:52:46Z</time></trkpt>
<trkpt lat="48.415297" lon="2.693587"><ele></ele><time>2021-3-5T18:52:49Z</time></trkpt>
<trkpt lat="48.415263" lon="2.69357"><ele></ele><time>2021-3-5T18:52:52Z</time></trkpt>
<trkpt lat="48.41523" lon="2.693559"><ele></ele><time>2021-3-5T18:52:55Z</time></trkpt>
<trkpt lat="48.415198" lon="2.69356"><ele></ele><time>2021-3-5T18:52:58Z</time></trkpt>
<trkpt lat="48.415172" lon="2.693542"><ele></ele><time>2021-3-5T18:53:1Z</time></trkpt>
<trkpt lat="48.415141" lon="2.69353"><ele></ele><time>2021-3-5T18:53:4Z</time></trkpt>
<trkpt lat="48.415115" lon="2.693513"><ele></ele><time>2021-3-5T18:53:7Z</time></trkpt>
<trkpt lat="48.4151" lon="2.693502"><ele></ele><time>2021-3-5T18:53:10Z</time></trkpt>
<trkpt lat="48.415091" lon="2.693493"><ele></ele><time>2021-3-5T18:53:13Z</time></trkpt>
<trkpt lat="48.415045" lon="2.69347"><ele></ele><time>2021-3-5T18:53:16Z</time></trkpt>
<trkpt lat="48.414993" lon="2.693432"><ele></ele><time>2021-3-5T18:53:19Z</time></trkpt>
<trkpt lat="48.414944" lon="2.693395"><ele></ele><time>2021-3-5T18:53:22Z</time></trkpt>
<trkpt lat="48.414883" lon="2.693389"><ele></ele><time>2021-3-5T18:53:25Z</time></trkpt>
<trkpt lat="48.414831" lon="2.693369"><ele></ele><time>2021-3-5T18:53:28Z</time></trkpt>
<trkpt lat="48.414781" lon="2.693346"><ele></ele><time>2021-3-5T18:53:31Z</time></trkpt>
<trkpt lat="48.414737" lon="2.693297"><ele></ele><time>2021-3-5T18:53:34Z</time></trkpt>
<trkpt lat="48.41469" lon="2.693273"><ele></ele><time>2021-3-5T18:53:37Z</time></trkpt>
<trkpt lat="48.414626" lon="2.693238"><ele></ele><time>2021-3-5T18:53:40Z</time></trkpt>
<trkpt lat="48.414564" lon="2.693214"><ele></ele><time>2021-3-5T18:53:43Z</time></trkpt>
<trkpt lat="48.414501" lon="2.69319"><ele></ele><time>2021-3-5T18:53:46Z</time></trkpt>
<trkpt lat="48.414438" lon="2.693156"><ele></ele><time>2021-3-5T18:53:49Z</time></trkpt>
<trkpt lat="48.414379" lon="2.693125"><ele></ele><time>2021-3-5T18:53:52Z</time></trkpt>
<trkpt lat="48.414372" lon="2.693106"><ele></ele><time>2021-3-5T18:53:55Z</time></trkpt>
<trkpt lat="48.41438" lon="2.693037"><ele></ele><time>2021-3-5T18:53:58Z</time></trkpt>
<trkpt lat="48.414397" lon="2.692938"><ele></ele><time>2021-3-5T18:54:1Z</time></trkpt>
<trkpt lat="48.414416" lon="2.692838"><ele></ele><time>2021-3-5T18:54:4Z</time></trkpt>
<trkpt lat="48.414427" lon="2.692733"><ele></ele><time>2021-3-5T18:54:7Z</time></trkpt>
<trkpt lat="48.414428" lon="2.692624"><ele></ele><time>2021-3-5T18:54:10Z</time></trkpt>
<trkpt lat="48.414437" lon="2.692481"><ele></ele><time>2021-3-5T18:54:13Z</time></trkpt>
<trkpt lat="48.414455" lon="2.692362"><ele></ele><time>2021-3-5T18:54:16Z</time></trkpt>
<trkpt lat="48.414482" lon="2.692211"><ele></ele><time>2021-3-5T18:54:19Z</time></trkpt>
<trkpt lat="48.414492" lon="2.692065"><ele></ele><time>2021-3-5T18:54:22Z</time></trkpt>
<trkpt lat="48.41447" lon="2.691925"><ele></ele><time>2021-3-5T18:54:25Z</time></trkpt>
<trkpt lat="48.414471" lon="2.691838"><ele></ele><time>2021-3-5T18:54:28Z</time></trkpt>
<trkpt lat="48.414499" lon="2.691709"><ele></ele><time>2021-3-5T18:54:31Z</time></trkpt>
<trkpt lat="48.414506" lon="2.691554"><ele></ele><time>2021-3-5T18:54:34Z</time></trkpt>
<trkpt lat="48.414533" lon="2.691386"><ele></ele><time>2021-3-5T18:54:37Z</time></trkpt>
<trkpt lat="48.414569" lon="2.691256"><ele></ele><time>2021-3-5T18:54:40Z</time></trkpt>
<trkpt lat="48.41458" lon="2.691166"><ele></ele><time>2021-3-5T18:54:43Z</time></trkpt>
<trkpt lat="48.414575" lon="2.691034"><ele></ele><time>2021-3-5T18:54:46Z</time></trkpt>
<trkpt lat="48.414588" lon="2.69089"><ele></ele><time>2021-3-5T18:54:49Z</time></trkpt>
<trkpt lat="48.414607" lon="2.690724"><ele></ele><time>2021-3-5T18:54:52Z</time></trkpt>
<trkpt lat="48.414638" lon="2.690574"><ele></ele><time>2021-3-5T18:54:55Z</time></trkpt>
<trkpt lat="48.414681" lon="2.690379"><ele></ele><time>2021-3-5T18:54:58Z</time></trkpt>
<trkpt lat="48.414741" lon="2.690189"><ele></ele><time>2021-3-5T18:55:1Z</time></trkpt>
<trkpt lat="48.414815" lon="2.690023"><ele></ele><time>2021-3-5T18:55:4Z</time></trkpt>
<trkpt lat="48.414847" lon="2.689865"><ele></ele><time>2021-3-5T18:55:7Z</time></trkpt>
<trkpt lat="48.414864" lon="2.68975"><ele></ele><time>2021-3-5T18:55:10Z</time></trkpt>
<trkpt lat="48.414887" lon="2.689624"><ele></ele><time>2021-3-5T18:55:13Z</time></trkpt>
<trkpt lat="48.41495" lon="2.689467"><ele></ele><time>2021-3-5T18:55:16Z</time></trkpt>
<trkpt lat="48.415037" lon="2.689307"><ele></ele><time>2021-3-5T18:55:19Z</time></trkpt>
<trkpt lat="48.41511" lon="2.689134"><ele></ele><time>2021-3-5T18:55:22Z</time></trkpt>
<trkpt lat="48.415157" lon="2.688921"><ele></ele><time>2021-3-5T18:55:25Z</time></trkpt>
<trkpt lat="48.415213" lon="2.688775"><ele></ele><time>2021-3-5T18:55:28Z</time></trkpt>
<trkpt lat="48.415233" lon="2.688629"><ele></ele><time>2021-3-5T18:55:31Z</time></trkpt>
<trkpt lat="48.415264" lon="2.688475"><ele></ele><time>2021-3-5T18:55:34Z</time></trkpt>
<trkpt lat="48.415291" lon="2.688339"><ele></ele><time>2021-3-5T18:55:37Z</time></trkpt>
<trkpt lat="48.415268" lon="2.688227"><ele></ele><time>2021-3-5T18:55:40Z</time></trkpt>
<trkpt lat="48.415239" lon="2.688123"><ele></ele><time>2021-3-5T18:55:43Z</time></trkpt>
<trkpt lat="48.415227" lon="2.687991"><ele></ele><time>2021-3-5T18:55:46Z</time></trkpt>
<trkpt lat="48.415218" lon="2.687844"><ele></ele><time>2021-3-5T18:55:49Z</time></trkpt>
<trkpt lat="48.415222" lon="2.687704"><ele></ele><time>2021-3-5T18:55:52Z</time></trkpt>
<trkpt lat="48.415207" lon="2.6876"><ele></ele><time>2021-3-5T18:55:55Z</time></trkpt>
<trkpt lat="48.415188" lon="2.687484"><ele></ele><time>2021-3-5T18:55:58Z</time></trkpt>
<trkpt lat="48.415162" lon="2.687369"><ele></ele><time>2021-3-5T18:56:1Z</time></trkpt>
<trkpt lat="48.415138" lon="2.687263"><ele></ele><time>2021-3-5T18:56:4Z</time></trkpt>
<trkpt lat="48.4151" lon="2.687107"><ele></ele><time>2021-3-5T18:56:7Z</time></trkpt>
<trkpt lat="48.415086" lon="2.686923"><ele></ele><time>2021-3-5T18:56:10Z</time></trkpt>
<trkpt lat="48.415073" lon="2.686713"><ele></ele><time>2021-3-5T18:56:13Z</time></trkpt>
<trkpt lat="48.415033" lon="2.686506"><ele></ele><time>2021-3-5T18:56:16Z</time></trkpt>
<trkpt lat="48.415005" lon="2.6863"><ele></ele><time>2021-3-5T18:56:19Z</time></trkpt>
<trkpt lat="48.414931" lon="2.686179"><ele></ele><time>2021-3-5T18:56:22Z</time></trkpt>
<trkpt lat="48.414835" lon="2.686238"><ele></ele><time>2021-3-5T18:56:25Z</time></trkpt>
<trkpt lat="48.414764" lon="2.686319"><ele></ele><time>2021-3-5T18:56:28Z</time></trkpt>
<trkpt lat="48.414684" lon="2.686398"><ele></ele><time>2021-3-5T18:56:31Z</time></trkpt>
<trkpt lat="48.414555" lon="2.686535"><ele></ele><time>2021-3-5T18:56:34Z</time></trkpt>
<trkpt lat="48.414472" lon="2.686621"><ele></ele><time>2021-3-5T18:56:37Z</time></trkpt>
<trkpt lat="48.414395" lon="2.686757"><ele></ele><time>2021-3-5T18:56:40Z</time></trkpt>
<trkpt lat="48.414301" lon="2.686844"><ele></ele><time>2021-3-5T18:56:43Z</time></trkpt>
<trkpt lat="48.414195" lon="2.686963"><ele></ele><time>2021-3-5T18:56:46Z</time></trkpt>
<trkpt lat="48.41409" lon="2.687086"><ele></ele><time>2021-3-5T18:56:49Z</time></trkpt>
<trkpt lat="48.413983" lon="2.687201"><ele></ele><time>2021-3-5T18:56:52Z</time></trkpt>
<trkpt lat="48.413861" lon="2.687344"><ele></ele><time>2021-3-5T18:56:55Z</time></trkpt>
<trkpt lat="48.413817" lon="2.687491"><ele></ele><time>2021-3-5T18:56:58Z</time></trkpt>
<trkpt lat="48.413768" lon="2.687635"><ele></ele><time>2021-3-5T18:57:1Z</time></trkpt>
<trkpt lat="48.413725" lon="2.68786"><ele></ele><time>2021-3-5T18:57:4Z</time></trkpt>
<trkpt lat="48.413689" lon="2.688041"><ele></ele><time>2021-3-5T18:57:7Z</time></trkpt>
<trkpt lat="48.413651" lon="2.688217"><ele></ele><time>2021-3-5T18:57:10Z</time></trkpt>
<trkpt lat="48.413633" lon="2.688382"><ele></ele><time>2021-3-5T18:57:13Z</time></trkpt>
<trkpt lat="48.413616" lon="2.688522"><ele></ele><time>2021-3-5T18:57:16Z</time></trkpt>
<trkpt lat="48.413572" lon="2.688622"><ele></ele><time>2021-3-5T18:57:19Z</time></trkpt>
<trkpt lat="48.413556" lon="2.688683"><ele></ele><time>2021-3-5T18:57:22Z</time></trkpt>
<trkpt lat="48.413528" lon="2.688782"><ele></ele><time>2021-3-5T18:57:25Z</time></trkpt>
<trkpt lat="48.413477" lon="2.688882"><ele></ele><time>2021-3-5T18:57:28Z</time></trkpt>
<trkpt lat="48.413442" lon="2.68899"><ele></ele><time>2021-3-5T18:57:31Z</time></trkpt>
<trkpt lat="48.413412" lon="2.689072"><ele></ele><time>2021-3-5T18:57:34Z</time></trkpt>
<trkpt lat="48.413337" lon="2.689146"><ele></ele><time>2021-3-5T18:57:37Z</time></trkpt>
<trkpt lat="48.413234" lon="2.689226"><ele></ele><time>2021-3-5T18:57:40Z</time></trkpt>
<trkpt lat="48.413123" lon="2.689382"><ele></ele><time>2021-3-5T18:57:43Z</time></trkpt>
<trkpt lat="48.413056" lon="2.689558"><ele></ele><time>2021-3-5T18:57:46Z</time></trkpt>
<trkpt lat="48.413031" lon="2.689762"><ele></ele><time>2021-3-5T18:57:49Z</time></trkpt>
<trkpt lat="48.413075" lon="2.689959"><ele></ele><time>2021-3-5T18:57:52Z</time></trkpt>
<trkpt lat="48.413039" lon="2.690333"><ele></ele><time>2021-3-5T18:57:55Z</time></trkpt>
<trkpt lat="48.41291" lon="2.690654"><ele></ele><time>2021-3-5T18:57:58Z</time></trkpt>
<trkpt lat="48.41284" lon="2.691042"><ele></ele><time>2021-3-5T18:58:1Z</time></trkpt>
<trkpt lat="48.412794" lon="2.691411"><ele></ele><time>2021-3-5T18:58:4Z</time></trkpt>
<trkpt lat="48.412736" lon="2.69165"><ele></ele><time>2021-3-5T18:58:7Z</time></trkpt>
<trkpt lat="48.412698" lon="2.691827"><ele></ele><time>2021-3-5T18:58:10Z</time></trkpt>
<trkpt lat="48.412654" lon="2.691967"><ele></ele><time>2021-3-5T18:58:13Z</time></trkpt>
<trkpt lat="48.412566" lon="2.692041"><ele></ele><time>2021-3-5T18:58:16Z</time></trkpt>
<trkpt lat="48.412452" lon="2.692081"><ele></ele><time>2021-3-5T18:58:19Z</time></trkpt>
<trkpt lat="48.412333" lon="2.69207"><ele></ele><time>2021-3-5T18:58:22Z</time></trkpt>
<trkpt lat="48.412314" lon="2.692062"><ele></ele><time>2021-3-5T18:58:25Z</time></trkpt>
<trkpt lat="48.412275" lon="2.692006"><ele></ele><time>2021-3-5T18:58:28Z</time></trkpt>
<trkpt lat="48.412183" lon="2.691908"><ele></ele><time>2021-3-5T18:58:31Z</time></trkpt>
<trkpt lat="48.412083" lon="2.69181"><ele></ele><time>2021-3-5T18:58:34Z</time></trkpt>
<trkpt lat="48.411891" lon="2.691679"><ele></ele><time>2021-3-5T18:58:37Z</time></trkpt>
<trkpt lat="48.41172" lon="2.691575"><ele></ele><time>2021-3-5T18:58:40Z</time></trkpt>
<trkpt lat="48.411579" lon="2.69144"><ele></ele><time>2021-3-5T18:58:43Z</time></trkpt>
<trkpt lat="48.411383" lon="2.691279"><ele></ele><time>2021-3-5T18:58:46Z</time></trkpt>
<trkpt lat="48.411209" lon="2.691108"><ele></ele><time>2021-3-5T18:58:49Z</time></trkpt>
<trkpt lat="48.41102" lon="2.690941"><ele></ele><time>2021-3-5T18:58:52Z</time></trkpt>
<trkpt lat="48.410839" lon="2.690794"><ele></ele><time>2021-3-5T18:58:55Z</time></trkpt>
<trkpt lat="48.41068" lon="2.690651"><ele></ele><time>2021-3-5T18:58:58Z</time></trkpt>
<trkpt lat="48.410514" lon="2.690512"><ele></ele><time>2021-3-5T18:59:1Z</time></trkpt>
<trkpt lat="48.410336" lon="2.690347"><ele></ele><time>2021-3-5T18:59:4Z</time></trkpt>
<trkpt lat="48.410185" lon="2.690177"><ele></ele><time>2021-3-5T18:59:7Z</time></trkpt>
<trkpt lat="48.410029" lon="2.690083"><ele></ele><time>2021-3-5T18:59:10Z</time></trkpt>
<trkpt lat="48.409859" lon="2.689964"><ele></ele><time>2021-3-5T18:59:13Z</time></trkpt>
<trkpt lat="48.409738" lon="2.689834"><ele></ele><time>2021-3-5T18:59:16Z</time></trkpt>
<trkpt lat="48.40963" lon="2.689744"><ele></ele><time>2021-3-5T18:59:19Z</time></trkpt>
<trkpt lat="48.409605" lon="2.689663"><ele></ele><time>2021-3-5T18:59:22Z</time></trkpt>
<trkpt lat="48.409575" lon="2.689658"><ele></ele><time>2021-3-5T18:59:25Z</time></trkpt>
<trkpt lat="48.409541" lon="2.689628"><ele></ele><time>2021-3-5T18:59:28Z</time></trkpt>
<trkpt lat="48.409503" lon="2.689537"><ele></ele><time>2021-3-5T18:59:31Z</time></trkpt>
<trkpt lat="48.409444" lon="2.68941"><ele></ele><time>2021-3-5T18:59:34Z</time></trkpt>
<trkpt lat="48.409378" lon="2.689277"><ele></ele><time>2021-3-5T18:59:37Z</time></trkpt>
<trkpt lat="48.409324" lon="2.689121"><ele></ele><time>2021-3-5T18:59:40Z</time></trkpt>
<trkpt lat="48.409229" lon="2.688966"><ele></ele><time>2021-3-5T18:59:43Z</time></trkpt>
<trkpt lat="48.409156" lon="2.688814"><ele></ele><time>2021-3-5T18:59:46Z</time></trkpt>
<trkpt lat="48.40906" lon="2.688643"><ele></ele><time>2021-3-5T18:59:49Z</time></trkpt>
<trkpt lat="48.408957" lon="2.688487"><ele></ele><time>2021-3-5T18:59:52Z</time></trkpt>
<trkpt lat="48.408869" lon="2.688298"><ele></ele><time>2021-3-5T18:59:55Z</time></trkpt>
<trkpt lat="48.40879" lon="2.688058"><ele></ele><time>2021-3-5T18:59:58Z</time></trkpt>
<trkpt lat="48.408759" lon="2.687895"><ele></ele><time>2021-3-5T19:0:1Z</time></trkpt>
<trkpt lat="48.408687" lon="2.68776"><ele></ele><time>2021-3-5T19:0:4Z</time></trkpt>
<trkpt lat="48.408617" lon="2.687607"><ele></ele><time>2021-3-5T19:0:7Z</time></trkpt>
<trkpt lat="48.408541" lon="2.687503"><ele></ele><time>2021-3-5T19:0:10Z</time></trkpt>
<trkpt lat="48.408456" lon="2.687462"><ele></ele><time>2021-3-5T19:0:13Z</time></trkpt>
<trkpt lat="48.408419" lon="2.687452"><ele></ele><time>2021-3-5T19:0:16Z</time></trkpt>
<trkpt lat="48.40834" lon="2.687418"><ele></ele><time>2021-3-5T19:0:19Z</time></trkpt>
<trkpt lat="48.408256" lon="2.687345"><ele></ele><time>2021-3-5T19:0:22Z</time></trkpt>
<trkpt lat="48.408212" lon="2.687253"><ele></ele><time>2021-3-5T19:0:25Z</time></trkpt>
<trkpt lat="48.408185" lon="2.687155"><ele></ele><time>2021-3-5T19:0:28Z</time></trkpt>
<trkpt lat="48.408174" lon="2.687045"><ele></ele><time>2021-3-5T19:0:31Z</time></trkpt>
<trkpt lat="48.408151" lon="2.686947"><ele></ele><time>2021-3-5T19:0:34Z</time></trkpt>
<trkpt lat="48.408132" lon="2.686875"><ele></ele><time>2021-3-5T19:0:37Z</time></trkpt>
<trkpt lat="48.408115" lon="2.686827"><ele></ele><time>2021-3-5T19:0:40Z</time></trkpt>
<trkpt lat="48.408105" lon="2.686759"><ele></ele><time>2021-3-5T19:0:43Z</time></trkpt>
<trkpt lat="48.408076" lon="2.686657"><ele></ele><time>2021-3-5T19:0:46Z</time></trkpt>
<trkpt lat="48.40806" lon="2.686535"><ele></ele><time>2021-3-5T19:0:49Z</time></trkpt>
<trkpt lat="48.408098" lon="2.68643"><ele></ele><time>2021-3-5T19:0:52Z</time></trkpt>
<trkpt lat="48.40813" lon="2.686316"><ele></ele><time>2021-3-5T19:0:55Z</time></trkpt>
<trkpt lat="48.408156" lon="2.686235"><ele></ele><time>2021-3-5T19:0:58Z</time></trkpt>
<trkpt lat="48.408181" lon="2.686155"><ele></ele><time>2021-3-5T19:1:1Z</time></trkpt>
<trkpt lat="48.408246" lon="2.686088"><ele></ele><time>2021-3-5T19:1:4Z</time></trkpt>
<trkpt lat="48.408307" lon="2.686019"><ele></ele><time>2021-3-5T19:1:7Z</time></trkpt>
<trkpt lat="48.408365" lon="2.685965"><ele></ele><time>2021-3-5T19:1:10Z</time></trkpt>
<trkpt lat="48.408432" lon="2.685925"><ele></ele><time>2021-3-5T19:1:13Z</time></trkpt>
<trkpt lat="48.408485" lon="2.685921"><ele></ele><time>2021-3-5T19:1:16Z</time></trkpt>
<trkpt lat="48.408516" lon="2.685919"><ele></ele><time>2021-3-5T19:1:19Z</time></trkpt>
<trkpt lat="48.408553" lon="2.685862"><ele></ele><time>2021-3-5T19:1:22Z</time></trkpt>
<trkpt lat="48.408576" lon="2.685758"><ele></ele><time>2021-3-5T19:1:25Z</time></trkpt>
<trkpt lat="48.408625" lon="2.685637"><ele></ele><time>2021-3-5T19:1:28Z</time></trkpt>
<trkpt lat="48.408625" lon="2.685521"><ele></ele><time>2021-3-5T19:1:31Z</time></trkpt>
<trkpt lat="48.408612" lon="2.685392"><ele></ele><time>2021-3-5T19:1:34Z</time></trkpt>
<trkpt lat="48.40863" lon="2.685217"><ele></ele><time>2021-3-5T19:1:37Z</time></trkpt>
<trkpt lat="48.408657" lon="2.685053"><ele></ele><time>2021-3-5T19:1:40Z</time></trkpt>
<trkpt lat="48.408683" lon="2.684899"><ele></ele><time>2021-3-5T19:1:43Z</time></trkpt>
<trkpt lat="48.408685" lon="2.684706"><ele></ele><time>2021-3-5T19:1:46Z</time></trkpt>
<trkpt lat="48.408698" lon="2.684515"><ele></ele><time>2021-3-5T19:1:49Z</time></trkpt>
<trkpt lat="48.408716" lon="2.684367"><ele></ele><time>2021-3-5T19:1:52Z</time></trkpt>
<trkpt lat="48.408754" lon="2.684218"><ele></ele><time>2021-3-5T19:1:55Z</time></trkpt>
<trkpt lat="48.408784" lon="2.68405"><ele></ele><time>2021-3-5T19:1:58Z</time></trkpt>
<trkpt lat="48.408802" lon="2.68388"><ele></ele><time>2021-3-5T19:2:1Z</time></trkpt>
<trkpt lat="48.408814" lon="2.683684"><ele></ele><time>2021-3-5T19:2:4Z</time></trkpt>
<trkpt lat="48.408825" lon="2.683476"><ele></ele><time>2021-3-5T19:2:7Z</time></trkpt>
<trkpt lat="48.408847" lon="2.683276"><ele></ele><time>2021-3-5T19:2:10Z</time></trkpt>
<trkpt lat="48.40887" lon="2.683095"><ele></ele><time>2021-3-5T19:2:13Z</time></trkpt>
<trkpt lat="48.408876" lon="2.682912"><ele></ele><time>2021-3-5T19:2:16Z</time></trkpt>
<trkpt lat="48.408918" lon="2.682726"><ele></ele><time>2021-3-5T19:2:19Z</time></trkpt>
<trkpt lat="48.40894" lon="2.682555"><ele></ele><time>2021-3-5T19:2:22Z</time></trkpt>
<trkpt lat="48.408943" lon="2.682401"><ele></ele><time>2021-3-5T19:2:25Z</time></trkpt>
<trkpt lat="48.408939" lon="2.682252"><ele></ele><time>2021-3-5T19:2:28Z</time></trkpt>
<trkpt lat="48.40896" lon="2.682072"><ele></ele><time>2021-3-5T19:2:31Z</time></trkpt>
<trkpt lat="48.408964" lon="2.68188"><ele></ele><time>2021-3-5T19:2:34Z</time></trkpt>
<trkpt lat="48.408938" lon="2.681698"><ele></ele><time>2021-3-5T19:2:37Z</time></trkpt>
<trkpt lat="48.408918" lon="2.681494"><ele></ele><time>2021-3-5T19:2:40Z</time></trkpt>
<trkpt lat="48.408853" lon="2.681256"><ele></ele><time>2021-3-5T19:2:43Z</time></trkpt>
<trkpt lat="48.408756" lon="2.681101"><ele></ele><time>2021-3-5T19:2:46Z</time></trkpt>
<trkpt lat="48.408674" lon="2.680974"><ele></ele><time>2021-3-5T19:2:49Z</time></trkpt>
<trkpt lat="48.408604" lon="2.680859"><ele></ele><time>2021-3-5T19:2:52Z</time></trkpt>
<trkpt lat="48.408534" lon="2.680756"><ele></ele><time>2021-3-5T19:2:55Z</time></trkpt>
<trkpt lat="48.408451" lon="2.680661"><ele></ele><time>2021-3-5T19:2:58Z</time></trkpt>
<trkpt lat="48.408376" lon="2.680536"><ele></ele><time>2021-3-5T19:3:1Z</time></trkpt>
<trkpt lat="48.4083" lon="2.680362"><ele></ele><time>2021-3-5T19:3:4Z</time></trkpt>
<trkpt lat="48.408239" lon="2.680225"><ele></ele><time>2021-3-5T19:3:7Z</time></trkpt>
<trkpt lat="48.408168" lon="2.680121"><ele></ele><time>2021-3-5T19:3:10Z</time></trkpt>
<trkpt lat="48.408167" lon="2.679972"><ele></ele><time>2021-3-5T19:3:13Z</time></trkpt>
<trkpt lat="48.408123" lon="2.679876"><ele></ele><time>2021-3-5T19:3:16Z</time></trkpt>
<trkpt lat="48.408091" lon="2.679867"><ele></ele><time>2021-3-5T19:3:19Z</time></trkpt>
<trkpt lat="48.408101" lon="2.679852"><ele></ele><time>2021-3-5T19:3:22Z</time></trkpt>
<trkpt lat="48.408098" lon="2.679835"><ele></ele><time>2021-3-5T19:3:25Z</time></trkpt>
<trkpt lat="48.408108" lon="2.679822"><ele></ele><time>2021-3-5T19:3:28Z</time></trkpt>
<trkpt lat="48.408112" lon="2.679818"><ele></ele><time>2021-3-5T19:3:31Z</time></trkpt>
<trkpt lat="48.408113" lon="2.679817"><ele></ele><time>2021-3-5T19:3:34Z</time></trkpt>
<trkpt lat="48.408113" lon="2.679817"><ele></ele><time>2021-3-5T19:3:37Z</time></trkpt>
<trkpt lat="48.408113" lon="2.679817"><ele></ele><time>2021-3-5T19:3:40Z</time></trkpt>
<trkpt lat="48.408113" lon="2.679817"><ele></ele><time>2021-3-5T19:3:43Z</time></trkpt>
<trkpt lat="48.40811" lon="2.679818"><ele></ele><time>2021-3-5T19:3:46Z</time></trkpt>
<trkpt lat="48.408106" lon="2.67982"><ele></ele><time>2021-3-5T19:3:49Z</time></trkpt>
<trkpt lat="48.408088" lon="2.679829"><ele></ele><time>2021-3-5T19:3:52Z</time></trkpt>
<trkpt lat="48.408038" lon="2.67977"><ele></ele><time>2021-3-5T19:3:55Z</time></trkpt>
<trkpt lat="48.407977" lon="2.679691"><ele></ele><time>2021-3-5T19:3:58Z</time></trkpt>
<trkpt lat="48.407919" lon="2.679561"><ele></ele><time>2021-3-5T19:4:1Z</time></trkpt>
<trkpt lat="48.40787" lon="2.679453"><ele></ele><time>2021-3-5T19:4:4Z</time></trkpt>
<trkpt lat="48.407802" lon="2.67934"><ele></ele><time>2021-3-5T19:4:7Z</time></trkpt>
<trkpt lat="48.407726" lon="2.679236"><ele></ele><time>2021-3-5T19:4:10Z</time></trkpt>
<trkpt lat="48.407663" lon="2.679038"><ele></ele><time>2021-3-5T19:4:13Z</time></trkpt>
<trkpt lat="48.407588" lon="2.678829"><ele></ele><time>2021-3-5T19:4:16Z</time></trkpt>
<trkpt lat="48.407547" lon="2.678721"><ele></ele><time>2021-3-5T19:4:19Z</time></trkpt>
<trkpt lat="48.407475" lon="2.678643"><ele></ele><time>2021-3-5T19:4:22Z</time></trkpt>
<trkpt lat="48.407425" lon="2.678489"><ele></ele><time>2021-3-5T19:4:25Z</time></trkpt>
<trkpt lat="48.407386" lon="2.678367"><ele></ele><time>2021-3-5T19:4:28Z</time></trkpt>
<trkpt lat="48.407377" lon="2.678239"><ele></ele><time>2021-3-5T19:4:31Z</time></trkpt>
<trkpt lat="48.40737" lon="2.678096"><ele></ele><time>2021-3-5T19:4:34Z</time></trkpt>
<trkpt lat="48.407371" lon="2.677942"><ele></ele><time>2021-3-5T19:4:37Z</time></trkpt>
<trkpt lat="48.407342" lon="2.677784"><ele></ele><time>2021-3-5T19:4:40Z</time></trkpt>
<trkpt lat="48.40729" lon="2.677664"><ele></ele><time>2021-3-5T19:4:43Z</time></trkpt>
<trkpt lat="48.407218" lon="2.677528"><ele></ele><time>2021-3-5T19:4:46Z</time></trkpt>
<trkpt lat="48.407155" lon="2.677393"><ele></ele><time>2021-3-5T19:4:49Z</time></trkpt>
<trkpt lat="48.407092" lon="2.677229"><ele></ele><time>2021-3-5T19:4:52Z</time></trkpt>
<trkpt lat="48.407014" lon="2.677093"><ele></ele><time>2021-3-5T19:4:55Z</time></trkpt>
<trkpt lat="48.406942" lon="2.67693"><ele></ele><time>2021-3-5T19:4:58Z</time></trkpt>
<trkpt lat="48.406896" lon="2.676773"><ele></ele><time>2021-3-5T19:5:1Z</time></trkpt>
<trkpt lat="48.406839" lon="2.676628"><ele></ele><time>2021-3-5T19:5:4Z</time></trkpt>
<trkpt lat="48.406785" lon="2.676442"><ele></ele><time>2021-3-5T19:5:7Z</time></trkpt>
<trkpt lat="48.406718" lon="2.67627"><ele></ele><time>2021-3-5T19:5:10Z</time></trkpt>
<trkpt lat="48.406674" lon="2.67609"><ele></ele><time>2021-3-5T19:5:13Z</time></trkpt>
<trkpt lat="48.406612" lon="2.675928"><ele></ele><time>2021-3-5T19:5:16Z</time></trkpt>
<trkpt lat="48.40651" lon="2.675791"><ele></ele><time>2021-3-5T19:5:19Z</time></trkpt>
<trkpt lat="48.406426" lon="2.675667"><ele></ele><time>2021-3-5T19:5:22Z</time></trkpt>
<trkpt lat="48.40634" lon="2.675538"><ele></ele><time>2021-3-5T19:5:25Z</time></trkpt>
<trkpt lat="48.406237" lon="2.675393"><ele></ele><time>2021-3-5T19:5:28Z</time></trkpt>
<trkpt lat="48.406112" lon="2.675252"><ele></ele><time>2021-3-5T19:5:31Z</time></trkpt>
<trkpt lat="48.406016" lon="2.67513"><ele></ele><time>2021-3-5T19:5:34Z</time></trkpt>
<trkpt lat="48.405904" lon="2.674989"><ele></ele><time>2021-3-5T19:5:37Z</time></trkpt>
<trkpt lat="48.405781" lon="2.674855"><ele></ele><time>2021-3-5T19:5:40Z</time></trkpt>
<trkpt lat="48.405632" lon="2.674759"><ele></ele><time>2021-3-5T19:5:43Z</time></trkpt>
<trkpt lat="48.40553" lon="2.674677"><ele></ele><time>2021-3-5T19:5:46Z</time></trkpt>
<trkpt lat="48.405431" lon="2.674551"><ele></ele><time>2021-3-5T19:5:49Z</time></trkpt>
<trkpt lat="48.405348" lon="2.674411"><ele></ele><time>2021-3-5T19:5:52Z</time></trkpt>
<trkpt lat="48.40523" lon="2.674302"><ele></ele><time>2021-3-5T19:5:55Z</time></trkpt>
<trkpt lat="48.405093" lon="2.674225"><ele></ele><time>2021-3-5T19:5:58Z</time></trkpt>
<trkpt lat="48.404958" lon="2.674203"><ele></ele><time>2021-3-5T19:6:1Z</time></trkpt>
<trkpt lat="48.404834" lon="2.674231"><ele></ele><time>2021-3-5T19:6:4Z</time></trkpt>
<trkpt lat="48.404719" lon="2.674332"><ele></ele><time>2021-3-5T19:6:7Z</time></trkpt>
<trkpt lat="48.40463" lon="2.674447"><ele></ele><time>2021-3-5T19:6:10Z</time></trkpt>
<trkpt lat="48.404528" lon="2.674539"><ele></ele><time>2021-3-5T19:6:13Z</time></trkpt>
<trkpt lat="48.404424" lon="2.674615"><ele></ele><time>2021-3-5T19:6:16Z</time></trkpt>
<trkpt lat="48.404333" lon="2.674644"><ele></ele><time>2021-3-5T19:6:19Z</time></trkpt>
<trkpt lat="48.404246" lon="2.674534"><ele></ele><time>2021-3-5T19:6:22Z</time></trkpt>
<trkpt lat="48.404161" lon="2.67439"><ele></ele><time>2021-3-5T19:6:25Z</time></trkpt>
<trkpt lat="48.404079" lon="2.674227"><ele></ele><time>2021-3-5T19:6:28Z</time></trkpt>
<trkpt lat="48.404015" lon="2.674064"><ele></ele><time>2021-3-5T19:6:31Z</time></trkpt>
<trkpt lat="48.40393" lon="2.673905"><ele></ele><time>2021-3-5T19:6:34Z</time></trkpt>
<trkpt lat="48.40382" lon="2.673755"><ele></ele><time>2021-3-5T19:6:37Z</time></trkpt>
<trkpt lat="48.403701" lon="2.673604"><ele></ele><time>2021-3-5T19:6:40Z</time></trkpt>
<trkpt lat="48.403619" lon="2.673398"><ele></ele><time>2021-3-5T19:6:43Z</time></trkpt>
<trkpt lat="48.403536" lon="2.673218"><ele></ele><time>2021-3-5T19:6:46Z</time></trkpt>
<trkpt lat="48.403453" lon="2.673019"><ele></ele><time>2021-3-5T19:6:49Z</time></trkpt>
<trkpt lat="48.403352" lon="2.672844"><ele></ele><time>2021-3-5T19:6:52Z</time></trkpt>
<trkpt lat="48.403254" lon="2.672648"><ele></ele><time>2021-3-5T19:6:55Z</time></trkpt>
<trkpt lat="48.403171" lon="2.672441"><ele></ele><time>2021-3-5T19:6:58Z</time></trkpt>
<trkpt lat="48.403076" lon="2.672234"><ele></ele><time>2021-3-5T19:7:1Z</time></trkpt>
<trkpt lat="48.402977" lon="2.672068"><ele></ele><time>2021-3-5T19:7:4Z</time></trkpt>
<trkpt lat="48.402848" lon="2.67188"><ele></ele><time>2021-3-5T19:7:7Z</time></trkpt>
<trkpt lat="48.402751" lon="2.671683"><ele></ele><time>2021-3-5T19:7:10Z</time></trkpt>
<trkpt lat="48.402659" lon="2.671534"><ele></ele><time>2021-3-5T19:7:13Z</time></trkpt>
<trkpt lat="48.402572" lon="2.671375"><ele></ele><time>2021-3-5T19:7:16Z</time></trkpt>
<trkpt lat="48.402499" lon="2.671206"><ele></ele><time>2021-3-5T19:7:19Z</time></trkpt>
<trkpt lat="48.402379" lon="2.671024"><ele></ele><time>2021-3-5T19:7:22Z</time></trkpt>
<trkpt lat="48.402233" lon="2.67086"><ele></ele><time>2021-3-5T19:7:25Z</time></trkpt>
<trkpt lat="48.402119" lon="2.670673"><ele></ele><time>2021-3-5T19:7:28Z</time></trkpt>
<trkpt lat="48.402013" lon="2.670488"><ele></ele><time>2021-3-5T19:7:31Z</time></trkpt>
<trkpt lat="48.401921" lon="2.670272"><ele></ele><time>2021-3-5T19:7:34Z</time></trkpt>
<trkpt lat="48.401843" lon="2.670091"><ele></ele><time>2021-3-5T19:7:37Z</time></trkpt>
<trkpt lat="48.401736" lon="2.669914"><ele></ele><time>2021-3-5T19:7:40Z</time></trkpt>
<trkpt lat="48.401643" lon="2.669725"><ele></ele><time>2021-3-5T19:7:43Z</time></trkpt>
<trkpt lat="48.40155" lon="2.669554"><ele></ele><time>2021-3-5T19:7:46Z</time></trkpt>
<trkpt lat="48.401464" lon="2.669367"><ele></ele><time>2021-3-5T19:7:49Z</time></trkpt>
<trkpt lat="48.401393" lon="2.669216"><ele></ele><time>2021-3-5T19:7:52Z</time></trkpt>
<trkpt lat="48.40129" lon="2.669024"><ele></ele><time>2021-3-5T19:7:55Z</time></trkpt>
<trkpt lat="48.401198" lon="2.66886"><ele></ele><time>2021-3-5T19:7:58Z</time></trkpt>
<trkpt lat="48.401102" lon="2.668686"><ele></ele><time>2021-3-5T19:8:1Z</time></trkpt>
<trkpt lat="48.400988" lon="2.668467"><ele></ele><time>2021-3-5T19:8:4Z</time></trkpt>
<trkpt lat="48.400905" lon="2.668279"><ele></ele><time>2021-3-5T19:8:7Z</time></trkpt>
<trkpt lat="48.40082" lon="2.668102"><ele></ele><time>2021-3-5T19:8:10Z</time></trkpt>
<trkpt lat="48.40071" lon="2.667992"><ele></ele><time>2021-3-5T19:8:13Z</time></trkpt>
<trkpt lat="48.400634" lon="2.667865"><ele></ele><time>2021-3-5T19:8:16Z</time></trkpt>
<trkpt lat="48.400546" lon="2.66772"><ele></ele><time>2021-3-5T19:8:19Z</time></trkpt>
<trkpt lat="48.400462" lon="2.667546"><ele></ele><time>2021-3-5T19:8:22Z</time></trkpt>
<trkpt lat="48.400388" lon="2.667371"><ele></ele><time>2021-3-5T19:8:25Z</time></trkpt>
<trkpt lat="48.400369" lon="2.667177"><ele></ele><time>2021-3-5T19:8:28Z</time></trkpt>
<trkpt lat="48.40035" lon="2.666998"><ele></ele><time>2021-3-5T19:8:31Z</time></trkpt>
<trkpt lat="48.400367" lon="2.666818"><ele></ele><time>2021-3-5T19:8:34Z</time></trkpt>
<trkpt lat="48.400391" lon="2.666626"><ele></ele><time>2021-3-5T19:8:37Z</time></trkpt>
<trkpt lat="48.400418" lon="2.666415"><ele></ele><time>2021-3-5T19:8:40Z</time></trkpt>
<trkpt lat="48.400395" lon="2.66626"><ele></ele><time>2021-3-5T19:8:43Z</time></trkpt>
<trkpt lat="48.400392" lon="2.666033"><ele></ele><time>2021-3-5T19:8:46Z</time></trkpt>
<trkpt lat="48.400401" lon="2.665876"><ele></ele><time>2021-3-5T19:8:49Z</time></trkpt>
<trkpt lat="48.400406" lon="2.665756"><ele></ele><time>2021-3-5T19:8:52Z</time></trkpt>
<trkpt lat="48.400406" lon="2.665638"><ele></ele><time>2021-3-5T19:8:55Z</time></trkpt>
<trkpt lat="48.400395" lon="2.665537"><ele></ele><time>2021-3-5T19:8:58Z</time></trkpt>
<trkpt lat="48.400403" lon="2.6654"><ele></ele><time>2021-3-5T19:9:1Z</time></trkpt>
<trkpt lat="48.400411" lon="2.665246"><ele></ele><time>2021-3-5T19:9:4Z</time></trkpt>
<trkpt lat="48.400448" lon="2.665092"><ele></ele><time>2021-3-5T19:9:7Z</time></trkpt>
<trkpt lat="48.40049" lon="2.664919"><ele></ele><time>2021-3-5T19:9:10Z</time></trkpt>
<trkpt lat="48.400501" lon="2.664774"><ele></ele><time>2021-3-5T19:9:13Z</time></trkpt>
<trkpt lat="48.400516" lon="2.664604"><ele></ele><time>2021-3-5T19:9:16Z</time></trkpt>
<trkpt lat="48.400521" lon="2.664388"><ele></ele><time>2021-3-5T19:9:19Z</time></trkpt>
<trkpt lat="48.40053" lon="2.66418"><ele></ele><time>2021-3-5T19:9:22Z</time></trkpt>
<trkpt lat="48.400532" lon="2.664016"><ele></ele><time>2021-3-5T19:9:25Z</time></trkpt>
<trkpt lat="48.400531" lon="2.663855"><ele></ele><time>2021-3-5T19:9:28Z</time></trkpt>
<trkpt lat="48.400532" lon="2.66369"><ele></ele><time>2021-3-5T19:9:31Z</time></trkpt>
<trkpt lat="48.400558" lon="2.663512"><ele></ele><time>2021-3-5T19:9:34Z</time></trkpt>
<trkpt lat="48.40057" lon="2.663312"><ele></ele><time>2021-3-5T19:9:37Z</time></trkpt>
<trkpt lat="48.400593" lon="2.663109"><ele></ele><time>2021-3-5T19:9:40Z</time></trkpt>
<trkpt lat="48.400608" lon="2.662928"><ele></ele><time>2021-3-5T19:9:43Z</time></trkpt>
<trkpt lat="48.400608" lon="2.662725"><ele></ele><time>2021-3-5T19:9:46Z</time></trkpt>
<trkpt lat="48.400604" lon="2.662531"><ele></ele><time>2021-3-5T19:9:49Z</time></trkpt>
<trkpt lat="48.40064" lon="2.662344"><ele></ele><time>2021-3-5T19:9:52Z</time></trkpt>
<trkpt lat="48.400665" lon="2.662153"><ele></ele><time>2021-3-5T19:9:55Z</time></trkpt>
<trkpt lat="48.400685" lon="2.661968"><ele></ele><time>2021-3-5T19:9:58Z</time></trkpt>
<trkpt lat="48.400688" lon="2.661792"><ele></ele><time>2021-3-5T19:10:1Z</time></trkpt>
<trkpt lat="48.400705" lon="2.661599"><ele></ele><time>2021-3-5T19:10:4Z</time></trkpt>
<trkpt lat="48.400751" lon="2.661424"><ele></ele><time>2021-3-5T19:10:7Z</time></trkpt>
<trkpt lat="48.4008" lon="2.661261"><ele></ele><time>2021-3-5T19:10:10Z</time></trkpt>
<trkpt lat="48.400855" lon="2.661095"><ele></ele><time>2021-3-5T19:10:13Z</time></trkpt>
<trkpt lat="48.400896" lon="2.660938"><ele></ele><time>2021-3-5T19:10:16Z</time></trkpt>
<trkpt lat="48.400961" lon="2.660775"><ele></ele><time>2021-3-5T19:10:19Z</time></trkpt>
<trkpt lat="48.401049" lon="2.660629"><ele></ele><time>2021-3-5T19:10:22Z</time></trkpt>
<trkpt lat="48.401105" lon="2.660472"><ele></ele><time>2021-3-5T19:10:25Z</time></trkpt>
<trkpt lat="48.401141" lon="2.660313"><ele></ele><time>2021-3-5T19:10:28Z</time></trkpt>
<trkpt lat="48.401152" lon="2.660147"><ele></ele><time>2021-3-5T19:10:31Z</time></trkpt>
<trkpt lat="48.401179" lon="2.659969"><ele></ele><time>2021-3-5T19:10:34Z</time></trkpt>
<trkpt lat="48.401202" lon="2.65976"><ele></ele><time>2021-3-5T19:10:37Z</time></trkpt>
<trkpt lat="48.40122" lon="2.659588"><ele></ele><time>2021-3-5T19:10:40Z</time></trkpt>
<trkpt lat="48.401253" lon="2.659423"><ele></ele><time>2021-3-5T19:10:43Z</time></trkpt>
<trkpt lat="48.401254" lon="2.659274"><ele></ele><time>2021-3-5T19:10:46Z</time></trkpt>
<trkpt lat="48.401255" lon="2.659134"><ele></ele><time>2021-3-5T19:10:49Z</time></trkpt>
<trkpt lat="48.401249" lon="2.658997"><ele></ele><time>2021-3-5T19:10:52Z</time></trkpt>
<trkpt lat="48.401248" lon="2.65883"><ele></ele><time>2021-3-5T19:10:55Z</time></trkpt>
<trkpt lat="48.401239" lon="2.658645"><ele></ele><time>2021-3-5T19:10:58Z</time></trkpt>
<trkpt lat="48.40123" lon="2.658481"><ele></ele><time>2021-3-5T19:11:1Z</time></trkpt>
<trkpt lat="48.401234" lon="2.658305"><ele></ele><time>2021-3-5T19:11:4Z</time></trkpt>
<trkpt lat="48.401265" lon="2.65816"><ele></ele><time>2021-3-5T19:11:7Z</time></trkpt>
<trkpt lat="48.401331" lon="2.658078"><ele></ele><time>2021-3-5T19:11:10Z</time></trkpt>
<trkpt lat="48.401344" lon="2.657893"><ele></ele><time>2021-3-5T19:11:13Z</time></trkpt>
<trkpt lat="48.401346" lon="2.657688"><ele></ele><time>2021-3-5T19:11:16Z</time></trkpt>
<trkpt lat="48.401374" lon="2.657489"><ele></ele><time>2021-3-5T19:11:19Z</time></trkpt>
<trkpt lat="48.401378" lon="2.657353"><ele></ele><time>2021-3-5T19:11:22Z</time></trkpt>
<trkpt lat="48.401402" lon="2.657179"><ele></ele><time>2021-3-5T19:11:25Z</time></trkpt>
<trkpt lat="48.401417" lon="2.656961"><ele></ele><time>2021-3-5T19:11:28Z</time></trkpt>
<trkpt lat="48.401422" lon="2.656771"><ele></ele><time>2021-3-5T19:11:31Z</time></trkpt>
<trkpt lat="48.401445" lon="2.656601"><ele></ele><time>2021-3-5T19:11:34Z</time></trkpt>
<trkpt lat="48.401475" lon="2.656409"><ele></ele><time>2021-3-5T19:11:37Z</time></trkpt>
<trkpt lat="48.401485" lon="2.656252"><ele></ele><time>2021-3-5T19:11:40Z</time></trkpt>
<trkpt lat="48.401491" lon="2.656098"><ele></ele><time>2021-3-5T19:11:43Z</time></trkpt>
<trkpt lat="48.401493" lon="2.656014"><ele></ele><time>2021-3-5T19:11:46Z</time></trkpt>
<trkpt lat="48.401493" lon="2.655902"><ele></ele><time>2021-3-5T19:11:49Z</time></trkpt>
<trkpt lat="48.401508" lon="2.655767"><ele></ele><time>2021-3-5T19:11:52Z</time></trkpt>
<trkpt lat="48.401519" lon="2.655627"><ele></ele><time>2021-3-5T19:11:55Z</time></trkpt>
<trkpt lat="48.401515" lon="2.655466"><ele></ele><time>2021-3-5T19:11:58Z</time></trkpt>
<trkpt lat="48.401526" lon="2.655339"><ele></ele><time>2021-3-5T19:12:1Z</time></trkpt>
<trkpt lat="48.401539" lon="2.655192"><ele></ele><time>2021-3-5T19:12:4Z</time></trkpt>
<trkpt lat="48.401536" lon="2.655054"><ele></ele><time>2021-3-5T19:12:7Z</time></trkpt>
<trkpt lat="48.401522" lon="2.65495"><ele></ele><time>2021-3-5T19:12:10Z</time></trkpt>
<trkpt lat="48.401551" lon="2.654866"><ele></ele><time>2021-3-5T19:12:13Z</time></trkpt>
<trkpt lat="48.401566" lon="2.65471"><ele></ele><time>2021-3-5T19:12:16Z</time></trkpt>
<trkpt lat="48.401576" lon="2.654602"><ele></ele><time>2021-3-5T19:12:19Z</time></trkpt>
<trkpt lat="48.401628" lon="2.654571"><ele></ele><time>2021-3-5T19:12:22Z</time></trkpt>
<trkpt lat="48.401601" lon="2.654654"><ele></ele><time>2021-3-5T19:12:25Z</time></trkpt>
<trkpt lat="48.401575" lon="2.654769"><ele></ele><time>2021-3-5T19:12:28Z</time></trkpt>
<trkpt lat="48.401558" lon="2.654859"><ele></ele><time>2021-3-5T19:12:31Z</time></trkpt>
<trkpt lat="48.401531" lon="2.655"><ele></ele><time>2021-3-5T19:12:34Z</time></trkpt>
<trkpt lat="48.40153" lon="2.655146"><ele></ele><time>2021-3-5T19:12:37Z</time></trkpt>
<trkpt lat="48.401521" lon="2.655269"><ele></ele><time>2021-3-5T19:12:40Z</time></trkpt>
<trkpt lat="48.401497" lon="2.65539"><ele></ele><time>2021-3-5T19:12:43Z</time></trkpt>
<trkpt lat="48.401476" lon="2.655537"><ele></ele><time>2021-3-5T19:12:46Z</time></trkpt>
<trkpt lat="48.401451" lon="2.655675"><ele></ele><time>2021-3-5T19:12:49Z</time></trkpt>
<trkpt lat="48.401433" lon="2.655824"><ele></ele><time>2021-3-5T19:12:52Z</time></trkpt>
<trkpt lat="48.401431" lon="2.656"><ele></ele><time>2021-3-5T19:12:55Z</time></trkpt>
<trkpt lat="48.401416" lon="2.656156"><ele></ele><time>2021-3-5T19:12:58Z</time></trkpt>
<trkpt lat="48.401393" lon="2.656347"><ele></ele><time>2021-3-5T19:13:1Z</time></trkpt>
<trkpt lat="48.401371" lon="2.656513"><ele></ele><time>2021-3-5T19:13:4Z</time></trkpt>
<trkpt lat="48.401364" lon="2.656637"><ele></ele><time>2021-3-5T19:13:7Z</time></trkpt>
<trkpt lat="48.401357" lon="2.656711"><ele></ele><time>2021-3-5T19:13:10Z</time></trkpt>
<trkpt lat="48.401384" lon="2.656718"><ele></ele><time>2021-3-5T19:13:13Z</time></trkpt>
<trkpt lat="48.40138" lon="2.656726"><ele></ele><time>2021-3-5T19:13:16Z</time></trkpt>
<trkpt lat="48.401378" lon="2.65674"><ele></ele><time>2021-3-5T19:13:19Z</time></trkpt>
<trkpt lat="48.401384" lon="2.656714"><ele></ele><time>2021-3-5T19:13:22Z</time></trkpt>
<trkpt lat="48.401385" lon="2.65666"><ele></ele><time>2021-3-5T19:13:25Z</time></trkpt>
<trkpt lat="48.401417" lon="2.656579"><ele></ele><time>2021-3-5T19:13:28Z</time></trkpt>
<trkpt lat="48.401412" lon="2.656506"><ele></ele><time>2021-3-5T19:13:31Z</time></trkpt>
<trkpt lat="48.401429" lon="2.656457"><ele></ele><time>2021-3-5T19:13:34Z</time></trkpt>
<trkpt lat="48.401431" lon="2.656419"><ele></ele><time>2021-3-5T19:13:37Z</time></trkpt>
<trkpt lat="48.401414" lon="2.656389"><ele></ele><time>2021-3-5T19:13:40Z</time></trkpt>
<trkpt lat="48.401412" lon="2.656376"><ele></ele><time>2021-3-5T19:13:43Z</time></trkpt>
<trkpt lat="48.401407" lon="2.656364"><ele></ele><time>2021-3-5T19:13:46Z</time></trkpt>
<trkpt lat="48.401404" lon="2.656361"><ele></ele><time>2021-3-5T19:13:49Z</time></trkpt>
<trkpt lat="48.401402" lon="2.656361"><ele></ele><time>2021-3-5T19:13:52Z</time></trkpt>
<trkpt lat="48.401401" lon="2.656361"><ele></ele><time>2021-3-5T19:13:55Z</time></trkpt>
<trkpt lat="48.401398" lon="2.656364"><ele></ele><time>2021-3-5T19:13:58Z</time></trkpt>
<trkpt lat="48.401398" lon="2.656358"><ele></ele><time>2021-3-5T19:14:1Z</time></trkpt>
<trkpt lat="48.4014" lon="2.65626"><ele></ele><time>2021-3-5T19:14:4Z</time></trkpt>
<trkpt lat="48.401413" lon="2.656177"><ele></ele><time>2021-3-5T19:14:7Z</time></trkpt>
<trkpt lat="48.401442" lon="2.656059"><ele></ele><time>2021-3-5T19:14:10Z</time></trkpt>
<trkpt lat="48.401462" lon="2.655971"><ele></ele><time>2021-3-5T19:14:13Z</time></trkpt>
<trkpt lat="48.401457" lon="2.655941"><ele></ele><time>2021-3-5T19:14:16Z</time></trkpt>
<trkpt lat="48.401441" lon="2.655978"><ele></ele><time>2021-3-5T19:14:19Z</time></trkpt>
<trkpt lat="48.401411" lon="2.656005"><ele></ele><time>2021-3-5T19:14:22Z</time></trkpt>
<trkpt lat="48.40136" lon="2.656035"><ele></ele><time>2021-3-5T19:14:25Z</time></trkpt>
<trkpt lat="48.401314" lon="2.656062"><ele></ele><time>2021-3-5T19:14:28Z</time></trkpt>
<trkpt lat="48.401269" lon="2.656089"><ele></ele><time>2021-3-5T19:14:31Z</time></trkpt>
<trkpt lat="48.401214" lon="2.656129"><ele></ele><time>2021-3-5T19:14:34Z</time></trkpt>
<trkpt lat="48.401169" lon="2.656169"><ele></ele><time>2021-3-5T19:14:37Z</time></trkpt>
<trkpt lat="48.40113" lon="2.656196"><ele></ele><time>2021-3-5T19:14:40Z</time></trkpt>
<trkpt lat="48.401109" lon="2.656204"><ele></ele><time>2021-3-5T19:14:43Z</time></trkpt>
<trkpt lat="48.401053" lon="2.656211"><ele></ele><time>2021-3-5T19:14:46Z</time></trkpt>
<trkpt lat="48.401004" lon="2.656237"><ele></ele><time>2021-3-5T19:14:49Z</time></trkpt>
<trkpt lat="48.400985" lon="2.656248"><ele></ele><time>2021-3-5T19:14:52Z</time></trkpt>
<trkpt lat="48.400957" lon="2.656236"><ele></ele><time>2021-3-5T19:14:55Z</time></trkpt>
<trkpt lat="48.400925" lon="2.656241"><ele></ele><time>2021-3-5T19:14:58Z</time></trkpt>
<trkpt lat="48.400896" lon="2.656235"><ele></ele><time>2021-3-5T19:15:1Z</time></trkpt>
<trkpt lat="48.400858" lon="2.656225"><ele></ele><time>2021-3-5T19:15:4Z</time></trkpt>
<trkpt lat="48.400828" lon="2.656205"><ele></ele><time>2021-3-5T19:15:7Z</time></trkpt>
<trkpt lat="48.400803" lon="2.656209"><ele></ele><time>2021-3-5T19:15:10Z</time></trkpt>
<trkpt lat="48.400762" lon="2.656219"><ele></ele><time>2021-3-5T19:15:13Z</time></trkpt>
<trkpt lat="48.400731" lon="2.656209"><ele></ele><time>2021-3-5T19:15:16Z</time></trkpt>
<trkpt lat="48.400685" lon="2.656213"><ele></ele><time>2021-3-5T19:15:19Z</time></trkpt>
<trkpt lat="48.400656" lon="2.656216"><ele></ele><time>2021-3-5T19:15:22Z</time></trkpt>
<trkpt lat="48.400626" lon="2.656215"><ele></ele><time>2021-3-5T19:15:25Z</time></trkpt>
<trkpt lat="48.400617" lon="2.656224"><ele></ele><time>2021-3-5T19:15:28Z</time></trkpt>
<trkpt lat="48.400612" lon="2.656229"><ele></ele><time>2021-3-5T19:15:31Z</time></trkpt>
<trkpt lat="48.400603" lon="2.656235"><ele></ele><time>2021-3-5T19:15:34Z</time></trkpt>
<trkpt lat="48.400585" lon="2.656233"><ele></ele><time>2021-3-5T19:15:37Z</time></trkpt>
<trkpt lat="48.400562" lon="2.656218"><ele></ele><time>2021-3-5T19:15:40Z</time></trkpt>
<trkpt lat="48.400535" lon="2.656203"><ele></ele><time>2021-3-5T19:15:43Z</time></trkpt>
<trkpt lat="48.400515" lon="2.656205"><ele></ele><time>2021-3-5T19:15:46Z</time></trkpt>
<trkpt lat="48.400488" lon="2.656217"><ele></ele><time>2021-3-5T19:15:49Z</time></trkpt>
<trkpt lat="48.400479" lon="2.656216"><ele></ele><time>2021-3-5T19:15:52Z</time></trkpt>
<trkpt lat="48.40045" lon="2.65621"><ele></ele><time>2021-3-5T19:15:55Z</time></trkpt>
<trkpt lat="48.400423" lon="2.656204"><ele></ele><time>2021-3-5T19:15:58Z</time></trkpt>
<trkpt lat="48.400397" lon="2.656196"><ele></ele><time>2021-3-5T19:16:1Z</time></trkpt>
<trkpt lat="48.40037" lon="2.656197"><ele></ele><time>2021-3-5T19:16:4Z</time></trkpt>
<trkpt lat="48.400352" lon="2.65618"><ele></ele><time>2021-3-5T19:16:7Z</time></trkpt>
<trkpt lat="48.400352" lon="2.65614"><ele></ele><time>2021-3-5T19:16:10Z</time></trkpt>
<trkpt lat="48.400356" lon="2.65611"><ele></ele><time>2021-3-5T19:16:13Z</time></trkpt>
<trkpt lat="48.400369" lon="2.6561"><ele></ele><time>2021-3-5T19:16:16Z</time></trkpt>
<trkpt lat="48.400382" lon="2.656079"><ele></ele><time>2021-3-5T19:16:19Z</time></trkpt>
<trkpt lat="48.400405" lon="2.65605"><ele></ele><time>2021-3-5T19:16:22Z</time></trkpt>
<trkpt lat="48.400418" lon="2.656033"><ele></ele><time>2021-3-5T19:16:25Z</time></trkpt>
<trkpt lat="48.400424" lon="2.656021"><ele></ele><time>2021-3-5T19:16:28Z</time></trkpt>
<trkpt lat="48.400424" lon="2.656021"><ele></ele><time>2021-3-5T19:16:31Z</time></trkpt>
<trkpt lat="48.400433" lon="2.656003"><ele></ele><time>2021-3-5T19:16:34Z</time></trkpt>
<trkpt lat="48.400438" lon="2.655988"><ele></ele><time>2021-3-5T19:16:37Z</time></trkpt>
<trkpt lat="48.400433" lon="2.655984"><ele></ele><time>2021-3-5T19:16:40Z</time></trkpt>
<trkpt lat="48.400441" lon="2.65596"><ele></ele><time>2021-3-5T19:16:43Z</time></trkpt>
<trkpt lat="48.400462" lon="2.655917"><ele></ele><time>2021-3-5T19:16:46Z</time></trkpt>
<trkpt lat="48.400484" lon="2.655878"><ele></ele><time>2021-3-5T19:16:49Z</time></trkpt>
<trkpt lat="48.400492" lon="2.655844"><ele></ele><time>2021-3-5T19:16:52Z</time></trkpt>
<trkpt lat="48.40051" lon="2.655804"><ele></ele><time>2021-3-5T19:16:55Z</time></trkpt>
<trkpt lat="48.400524" lon="2.65578"><ele></ele><time>2021-3-5T19:16:58Z</time></trkpt>
<trkpt lat="48.400543" lon="2.655744"><ele></ele><time>2021-3-5T19:17:1Z</time></trkpt>
<trkpt lat="48.400551" lon="2.655714"><ele></ele><time>2021-3-5T19:17:4Z</time></trkpt>
<trkpt lat="48.400549" lon="2.655686"><ele></ele><time>2021-3-5T19:17:7Z</time></trkpt>
<trkpt lat="48.400531" lon="2.655644"><ele></ele><time>2021-3-5T19:17:10Z</time></trkpt>
<trkpt lat="48.400514" lon="2.655631"><ele></ele><time>2021-3-5T19:17:13Z</time></trkpt>
<trkpt lat="48.400518" lon="2.655616"><ele></ele><time>2021-3-5T19:17:16Z</time></trkpt>
<trkpt lat="48.400515" lon="2.655602"><ele></ele><time>2021-3-5T19:17:19Z</time></trkpt>
<trkpt lat="48.400493" lon="2.655598"><ele></ele><time>2021-3-5T19:17:22Z</time></trkpt>
<trkpt lat="48.400476" lon="2.655588"><ele></ele><time>2021-3-5T19:17:25Z</time></trkpt>
<trkpt lat="48.400439" lon="2.655563"><ele></ele><time>2021-3-5T19:17:28Z</time></trkpt>
<trkpt lat="48.400417" lon="2.655541"><ele></ele><time>2021-3-5T19:17:31Z</time></trkpt>
<trkpt lat="48.400415" lon="2.655524"><ele></ele><time>2021-3-5T19:17:34Z</time></trkpt>
<trkpt lat="48.400403" lon="2.655504"><ele></ele><time>2021-3-5T19:17:37Z</time></trkpt>
<trkpt lat="48.400374" lon="2.655507"><ele></ele><time>2021-3-5T19:17:40Z</time></trkpt>
<trkpt lat="48.400359" lon="2.655515"><ele></ele><time>2021-3-5T19:17:43Z</time></trkpt>
<trkpt lat="48.400328" lon="2.655511"><ele></ele><time>2021-3-5T19:17:46Z</time></trkpt>
<trkpt lat="48.400302" lon="2.655504"><ele></ele><time>2021-3-5T19:17:49Z</time></trkpt>
<trkpt lat="48.400285" lon="2.655499"><ele></ele><time>2021-3-5T19:17:52Z</time></trkpt>
<trkpt lat="48.400264" lon="2.655494"><ele></ele><time>2021-3-5T19:17:55Z</time></trkpt>
<trkpt lat="48.400258" lon="2.655486"><ele></ele><time>2021-3-5T19:17:58Z</time></trkpt>
<trkpt lat="48.400253" lon="2.65547"><ele></ele><time>2021-3-5T19:18:1Z</time></trkpt>
<trkpt lat="48.400234" lon="2.655452"><ele></ele><time>2021-3-5T19:18:4Z</time></trkpt>
<trkpt lat="48.400209" lon="2.655433"><ele></ele><time>2021-3-5T19:18:7Z</time></trkpt>
<trkpt lat="48.40019" lon="2.655432"><ele></ele><time>2021-3-5T19:18:10Z</time></trkpt>
<trkpt lat="48.400172" lon="2.655439"><ele></ele><time>2021-3-5T19:18:13Z</time></trkpt>
<trkpt lat="48.400146" lon="2.655455"><ele></ele><time>2021-3-5T19:18:16Z</time></trkpt>
<trkpt lat="48.400138" lon="2.655454"><ele></ele><time>2021-3-5T19:18:19Z</time></trkpt>
<trkpt lat="48.40014" lon="2.65545"><ele></ele><time>2021-3-5T19:18:22Z</time></trkpt>
<trkpt lat="48.400126" lon="2.655453"><ele></ele><time>2021-3-5T19:18:25Z</time></trkpt>
<trkpt lat="48.40012" lon="2.655468"><ele></ele><time>2021-3-5T19:18:28Z</time></trkpt>
<trkpt lat="48.400119" lon="2.655486"><ele></ele><time>2021-3-5T19:18:31Z</time></trkpt>
<trkpt lat="48.400103" lon="2.655483"><ele></ele><time>2021-3-5T19:18:34Z</time></trkpt>
<trkpt lat="48.400092" lon="2.655481"><ele></ele><time>2021-3-5T19:18:37Z</time></trkpt>
<trkpt lat="48.400088" lon="2.655473"><ele></ele><time>2021-3-5T19:18:40Z</time></trkpt>
<trkpt lat="48.400087" lon="2.655469"><ele></ele><time>2021-3-5T19:18:43Z</time></trkpt>
<trkpt lat="48.400074" lon="2.655474"><ele></ele><time>2021-3-5T19:18:46Z</time></trkpt>
<trkpt lat="48.400065" lon="2.655471"><ele></ele><time>2021-3-5T19:18:49Z</time></trkpt>
<trkpt lat="48.400047" lon="2.655452"><ele></ele><time>2021-3-5T19:18:52Z</time></trkpt>
<trkpt lat="48.400034" lon="2.655433"><ele></ele><time>2021-3-5T19:18:55Z</time></trkpt>
<trkpt lat="48.400041" lon="2.655424"><ele></ele><time>2021-3-5T19:18:58Z</time></trkpt>
<trkpt lat="48.400034" lon="2.655412"><ele></ele><time>2021-3-5T19:19:1Z</time></trkpt>
<trkpt lat="48.400023" lon="2.65541"><ele></ele><time>2021-3-5T19:19:4Z</time></trkpt>
<trkpt lat="48.400016" lon="2.65538"><ele></ele><time>2021-3-5T19:19:7Z</time></trkpt>
<trkpt lat="48.400013" lon="2.655358"><ele></ele><time>2021-3-5T19:19:10Z</time></trkpt>
<trkpt lat="48.400001" lon="2.655351"><ele></ele><time>2021-3-5T19:19:13Z</time></trkpt>
<trkpt lat="48.399992" lon="2.65533"><ele></ele><time>2021-3-5T19:19:16Z</time></trkpt>
<trkpt lat="48.399986" lon="2.655324"><ele></ele><time>2021-3-5T19:19:19Z</time></trkpt>
<trkpt lat="48.399979" lon="2.65531"><ele></ele><time>2021-3-5T19:19:22Z</time></trkpt>
<trkpt lat="48.399965" lon="2.655304"><ele></ele><time>2021-3-5T19:19:25Z</time></trkpt>
<trkpt lat="48.399952" lon="2.655304"><ele></ele><time>2021-3-5T19:19:28Z</time></trkpt>
<trkpt lat="48.399947" lon="2.655305"><ele></ele><time>2021-3-5T19:19:31Z</time></trkpt>
<trkpt lat="48.399948" lon="2.655304"><ele></ele><time>2021-3-5T19:19:34Z</time></trkpt>
<trkpt lat="48.399939" lon="2.65529"><ele></ele><time>2021-3-5T19:19:37Z</time></trkpt>
<trkpt lat="48.399934" lon="2.65527"><ele></ele><time>2021-3-5T19:19:40Z</time></trkpt>
<trkpt lat="48.39992" lon="2.655255"><ele></ele><time>2021-3-5T19:19:43Z</time></trkpt>
<trkpt lat="48.399894" lon="2.655247"><ele></ele><time>2021-3-5T19:19:46Z</time></trkpt>
<trkpt lat="48.399878" lon="2.655244"><ele></ele><time>2021-3-5T19:19:49Z</time></trkpt>
<trkpt lat="48.399869" lon="2.655226"><ele></ele><time>2021-3-5T19:19:52Z</time></trkpt>
<trkpt lat="48.39987" lon="2.655197"><ele></ele><time>2021-3-5T19:19:55Z</time></trkpt>
<trkpt lat="48.399862" lon="2.65517"><ele></ele><time>2021-3-5T19:19:58Z</time></trkpt>
<trkpt lat="48.39986" lon="2.655152"><ele></ele><time>2021-3-5T19:20:1Z</time></trkpt>
<trkpt lat="48.399865" lon="2.655145"><ele></ele><time>2021-3-5T19:20:4Z</time></trkpt>
<trkpt lat="48.399864" lon="2.655122"><ele></ele><time>2021-3-5T19:20:7Z</time></trkpt>
<trkpt lat="48.399849" lon="2.655077"><ele></ele><time>2021-3-5T19:20:10Z</time></trkpt>
<trkpt lat="48.399821" lon="2.655026"><ele></ele><time>2021-3-5T19:20:13Z</time></trkpt>
<trkpt lat="48.399814" lon="2.654943"><ele></ele><time>2021-3-5T19:20:16Z</time></trkpt>
<trkpt lat="48.399822" lon="2.654871"><ele></ele><time>2021-3-5T19:20:19Z</time></trkpt>
<trkpt lat="48.399815" lon="2.654823"><ele></ele><time>2021-3-5T19:20:22Z</time></trkpt>
<trkpt lat="48.399821" lon="2.654774"><ele></ele><time>2021-3-5T19:20:25Z</time></trkpt>
<trkpt lat="48.39985" lon="2.654721"><ele></ele><time>2021-3-5T19:20:28Z</time></trkpt>
<trkpt lat="48.39986" lon="2.654662"><ele></ele><time>2021-3-5T19:20:31Z</time></trkpt>
<trkpt lat="48.399856" lon="2.654641"><ele></ele><time>2021-3-5T19:20:34Z</time></trkpt>
<trkpt lat="48.39987" lon="2.654602"><ele></ele><time>2021-3-5T19:20:37Z</time></trkpt>
<trkpt lat="48.399891" lon="2.654557"><ele></ele><time>2021-3-5T19:20:40Z</time></trkpt>
<trkpt lat="48.399921" lon="2.654501"><ele></ele><time>2021-3-5T19:20:43Z</time></trkpt>
<trkpt lat="48.399936" lon="2.654455"><ele></ele><time>2021-3-5T19:20:46Z</time></trkpt>
<trkpt lat="48.399975" lon="2.654383"><ele></ele><time>2021-3-5T19:20:49Z</time></trkpt>
<trkpt lat="48.400037" lon="2.654337"><ele></ele><time>2021-3-5T19:20:52Z</time></trkpt>
<trkpt lat="48.400112" lon="2.654274"><ele></ele><time>2021-3-5T19:20:55Z</time></trkpt>
<trkpt lat="48.400192" lon="2.654177"><ele></ele><time>2021-3-5T19:20:58Z</time></trkpt>
<trkpt lat="48.400246" lon="2.65407"><ele></ele><time>2021-3-5T19:21:1Z</time></trkpt>
<trkpt lat="48.400261" lon="2.653956"><ele></ele><time>2021-3-5T19:21:4Z</time></trkpt>
<trkpt lat="48.400272" lon="2.653817"><ele></ele><time>2021-3-5T19:21:7Z</time></trkpt>
<trkpt lat="48.400293" lon="2.653667"><ele></ele><time>2021-3-5T19:21:10Z</time></trkpt>
<trkpt lat="48.400307" lon="2.653529"><ele></ele><time>2021-3-5T19:21:13Z</time></trkpt>
<trkpt lat="48.400335" lon="2.653403"><ele></ele><time>2021-3-5T19:21:16Z</time></trkpt>
<trkpt lat="48.400353" lon="2.653305"><ele></ele><time>2021-3-5T19:21:19Z</time></trkpt>
<trkpt lat="48.40036" lon="2.653199"><ele></ele><time>2021-3-5T19:21:22Z</time></trkpt>
<trkpt lat="48.400365" lon="2.6531"><ele></ele><time>2021-3-5T19:21:25Z</time></trkpt>
<trkpt lat="48.40036" lon="2.652974"><ele></ele><time>2021-3-5T19:21:28Z</time></trkpt>
<trkpt lat="48.400373" lon="2.652812"><ele></ele><time>2021-3-5T19:21:31Z</time></trkpt>
<trkpt lat="48.400395" lon="2.652679"><ele></ele><time>2021-3-5T19:21:34Z</time></trkpt>
<trkpt lat="48.400427" lon="2.652547"><ele></ele><time>2021-3-5T19:21:37Z</time></trkpt>
<trkpt lat="48.400455" lon="2.652469"><ele></ele><time>2021-3-5T19:21:40Z</time></trkpt>
<trkpt lat="48.400494" lon="2.652368"><ele></ele><time>2021-3-5T19:21:43Z</time></trkpt>
<trkpt lat="48.400537" lon="2.652209"><ele></ele><time>2021-3-5T19:21:46Z</time></trkpt>
<trkpt lat="48.400584" lon="2.652016"><ele></ele><time>2021-3-5T19:21:49Z</time></trkpt>
<trkpt lat="48.400627" lon="2.651805"><ele></ele><time>2021-3-5T19:21:52Z</time></trkpt>
<trkpt lat="48.400652" lon="2.651604"><ele></ele><time>2021-3-5T19:21:55Z</time></trkpt>
<trkpt lat="48.400709" lon="2.651423"><ele></ele><time>2021-3-5T19:21:58Z</time></trkpt>
<trkpt lat="48.400779" lon="2.65122"><ele></ele><time>2021-3-5T19:22:1Z</time></trkpt>
<trkpt lat="48.400885" lon="2.651007"><ele></ele><time>2021-3-5T19:22:4Z</time></trkpt>
<trkpt lat="48.400919" lon="2.650772"><ele></ele><time>2021-3-5T19:22:7Z</time></trkpt>
<trkpt lat="48.400965" lon="2.650569"><ele></ele><time>2021-3-5T19:22:10Z</time></trkpt>
<trkpt lat="48.401007" lon="2.650345"><ele></ele><time>2021-3-5T19:22:13Z</time></trkpt>
<trkpt lat="48.401002" lon="2.65015"><ele></ele><time>2021-3-5T19:22:16Z</time></trkpt>
<trkpt lat="48.400997" lon="2.649973"><ele></ele><time>2021-3-5T19:22:19Z</time></trkpt>
<trkpt lat="48.400979" lon="2.649799"><ele></ele><time>2021-3-5T19:22:22Z</time></trkpt>
<trkpt lat="48.400993" lon="2.649658"><ele></ele><time>2021-3-5T19:22:25Z</time></trkpt>
<trkpt lat="48.401052" lon="2.649508"><ele></ele><time>2021-3-5T19:22:28Z</time></trkpt>
<trkpt lat="48.401101" lon="2.649379"><ele></ele><time>2021-3-5T19:22:31Z</time></trkpt>
<trkpt lat="48.401163" lon="2.649247"><ele></ele><time>2021-3-5T19:22:34Z</time></trkpt>
<trkpt lat="48.401207" lon="2.649077"><ele></ele><time>2021-3-5T19:22:37Z</time></trkpt>
<trkpt lat="48.40121" lon="2.648886"><ele></ele><time>2021-3-5T19:22:40Z</time></trkpt>
<trkpt lat="48.401194" lon="2.648746"><ele></ele><time>2021-3-5T19:22:43Z</time></trkpt>
<trkpt lat="48.401204" lon="2.648598"><ele></ele><time>2021-3-5T19:22:46Z</time></trkpt>
<trkpt lat="48.401194" lon="2.648476"><ele></ele><time>2021-3-5T19:22:49Z</time></trkpt>
<trkpt lat="48.401216" lon="2.64834"><ele></ele><time>2021-3-5T19:22:52Z</time></trkpt>
<trkpt lat="48.401247" lon="2.648237"><ele></ele><time>2021-3-5T19:22:55Z</time></trkpt>
<trkpt lat="48.401242" lon="2.648154"><ele></ele><time>2021-3-5T19:22:58Z</time></trkpt>
<trkpt lat="48.401267" lon="2.64805"><ele></ele><time>2021-3-5T19:23:1Z</time></trkpt>
<trkpt lat="48.401302" lon="2.64793"><ele></ele><time>2021-3-5T19:23:4Z</time></trkpt>
<trkpt lat="48.401354" lon="2.647774"><ele></ele><time>2021-3-5T19:23:7Z</time></trkpt>
<trkpt lat="48.401413" lon="2.647619"><ele></ele><time>2021-3-5T19:23:10Z</time></trkpt>
<trkpt lat="48.401457" lon="2.647465"><ele></ele><time>2021-3-5T19:23:13Z</time></trkpt>
<trkpt lat="48.401511" lon="2.64734"><ele></ele><time>2021-3-5T19:23:16Z</time></trkpt>
<trkpt lat="48.401619" lon="2.647158"><ele></ele><time>2021-3-5T19:23:19Z</time></trkpt>
<trkpt lat="48.40171" lon="2.647022"><ele></ele><time>2021-3-5T19:23:22Z</time></trkpt>
<trkpt lat="48.401777" lon="2.646876"><ele></ele><time>2021-3-5T19:23:25Z</time></trkpt>
<trkpt lat="48.401847" lon="2.64674"><ele></ele><time>2021-3-5T19:23:28Z</time></trkpt>
<trkpt lat="48.401904" lon="2.646627"><ele></ele><time>2021-3-5T19:23:31Z</time></trkpt>
<trkpt lat="48.401943" lon="2.646526"><ele></ele><time>2021-3-5T19:23:34Z</time></trkpt>
<trkpt lat="48.401975" lon="2.646431"><ele></ele><time>2021-3-5T19:23:37Z</time></trkpt>
<trkpt lat="48.402047" lon="2.646307"><ele></ele><time>2021-3-5T19:23:40Z</time></trkpt>
<trkpt lat="48.402098" lon="2.646175"><ele></ele><time>2021-3-5T19:23:43Z</time></trkpt>
<trkpt lat="48.402133" lon="2.646073"><ele></ele><time>2021-3-5T19:23:46Z</time></trkpt>
<trkpt lat="48.40216" lon="2.645991"><ele></ele><time>2021-3-5T19:23:49Z</time></trkpt>
<trkpt lat="48.402219" lon="2.645867"><ele></ele><time>2021-3-5T19:23:52Z</time></trkpt>
<trkpt lat="48.402266" lon="2.645754"><ele></ele><time>2021-3-5T19:23:55Z</time></trkpt>
<trkpt lat="48.402288" lon="2.645648"><ele></ele><time>2021-3-5T19:23:58Z</time></trkpt>
<trkpt lat="48.402297" lon="2.645537"><ele></ele><time>2021-3-5T19:24:1Z</time></trkpt>
<trkpt lat="48.402303" lon="2.645413"><ele></ele><time>2021-3-5T19:24:4Z</time></trkpt>
<trkpt lat="48.402321" lon="2.645315"><ele></ele><time>2021-3-5T19:24:7Z</time></trkpt>
<trkpt lat="48.402343" lon="2.645172"><ele></ele><time>2021-3-5T19:24:10Z</time></trkpt>
<trkpt lat="48.402371" lon="2.645044"><ele></ele><time>2021-3-5T19:24:13Z</time></trkpt>
<trkpt lat="48.402394" lon="2.644907"><ele></ele><time>2021-3-5T19:24:16Z</time></trkpt>
<trkpt lat="48.402421" lon="2.644737"><ele></ele><time>2021-3-5T19:24:19Z</time></trkpt>
<trkpt lat="48.402461" lon="2.644531"><ele></ele><time>2021-3-5T19:24:22Z</time></trkpt>
<trkpt lat="48.402472" lon="2.644374"><ele></ele><time>2021-3-5T19:24:25Z</time></trkpt>
<trkpt lat="48.402462" lon="2.644198"><ele></ele><time>2021-3-5T19:24:28Z</time></trkpt>
<trkpt lat="48.402442" lon="2.644026"><ele></ele><time>2021-3-5T19:24:31Z</time></trkpt>
<trkpt lat="48.402407" lon="2.643879"><ele></ele><time>2021-3-5T19:24:34Z</time></trkpt>
<trkpt lat="48.402429" lon="2.643681"><ele></ele><time>2021-3-5T19:24:37Z</time></trkpt>
<trkpt lat="48.402498" lon="2.64353"><ele></ele><time>2021-3-5T19:24:40Z</time></trkpt>
<trkpt lat="48.402535" lon="2.643367"><ele></ele><time>2021-3-5T19:24:43Z</time></trkpt>
<trkpt lat="48.402561" lon="2.643228"><ele></ele><time>2021-3-5T19:24:46Z</time></trkpt>
<trkpt lat="48.402617" lon="2.643101"><ele></ele><time>2021-3-5T19:24:49Z</time></trkpt>
<trkpt lat="48.402611" lon="2.643037"><ele></ele><time>2021-3-5T19:24:52Z</time></trkpt>
<trkpt lat="48.402615" lon="2.642988"><ele></ele><time>2021-3-5T19:24:55Z</time></trkpt>
<trkpt lat="48.402623" lon="2.642953"><ele></ele><time>2021-3-5T19:24:58Z</time></trkpt>
<trkpt lat="48.402623" lon="2.642923"><ele></ele><time>2021-3-5T19:25:1Z</time></trkpt>
<trkpt lat="48.402614" lon="2.642895"><ele></ele><time>2021-3-5T19:25:4Z</time></trkpt>
<trkpt lat="48.402623" lon="2.642842"><ele></ele><time>2021-3-5T19:25:7Z</time></trkpt>
<trkpt lat="48.40266" lon="2.642732"><ele></ele><time>2021-3-5T19:25:10Z</time></trkpt>
<trkpt lat="48.402686" lon="2.642647"><ele></ele><time>2021-3-5T19:25:13Z</time></trkpt>
<trkpt lat="48.402712" lon="2.642562"><ele></ele><time>2021-3-5T19:25:16Z</time></trkpt>
<trkpt lat="48.402752" lon="2.642505"><ele></ele><time>2021-3-5T19:25:19Z</time></trkpt>
<trkpt lat="48.402778" lon="2.642464"><ele></ele><time>2021-3-5T19:25:22Z</time></trkpt>
<trkpt lat="48.402791" lon="2.642391"><ele></ele><time>2021-3-5T19:25:25Z</time></trkpt>
<trkpt lat="48.402805" lon="2.642306"><ele></ele><time>2021-3-5T19:25:28Z</time></trkpt>
<trkpt lat="48.402806" lon="2.642194"><ele></ele><time>2021-3-5T19:25:31Z</time></trkpt>
<trkpt lat="48.402807" lon="2.642073"><ele></ele><time>2021-3-5T19:25:34Z</time></trkpt>
<trkpt lat="48.40281" lon="2.641903"><ele></ele><time>2021-3-5T19:25:37Z</time></trkpt>
<trkpt lat="48.402808" lon="2.641756"><ele></ele><time>2021-3-5T19:25:40Z</time></trkpt>
<trkpt lat="48.402805" lon="2.641617"><ele></ele><time>2021-3-5T19:25:43Z</time></trkpt>
<trkpt lat="48.402771" lon="2.641463"><ele></ele><time>2021-3-5T19:25:46Z</time></trkpt>
<trkpt lat="48.402771" lon="2.641298"><ele></ele><time>2021-3-5T19:25:49Z</time></trkpt>
<trkpt lat="48.402788" lon="2.641193"><ele></ele><time>2021-3-5T19:25:52Z</time></trkpt>
<trkpt lat="48.402762" lon="2.640979"><ele></ele><time>2021-3-5T19:25:55Z</time></trkpt>
<trkpt lat="48.40287" lon="2.64085"><ele></ele><time>2021-3-5T19:25:58Z</time></trkpt>
<trkpt lat="48.402895" lon="2.640714"><ele></ele><time>2021-3-5T19:26:1Z</time></trkpt>
<trkpt lat="48.40291" lon="2.64057"><ele></ele><time>2021-3-5T19:26:4Z</time></trkpt>
<trkpt lat="48.402988" lon="2.640448"><ele></ele><time>2021-3-5T19:26:7Z</time></trkpt>
<trkpt lat="48.403067" lon="2.640307"><ele></ele><time>2021-3-5T19:26:10Z</time></trkpt>
<trkpt lat="48.403104" lon="2.640208"><ele></ele><time>2021-3-5T19:26:13Z</time></trkpt>
<trkpt lat="48.403149" lon="2.640157"><ele></ele><time>2021-3-5T19:26:16Z</time></trkpt>
<trkpt lat="48.403169" lon="2.64011"><ele></ele><time>2021-3-5T19:26:19Z</time></trkpt>
<trkpt lat="48.403215" lon="2.640086"><ele></ele><time>2021-3-5T19:26:22Z</time></trkpt>
<trkpt lat="48.40335" lon="2.639996"><ele></ele><time>2021-3-5T19:26:25Z</time></trkpt>
<trkpt lat="48.40343" lon="2.639873"><ele></ele><time>2021-3-5T19:26:28Z</time></trkpt>
<trkpt lat="48.403483" lon="2.639735"><ele></ele><time>2021-3-5T19:26:31Z</time></trkpt>
<trkpt lat="48.403476" lon="2.639654"><ele></ele><time>2021-3-5T19:26:34Z</time></trkpt>
<trkpt lat="48.403507" lon="2.639586"><ele></ele><time>2021-3-5T19:26:37Z</time></trkpt>
<trkpt lat="48.403523" lon="2.639563"><ele></ele><time>2021-3-5T19:26:40Z</time></trkpt>
<trkpt lat="48.403554" lon="2.639529"><ele></ele><time>2021-3-5T19:26:43Z</time></trkpt>
<trkpt lat="48.403567" lon="2.639475"><ele></ele><time>2021-3-5T19:26:46Z</time></trkpt>
<trkpt lat="48.403562" lon="2.639381"><ele></ele><time>2021-3-5T19:26:49Z</time></trkpt>
<trkpt lat="48.403546" lon="2.639284"><ele></ele><time>2021-3-5T19:26:52Z</time></trkpt>
<trkpt lat="48.403549" lon="2.639186"><ele></ele><time>2021-3-5T19:26:55Z</time></trkpt>
<trkpt lat="48.40358" lon="2.639109"><ele></ele><time>2021-3-5T19:26:58Z</time></trkpt>
<trkpt lat="48.403624" lon="2.639014"><ele></ele><time>2021-3-5T19:27:1Z</time></trkpt>
<trkpt lat="48.403673" lon="2.63892"><ele></ele><time>2021-3-5T19:27:4Z</time></trkpt>
<trkpt lat="48.403724" lon="2.638845"><ele></ele><time>2021-3-5T19:27:7Z</time></trkpt>
<trkpt lat="48.403788" lon="2.63874"><ele></ele><time>2021-3-5T19:27:10Z</time></trkpt>
<trkpt lat="48.403834" lon="2.638673"><ele></ele><time>2021-3-5T19:27:13Z</time></trkpt>
<trkpt lat="48.403922" lon="2.638632"><ele></ele><time>2021-3-5T19:27:16Z</time></trkpt>
<trkpt lat="48.40403" lon="2.638585"><ele></ele><time>2021-3-5T19:27:19Z</time></trkpt>
<trkpt lat="48.404135" lon="2.638508"><ele></ele><time>2021-3-5T19:27:22Z</time></trkpt>
<trkpt lat="48.404267" lon="2.63844"><ele></ele><time>2021-3-5T19:27:25Z</time></trkpt>
<trkpt lat="48.404399" lon="2.638429"><ele></ele><time>2021-3-5T19:27:28Z</time></trkpt>
<trkpt lat="48.404485" lon="2.638474"><ele></ele><time>2021-3-5T19:27:31Z</time></trkpt>
<trkpt lat="48.404582" lon="2.638581"><ele></ele><time>2021-3-5T19:27:34Z</time></trkpt>
<trkpt lat="48.404635" lon="2.638731"><ele></ele><time>2021-3-5T19:27:37Z</time></trkpt>
<trkpt lat="48.404653" lon="2.638888"><ele></ele><time>2021-3-5T19:27:40Z</time></trkpt>
<trkpt lat="48.404703" lon="2.63898"><ele></ele><time>2021-3-5T19:27:43Z</time></trkpt>
<trkpt lat="48.404828" lon="2.639022"><ele></ele><time>2021-3-5T19:27:46Z</time></trkpt>
<trkpt lat="48.404944" lon="2.639097"><ele></ele><time>2021-3-5T19:27:49Z</time></trkpt>
<trkpt lat="48.405059" lon="2.639169"><ele></ele><time>2021-3-5T19:27:52Z</time></trkpt>
<trkpt lat="48.40513" lon="2.639286"><ele></ele><time>2021-3-5T19:27:55Z</time></trkpt>
<trkpt lat="48.405233" lon="2.639413"><ele></ele><time>2021-3-5T19:27:58Z</time></trkpt>
<trkpt lat="48.405296" lon="2.63954"><ele></ele><time>2021-3-5T19:28:1Z</time></trkpt>
<trkpt lat="48.4054" lon="2.639668"><ele></ele><time>2021-3-5T19:28:4Z</time></trkpt>
<trkpt lat="48.405517" lon="2.639772"><ele></ele><time>2021-3-5T19:28:7Z</time></trkpt>
<trkpt lat="48.405661" lon="2.639854"><ele></ele><time>2021-3-5T19:28:10Z</time></trkpt>
<trkpt lat="48.405788" lon="2.639953"><ele></ele><time>2021-3-5T19:28:13Z</time></trkpt>
<trkpt lat="48.405877" lon="2.640053"><ele></ele><time>2021-3-5T19:28:16Z</time></trkpt>
<trkpt lat="48.405976" lon="2.640168"><ele></ele><time>2021-3-5T19:28:19Z</time></trkpt>
<trkpt lat="48.406104" lon="2.640276"><ele></ele><time>2021-3-5T19:28:22Z</time></trkpt>
<trkpt lat="48.406226" lon="2.640373"><ele></ele><time>2021-3-5T19:28:25Z</time></trkpt>
<trkpt lat="48.406332" lon="2.640495"><ele></ele><time>2021-3-5T19:28:28Z</time></trkpt>
<trkpt lat="48.406404" lon="2.640569"><ele></ele><time>2021-3-5T19:28:31Z</time></trkpt>
<trkpt lat="48.406455" lon="2.640626"><ele></ele><time>2021-3-5T19:28:34Z</time></trkpt>
<trkpt lat="48.406495" lon="2.640695"><ele></ele><time>2021-3-5T19:28:37Z</time></trkpt>
<trkpt lat="48.40654" lon="2.640755"><ele></ele><time>2021-3-5T19:28:40Z</time></trkpt>
<trkpt lat="48.406592" lon="2.64078"><ele></ele><time>2021-3-5T19:28:43Z</time></trkpt>
<trkpt lat="48.406626" lon="2.640789"><ele></ele><time>2021-3-5T19:28:46Z</time></trkpt>
<trkpt lat="48.406651" lon="2.640808"><ele></ele><time>2021-3-5T19:28:49Z</time></trkpt>
<trkpt lat="48.406678" lon="2.640832"><ele></ele><time>2021-3-5T19:28:52Z</time></trkpt>
<trkpt lat="48.406712" lon="2.640838"><ele></ele><time>2021-3-5T19:28:55Z</time></trkpt>
<trkpt lat="48.406731" lon="2.640824"><ele></ele><time>2021-3-5T19:28:58Z</time></trkpt>
<trkpt lat="48.40674" lon="2.640831"><ele></ele><time>2021-3-5T19:29:1Z</time></trkpt>
<trkpt lat="48.406773" lon="2.64086"><ele></ele><time>2021-3-5T19:29:4Z</time></trkpt>
<trkpt lat="48.406808" lon="2.640909"><ele></ele><time>2021-3-5T19:29:7Z</time></trkpt>
<trkpt lat="48.406854" lon="2.640946"><ele></ele><time>2021-3-5T19:29:10Z</time></trkpt>
<trkpt lat="48.406914" lon="2.640984"><ele></ele><time>2021-3-5T19:29:13Z</time></trkpt>
<trkpt lat="48.406953" lon="2.641045"><ele></ele><time>2021-3-5T19:29:16Z</time></trkpt>
<trkpt lat="48.40695" lon="2.641134"><ele></ele><time>2021-3-5T19:29:19Z</time></trkpt>
<trkpt lat="48.40693" lon="2.641232"><ele></ele><time>2021-3-5T19:29:22Z</time></trkpt>
<trkpt lat="48.406905" lon="2.641307"><ele></ele><time>2021-3-5T19:29:25Z</time></trkpt>
<trkpt lat="48.40685" lon="2.641408"><ele></ele><time>2021-3-5T19:29:28Z</time></trkpt>
<trkpt lat="48.406792" lon="2.641505"><ele></ele><time>2021-3-5T19:29:31Z</time></trkpt>
<trkpt lat="48.406767" lon="2.641593"><ele></ele><time>2021-3-5T19:29:34Z</time></trkpt>
<trkpt lat="48.406733" lon="2.641681"><ele></ele><time>2021-3-5T19:29:37Z</time></trkpt>
<trkpt lat="48.406679" lon="2.641765"><ele></ele><time>2021-3-5T19:29:40Z</time></trkpt>
<trkpt lat="48.406645" lon="2.641879"><ele></ele><time>2021-3-5T19:29:43Z</time></trkpt>
<trkpt lat="48.406617" lon="2.641974"><ele></ele><time>2021-3-5T19:29:46Z</time></trkpt>
<trkpt lat="48.406579" lon="2.642083"><ele></ele><time>2021-3-5T19:29:49Z</time></trkpt>
<trkpt lat="48.406543" lon="2.642213"><ele></ele><time>2021-3-5T19:29:52Z</time></trkpt>
<trkpt lat="48.406504" lon="2.642344"><ele></ele><time>2021-3-5T19:29:55Z</time></trkpt>
<trkpt lat="48.406496" lon="2.642408"><ele></ele><time>2021-3-5T19:29:58Z</time></trkpt>
<trkpt lat="48.406525" lon="2.642467"><ele></ele><time>2021-3-5T19:30:1Z</time></trkpt>
<trkpt lat="48.406545" lon="2.642531"><ele></ele><time>2021-3-5T19:30:4Z</time></trkpt>
<trkpt lat="48.406527" lon="2.642617"><ele></ele><time>2021-3-5T19:30:7Z</time></trkpt>
<trkpt lat="48.40652" lon="2.642712"><ele></ele><time>2021-3-5T19:30:10Z</time></trkpt>
<trkpt lat="48.406559" lon="2.642818"><ele></ele><time>2021-3-5T19:30:13Z</time></trkpt>
<trkpt lat="48.406568" lon="2.642936"><ele></ele><time>2021-3-5T19:30:16Z</time></trkpt>
<trkpt lat="48.406612" lon="2.643023"><ele></ele><time>2021-3-5T19:30:19Z</time></trkpt>
<trkpt lat="48.406684" lon="2.643089"><ele></ele><time>2021-3-5T19:30:22Z</time></trkpt>
<trkpt lat="48.406722" lon="2.643175"><ele></ele><time>2021-3-5T19:30:25Z</time></trkpt>
<trkpt lat="48.406753" lon="2.643308"><ele></ele><time>2021-3-5T19:30:28Z</time></trkpt>
<trkpt lat="48.406767" lon="2.643442"><ele></ele><time>2021-3-5T19:30:31Z</time></trkpt>
<trkpt lat="48.406751" lon="2.64358"><ele></ele><time>2021-3-5T19:30:34Z</time></trkpt>
<trkpt lat="48.406723" lon="2.643739"><ele></ele><time>2021-3-5T19:30:37Z</time></trkpt>
<trkpt lat="48.406701" lon="2.643867"><ele></ele><time>2021-3-5T19:30:40Z</time></trkpt>
<trkpt lat="48.406688" lon="2.643961"><ele></ele><time>2021-3-5T19:30:43Z</time></trkpt>
<trkpt lat="48.406703" lon="2.644055"><ele></ele><time>2021-3-5T19:30:46Z</time></trkpt>
<trkpt lat="48.406706" lon="2.644128"><ele></ele><time>2021-3-5T19:30:49Z</time></trkpt>
<trkpt lat="48.406688" lon="2.644156"><ele></ele><time>2021-3-5T19:30:52Z</time></trkpt>
<trkpt lat="48.406671" lon="2.64416"><ele></ele><time>2021-3-5T19:30:55Z</time></trkpt>
<trkpt lat="48.406665" lon="2.644171"><ele></ele><time>2021-3-5T19:30:58Z</time></trkpt>
<trkpt lat="48.40667" lon="2.644166"><ele></ele><time>2021-3-5T19:31:1Z</time></trkpt>
<trkpt lat="48.406676" lon="2.644157"><ele></ele><time>2021-3-5T19:31:4Z</time></trkpt>
<trkpt lat="48.406697" lon="2.644104"><ele></ele><time>2021-3-5T19:31:7Z</time></trkpt>
<trkpt lat="48.406716" lon="2.644066"><ele></ele><time>2021-3-5T19:31:10Z</time></trkpt>
<trkpt lat="48.406711" lon="2.644044"><ele></ele><time>2021-3-5T19:31:13Z</time></trkpt>
<trkpt lat="48.406678" lon="2.643988"><ele></ele><time>2021-3-5T19:31:16Z</time></trkpt>
<trkpt lat="48.406672" lon="2.643909"><ele></ele><time>2021-3-5T19:31:19Z</time></trkpt>
<trkpt lat="48.4067" lon="2.643848"><ele></ele><time>2021-3-5T19:31:22Z</time></trkpt>
<trkpt lat="48.406745" lon="2.643743"><ele></ele><time>2021-3-5T19:31:25Z</time></trkpt>
<trkpt lat="48.406781" lon="2.643611"><ele></ele><time>2021-3-5T19:31:28Z</time></trkpt>
<trkpt lat="48.406804" lon="2.643489"><ele></ele><time>2021-3-5T19:31:31Z</time></trkpt>
<trkpt lat="48.406789" lon="2.643363"><ele></ele><time>2021-3-5T19:31:34Z</time></trkpt>
<trkpt lat="48.406767" lon="2.643271"><ele></ele><time>2021-3-5T19:31:37Z</time></trkpt>
<trkpt lat="48.406767" lon="2.643218"><ele></ele><time>2021-3-5T19:31:40Z</time></trkpt>
<trkpt lat="48.406766" lon="2.643227"><ele></ele><time>2021-3-5T19:31:43Z</time></trkpt>
<trkpt lat="48.40677" lon="2.643228"><ele></ele><time>2021-3-5T19:31:46Z</time></trkpt>
<trkpt lat="48.40678" lon="2.643271"><ele></ele><time>2021-3-5T19:31:49Z</time></trkpt>
<trkpt lat="48.406792" lon="2.643343"><ele></ele><time>2021-3-5T19:31:52Z</time></trkpt>
<trkpt lat="48.406813" lon="2.64344"><ele></ele><time>2021-3-5T19:31:55Z</time></trkpt>
<trkpt lat="48.406846" lon="2.643485"><ele></ele><time>2021-3-5T19:31:58Z</time></trkpt>
<trkpt lat="48.40687" lon="2.643525"><ele></ele><time>2021-3-5T19:32:1Z</time></trkpt>
<trkpt lat="48.406887" lon="2.643582"><ele></ele><time>2021-3-5T19:32:4Z</time></trkpt>
<trkpt lat="48.4069" lon="2.643609"><ele></ele><time>2021-3-5T19:32:7Z</time></trkpt>
<trkpt lat="48.406902" lon="2.643607"><ele></ele><time>2021-3-5T19:32:10Z</time></trkpt>
<trkpt lat="48.406909" lon="2.643606"><ele></ele><time>2021-3-5T19:32:13Z</time></trkpt>
<trkpt lat="48.406912" lon="2.643607"><ele></ele><time>2021-3-5T19:32:16Z</time></trkpt>
<trkpt lat="48.406912" lon="2.643605"><ele></ele><time>2021-3-5T19:32:19Z</time></trkpt>
<trkpt lat="48.406909" lon="2.6436"><ele></ele><time>2021-3-5T19:32:22Z</time></trkpt>
<trkpt lat="48.406913" lon="2.643581"><ele></ele><time>2021-3-5T19:32:25Z</time></trkpt>
<trkpt lat="48.406917" lon="2.643521"><ele></ele><time>2021-3-5T19:32:28Z</time></trkpt>
<trkpt lat="48.406897" lon="2.643495"><ele></ele><time>2021-3-5T19:32:31Z</time></trkpt>
<trkpt lat="48.406888" lon="2.643486"><ele></ele><time>2021-3-5T19:32:34Z</time></trkpt>
<trkpt lat="48.406895" lon="2.643463"><ele></ele><time>2021-3-5T19:32:37Z</time></trkpt>
<trkpt lat="48.406917" lon="2.643459"><ele></ele><time>2021-3-5T19:32:40Z</time></trkpt>
<trkpt lat="48.406961" lon="2.643439"><ele></ele><time>2021-3-5T19:32:43Z</time></trkpt>
<trkpt lat="48.406988" lon="2.643371"><ele></ele><time>2021-3-5T19:32:46Z</time></trkpt>
<trkpt lat="48.407005" lon="2.643311"><ele></ele><time>2021-3-5T19:32:49Z</time></trkpt>
<trkpt lat="48.407043" lon="2.643276"><ele></ele><time>2021-3-5T19:32:52Z</time></trkpt>
<trkpt lat="48.407089" lon="2.643242"><ele></ele><time>2021-3-5T19:32:55Z</time></trkpt>
<trkpt lat="48.407111" lon="2.643227"><ele></ele><time>2021-3-5T19:32:58Z</time></trkpt>
<trkpt lat="48.407116" lon="2.643225"><ele></ele><time>2021-3-5T19:33:1Z</time></trkpt>
<trkpt lat="48.407114" lon="2.643221"><ele></ele><time>2021-3-5T19:33:4Z</time></trkpt>
<trkpt lat="48.407098" lon="2.643224"><ele></ele><time>2021-3-5T19:33:7Z</time></trkpt>
<trkpt lat="48.407089" lon="2.64325"><ele></ele><time>2021-3-5T19:33:10Z</time></trkpt>
<trkpt lat="48.407094" lon="2.643256"><ele></ele><time>2021-3-5T19:33:13Z</time></trkpt>
<trkpt lat="48.40708" lon="2.643273"><ele></ele><time>2021-3-5T19:33:16Z</time></trkpt>
<trkpt lat="48.407054" lon="2.643297"><ele></ele><time>2021-3-5T19:33:19Z</time></trkpt>
<trkpt lat="48.407028" lon="2.64332"><ele></ele><time>2021-3-5T19:33:22Z</time></trkpt>
<trkpt lat="48.40701" lon="2.643342"><ele></ele><time>2021-3-5T19:33:25Z</time></trkpt>
<trkpt lat="48.406996" lon="2.643373"><ele></ele><time>2021-3-5T19:33:28Z</time></trkpt>
<trkpt lat="48.406985" lon="2.643378"><ele></ele><time>2021-3-5T19:33:31Z</time></trkpt>
<trkpt lat="48.406964" lon="2.643407"><ele></ele><time>2021-3-5T19:33:34Z</time></trkpt>
<trkpt lat="48.406919" lon="2.643446"><ele></ele><time>2021-3-5T19:33:37Z</time></trkpt>
<trkpt lat="48.4069" lon="2.643453"><ele></ele><time>2021-3-5T19:33:40Z</time></trkpt>
<trkpt lat="48.4069" lon="2.643467"><ele></ele><time>2021-3-5T19:33:43Z</time></trkpt>
<trkpt lat="48.406907" lon="2.643507"><ele></ele><time>2021-3-5T19:33:46Z</time></trkpt>
<trkpt lat="48.406926" lon="2.643567"><ele></ele><time>2021-3-5T19:33:49Z</time></trkpt>
<trkpt lat="48.406927" lon="2.643663"><ele></ele><time>2021-3-5T19:33:52Z</time></trkpt>
<trkpt lat="48.406931" lon="2.64376"><ele></ele><time>2021-3-5T19:33:55Z</time></trkpt>
<trkpt lat="48.406925" lon="2.643806"><ele></ele><time>2021-3-5T19:33:58Z</time></trkpt>
<trkpt lat="48.406908" lon="2.643824"><ele></ele><time>2021-3-5T19:34:1Z</time></trkpt>
<trkpt lat="48.406904" lon="2.643829"><ele></ele><time>2021-3-5T19:34:4Z</time></trkpt>
<trkpt lat="48.406913" lon="2.643828"><ele></ele><time>2021-3-5T19:34:7Z</time></trkpt>
<trkpt lat="48.406931" lon="2.643842"><ele></ele><time>2021-3-5T19:34:10Z</time></trkpt>
<trkpt lat="48.406965" lon="2.643836"><ele></ele><time>2021-3-5T19:34:13Z</time></trkpt>
<trkpt lat="48.406998" lon="2.643812"><ele></ele><time>2021-3-5T19:34:16Z</time></trkpt>
<trkpt lat="48.407028" lon="2.6438"><ele></ele><time>2021-3-5T19:34:19Z</time></trkpt>
<trkpt lat="48.407065" lon="2.643784"><ele></ele><time>2021-3-5T19:34:22Z</time></trkpt>
<trkpt lat="48.407088" lon="2.64376"><ele></ele><time>2021-3-5T19:34:25Z</time></trkpt>
<trkpt lat="48.407108" lon="2.643761"><ele></ele><time>2021-3-5T19:34:28Z</time></trkpt>
<trkpt lat="48.40713" lon="2.643772"><ele></ele><time>2021-3-5T19:34:31Z</time></trkpt>
<trkpt lat="48.407151" lon="2.643791"><ele></ele><time>2021-3-5T19:34:34Z</time></trkpt>
<trkpt lat="48.40716" lon="2.643821"><ele></ele><time>2021-3-5T19:34:37Z</time></trkpt>
<trkpt lat="48.407158" lon="2.643842"><ele></ele><time>2021-3-5T19:34:40Z</time></trkpt>
<trkpt lat="48.407159" lon="2.643854"><ele></ele><time>2021-3-5T19:34:43Z</time></trkpt>
<trkpt lat="48.407155" lon="2.64389"><ele></ele><time>2021-3-5T19:34:46Z</time></trkpt>
<trkpt lat="48.407154" lon="2.643921"><ele></ele><time>2021-3-5T19:34:49Z</time></trkpt>
<trkpt lat="48.407157" lon="2.64393"><ele></ele><time>2021-3-5T19:34:52Z</time></trkpt>
<trkpt lat="48.407163" lon="2.643939"><ele></ele><time>2021-3-5T19:34:55Z</time></trkpt>
<trkpt lat="48.407169" lon="2.643898"><ele></ele><time>2021-3-5T19:34:58Z</time></trkpt>
<trkpt lat="48.40715" lon="2.643861"><ele></ele><time>2021-3-5T19:35:1Z</time></trkpt>
<trkpt lat="48.407125" lon="2.643853"><ele></ele><time>2021-3-5T19:35:4Z</time></trkpt>
<trkpt lat="48.407099" lon="2.643839"><ele></ele><time>2021-3-5T19:35:7Z</time></trkpt>
<trkpt lat="48.407081" lon="2.643825"><ele></ele><time>2021-3-5T19:35:10Z</time></trkpt>
<trkpt lat="48.407071" lon="2.643814"><ele></ele><time>2021-3-5T19:35:13Z</time></trkpt>
<trkpt lat="48.407036" lon="2.643772"><ele></ele><time>2021-3-5T19:35:16Z</time></trkpt>
<trkpt lat="48.406972" lon="2.643801"><ele></ele><time>2021-3-5T19:35:19Z</time></trkpt>
<trkpt lat="48.406924" lon="2.643875"><ele></ele><time>2021-3-5T19:35:22Z</time></trkpt>
<trkpt lat="48.406888" lon="2.643936"><ele></ele><time>2021-3-5T19:35:25Z</time></trkpt>
<trkpt lat="48.406908" lon="2.643993"><ele></ele><time>2021-3-5T19:35:28Z</time></trkpt>
<trkpt lat="48.406934" lon="2.644028"><ele></ele><time>2021-3-5T19:35:31Z</time></trkpt>
<trkpt lat="48.406971" lon="2.644089"><ele></ele><time>2021-3-5T19:35:34Z</time></trkpt>
<trkpt lat="48.406994" lon="2.644192"><ele></ele><time>2021-3-5T19:35:37Z</time></trkpt>
<trkpt lat="48.407033" lon="2.644252"><ele></ele><time>2021-3-5T19:35:40Z</time></trkpt>
<trkpt lat="48.407064" lon="2.64427"><ele></ele><time>2021-3-5T19:35:43Z</time></trkpt>
<trkpt lat="48.407073" lon="2.644276"><ele></ele><time>2021-3-5T19:35:46Z</time></trkpt>
<trkpt lat="48.407078" lon="2.644296"><ele></ele><time>2021-3-5T19:35:49Z</time></trkpt>
<trkpt lat="48.407085" lon="2.644306"><ele></ele><time>2021-3-5T19:35:52Z</time></trkpt>
<trkpt lat="48.407097" lon="2.644332"><ele></ele><time>2021-3-5T19:35:55Z</time></trkpt>
<trkpt lat="48.407103" lon="2.644359"><ele></ele><time>2021-3-5T19:35:58Z</time></trkpt>
<trkpt lat="48.407129" lon="2.644448"><ele></ele><time>2021-3-5T19:36:1Z</time></trkpt>
<trkpt lat="48.407167" lon="2.644554"><ele></ele><time>2021-3-5T19:36:4Z</time></trkpt>
<trkpt lat="48.407209" lon="2.644654"><ele></ele><time>2021-3-5T19:36:7Z</time></trkpt>
<trkpt lat="48.407283" lon="2.644774"><ele></ele><time>2021-3-5T19:36:10Z</time></trkpt>
<trkpt lat="48.407305" lon="2.6449"><ele></ele><time>2021-3-5T19:36:13Z</time></trkpt>
<trkpt lat="48.407342" lon="2.645019"><ele></ele><time>2021-3-5T19:36:16Z</time></trkpt>
<trkpt lat="48.407394" lon="2.645118"><ele></ele><time>2021-3-5T19:36:19Z</time></trkpt>
<trkpt lat="48.407438" lon="2.645216"><ele></ele><time>2021-3-5T19:36:22Z</time></trkpt>
<trkpt lat="48.407459" lon="2.645314"><ele></ele><time>2021-3-5T19:36:25Z</time></trkpt>
<trkpt lat="48.407437" lon="2.645485"><ele></ele><time>2021-3-5T19:36:28Z</time></trkpt>
<trkpt lat="48.407401" lon="2.645672"><ele></ele><time>2021-3-5T19:36:31Z</time></trkpt>
<trkpt lat="48.407385" lon="2.645921"><ele></ele><time>2021-3-5T19:36:34Z</time></trkpt>
<trkpt lat="48.407326" lon="2.646135"><ele></ele><time>2021-3-5T19:36:37Z</time></trkpt>
<trkpt lat="48.407323" lon="2.646445"><ele></ele><time>2021-3-5T19:36:40Z</time></trkpt>
<trkpt lat="48.407291" lon="2.646729"><ele></ele><time>2021-3-5T19:36:43Z</time></trkpt>
<trkpt lat="48.407267" lon="2.64701"><ele></ele><time>2021-3-5T19:36:46Z</time></trkpt>
<trkpt lat="48.407238" lon="2.647289"><ele></ele><time>2021-3-5T19:36:49Z</time></trkpt>
<trkpt lat="48.407207" lon="2.647604"><ele></ele><time>2021-3-5T19:36:52Z</time></trkpt>
<trkpt lat="48.407173" lon="2.647887"><ele></ele><time>2021-3-5T19:36:55Z</time></trkpt>
<trkpt lat="48.407115" lon="2.648167"><ele></ele><time>2021-3-5T19:36:58Z</time></trkpt>
<trkpt lat="48.407063" lon="2.648373"><ele></ele><time>2021-3-5T19:37:1Z</time></trkpt>
<trkpt lat="48.407108" lon="2.648562"><ele></ele><time>2021-3-5T19:37:4Z</time></trkpt>
<trkpt lat="48.407093" lon="2.648681"><ele></ele><time>2021-3-5T19:37:7Z</time></trkpt>
<trkpt lat="48.407127" lon="2.648835"><ele></ele><time>2021-3-5T19:37:10Z</time></trkpt>
<trkpt lat="48.407084" lon="2.648975"><ele></ele><time>2021-3-5T19:37:13Z</time></trkpt>
<trkpt lat="48.407054" lon="2.64911"><ele></ele><time>2021-3-5T19:37:16Z</time></trkpt>
<trkpt lat="48.407042" lon="2.649221"><ele></ele><time>2021-3-5T19:37:19Z</time></trkpt>
<trkpt lat="48.407022" lon="2.649314"><ele></ele><time>2021-3-5T19:37:22Z</time></trkpt>
<trkpt lat="48.407012" lon="2.649416"><ele></ele><time>2021-3-5T19:37:25Z</time></trkpt>
<trkpt lat="48.406977" lon="2.649606"><ele></ele><time>2021-3-5T19:37:28Z</time></trkpt>
<trkpt lat="48.406918" lon="2.649956"><ele></ele><time>2021-3-5T19:37:31Z</time></trkpt>
<trkpt lat="48.406858" lon="2.650277"><ele></ele><time>2021-3-5T19:37:34Z</time></trkpt>
<trkpt lat="48.40687" lon="2.650636"><ele></ele><time>2021-3-5T19:37:37Z</time></trkpt>
<trkpt lat="48.406835" lon="2.650867"><ele></ele><time>2021-3-5T19:37:40Z</time></trkpt>
<trkpt lat="48.40679" lon="2.651012"><ele></ele><time>2021-3-5T19:37:43Z</time></trkpt>
<trkpt lat="48.406794" lon="2.651034"><ele></ele><time>2021-3-5T19:37:46Z</time></trkpt>
<trkpt lat="48.406785" lon="2.651032"><ele></ele><time>2021-3-5T19:37:49Z</time></trkpt>
<trkpt lat="48.406782" lon="2.651039"><ele></ele><time>2021-3-5T19:37:52Z</time></trkpt>
<trkpt lat="48.406783" lon="2.651028"><ele></ele><time>2021-3-5T19:37:55Z</time></trkpt>
<trkpt lat="48.406822" lon="2.650955"><ele></ele><time>2021-3-5T19:37:58Z</time></trkpt>
<trkpt lat="48.406873" lon="2.650872"><ele></ele><time>2021-3-5T19:38:1Z</time></trkpt>
<trkpt lat="48.406895" lon="2.650722"><ele></ele><time>2021-3-5T19:38:4Z</time></trkpt>
<trkpt lat="48.406911" lon="2.650586"><ele></ele><time>2021-3-5T19:38:7Z</time></trkpt>
<trkpt lat="48.406896" lon="2.650475"><ele></ele><time>2021-3-5T19:38:10Z</time></trkpt>
<trkpt lat="48.406893" lon="2.650368"><ele></ele><time>2021-3-5T19:38:13Z</time></trkpt>
<trkpt lat="48.406906" lon="2.65029"><ele></ele><time>2021-3-5T19:38:16Z</time></trkpt>
<trkpt lat="48.406914" lon="2.650204"><ele></ele><time>2021-3-5T19:38:19Z</time></trkpt>
<trkpt lat="48.406948" lon="2.650146"><ele></ele><time>2021-3-5T19:38:22Z</time></trkpt>
<trkpt lat="48.406962" lon="2.650102"><ele></ele><time>2021-3-5T19:38:25Z</time></trkpt>
<trkpt lat="48.406978" lon="2.650081"><ele></ele><time>2021-3-5T19:38:28Z</time></trkpt>
<trkpt lat="48.406992" lon="2.65011"><ele></ele><time>2021-3-5T19:38:31Z</time></trkpt>
<trkpt lat="48.407032" lon="2.650122"><ele></ele><time>2021-3-5T19:38:34Z</time></trkpt>
<trkpt lat="48.407092" lon="2.650173"><ele></ele><time>2021-3-5T19:38:37Z</time></trkpt>
<trkpt lat="48.407114" lon="2.650266"><ele></ele><time>2021-3-5T19:38:40Z</time></trkpt>
<trkpt lat="48.407146" lon="2.650319"><ele></ele><time>2021-3-5T19:38:43Z</time></trkpt>
<trkpt lat="48.407188" lon="2.650387"><ele></ele><time>2021-3-5T19:38:46Z</time></trkpt>
<trkpt lat="48.407216" lon="2.650459"><ele></ele><time>2021-3-5T19:38:49Z</time></trkpt>
<trkpt lat="48.407247" lon="2.650508"><ele></ele><time>2021-3-5T19:38:52Z</time></trkpt>
<trkpt lat="48.407286" lon="2.65056"><ele></ele><time>2021-3-5T19:38:55Z</time></trkpt>
<trkpt lat="48.407307" lon="2.650619"><ele></ele><time>2021-3-5T19:38:58Z</time></trkpt>
<trkpt lat="48.407335" lon="2.650672"><ele></ele><time>2021-3-5T19:39:1Z</time></trkpt>
<trkpt lat="48.407358" lon="2.650721"><ele></ele><time>2021-3-5T19:39:4Z</time></trkpt>
<trkpt lat="48.407426" lon="2.650779"><ele></ele><time>2021-3-5T19:39:7Z</time></trkpt>
<trkpt lat="48.407457" lon="2.650827"><ele></ele><time>2021-3-5T19:39:10Z</time></trkpt>
<trkpt lat="48.407499" lon="2.650849"><ele></ele><time>2021-3-5T19:39:13Z</time></trkpt>
<trkpt lat="48.407527" lon="2.650892"><ele></ele><time>2021-3-5T19:39:16Z</time></trkpt>
<trkpt lat="48.40756" lon="2.650939"><ele></ele><time>2021-3-5T19:39:19Z</time></trkpt>
<trkpt lat="48.407595" lon="2.650972"><ele></ele><time>2021-3-5T19:39:22Z</time></trkpt>
<trkpt lat="48.407617" lon="2.651006"><ele></ele><time>2021-3-5T19:39:25Z</time></trkpt>
<trkpt lat="48.407635" lon="2.651036"><ele></ele><time>2021-3-5T19:39:28Z</time></trkpt>
<trkpt lat="48.407673" lon="2.651067"><ele></ele><time>2021-3-5T19:39:31Z</time></trkpt>
<trkpt lat="48.4077" lon="2.651106"><ele></ele><time>2021-3-5T19:39:34Z</time></trkpt>
<trkpt lat="48.407735" lon="2.651147"><ele></ele><time>2021-3-5T19:39:37Z</time></trkpt>
<trkpt lat="48.407733" lon="2.651191"><ele></ele><time>2021-3-5T19:39:40Z</time></trkpt>
<trkpt lat="48.407759" lon="2.651225"><ele></ele><time>2021-3-5T19:39:43Z</time></trkpt>
<trkpt lat="48.407803" lon="2.651284"><ele></ele><time>2021-3-5T19:39:46Z</time></trkpt>
<trkpt lat="48.407807" lon="2.651324"><ele></ele><time>2021-3-5T19:39:49Z</time></trkpt>
<trkpt lat="48.407814" lon="2.651363"><ele></ele><time>2021-3-5T19:39:52Z</time></trkpt>
<trkpt lat="48.407831" lon="2.651419"><ele></ele><time>2021-3-5T19:39:55Z</time></trkpt>
<trkpt lat="48.407855" lon="2.65149"><ele></ele><time>2021-3-5T19:39:58Z</time></trkpt>
<trkpt lat="48.407862" lon="2.651561"><ele></ele><time>2021-3-5T19:40:1Z</time></trkpt>
<trkpt lat="48.407848" lon="2.651625"><ele></ele><time>2021-3-5T19:40:4Z</time></trkpt>
<trkpt lat="48.407831" lon="2.651689"><ele></ele><time>2021-3-5T19:40:7Z</time></trkpt>
<trkpt lat="48.407824" lon="2.651737"><ele></ele><time>2021-3-5T19:40:10Z</time></trkpt>
<trkpt lat="48.407829" lon="2.651798"><ele></ele><time>2021-3-5T19:40:13Z</time></trkpt>
<trkpt lat="48.407837" lon="2.651845"><ele></ele><time>2021-3-5T19:40:16Z</time></trkpt>
<trkpt lat="48.40786" lon="2.651889"><ele></ele><time>2021-3-5T19:40:19Z</time></trkpt>
<trkpt lat="48.407889" lon="2.651947"><ele></ele><time>2021-3-5T19:40:22Z</time></trkpt>
<trkpt lat="48.407866" lon="2.652008"><ele></ele><time>2021-3-5T19:40:25Z</time></trkpt>
<trkpt lat="48.407868" lon="2.652038"><ele></ele><time>2021-3-5T19:40:28Z</time></trkpt>
<trkpt lat="48.407869" lon="2.652076"><ele></ele><time>2021-3-5T19:40:31Z</time></trkpt>
<trkpt lat="48.407873" lon="2.652108"><ele></ele><time>2021-3-5T19:40:34Z</time></trkpt>
<trkpt lat="48.407877" lon="2.652148"><ele></ele><time>2021-3-5T19:40:37Z</time></trkpt>
<trkpt lat="48.407885" lon="2.652192"><ele></ele><time>2021-3-5T19:40:40Z</time></trkpt>
<trkpt lat="48.407902" lon="2.652242"><ele></ele><time>2021-3-5T19:40:43Z</time></trkpt>
<trkpt lat="48.407895" lon="2.652299"><ele></ele><time>2021-3-5T19:40:46Z</time></trkpt>
<trkpt lat="48.407876" lon="2.652373"><ele></ele><time>2021-3-5T19:40:49Z</time></trkpt>
<trkpt lat="48.407856" lon="2.652428"><ele></ele><time>2021-3-5T19:40:52Z</time></trkpt>
<trkpt lat="48.407849" lon="2.652478"><ele></ele><time>2021-3-5T19:40:55Z</time></trkpt>
<trkpt lat="48.407841" lon="2.65251"><ele></ele><time>2021-3-5T19:40:58Z</time></trkpt>
<trkpt lat="48.407842" lon="2.652571"><ele></ele><time>2021-3-5T19:41:1Z</time></trkpt>
<trkpt lat="48.407844" lon="2.652617"><ele></ele><time>2021-3-5T19:41:4Z</time></trkpt>
<trkpt lat="48.407842" lon="2.652665"><ele></ele><time>2021-3-5T19:41:7Z</time></trkpt>
<trkpt lat="48.407835" lon="2.652707"><ele></ele><time>2021-3-5T19:41:10Z</time></trkpt>
<trkpt lat="48.407824" lon="2.652755"><ele></ele><time>2021-3-5T19:41:13Z</time></trkpt>
<trkpt lat="48.407817" lon="2.652794"><ele></ele><time>2021-3-5T19:41:16Z</time></trkpt>
<trkpt lat="48.407818" lon="2.652826"><ele></ele><time>2021-3-5T19:41:19Z</time></trkpt>
<trkpt lat="48.407818" lon="2.65286"><ele></ele><time>2021-3-5T19:41:22Z</time></trkpt>
<trkpt lat="48.407818" lon="2.652877"><ele></ele><time>2021-3-5T19:41:25Z</time></trkpt>
<trkpt lat="48.407816" lon="2.652894"><ele></ele><time>2021-3-5T19:41:28Z</time></trkpt>
<trkpt lat="48.407811" lon="2.652908"><ele></ele><time>2021-3-5T19:41:31Z</time></trkpt>
<trkpt lat="48.407808" lon="2.652916"><ele></ele><time>2021-3-5T19:41:34Z</time></trkpt>
<trkpt lat="48.407803" lon="2.652924"><ele></ele><time>2021-3-5T19:41:37Z</time></trkpt>
<trkpt lat="48.407806" lon="2.652958"><ele></ele><time>2021-3-5T19:41:40Z</time></trkpt>
<trkpt lat="48.407813" lon="2.652978"><ele></ele><time>2021-3-5T19:41:43Z</time></trkpt>
<trkpt lat="48.407809" lon="2.652979"><ele></ele><time>2021-3-5T19:41:46Z</time></trkpt>
<trkpt lat="48.407809" lon="2.652992"><ele></ele><time>2021-3-5T19:41:49Z</time></trkpt>
<trkpt lat="48.407808" lon="2.652996"><ele></ele><time>2021-3-5T19:41:52Z</time></trkpt>
<trkpt lat="48.407805" lon="2.652998"><ele></ele><time>2021-3-5T19:41:55Z</time></trkpt>
<trkpt lat="48.407804" lon="2.652999"><ele></ele><time>2021-3-5T19:41:58Z</time></trkpt>
<trkpt lat="48.4078" lon="2.653023"><ele></ele><time>2021-3-5T19:42:1Z</time></trkpt>
<trkpt lat="48.407791" lon="2.653093"><ele></ele><time>2021-3-5T19:42:4Z</time></trkpt>
<trkpt lat="48.407768" lon="2.653197"><ele></ele><time>2021-3-5T19:42:7Z</time></trkpt>
<trkpt lat="48.407761" lon="2.653264"><ele></ele><time>2021-3-5T19:42:10Z</time></trkpt>
<trkpt lat="48.407762" lon="2.653338"><ele></ele><time>2021-3-5T19:42:13Z</time></trkpt>
<trkpt lat="48.407761" lon="2.653399"><ele></ele><time>2021-3-5T19:42:16Z</time></trkpt>
<trkpt lat="48.407756" lon="2.653496"><ele></ele><time>2021-3-5T19:42:19Z</time></trkpt>
<trkpt lat="48.407746" lon="2.653604"><ele></ele><time>2021-3-5T19:42:22Z</time></trkpt>
<trkpt lat="48.407763" lon="2.65374"><ele></ele><time>2021-3-5T19:42:25Z</time></trkpt>
<trkpt lat="48.407771" lon="2.653882"><ele></ele><time>2021-3-5T19:42:28Z</time></trkpt>
<trkpt lat="48.407754" lon="2.654011"><ele></ele><time>2021-3-5T19:42:31Z</time></trkpt>
<trkpt lat="48.407728" lon="2.654189"><ele></ele><time>2021-3-5T19:42:34Z</time></trkpt>
<trkpt lat="48.407708" lon="2.654368"><ele></ele><time>2021-3-5T19:42:37Z</time></trkpt>
<trkpt lat="48.40767" lon="2.654531"><ele></ele><time>2021-3-5T19:42:40Z</time></trkpt>
<trkpt lat="48.407618" lon="2.654671"><ele></ele><time>2021-3-5T19:42:43Z</time></trkpt>
<trkpt lat="48.407572" lon="2.654837"><ele></ele><time>2021-3-5T19:42:46Z</time></trkpt>
<trkpt lat="48.407564" lon="2.655039"><ele></ele><time>2021-3-5T19:42:49Z</time></trkpt>
<trkpt lat="48.407637" lon="2.655236"><ele></ele><time>2021-3-5T19:42:52Z</time></trkpt>
<trkpt lat="48.407765" lon="2.655442"><ele></ele><time>2021-3-5T19:42:55Z</time></trkpt>
<trkpt lat="48.40782" lon="2.655567"><ele></ele><time>2021-3-5T19:42:58Z</time></trkpt>
<trkpt lat="48.407856" lon="2.655725"><ele></ele><time>2021-3-5T19:43:1Z</time></trkpt>
<trkpt lat="48.407873" lon="2.655949"><ele></ele><time>2021-3-5T19:43:4Z</time></trkpt>
<trkpt lat="48.407908" lon="2.656179"><ele></ele><time>2021-3-5T19:43:7Z</time></trkpt>
<trkpt lat="48.407947" lon="2.656346"><ele></ele><time>2021-3-5T19:43:10Z</time></trkpt>
<trkpt lat="48.407986" lon="2.656531"><ele></ele><time>2021-3-5T19:43:13Z</time></trkpt>
<trkpt lat="48.407932" lon="2.656733"><ele></ele><time>2021-3-5T19:43:16Z</time></trkpt>
<trkpt lat="48.407896" lon="2.656908"><ele></ele><time>2021-3-5T19:43:19Z</time></trkpt>
<trkpt lat="48.407877" lon="2.657063"><ele></ele><time>2021-3-5T19:43:22Z</time></trkpt>
<trkpt lat="48.407833" lon="2.657243"><ele></ele><time>2021-3-5T19:43:25Z</time></trkpt>
<trkpt lat="48.407841" lon="2.657406"><ele></ele><time>2021-3-5T19:43:28Z</time></trkpt>
<trkpt lat="48.407862" lon="2.657622"><ele></ele><time>2021-3-5T19:43:31Z</time></trkpt>
<trkpt lat="48.40786" lon="2.657836"><ele></ele><time>2021-3-5T19:43:34Z</time></trkpt>
<trkpt lat="48.407826" lon="2.658019"><ele></ele><time>2021-3-5T19:43:37Z</time></trkpt>
<trkpt lat="48.407777" lon="2.658179"><ele></ele><time>2021-3-5T19:43:40Z</time></trkpt>
<trkpt lat="48.407713" lon="2.658364"><ele></ele><time>2021-3-5T19:43:43Z</time></trkpt>
<trkpt lat="48.407673" lon="2.658521"><ele></ele><time>2021-3-5T19:43:46Z</time></trkpt>
<trkpt lat="48.407621" lon="2.658801"><ele></ele><time>2021-3-5T19:43:49Z</time></trkpt>
<trkpt lat="48.407567" lon="2.659049"><ele></ele><time>2021-3-5T19:43:52Z</time></trkpt>
<trkpt lat="48.407579" lon="2.65925"><ele></ele><time>2021-3-5T19:43:55Z</time></trkpt>
<trkpt lat="48.407578" lon="2.659454"><ele></ele><time>2021-3-5T19:43:58Z</time></trkpt>
<trkpt lat="48.407585" lon="2.659647"><ele></ele><time>2021-3-5T19:44:1Z</time></trkpt>
<trkpt lat="48.407569" lon="2.659835"><ele></ele><time>2021-3-5T19:44:4Z</time></trkpt>
<trkpt lat="48.407583" lon="2.66001"><ele></ele><time>2021-3-5T19:44:7Z</time></trkpt>
<trkpt lat="48.407602" lon="2.660179"><ele></ele><time>2021-3-5T19:44:10Z</time></trkpt>
<trkpt lat="48.407611" lon="2.660366"><ele></ele><time>2021-3-5T19:44:13Z</time></trkpt>
<trkpt lat="48.407634" lon="2.660566"><ele></ele><time>2021-3-5T19:44:16Z</time></trkpt>
<trkpt lat="48.407676" lon="2.660735"><ele></ele><time>2021-3-5T19:44:19Z</time></trkpt>
<trkpt lat="48.407694" lon="2.660888"><ele></ele><time>2021-3-5T19:44:22Z</time></trkpt>
<trkpt lat="48.407709" lon="2.661057"><ele></ele><time>2021-3-5T19:44:25Z</time></trkpt>
<trkpt lat="48.407726" lon="2.661189"><ele></ele><time>2021-3-5T19:44:28Z</time></trkpt>
<trkpt lat="48.407767" lon="2.661291"><ele></ele><time>2021-3-5T19:44:31Z</time></trkpt>
<trkpt lat="48.407801" lon="2.66141"><ele></ele><time>2021-3-5T19:44:34Z</time></trkpt>
<trkpt lat="48.407853" lon="2.661547"><ele></ele><time>2021-3-5T19:44:37Z</time></trkpt>
<trkpt lat="48.407894" lon="2.661704"><ele></ele><time>2021-3-5T19:44:40Z</time></trkpt>
<trkpt lat="48.407928" lon="2.66185"><ele></ele><time>2021-3-5T19:44:43Z</time></trkpt>
<trkpt lat="48.40797" lon="2.662019"><ele></ele><time>2021-3-5T19:44:46Z</time></trkpt>
<trkpt lat="48.408005" lon="2.662202"><ele></ele><time>2021-3-5T19:44:49Z</time></trkpt>
<trkpt lat="48.408025" lon="2.66238"><ele></ele><time>2021-3-5T19:44:52Z</time></trkpt>
<trkpt lat="48.408038" lon="2.662569"><ele></ele><time>2021-3-5T19:44:55Z</time></trkpt>
<trkpt lat="48.40803" lon="2.662729"><ele></ele><time>2021-3-5T19:44:58Z</time></trkpt>
<trkpt lat="48.408003" lon="2.662998"><ele></ele><time>2021-3-5T19:45:1Z</time></trkpt>
<trkpt lat="48.407984" lon="2.663194"><ele></ele><time>2021-3-5T19:45:4Z</time></trkpt>
<trkpt lat="48.407994" lon="2.663363"><ele></ele><time>2021-3-5T19:45:7Z</time></trkpt>
<trkpt lat="48.408015" lon="2.663535"><ele></ele><time>2021-3-5T19:45:10Z</time></trkpt>
<trkpt lat="48.408032" lon="2.663637"><ele></ele><time>2021-3-5T19:45:13Z</time></trkpt>
<trkpt lat="48.408036" lon="2.663847"><ele></ele><time>2021-3-5T19:45:16Z</time></trkpt>
<trkpt lat="48.408028" lon="2.664"><ele></ele><time>2021-3-5T19:45:19Z</time></trkpt>
<trkpt lat="48.408026" lon="2.664151"><ele></ele><time>2021-3-5T19:45:22Z</time></trkpt>
<trkpt lat="48.408038" lon="2.664298"><ele></ele><time>2021-3-5T19:45:25Z</time></trkpt>
<trkpt lat="48.408054" lon="2.664437"><ele></ele><time>2021-3-5T19:45:28Z</time></trkpt>
<trkpt lat="48.40808" lon="2.664635"><ele></ele><time>2021-3-5T19:45:31Z</time></trkpt>
<trkpt lat="48.408072" lon="2.664868"><ele></ele><time>2021-3-5T19:45:34Z</time></trkpt>
<trkpt lat="48.40802" lon="2.665086"><ele></ele><time>2021-3-5T19:45:37Z</time></trkpt>
<trkpt lat="48.407987" lon="2.665399"><ele></ele><time>2021-3-5T19:45:40Z</time></trkpt>
<trkpt lat="48.407926" lon="2.665624"><ele></ele><time>2021-3-5T19:45:43Z</time></trkpt>
<trkpt lat="48.407899" lon="2.6658"><ele></ele><time>2021-3-5T19:45:46Z</time></trkpt>
<trkpt lat="48.407756" lon="2.665995"><ele></ele><time>2021-3-5T19:45:49Z</time></trkpt>
<trkpt lat="48.40765" lon="2.66614"><ele></ele><time>2021-3-5T19:45:52Z</time></trkpt>
<trkpt lat="48.407587" lon="2.666371"><ele></ele><time>2021-3-5T19:45:55Z</time></trkpt>
<trkpt lat="48.407564" lon="2.666621"><ele></ele><time>2021-3-5T19:45:58Z</time></trkpt>
<trkpt lat="48.407588" lon="2.666798"><ele></ele><time>2021-3-5T19:46:1Z</time></trkpt>
<trkpt lat="48.407577" lon="2.666997"><ele></ele><time>2021-3-5T19:46:4Z</time></trkpt>
<trkpt lat="48.407546" lon="2.667205"><ele></ele><time>2021-3-5T19:46:7Z</time></trkpt>
<trkpt lat="48.40754" lon="2.667385"><ele></ele><time>2021-3-5T19:46:10Z</time></trkpt>
<trkpt lat="48.407507" lon="2.667515"><ele></ele><time>2021-3-5T19:46:13Z</time></trkpt>
<trkpt lat="48.407425" lon="2.667659"><ele></ele><time>2021-3-5T19:46:16Z</time></trkpt>
<trkpt lat="48.407362" lon="2.66786"><ele></ele><time>2021-3-5T19:46:19Z</time></trkpt>
<trkpt lat="48.407348" lon="2.66813"><ele></ele><time>2021-3-5T19:46:22Z</time></trkpt>
<trkpt lat="48.407334" lon="2.668282"><ele></ele><time>2021-3-5T19:46:25Z</time></trkpt>
<trkpt lat="48.407374" lon="2.668417"><ele></ele><time>2021-3-5T19:46:28Z</time></trkpt>
<trkpt lat="48.407366" lon="2.668587"><ele></ele><time>2021-3-5T19:46:31Z</time></trkpt>
<trkpt lat="48.407386" lon="2.668723"><ele></ele><time>2021-3-5T19:46:34Z</time></trkpt>
<trkpt lat="48.407397" lon="2.668853"><ele></ele><time>2021-3-5T19:46:37Z</time></trkpt>
<trkpt lat="48.407415" lon="2.668975"><ele></ele><time>2021-3-5T19:46:40Z</time></trkpt>
<trkpt lat="48.407423" lon="2.66911"><ele></ele><time>2021-3-5T19:46:43Z</time></trkpt>
<trkpt lat="48.40745" lon="2.669279"><ele></ele><time>2021-3-5T19:46:46Z</time></trkpt>
<trkpt lat="48.407484" lon="2.669487"><ele></ele><time>2021-3-5T19:46:49Z</time></trkpt>
<trkpt lat="48.407526" lon="2.669629"><ele></ele><time>2021-3-5T19:46:52Z</time></trkpt>
<trkpt lat="48.407554" lon="2.669736"><ele></ele><time>2021-3-5T19:46:55Z</time></trkpt>
<trkpt lat="48.40757" lon="2.669885"><ele></ele><time>2021-3-5T19:46:58Z</time></trkpt>
<trkpt lat="48.407595" lon="2.669975"><ele></ele><time>2021-3-5T19:47:1Z</time></trkpt>
<trkpt lat="48.407622" lon="2.670114"><ele></ele><time>2021-3-5T19:47:4Z</time></trkpt>
<trkpt lat="48.407671" lon="2.670269"><ele></ele><time>2021-3-5T19:47:7Z</time></trkpt>
<trkpt lat="48.407702" lon="2.670463"><ele></ele><time>2021-3-5T19:47:10Z</time></trkpt>
<trkpt lat="48.407759" lon="2.670682"><ele></ele><time>2021-3-5T19:47:13Z</time></trkpt>
<trkpt lat="48.407783" lon="2.670916"><ele></ele><time>2021-3-5T19:47:16Z</time></trkpt>
<trkpt lat="48.407792" lon="2.671103"><ele></ele><time>2021-3-5T19:47:19Z</time></trkpt>
<trkpt lat="48.407814" lon="2.671213"><ele></ele><time>2021-3-5T19:47:22Z</time></trkpt>
<trkpt lat="48.407826" lon="2.67136"><ele></ele><time>2021-3-5T19:47:25Z</time></trkpt>
<trkpt lat="48.407828" lon="2.671493"><ele></ele><time>2021-3-5T19:47:28Z</time></trkpt>
<trkpt lat="48.407879" lon="2.671587"><ele></ele><time>2021-3-5T19:47:31Z</time></trkpt>
<trkpt lat="48.407882" lon="2.671699"><ele></ele><time>2021-3-5T19:47:34Z</time></trkpt>
<trkpt lat="48.407912" lon="2.671867"><ele></ele><time>2021-3-5T19:47:37Z</time></trkpt>
<trkpt lat="48.407955" lon="2.672022"><ele></ele><time>2021-3-5T19:47:40Z</time></trkpt>
<trkpt lat="48.40807" lon="2.672081"><ele></ele><time>2021-3-5T19:47:43Z</time></trkpt>
<trkpt lat="48.408109" lon="2.672206"><ele></ele><time>2021-3-5T19:47:46Z</time></trkpt>
<trkpt lat="48.408196" lon="2.672307"><ele></ele><time>2021-3-5T19:47:49Z</time></trkpt>
<trkpt lat="48.408297" lon="2.6724"><ele></ele><time>2021-3-5T19:47:52Z</time></trkpt>
<trkpt lat="48.408371" lon="2.67253"><ele></ele><time>2021-3-5T19:47:55Z</time></trkpt>
<trkpt lat="48.408459" lon="2.672622"><ele></ele><time>2021-3-5T19:47:58Z</time></trkpt>
<trkpt lat="48.408549" lon="2.672683"><ele></ele><time>2021-3-5T19:48:1Z</time></trkpt>
<trkpt lat="48.408655" lon="2.672753"><ele></ele><time>2021-3-5T19:48:4Z</time></trkpt>
<trkpt lat="48.408771" lon="2.67287"><ele></ele><time>2021-3-5T19:48:7Z</time></trkpt>
<trkpt lat="48.408858" lon="2.672961"><ele></ele><time>2021-3-5T19:48:10Z</time></trkpt>
<trkpt lat="48.408977" lon="2.673026"><ele></ele><time>2021-3-5T19:48:13Z</time></trkpt>
<trkpt lat="48.409058" lon="2.673114"><ele></ele><time>2021-3-5T19:48:16Z</time></trkpt>
<trkpt lat="48.409196" lon="2.673223"><ele></ele><time>2021-3-5T19:48:19Z</time></trkpt>
<trkpt lat="48.409235" lon="2.673324"><ele></ele><time>2021-3-5T19:48:22Z</time></trkpt>
<trkpt lat="48.409237" lon="2.673421"><ele></ele><time>2021-3-5T19:48:25Z</time></trkpt>
<trkpt lat="48.409257" lon="2.673547"><ele></ele><time>2021-3-5T19:48:28Z</time></trkpt>
<trkpt lat="48.409277" lon="2.673652"><ele></ele><time>2021-3-5T19:48:31Z</time></trkpt>
<trkpt lat="48.409275" lon="2.673836"><ele></ele><time>2021-3-5T19:48:34Z</time></trkpt>
<trkpt lat="48.409278" lon="2.673953"><ele></ele><time>2021-3-5T19:48:37Z</time></trkpt>
<trkpt lat="48.409309" lon="2.674032"><ele></ele><time>2021-3-5T19:48:40Z</time></trkpt>
<trkpt lat="48.409356" lon="2.674187"><ele></ele><time>2021-3-5T19:48:43Z</time></trkpt>
<trkpt lat="48.409417" lon="2.674488"><ele></ele><time>2021-3-5T19:48:46Z</time></trkpt>
<trkpt lat="48.409447" lon="2.674718"><ele></ele><time>2021-3-5T19:48:49Z</time></trkpt>
<trkpt lat="48.409442" lon="2.674896"><ele></ele><time>2021-3-5T19:48:52Z</time></trkpt>
<trkpt lat="48.40941" lon="2.675107"><ele></ele><time>2021-3-5T19:48:55Z</time></trkpt>
<trkpt lat="48.409395" lon="2.675256"><ele></ele><time>2021-3-5T19:48:58Z</time></trkpt>
<trkpt lat="48.409332" lon="2.67541"><ele></ele><time>2021-3-5T19:49:1Z</time></trkpt>
<trkpt lat="48.409289" lon="2.675551"><ele></ele><time>2021-3-5T19:49:4Z</time></trkpt>
<trkpt lat="48.409219" lon="2.675684"><ele></ele><time>2021-3-5T19:49:7Z</time></trkpt>
<trkpt lat="48.40917" lon="2.675974"><ele></ele><time>2021-3-5T19:49:10Z</time></trkpt>
<trkpt lat="48.409068" lon="2.676259"><ele></ele><time>2021-3-5T19:49:13Z</time></trkpt>
<trkpt lat="48.40899" lon="2.676387"><ele></ele><time>2021-3-5T19:49:16Z</time></trkpt>
<trkpt lat="48.408928" lon="2.676549"><ele></ele><time>2021-3-5T19:49:19Z</time></trkpt>
<trkpt lat="48.408811" lon="2.676755"><ele></ele><time>2021-3-5T19:49:22Z</time></trkpt>
<trkpt lat="48.40867" lon="2.677001"><ele></ele><time>2021-3-5T19:49:25Z</time></trkpt>
<trkpt lat="48.408593" lon="2.67718"><ele></ele><time>2021-3-5T19:49:28Z</time></trkpt>
<trkpt lat="48.408483" lon="2.67741"><ele></ele><time>2021-3-5T19:49:31Z</time></trkpt>
<trkpt lat="48.408472" lon="2.677652"><ele></ele><time>2021-3-5T19:49:34Z</time></trkpt>
<trkpt lat="48.408465" lon="2.67787"><ele></ele><time>2021-3-5T19:49:37Z</time></trkpt>
<trkpt lat="48.40844" lon="2.678081"><ele></ele><time>2021-3-5T19:49:40Z</time></trkpt>
<trkpt lat="48.408444" lon="2.678275"><ele></ele><time>2021-3-5T19:49:43Z</time></trkpt>
<trkpt lat="48.408405" lon="2.678462"><ele></ele><time>2021-3-5T19:49:46Z</time></trkpt>
<trkpt lat="48.408373" lon="2.678664"><ele></ele><time>2021-3-5T19:49:49Z</time></trkpt>
<trkpt lat="48.408372" lon="2.678838"><ele></ele><time>2021-3-5T19:49:52Z</time></trkpt>
<trkpt lat="48.408379" lon="2.678961"><ele></ele><time>2021-3-5T19:49:55Z</time></trkpt>
<trkpt lat="48.408394" lon="2.679118"><ele></ele><time>2021-3-5T19:49:58Z</time></trkpt>
<trkpt lat="48.408456" lon="2.679245"><ele></ele><time>2021-3-5T19:50:1Z</time></trkpt>
<trkpt lat="48.408522" lon="2.679375"><ele></ele><time>2021-3-5T19:50:4Z</time></trkpt>
<trkpt lat="48.408583" lon="2.67954"><ele></ele><time>2021-3-5T19:50:7Z</time></trkpt>
<trkpt lat="48.408654" lon="2.679731"><ele></ele><time>2021-3-5T19:50:10Z</time></trkpt>
<trkpt lat="48.408685" lon="2.67994"><ele></ele><time>2021-3-5T19:50:13Z</time></trkpt>
<trkpt lat="48.408746" lon="2.680156"><ele></ele><time>2021-3-5T19:50:16Z</time></trkpt>
<trkpt lat="48.40882" lon="2.68036"><ele></ele><time>2021-3-5T19:50:19Z</time></trkpt>
<trkpt lat="48.40888" lon="2.680557"><ele></ele><time>2021-3-5T19:50:22Z</time></trkpt>
<trkpt lat="48.408942" lon="2.680744"><ele></ele><time>2021-3-5T19:50:25Z</time></trkpt>
<trkpt lat="48.409005" lon="2.680941"><ele></ele><time>2021-3-5T19:50:28Z</time></trkpt>
<trkpt lat="48.409066" lon="2.68113"><ele></ele><time>2021-3-5T19:50:31Z</time></trkpt>
<trkpt lat="48.409105" lon="2.681295"><ele></ele><time>2021-3-5T19:50:34Z</time></trkpt>
<trkpt lat="48.409133" lon="2.68143"><ele></ele><time>2021-3-5T19:50:37Z</time></trkpt>
<trkpt lat="48.40918" lon="2.681567"><ele></ele><time>2021-3-5T19:50:40Z</time></trkpt>
<trkpt lat="48.409206" lon="2.681655"><ele></ele><time>2021-3-5T19:50:43Z</time></trkpt>
<trkpt lat="48.409229" lon="2.681698"><ele></ele><time>2021-3-5T19:50:46Z</time></trkpt>
<trkpt lat="48.409224" lon="2.681697"><ele></ele><time>2021-3-5T19:50:49Z</time></trkpt>
<trkpt lat="48.409224" lon="2.681688"><ele></ele><time>2021-3-5T19:50:52Z</time></trkpt>
<trkpt lat="48.409237" lon="2.681701"><ele></ele><time>2021-3-5T19:50:55Z</time></trkpt>
<trkpt lat="48.409274" lon="2.681735"><ele></ele><time>2021-3-5T19:50:58Z</time></trkpt>
<trkpt lat="48.409313" lon="2.681779"><ele></ele><time>2021-3-5T19:51:1Z</time></trkpt>
<trkpt lat="48.409372" lon="2.681808"><ele></ele><time>2021-3-5T19:51:4Z</time></trkpt>
<trkpt lat="48.409434" lon="2.681797"><ele></ele><time>2021-3-5T19:51:7Z</time></trkpt>
<trkpt lat="48.409479" lon="2.681784"><ele></ele><time>2021-3-5T19:51:10Z</time></trkpt>
<trkpt lat="48.409548" lon="2.681788"><ele></ele><time>2021-3-5T19:51:13Z</time></trkpt>
<trkpt lat="48.409625" lon="2.68178"><ele></ele><time>2021-3-5T19:51:16Z</time></trkpt>
<trkpt lat="48.409707" lon="2.681753"><ele></ele><time>2021-3-5T19:51:19Z</time></trkpt>
<trkpt lat="48.409787" lon="2.681724"><ele></ele><time>2021-3-5T19:51:22Z</time></trkpt>
<trkpt lat="48.409874" lon="2.681684"><ele></ele><time>2021-3-5T19:51:25Z</time></trkpt>
<trkpt lat="48.409947" lon="2.681661"><ele></ele><time>2021-3-5T19:51:28Z</time></trkpt>
<trkpt lat="48.410027" lon="2.681654"><ele></ele><time>2021-3-5T19:51:31Z</time></trkpt>
<trkpt lat="48.410086" lon="2.681636"><ele></ele><time>2021-3-5T19:51:34Z</time></trkpt>
<trkpt lat="48.410165" lon="2.681606"><ele></ele><time>2021-3-5T19:51:37Z</time></trkpt>
<trkpt lat="48.410228" lon="2.681586"><ele></ele><time>2021-3-5T19:51:40Z</time></trkpt>
<trkpt lat="48.410301" lon="2.681575"><ele></ele><time>2021-3-5T19:51:43Z</time></trkpt>
<trkpt lat="48.410362" lon="2.681555"><ele></ele><time>2021-3-5T19:51:46Z</time></trkpt>
<trkpt lat="48.410399" lon="2.681527"><ele></ele><time>2021-3-5T19:51:49Z</time></trkpt>
<trkpt lat="48.410408" lon="2.681506"><ele></ele><time>2021-3-5T19:51:52Z</time></trkpt>
<trkpt lat="48.410407" lon="2.681503"><ele></ele><time>2021-3-5T19:51:55Z</time></trkpt>
<trkpt lat="48.410456" lon="2.681459"><ele></ele><time>2021-3-5T19:51:58Z</time></trkpt>
<trkpt lat="48.410497" lon="2.681387"><ele></ele><time>2021-3-5T19:52:1Z</time></trkpt>
<trkpt lat="48.410552" lon="2.681312"><ele></ele><time>2021-3-5T19:52:4Z</time></trkpt>
<trkpt lat="48.410624" lon="2.681247"><ele></ele><time>2021-3-5T19:52:7Z</time></trkpt>
<trkpt lat="48.410693" lon="2.681177"><ele></ele><time>2021-3-5T19:52:10Z</time></trkpt>
<trkpt lat="48.410731" lon="2.681086"><ele></ele><time>2021-3-5T19:52:13Z</time></trkpt>
<trkpt lat="48.410746" lon="2.680987"><ele></ele><time>2021-3-5T19:52:16Z</time></trkpt>
<trkpt lat="48.410781" lon="2.680929"><ele></ele><time>2021-3-5T19:52:19Z</time></trkpt>
<trkpt lat="48.410825" lon="2.68085"><ele></ele><time>2021-3-5T19:52:22Z</time></trkpt>
<trkpt lat="48.41088" lon="2.680817"><ele></ele><time>2021-3-5T19:52:25Z</time></trkpt>
<trkpt lat="48.410927" lon="2.680789"><ele></ele><time>2021-3-5T19:52:28Z</time></trkpt>
<trkpt lat="48.410946" lon="2.680771"><ele></ele><time>2021-3-5T19:52:31Z</time></trkpt>
<trkpt lat="48.410967" lon="2.680762"><ele></ele><time>2021-3-5T19:52:34Z</time></trkpt>
<trkpt lat="48.410973" lon="2.680748"><ele></ele><time>2021-3-5T19:52:37Z</time></trkpt>
<trkpt lat="48.410981" lon="2.680727"><ele></ele><time>2021-3-5T19:52:40Z</time></trkpt>
<trkpt lat="48.410989" lon="2.68072"><ele></ele><time>2021-3-5T19:52:43Z</time></trkpt>
<trkpt lat="48.410992" lon="2.680715"><ele></ele><time>2021-3-5T19:52:46Z</time></trkpt>
<trkpt lat="48.410992" lon="2.680711"><ele></ele><time>2021-3-5T19:52:49Z</time></trkpt>
<trkpt lat="48.410993" lon="2.680711"><ele></ele><time>2021-3-5T19:52:52Z</time></trkpt>
<trkpt lat="48.410993" lon="2.680711"><ele></ele><time>2021-3-5T19:52:55Z</time></trkpt>
<trkpt lat="48.410993" lon="2.680711"><ele></ele><time>2021-3-5T19:52:58Z</time></trkpt>
<trkpt lat="48.410993" lon="2.680711"><ele></ele><time>2021-3-5T19:53:1Z</time></trkpt>
<trkpt lat="48.410993" lon="2.68071"><ele></ele><time>2021-3-5T19:53:4Z</time></trkpt>
<trkpt lat="48.410995" lon="2.680709"><ele></ele><time>2021-3-5T19:53:7Z</time></trkpt>
<trkpt lat="48.410996" lon="2.680705"><ele></ele><time>2021-3-5T19:53:10Z</time></trkpt>
<trkpt lat="48.411002" lon="2.680704"><ele></ele><time>2021-3-5T19:53:13Z</time></trkpt>
<trkpt lat="48.411041" lon="2.680649"><ele></ele><time>2021-3-5T19:53:16Z</time></trkpt>
<trkpt lat="48.411099" lon="2.680625"><ele></ele><time>2021-3-5T19:53:19Z</time></trkpt>
<trkpt lat="48.411163" lon="2.680577"><ele></ele><time>2021-3-5T19:53:22Z</time></trkpt>
<trkpt lat="48.411206" lon="2.680516"><ele></ele><time>2021-3-5T19:53:25Z</time></trkpt>
<trkpt lat="48.411241" lon="2.680453"><ele></ele><time>2021-3-5T19:53:28Z</time></trkpt>
<trkpt lat="48.411306" lon="2.680387"><ele></ele><time>2021-3-5T19:53:31Z</time></trkpt>
<trkpt lat="48.411369" lon="2.680343"><ele></ele><time>2021-3-5T19:53:34Z</time></trkpt>
<trkpt lat="48.411426" lon="2.680279"><ele></ele><time>2021-3-5T19:53:37Z</time></trkpt>
<trkpt lat="48.411458" lon="2.680221"><ele></ele><time>2021-3-5T19:53:40Z</time></trkpt>
<trkpt lat="48.411526" lon="2.680165"><ele></ele><time>2021-3-5T19:53:43Z</time></trkpt>
<trkpt lat="48.411589" lon="2.680122"><ele></ele><time>2021-3-5T19:53:46Z</time></trkpt>
<trkpt lat="48.411653" lon="2.680073"><ele></ele><time>2021-3-5T19:53:49Z</time></trkpt>
<trkpt lat="48.4117" lon="2.680035"><ele></ele><time>2021-3-5T19:53:52Z</time></trkpt>
<trkpt lat="48.411756" lon="2.679956"><ele></ele><time>2021-3-5T19:53:55Z</time></trkpt>
<trkpt lat="48.411819" lon="2.679898"><ele></ele><time>2021-3-5T19:53:58Z</time></trkpt>
<trkpt lat="48.411858" lon="2.679863"><ele></ele><time>2021-3-5T19:54:1Z</time></trkpt>
<trkpt lat="48.411885" lon="2.679819"><ele></ele><time>2021-3-5T19:54:4Z</time></trkpt>
<trkpt lat="48.411955" lon="2.67974"><ele></ele><time>2021-3-5T19:54:7Z</time></trkpt>
<trkpt lat="48.41202" lon="2.67967"><ele></ele><time>2021-3-5T19:54:10Z</time></trkpt>
<trkpt lat="48.412068" lon="2.679649"><ele></ele><time>2021-3-5T19:54:13Z</time></trkpt>
<trkpt lat="48.412109" lon="2.679574"><ele></ele><time>2021-3-5T19:54:16Z</time></trkpt>
<trkpt lat="48.412169" lon="2.679499"><ele></ele><time>2021-3-5T19:54:19Z</time></trkpt>
<trkpt lat="48.412221" lon="2.679419"><ele></ele><time>2021-3-5T19:54:22Z</time></trkpt>
<trkpt lat="48.412264" lon="2.679268"><ele></ele><time>2021-3-5T19:54:25Z</time></trkpt>
<trkpt lat="48.41229" lon="2.679094"><ele></ele><time>2021-3-5T19:54:28Z</time></trkpt>
<trkpt lat="48.412299" lon="2.678897"><ele></ele><time>2021-3-5T19:54:31Z</time></trkpt>
<trkpt lat="48.412318" lon="2.678723"><ele></ele><time>2021-3-5T19:54:34Z</time></trkpt>
<trkpt lat="48.412341" lon="2.678556"><ele></ele><time>2021-3-5T19:54:37Z</time></trkpt>
<trkpt lat="48.412356" lon="2.678408"><ele></ele><time>2021-3-5T19:54:40Z</time></trkpt>
<trkpt lat="48.412364" lon="2.678249"><ele></ele><time>2021-3-5T19:54:43Z</time></trkpt>
<trkpt lat="48.412385" lon="2.678084"><ele></ele><time>2021-3-5T19:54:46Z</time></trkpt>
<trkpt lat="48.412436" lon="2.677936"><ele></ele><time>2021-3-5T19:54:49Z</time></trkpt>
<trkpt lat="48.41249" lon="2.67778"><ele></ele><time>2021-3-5T19:54:52Z</time></trkpt>
<trkpt lat="48.41253" lon="2.677649"><ele></ele><time>2021-3-5T19:54:55Z</time></trkpt>
<trkpt lat="48.41257" lon="2.677492"><ele></ele><time>2021-3-5T19:54:58Z</time></trkpt>
<trkpt lat="48.412637" lon="2.677354"><ele></ele><time>2021-3-5T19:55:1Z</time></trkpt>
<trkpt lat="48.412695" lon="2.677221"><ele></ele><time>2021-3-5T19:55:4Z</time></trkpt>
<trkpt lat="48.412743" lon="2.677086"><ele></ele><time>2021-3-5T19:55:7Z</time></trkpt>
<trkpt lat="48.412791" lon="2.676948"><ele></ele><time>2021-3-5T19:55:10Z</time></trkpt>
<trkpt lat="48.412831" lon="2.676809"><ele></ele><time>2021-3-5T19:55:13Z</time></trkpt>
<trkpt lat="48.412854" lon="2.676657"><ele></ele><time>2021-3-5T19:55:16Z</time></trkpt>
<trkpt lat="48.412927" lon="2.676538"><ele></ele><time>2021-3-5T19:55:19Z</time></trkpt>
<trkpt lat="48.412967" lon="2.676411"><ele></ele><time>2021-3-5T19:55:22Z</time></trkpt>
<trkpt lat="48.412984" lon="2.676302"><ele></ele><time>2021-3-5T19:55:25Z</time></trkpt>
<trkpt lat="48.413017" lon="2.676204"><ele></ele><time>2021-3-5T19:55:28Z</time></trkpt>
<trkpt lat="48.413029" lon="2.676107"><ele></ele><time>2021-3-5T19:55:31Z</time></trkpt>
<trkpt lat="48.413044" lon="2.675998"><ele></ele><time>2021-3-5T19:55:34Z</time></trkpt>
<trkpt lat="48.41307" lon="2.675882"><ele></ele><time>2021-3-5T19:55:37Z</time></trkpt>
<trkpt lat="48.413102" lon="2.675774"><ele></ele><time>2021-3-5T19:55:40Z</time></trkpt>
<trkpt lat="48.413149" lon="2.675655"><ele></ele><time>2021-3-5T19:55:43Z</time></trkpt>
<trkpt lat="48.413195" lon="2.675519"><ele></ele><time>2021-3-5T19:55:46Z</time></trkpt>
<trkpt lat="48.413238" lon="2.675399"><ele></ele><time>2021-3-5T19:55:49Z</time></trkpt>
<trkpt lat="48.413302" lon="2.675285"><ele></ele><time>2021-3-5T19:55:52Z</time></trkpt>
<trkpt lat="48.413376" lon="2.675196"><ele></ele><time>2021-3-5T19:55:55Z</time></trkpt>
<trkpt lat="48.413466" lon="2.675075"><ele></ele><time>2021-3-5T19:55:58Z</time></trkpt>
<trkpt lat="48.413497" lon="2.674978"><ele></ele><time>2021-3-5T19:56:1Z</time></trkpt>
<trkpt lat="48.413509" lon="2.674855"><ele></ele><time>2021-3-5T19:56:4Z</time></trkpt>
<trkpt lat="48.413523" lon="2.674671"><ele></ele><time>2021-3-5T19:56:7Z</time></trkpt>
<trkpt lat="48.413529" lon="2.674496"><ele></ele><time>2021-3-5T19:56:10Z</time></trkpt>
<trkpt lat="48.413519" lon="2.674334"><ele></ele><time>2021-3-5T19:56:13Z</time></trkpt>
<trkpt lat="48.41353" lon="2.674188"><ele></ele><time>2021-3-5T19:56:16Z</time></trkpt>
<trkpt lat="48.41354" lon="2.674021"><ele></ele><time>2021-3-5T19:56:19Z</time></trkpt>
<trkpt lat="48.413546" lon="2.673854"><ele></ele><time>2021-3-5T19:56:22Z</time></trkpt>
<trkpt lat="48.413526" lon="2.673712"><ele></ele><time>2021-3-5T19:56:25Z</time></trkpt>
<trkpt lat="48.413467" lon="2.673575"><ele></ele><time>2021-3-5T19:56:28Z</time></trkpt>
<trkpt lat="48.413428" lon="2.673467"><ele></ele><time>2021-3-5T19:56:31Z</time></trkpt>
<trkpt lat="48.413377" lon="2.67333"><ele></ele><time>2021-3-5T19:56:34Z</time></trkpt>
<trkpt lat="48.413334" lon="2.673212"><ele></ele><time>2021-3-5T19:56:37Z</time></trkpt>
<trkpt lat="48.413294" lon="2.673104"><ele></ele><time>2021-3-5T19:56:40Z</time></trkpt>
<trkpt lat="48.413265" lon="2.673014"><ele></ele><time>2021-3-5T19:56:43Z</time></trkpt>
<trkpt lat="48.413258" lon="2.672896"><ele></ele><time>2021-3-5T19:56:46Z</time></trkpt>
<trkpt lat="48.413241" lon="2.672775"><ele></ele><time>2021-3-5T19:56:49Z</time></trkpt>
<trkpt lat="48.413215" lon="2.672657"><ele></ele><time>2021-3-5T19:56:52Z</time></trkpt>
<trkpt lat="48.413195" lon="2.672536"><ele></ele><time>2021-3-5T19:56:55Z</time></trkpt>
<trkpt lat="48.41317" lon="2.672415"><ele></ele><time>2021-3-5T19:56:58Z</time></trkpt>
<trkpt lat="48.413154" lon="2.672299"><ele></ele><time>2021-3-5T19:57:1Z</time></trkpt>
<trkpt lat="48.413135" lon="2.672192"><ele></ele><time>2021-3-5T19:57:4Z</time></trkpt>
<trkpt lat="48.413116" lon="2.672091"><ele></ele><time>2021-3-5T19:57:7Z</time></trkpt>
<trkpt lat="48.41311" lon="2.671955"><ele></ele><time>2021-3-5T19:57:10Z</time></trkpt>
<trkpt lat="48.413079" lon="2.671841"><ele></ele><time>2021-3-5T19:57:13Z</time></trkpt>
<trkpt lat="48.413048" lon="2.671742"><ele></ele><time>2021-3-5T19:57:16Z</time></trkpt>
<trkpt lat="48.413004" lon="2.671601"><ele></ele><time>2021-3-5T19:57:19Z</time></trkpt>
<trkpt lat="48.412977" lon="2.671488"><ele></ele><time>2021-3-5T19:57:22Z</time></trkpt>
<trkpt lat="48.412964" lon="2.671345"><ele></ele><time>2021-3-5T19:57:25Z</time></trkpt>
<trkpt lat="48.412945" lon="2.671225"><ele></ele><time>2021-3-5T19:57:28Z</time></trkpt>
<trkpt lat="48.412927" lon="2.671077"><ele></ele><time>2021-3-5T19:57:31Z</time></trkpt>
<trkpt lat="48.412956" lon="2.670886"><ele></ele><time>2021-3-5T19:57:34Z</time></trkpt>
<trkpt lat="48.412959" lon="2.670698"><ele></ele><time>2021-3-5T19:57:37Z</time></trkpt>
<trkpt lat="48.412899" lon="2.67049"><ele></ele><time>2021-3-5T19:57:40Z</time></trkpt>
<trkpt lat="48.41289" lon="2.670283"><ele></ele><time>2021-3-5T19:57:43Z</time></trkpt>
<trkpt lat="48.412952" lon="2.67012"><ele></ele><time>2021-3-5T19:57:46Z</time></trkpt>
<trkpt lat="48.413012" lon="2.66995"><ele></ele><time>2021-3-5T19:57:49Z</time></trkpt>
<trkpt lat="48.413054" lon="2.669793"><ele></ele><time>2021-3-5T19:57:52Z</time></trkpt>
<trkpt lat="48.413103" lon="2.669593"><ele></ele><time>2021-3-5T19:57:55Z</time></trkpt>
<trkpt lat="48.413127" lon="2.669357"><ele></ele><time>2021-3-5T19:57:58Z</time></trkpt>
<trkpt lat="48.413169" lon="2.669082"><ele></ele><time>2021-3-5T19:58:1Z</time></trkpt>
<trkpt lat="48.41322" lon="2.668844"><ele></ele><time>2021-3-5T19:58:4Z</time></trkpt>
<trkpt lat="48.413268" lon="2.668659"><ele></ele><time>2021-3-5T19:58:7Z</time></trkpt>
<trkpt lat="48.413222" lon="2.668523"><ele></ele><time>2021-3-5T19:58:10Z</time></trkpt>
<trkpt lat="48.413139" lon="2.668481"><ele></ele><time>2021-3-5T19:58:13Z</time></trkpt>
<trkpt lat="48.413046" lon="2.668426"><ele></ele><time>2021-3-5T19:58:16Z</time></trkpt>
<trkpt lat="48.412943" lon="2.668384"><ele></ele><time>2021-3-5T19:58:19Z</time></trkpt>
<trkpt lat="48.412892" lon="2.66828"><ele></ele><time>2021-3-5T19:58:22Z</time></trkpt>
<trkpt lat="48.412937" lon="2.668151"><ele></ele><time>2021-3-5T19:58:25Z</time></trkpt>
<trkpt lat="48.412999" lon="2.668021"><ele></ele><time>2021-3-5T19:58:28Z</time></trkpt>
<trkpt lat="48.413061" lon="2.667902"><ele></ele><time>2021-3-5T19:58:31Z</time></trkpt>
<trkpt lat="48.413116" lon="2.66778"><ele></ele><time>2021-3-5T19:58:34Z</time></trkpt>
<trkpt lat="48.413164" lon="2.667677"><ele></ele><time>2021-3-5T19:58:37Z</time></trkpt>
<trkpt lat="48.413188" lon="2.667591"><ele></ele><time>2021-3-5T19:58:40Z</time></trkpt>
<trkpt lat="48.413216" lon="2.667488"><ele></ele><time>2021-3-5T19:58:43Z</time></trkpt>
<trkpt lat="48.413268" lon="2.667397"><ele></ele><time>2021-3-5T19:58:46Z</time></trkpt>
<trkpt lat="48.413308" lon="2.667305"><ele></ele><time>2021-3-5T19:58:49Z</time></trkpt>
<trkpt lat="48.413355" lon="2.667222"><ele></ele><time>2021-3-5T19:58:52Z</time></trkpt>
<trkpt lat="48.413404" lon="2.667142"><ele></ele><time>2021-3-5T19:58:55Z</time></trkpt>
<trkpt lat="48.413455" lon="2.667067"><ele></ele><time>2021-3-5T19:58:58Z</time></trkpt>
<trkpt lat="48.413489" lon="2.667014"><ele></ele><time>2021-3-5T19:59:1Z</time></trkpt>
<trkpt lat="48.413518" lon="2.666945"><ele></ele><time>2021-3-5T19:59:4Z</time></trkpt>
<trkpt lat="48.41355" lon="2.666849"><ele></ele><time>2021-3-5T19:59:7Z</time></trkpt>
<trkpt lat="48.41359" lon="2.666762"><ele></ele><time>2021-3-5T19:59:10Z</time></trkpt>
<trkpt lat="48.413629" lon="2.666683"><ele></ele><time>2021-3-5T19:59:13Z</time></trkpt>
<trkpt lat="48.413658" lon="2.666619"><ele></ele><time>2021-3-5T19:59:16Z</time></trkpt>
<trkpt lat="48.413683" lon="2.666551"><ele></ele><time>2021-3-5T19:59:19Z</time></trkpt>
<trkpt lat="48.413707" lon="2.66649"><ele></ele><time>2021-3-5T19:59:22Z</time></trkpt>
<trkpt lat="48.413732" lon="2.666412"><ele></ele><time>2021-3-5T19:59:25Z</time></trkpt>
<trkpt lat="48.413752" lon="2.66635"><ele></ele><time>2021-3-5T19:59:28Z</time></trkpt>
<trkpt lat="48.413763" lon="2.666265"><ele></ele><time>2021-3-5T19:59:31Z</time></trkpt>
<trkpt lat="48.413766" lon="2.666196"><ele></ele><time>2021-3-5T19:59:34Z</time></trkpt>
<trkpt lat="48.413774" lon="2.666132"><ele></ele><time>2021-3-5T19:59:37Z</time></trkpt>
<trkpt lat="48.413802" lon="2.666074"><ele></ele><time>2021-3-5T19:59:40Z</time></trkpt>
<trkpt lat="48.413834" lon="2.666001"><ele></ele><time>2021-3-5T19:59:43Z</time></trkpt>
<trkpt lat="48.413855" lon="2.665953"><ele></ele><time>2021-3-5T19:59:46Z</time></trkpt>
<trkpt lat="48.413861" lon="2.665903"><ele></ele><time>2021-3-5T19:59:49Z</time></trkpt>
<trkpt lat="48.413872" lon="2.665846"><ele></ele><time>2021-3-5T19:59:52Z</time></trkpt>
<trkpt lat="48.413881" lon="2.665788"><ele></ele><time>2021-3-5T19:59:55Z</time></trkpt>
<trkpt lat="48.413895" lon="2.665732"><ele></ele><time>2021-3-5T19:59:58Z</time></trkpt>
<trkpt lat="48.413912" lon="2.665687"><ele></ele><time>2021-3-5T20:0:1Z</time></trkpt>
<trkpt lat="48.413926" lon="2.665661"><ele></ele><time>2021-3-5T20:0:4Z</time></trkpt>
<trkpt lat="48.413935" lon="2.665618"><ele></ele><time>2021-3-5T20:0:7Z</time></trkpt>
<trkpt lat="48.413952" lon="2.665554"><ele></ele><time>2021-3-5T20:0:10Z</time></trkpt>
<trkpt lat="48.413975" lon="2.665505"><ele></ele><time>2021-3-5T20:0:13Z</time></trkpt>
<trkpt lat="48.413993" lon="2.665465"><ele></ele><time>2021-3-5T20:0:16Z</time></trkpt>
<trkpt lat="48.414006" lon="2.665423"><ele></ele><time>2021-3-5T20:0:19Z</time></trkpt>
<trkpt lat="48.41403" lon="2.665368"><ele></ele><time>2021-3-5T20:0:22Z</time></trkpt>
<trkpt lat="48.414054" lon="2.66533"><ele></ele><time>2021-3-5T20:0:25Z</time></trkpt>
<trkpt lat="48.414075" lon="2.665276"><ele></ele><time>2021-3-5T20:0:28Z</time></trkpt>
<trkpt lat="48.414086" lon="2.66524"><ele></ele><time>2021-3-5T20:0:31Z</time></trkpt>
<trkpt lat="48.41411" lon="2.665208"><ele></ele><time>2021-3-5T20:0:34Z</time></trkpt>
<trkpt lat="48.414116" lon="2.665147"><ele></ele><time>2021-3-5T20:0:37Z</time></trkpt>
<trkpt lat="48.414123" lon="2.665095"><ele></ele><time>2021-3-5T20:0:40Z</time></trkpt>
<trkpt lat="48.414147" lon="2.665032"><ele></ele><time>2021-3-5T20:0:43Z</time></trkpt>
<trkpt lat="48.414144" lon="2.664954"><ele></ele><time>2021-3-5T20:0:46Z</time></trkpt>
<trkpt lat="48.414147" lon="2.664879"><ele></ele><time>2021-3-5T20:0:49Z</time></trkpt>
<trkpt lat="48.414159" lon="2.664793"><ele></ele><time>2021-3-5T20:0:52Z</time></trkpt>
<trkpt lat="48.414192" lon="2.6647"><ele></ele><time>2021-3-5T20:0:55Z</time></trkpt>
<trkpt lat="48.41423" lon="2.664634"><ele></ele><time>2021-3-5T20:0:58Z</time></trkpt>
<trkpt lat="48.41425" lon="2.664567"><ele></ele><time>2021-3-5T20:1:1Z</time></trkpt>
<trkpt lat="48.414236" lon="2.664484"><ele></ele><time>2021-3-5T20:1:4Z</time></trkpt>
<trkpt lat="48.41424" lon="2.664409"><ele></ele><time>2021-3-5T20:1:7Z</time></trkpt>
<trkpt lat="48.41426" lon="2.664327"><ele></ele><time>2021-3-5T20:1:10Z</time></trkpt>
<trkpt lat="48.414315" lon="2.664227"><ele></ele><time>2021-3-5T20:1:13Z</time></trkpt>
<trkpt lat="48.414374" lon="2.664121"><ele></ele><time>2021-3-5T20:1:16Z</time></trkpt>
<trkpt lat="48.414432" lon="2.664013"><ele></ele><time>2021-3-5T20:1:19Z</time></trkpt>
<trkpt lat="48.414471" lon="2.663878"><ele></ele><time>2021-3-5T20:1:22Z</time></trkpt>
<trkpt lat="48.414532" lon="2.663783"><ele></ele><time>2021-3-5T20:1:25Z</time></trkpt>
<trkpt lat="48.414587" lon="2.663665"><ele></ele><time>2021-3-5T20:1:28Z</time></trkpt>
<trkpt lat="48.414634" lon="2.663529"><ele></ele><time>2021-3-5T20:1:31Z</time></trkpt>
<trkpt lat="48.414686" lon="2.663411"><ele></ele><time>2021-3-5T20:1:34Z</time></trkpt>
<trkpt lat="48.414738" lon="2.663299"><ele></ele><time>2021-3-5T20:1:37Z</time></trkpt>
<trkpt lat="48.414764" lon="2.663177"><ele></ele><time>2021-3-5T20:1:40Z</time></trkpt>
<trkpt lat="48.414796" lon="2.663085"><ele></ele><time>2021-3-5T20:1:43Z</time></trkpt>
<trkpt lat="48.414827" lon="2.663003"><ele></ele><time>2021-3-5T20:1:46Z</time></trkpt>
<trkpt lat="48.414888" lon="2.662927"><ele></ele><time>2021-3-5T20:1:49Z</time></trkpt>
<trkpt lat="48.414945" lon="2.662824"><ele></ele><time>2021-3-5T20:1:52Z</time></trkpt>
<trkpt lat="48.414983" lon="2.662706"><ele></ele><time>2021-3-5T20:1:55Z</time></trkpt>
<trkpt lat="48.415018" lon="2.662583"><ele></ele><time>2021-3-5T20:1:58Z</time></trkpt>
<trkpt lat="48.415062" lon="2.662447"><ele></ele><time>2021-3-5T20:2:1Z</time></trkpt>
<trkpt lat="48.415112" lon="2.662312"><ele></ele><time>2021-3-5T20:2:4Z</time></trkpt>
<trkpt lat="48.415156" lon="2.662196"><ele></ele><time>2021-3-5T20:2:7Z</time></trkpt>
<trkpt lat="48.41521" lon="2.66207"><ele></ele><time>2021-3-5T20:2:10Z</time></trkpt>
<trkpt lat="48.415269" lon="2.661951"><ele></ele><time>2021-3-5T20:2:13Z</time></trkpt>
<trkpt lat="48.415316" lon="2.661813"><ele></ele><time>2021-3-5T20:2:16Z</time></trkpt>
<trkpt lat="48.415349" lon="2.661691"><ele></ele><time>2021-3-5T20:2:19Z</time></trkpt>
<trkpt lat="48.415424" lon="2.66154"><ele></ele><time>2021-3-5T20:2:22Z</time></trkpt>
<trkpt lat="48.415473" lon="2.661391"><ele></ele><time>2021-3-5T20:2:25Z</time></trkpt>
<trkpt lat="48.415519" lon="2.661229"><ele></ele><time>2021-3-5T20:2:28Z</time></trkpt>
<trkpt lat="48.415577" lon="2.661118"><ele></ele><time>2021-3-5T20:2:31Z</time></trkpt>
<trkpt lat="48.415627" lon="2.660982"><ele></ele><time>2021-3-5T20:2:34Z</time></trkpt>
<trkpt lat="48.415691" lon="2.660846"><ele></ele><time>2021-3-5T20:2:37Z</time></trkpt>
<trkpt lat="48.415738" lon="2.66069"><ele></ele><time>2021-3-5T20:2:40Z</time></trkpt>
<trkpt lat="48.415773" lon="2.660523"><ele></ele><time>2021-3-5T20:2:43Z</time></trkpt>
<trkpt lat="48.415851" lon="2.660343"><ele></ele><time>2021-3-5T20:2:46Z</time></trkpt>
<trkpt lat="48.415946" lon="2.660211"><ele></ele><time>2021-3-5T20:2:49Z</time></trkpt>
<trkpt lat="48.416023" lon="2.66008"><ele></ele><time>2021-3-5T20:2:52Z</time></trkpt>
<trkpt lat="48.416121" lon="2.659948"><ele></ele><time>2021-3-5T20:2:55Z</time></trkpt>
<trkpt lat="48.416206" lon="2.659804"><ele></ele><time>2021-3-5T20:2:58Z</time></trkpt>
<trkpt lat="48.416279" lon="2.659688"><ele></ele><time>2021-3-5T20:3:1Z</time></trkpt>
<trkpt lat="48.416342" lon="2.659541"><ele></ele><time>2021-3-5T20:3:4Z</time></trkpt>
<trkpt lat="48.416429" lon="2.659385"><ele></ele><time>2021-3-5T20:3:7Z</time></trkpt>
<trkpt lat="48.416517" lon="2.65927"><ele></ele><time>2021-3-5T20:3:10Z</time></trkpt>
<trkpt lat="48.416716" lon="2.659085"><ele></ele><time>2021-3-5T20:3:13Z</time></trkpt>
<trkpt lat="48.416827" lon="2.658935"><ele></ele><time>2021-3-5T20:3:16Z</time></trkpt>
<trkpt lat="48.416974" lon="2.658806"><ele></ele><time>2021-3-5T20:3:19Z</time></trkpt>
<trkpt lat="48.417064" lon="2.658662"><ele></ele><time>2021-3-5T20:3:22Z</time></trkpt>
<trkpt lat="48.417194" lon="2.658553"><ele></ele><time>2021-3-5T20:3:25Z</time></trkpt>
<trkpt lat="48.41731" lon="2.658403"><ele></ele><time>2021-3-5T20:3:28Z</time></trkpt>
<trkpt lat="48.417406" lon="2.658241"><ele></ele><time>2021-3-5T20:3:31Z</time></trkpt>
<trkpt lat="48.417501" lon="2.658052"><ele></ele><time>2021-3-5T20:3:34Z</time></trkpt>
<trkpt lat="48.417586" lon="2.657935"><ele></ele><time>2021-3-5T20:3:37Z</time></trkpt>
<trkpt lat="48.417649" lon="2.657791"><ele></ele><time>2021-3-5T20:3:40Z</time></trkpt>
<trkpt lat="48.417726" lon="2.657631"><ele></ele><time>2021-3-5T20:3:43Z</time></trkpt>
<trkpt lat="48.417803" lon="2.657481"><ele></ele><time>2021-3-5T20:3:46Z</time></trkpt>
<trkpt lat="48.417874" lon="2.657361"><ele></ele><time>2021-3-5T20:3:49Z</time></trkpt>
<trkpt lat="48.417899" lon="2.657252"><ele></ele><time>2021-3-5T20:3:52Z</time></trkpt>
<trkpt lat="48.417953" lon="2.657169"><ele></ele><time>2021-3-5T20:3:55Z</time></trkpt>
<trkpt lat="48.41808" lon="2.657087"><ele></ele><time>2021-3-5T20:3:58Z</time></trkpt>
<trkpt lat="48.418196" lon="2.656999"><ele></ele><time>2021-3-5T20:4:1Z</time></trkpt>
<trkpt lat="48.418286" lon="2.656934"><ele></ele><time>2021-3-5T20:4:4Z</time></trkpt>
<trkpt lat="48.418374" lon="2.656878"><ele></ele><time>2021-3-5T20:4:7Z</time></trkpt>
<trkpt lat="48.418439" lon="2.656824"><ele></ele><time>2021-3-5T20:4:10Z</time></trkpt>
<trkpt lat="48.418547" lon="2.656736"><ele></ele><time>2021-3-5T20:4:13Z</time></trkpt>
<trkpt lat="48.418673" lon="2.656635"><ele></ele><time>2021-3-5T20:4:16Z</time></trkpt>
<trkpt lat="48.418805" lon="2.656545"><ele></ele><time>2021-3-5T20:4:19Z</time></trkpt>
<trkpt lat="48.418924" lon="2.656459"><ele></ele><time>2021-3-5T20:4:22Z</time></trkpt>
<trkpt lat="48.41909" lon="2.656304"><ele></ele><time>2021-3-5T20:4:25Z</time></trkpt>
<trkpt lat="48.419219" lon="2.656221"><ele></ele><time>2021-3-5T20:4:28Z</time></trkpt>
<trkpt lat="48.419353" lon="2.656057"><ele></ele><time>2021-3-5T20:4:31Z</time></trkpt>
<trkpt lat="48.4195" lon="2.65589"><ele></ele><time>2021-3-5T20:4:34Z</time></trkpt>
<trkpt lat="48.419642" lon="2.655675"><ele></ele><time>2021-3-5T20:4:37Z</time></trkpt>
<trkpt lat="48.41971" lon="2.655465"><ele></ele><time>2021-3-5T20:4:40Z</time></trkpt>
<trkpt lat="48.419842" lon="2.655256"><ele></ele><time>2021-3-5T20:4:43Z</time></trkpt>
<trkpt lat="48.419984" lon="2.65511"><ele></ele><time>2021-3-5T20:4:46Z</time></trkpt>
<trkpt lat="48.420108" lon="2.65507"><ele></ele><time>2021-3-5T20:4:49Z</time></trkpt>
<trkpt lat="48.420274" lon="2.65481"><ele></ele><time>2021-3-5T20:4:52Z</time></trkpt>
<trkpt lat="48.420412" lon="2.654566"><ele></ele><time>2021-3-5T20:4:55Z</time></trkpt>
<trkpt lat="48.420495" lon="2.654353"><ele></ele><time>2021-3-5T20:4:58Z</time></trkpt>
<trkpt lat="48.420672" lon="2.654198"><ele></ele><time>2021-3-5T20:5:1Z</time></trkpt>
<trkpt lat="48.420808" lon="2.654012"><ele></ele><time>2021-3-5T20:5:4Z</time></trkpt>
<trkpt lat="48.420917" lon="2.653849"><ele></ele><time>2021-3-5T20:5:7Z</time></trkpt>
<trkpt lat="48.420979" lon="2.653676"><ele></ele><time>2021-3-5T20:5:10Z</time></trkpt>
<trkpt lat="48.42111" lon="2.653535"><ele></ele><time>2021-3-5T20:5:13Z</time></trkpt>
<trkpt lat="48.421256" lon="2.653452"><ele></ele><time>2021-3-5T20:5:16Z</time></trkpt>
<trkpt lat="48.421345" lon="2.653316"><ele></ele><time>2021-3-5T20:5:19Z</time></trkpt>
<trkpt lat="48.421442" lon="2.65319"><ele></ele><time>2021-3-5T20:5:22Z</time></trkpt>
<trkpt lat="48.421504" lon="2.653036"><ele></ele><time>2021-3-5T20:5:25Z</time></trkpt>
<trkpt lat="48.421564" lon="2.652904"><ele></ele><time>2021-3-5T20:5:28Z</time></trkpt>
<trkpt lat="48.421628" lon="2.65277"><ele></ele><time>2021-3-5T20:5:31Z</time></trkpt>
<trkpt lat="48.421684" lon="2.652629"><ele></ele><time>2021-3-5T20:5:34Z</time></trkpt>
<trkpt lat="48.42172" lon="2.652529"><ele></ele><time>2021-3-5T20:5:37Z</time></trkpt>
<trkpt lat="48.421702" lon="2.652486"><ele></ele><time>2021-3-5T20:5:40Z</time></trkpt>
<trkpt lat="48.421642" lon="2.652548"><ele></ele><time>2021-3-5T20:5:43Z</time></trkpt>
<trkpt lat="48.421568" lon="2.652609"><ele></ele><time>2021-3-5T20:5:46Z</time></trkpt>
<trkpt lat="48.421515" lon="2.652486"><ele></ele><time>2021-3-5T20:5:49Z</time></trkpt>
<trkpt lat="48.421532" lon="2.652299"><ele></ele><time>2021-3-5T20:5:52Z</time></trkpt>
<trkpt lat="48.421521" lon="2.652203"><ele></ele><time>2021-3-5T20:5:55Z</time></trkpt>
<trkpt lat="48.421469" lon="2.652099"><ele></ele><time>2021-3-5T20:5:58Z</time></trkpt>
<trkpt lat="48.421433" lon="2.651913"><ele></ele><time>2021-3-5T20:6:1Z</time></trkpt>
<trkpt lat="48.421421" lon="2.651743"><ele></ele><time>2021-3-5T20:6:4Z</time></trkpt>
<trkpt lat="48.421386" lon="2.651522"><ele></ele><time>2021-3-5T20:6:7Z</time></trkpt>
<trkpt lat="48.421409" lon="2.651368"><ele></ele><time>2021-3-5T20:6:10Z</time></trkpt>
<trkpt lat="48.421415" lon="2.651285"><ele></ele><time>2021-3-5T20:6:13Z</time></trkpt>
<trkpt lat="48.421428" lon="2.65117"><ele></ele><time>2021-3-5T20:6:16Z</time></trkpt>
<trkpt lat="48.42147" lon="2.651047"><ele></ele><time>2021-3-5T20:6:19Z</time></trkpt>
<trkpt lat="48.421537" lon="2.650947"><ele></ele><time>2021-3-5T20:6:22Z</time></trkpt>
<trkpt lat="48.421609" lon="2.65074"><ele></ele><time>2021-3-5T20:6:25Z</time></trkpt>
<trkpt lat="48.421707" lon="2.65055"><ele></ele><time>2021-3-5T20:6:28Z</time></trkpt>
<trkpt lat="48.421873" lon="2.650274"><ele></ele><time>2021-3-5T20:6:31Z</time></trkpt>
<trkpt lat="48.422017" lon="2.650002"><ele></ele><time>2021-3-5T20:6:34Z</time></trkpt>
<trkpt lat="48.422107" lon="2.649826"><ele></ele><time>2021-3-5T20:6:37Z</time></trkpt>
<trkpt lat="48.42219" lon="2.649699"><ele></ele><time>2021-3-5T20:6:40Z</time></trkpt>
<trkpt lat="48.422231" lon="2.64952"><ele></ele><time>2021-3-5T20:6:43Z</time></trkpt>
<trkpt lat="48.422269" lon="2.649444"><ele></ele><time>2021-3-5T20:6:46Z</time></trkpt>
<trkpt lat="48.422323" lon="2.649349"><ele></ele><time>2021-3-5T20:6:49Z</time></trkpt>
<trkpt lat="48.422374" lon="2.6493"><ele></ele><time>2021-3-5T20:6:52Z</time></trkpt>
<trkpt lat="48.422428" lon="2.649205"><ele></ele><time>2021-3-5T20:6:55Z</time></trkpt>
<trkpt lat="48.422497" lon="2.649095"><ele></ele><time>2021-3-5T20:6:58Z</time></trkpt>
<trkpt lat="48.422547" lon="2.648979"><ele></ele><time>2021-3-5T20:7:1Z</time></trkpt>
<trkpt lat="48.422625" lon="2.648912"><ele></ele><time>2021-3-5T20:7:4Z</time></trkpt>
<trkpt lat="48.422725" lon="2.64883"><ele></ele><time>2021-3-5T20:7:7Z</time></trkpt>
<trkpt lat="48.422841" lon="2.648768"><ele></ele><time>2021-3-5T20:7:10Z</time></trkpt>
<trkpt lat="48.422962" lon="2.648715"><ele></ele><time>2021-3-5T20:7:13Z</time></trkpt>
<trkpt lat="48.423059" lon="2.648706"><ele></ele><time>2021-3-5T20:7:16Z</time></trkpt>
<trkpt lat="48.423158" lon="2.648661"><ele></ele><time>2021-3-5T20:7:19Z</time></trkpt>
<trkpt lat="48.42323" lon="2.648561"><ele></ele><time>2021-3-5T20:7:22Z</time></trkpt>
<trkpt lat="48.423326" lon="2.648484"><ele></ele><time>2021-3-5T20:7:25Z</time></trkpt>
<trkpt lat="48.423551" lon="2.648471"><ele></ele><time>2021-3-5T20:7:28Z</time></trkpt>
<trkpt lat="48.423673" lon="2.648408"><ele></ele><time>2021-3-5T20:7:31Z</time></trkpt>
<trkpt lat="48.423809" lon="2.648354"><ele></ele><time>2021-3-5T20:7:34Z</time></trkpt>
<trkpt lat="48.423912" lon="2.648346"><ele></ele><time>2021-3-5T20:7:37Z</time></trkpt>
<trkpt lat="48.424019" lon="2.648371"><ele></ele><time>2021-3-5T20:7:40Z</time></trkpt>
<trkpt lat="48.42411" lon="2.648383"><ele></ele><time>2021-3-5T20:7:43Z</time></trkpt>
<trkpt lat="48.424248" lon="2.648358"><ele></ele><time>2021-3-5T20:7:46Z</time></trkpt>
<trkpt lat="48.424391" lon="2.648403"><ele></ele><time>2021-3-5T20:7:49Z</time></trkpt>
<trkpt lat="48.424508" lon="2.648375"><ele></ele><time>2021-3-5T20:7:52Z</time></trkpt>
<trkpt lat="48.424585" lon="2.648218"><ele></ele><time>2021-3-5T20:7:55Z</time></trkpt>
<trkpt lat="48.42472" lon="2.648069"><ele></ele><time>2021-3-5T20:7:58Z</time></trkpt>
<trkpt lat="48.424772" lon="2.647903"><ele></ele><time>2021-3-5T20:8:1Z</time></trkpt>
<trkpt lat="48.424842" lon="2.647756"><ele></ele><time>2021-3-5T20:8:4Z</time></trkpt>
<trkpt lat="48.424882" lon="2.647673"><ele></ele><time>2021-3-5T20:8:7Z</time></trkpt>
<trkpt lat="48.425005" lon="2.647669"><ele></ele><time>2021-3-5T20:8:10Z</time></trkpt>
<trkpt lat="48.425055" lon="2.647701"><ele></ele><time>2021-3-5T20:8:13Z</time></trkpt>
<trkpt lat="48.425068" lon="2.647696"><ele></ele><time>2021-3-5T20:8:16Z</time></trkpt>
<trkpt lat="48.425075" lon="2.64768"><ele></ele><time>2021-3-5T20:8:19Z</time></trkpt>
<trkpt lat="48.425095" lon="2.647647"><ele></ele><time>2021-3-5T20:8:22Z</time></trkpt>
<trkpt lat="48.425143" lon="2.647579"><ele></ele><time>2021-3-5T20:8:25Z</time></trkpt>
<trkpt lat="48.425239" lon="2.647557"><ele></ele><time>2021-3-5T20:8:28Z</time></trkpt>
<trkpt lat="48.425299" lon="2.647539"><ele></ele><time>2021-3-5T20:8:31Z</time></trkpt>
<trkpt lat="48.425394" lon="2.647553"><ele></ele><time>2021-3-5T20:8:34Z</time></trkpt>
<trkpt lat="48.425445" lon="2.647555"><ele></ele><time>2021-3-5T20:8:37Z</time></trkpt>
<trkpt lat="48.425496" lon="2.64755"><ele></ele><time>2021-3-5T20:8:40Z</time></trkpt>
<trkpt lat="48.425523" lon="2.647546"><ele></ele><time>2021-3-5T20:8:43Z</time></trkpt>
<trkpt lat="48.425562" lon="2.647548"><ele></ele><time>2021-3-5T20:8:46Z</time></trkpt>
<trkpt lat="48.425603" lon="2.647556"><ele></ele><time>2021-3-5T20:8:49Z</time></trkpt>
<trkpt lat="48.425638" lon="2.647506"><ele></ele><time>2021-3-5T20:8:52Z</time></trkpt>
<trkpt lat="48.425728" lon="2.647458"><ele></ele><time>2021-3-5T20:8:55Z</time></trkpt>
<trkpt lat="48.425808" lon="2.647368"><ele></ele><time>2021-3-5T20:8:58Z</time></trkpt>
<trkpt lat="48.42592" lon="2.64729"><ele></ele><time>2021-3-5T20:9:1Z</time></trkpt>
<trkpt lat="48.426006" lon="2.647183"><ele></ele><time>2021-3-5T20:9:4Z</time></trkpt>
<trkpt lat="48.426056" lon="2.647135"><ele></ele><time>2021-3-5T20:9:7Z</time></trkpt>
<trkpt lat="48.4261" lon="2.647128"><ele></ele><time>2021-3-5T20:9:10Z</time></trkpt>
<trkpt lat="48.426151" lon="2.647122"><ele></ele><time>2021-3-5T20:9:13Z</time></trkpt>
<trkpt lat="48.426201" lon="2.647068"><ele></ele><time>2021-3-5T20:9:16Z</time></trkpt>
<trkpt lat="48.42626" lon="2.647035"><ele></ele><time>2021-3-5T20:9:19Z</time></trkpt>
<trkpt lat="48.426296" lon="2.647014"><ele></ele><time>2021-3-5T20:9:22Z</time></trkpt>
<trkpt lat="48.426335" lon="2.646968"><ele></ele><time>2021-3-5T20:9:25Z</time></trkpt>
<trkpt lat="48.42636" lon="2.646918"><ele></ele><time>2021-3-5T20:9:28Z</time></trkpt>
<trkpt lat="48.426388" lon="2.646899"><ele></ele><time>2021-3-5T20:9:31Z</time></trkpt>
<trkpt lat="48.42642" lon="2.646881"><ele></ele><time>2021-3-5T20:9:34Z</time></trkpt>
<trkpt lat="48.426456" lon="2.64687"><ele></ele><time>2021-3-5T20:9:37Z</time></trkpt>
<trkpt lat="48.426501" lon="2.646845"><ele></ele><time>2021-3-5T20:9:40Z</time></trkpt>
<trkpt lat="48.426535" lon="2.646825"><ele></ele><time>2021-3-5T20:9:43Z</time></trkpt>
<trkpt lat="48.426578" lon="2.646793"><ele></ele><time>2021-3-5T20:9:46Z</time></trkpt>
<trkpt lat="48.426623" lon="2.646774"><ele></ele><time>2021-3-5T20:9:49Z</time></trkpt>
<trkpt lat="48.42665" lon="2.646763"><ele></ele><time>2021-3-5T20:9:52Z</time></trkpt>
<trkpt lat="48.426668" lon="2.646749"><ele></ele><time>2021-3-5T20:9:55Z</time></trkpt>
<trkpt lat="48.426687" lon="2.64671"><ele></ele><time>2021-3-5T20:9:58Z</time></trkpt>
<trkpt lat="48.426703" lon="2.646687"><ele></ele><time>2021-3-5T20:10:1Z</time></trkpt>
<trkpt lat="48.426738" lon="2.646684"><ele></ele><time>2021-3-5T20:10:4Z</time></trkpt>
<trkpt lat="48.426779" lon="2.646665"><ele></ele><time>2021-3-5T20:10:7Z</time></trkpt>
<trkpt lat="48.42681" lon="2.646622"><ele></ele><time>2021-3-5T20:10:10Z</time></trkpt>
<trkpt lat="48.42683" lon="2.64659"><ele></ele><time>2021-3-5T20:10:13Z</time></trkpt>
<trkpt lat="48.426869" lon="2.646554"><ele></ele><time>2021-3-5T20:10:16Z</time></trkpt>
<trkpt lat="48.426906" lon="2.646536"><ele></ele><time>2021-3-5T20:10:19Z</time></trkpt>
<trkpt lat="48.426942" lon="2.646521"><ele></ele><time>2021-3-5T20:10:22Z</time></trkpt>
<trkpt lat="48.426989" lon="2.646483"><ele></ele><time>2021-3-5T20:10:25Z</time></trkpt>
<trkpt lat="48.427018" lon="2.646452"><ele></ele><time>2021-3-5T20:10:28Z</time></trkpt>
<trkpt lat="48.427064" lon="2.646427"><ele></ele><time>2021-3-5T20:10:31Z</time></trkpt>
<trkpt lat="48.427099" lon="2.646405"><ele></ele><time>2021-3-5T20:10:34Z</time></trkpt>
<trkpt lat="48.427133" lon="2.646365"><ele></ele><time>2021-3-5T20:10:37Z</time></trkpt>
<trkpt lat="48.427162" lon="2.646343"><ele></ele><time>2021-3-5T20:10:40Z</time></trkpt>
<trkpt lat="48.427194" lon="2.646313"><ele></ele><time>2021-3-5T20:10:43Z</time></trkpt>
<trkpt lat="48.427247" lon="2.646272"><ele></ele><time>2021-3-5T20:10:46Z</time></trkpt>
<trkpt lat="48.427288" lon="2.646257"><ele></ele><time>2021-3-5T20:10:49Z</time></trkpt>
<trkpt lat="48.427348" lon="2.646211"><ele></ele><time>2021-3-5T20:10:52Z</time></trkpt>
<trkpt lat="48.427434" lon="2.64615"><ele></ele><time>2021-3-5T20:10:55Z</time></trkpt>
<trkpt lat="48.427524" lon="2.646057"><ele></ele><time>2021-3-5T20:10:58Z</time></trkpt>
<trkpt lat="48.427602" lon="2.645924"><ele></ele><time>2021-3-5T20:11:1Z</time></trkpt>
<trkpt lat="48.427677" lon="2.645789"><ele></ele><time>2021-3-5T20:11:4Z</time></trkpt>
<trkpt lat="48.427766" lon="2.645583"><ele></ele><time>2021-3-5T20:11:7Z</time></trkpt>
<trkpt lat="48.427843" lon="2.6454"><ele></ele><time>2021-3-5T20:11:10Z</time></trkpt>
<trkpt lat="48.427911" lon="2.645239"><ele></ele><time>2021-3-5T20:11:13Z</time></trkpt>
<trkpt lat="48.427953" lon="2.645122"><ele></ele><time>2021-3-5T20:11:16Z</time></trkpt>
<trkpt lat="48.427998" lon="2.645022"><ele></ele><time>2021-3-5T20:11:19Z</time></trkpt>
<trkpt lat="48.428082" lon="2.644923"><ele></ele><time>2021-3-5T20:11:22Z</time></trkpt>
<trkpt lat="48.428172" lon="2.644724"><ele></ele><time>2021-3-5T20:11:25Z</time></trkpt>
<trkpt lat="48.428282" lon="2.644497"><ele></ele><time>2021-3-5T20:11:28Z</time></trkpt>
<trkpt lat="48.428411" lon="2.644243"><ele></ele><time>2021-3-5T20:11:31Z</time></trkpt>
<trkpt lat="48.428509" lon="2.643985"><ele></ele><time>2021-3-5T20:11:34Z</time></trkpt>
<trkpt lat="48.42861" lon="2.643704"><ele></ele><time>2021-3-5T20:11:37Z</time></trkpt>
<trkpt lat="48.428714" lon="2.643515"><ele></ele><time>2021-3-5T20:11:40Z</time></trkpt>
<trkpt lat="48.428765" lon="2.643462"><ele></ele><time>2021-3-5T20:11:43Z</time></trkpt>
<trkpt lat="48.428815" lon="2.643408"><ele></ele><time>2021-3-5T20:11:46Z</time></trkpt>
<trkpt lat="48.428854" lon="2.643513"><ele></ele><time>2021-3-5T20:11:49Z</time></trkpt>
<trkpt lat="48.428866" lon="2.643676"><ele></ele><time>2021-3-5T20:11:52Z</time></trkpt>
<trkpt lat="48.428872" lon="2.643917"><ele></ele><time>2021-3-5T20:11:55Z</time></trkpt>
<trkpt lat="48.428874" lon="2.644225"><ele></ele><time>2021-3-5T20:11:58Z</time></trkpt>
<trkpt lat="48.428881" lon="2.644448"><ele></ele><time>2021-3-5T20:12:1Z</time></trkpt>
<trkpt lat="48.428897" lon="2.644615"><ele></ele><time>2021-3-5T20:12:4Z</time></trkpt>
<trkpt lat="48.428886" lon="2.644811"><ele></ele><time>2021-3-5T20:12:7Z</time></trkpt>
<trkpt lat="48.428914" lon="2.645024"><ele></ele><time>2021-3-5T20:12:10Z</time></trkpt>
<trkpt lat="48.428905" lon="2.645141"><ele></ele><time>2021-3-5T20:12:13Z</time></trkpt>
<trkpt lat="48.428976" lon="2.645345"><ele></ele><time>2021-3-5T20:12:16Z</time></trkpt>
<trkpt lat="48.429035" lon="2.645552"><ele></ele><time>2021-3-5T20:12:19Z</time></trkpt>
<trkpt lat="48.429129" lon="2.645769"><ele></ele><time>2021-3-5T20:12:22Z</time></trkpt>
<trkpt lat="48.429192" lon="2.645936"><ele></ele><time>2021-3-5T20:12:25Z</time></trkpt>
<trkpt lat="48.429275" lon="2.646043"><ele></ele><time>2021-3-5T20:12:28Z</time></trkpt>
<trkpt lat="48.429383" lon="2.646089"><ele></ele><time>2021-3-5T20:12:31Z</time></trkpt>
<trkpt lat="48.429483" lon="2.646119"><ele></ele><time>2021-3-5T20:12:34Z</time></trkpt>
<trkpt lat="48.429599" lon="2.646209"><ele></ele><time>2021-3-5T20:12:37Z</time></trkpt>
<trkpt lat="48.429687" lon="2.646346"><ele></ele><time>2021-3-5T20:12:40Z</time></trkpt>
<trkpt lat="48.429794" lon="2.646444"><ele></ele><time>2021-3-5T20:12:43Z</time></trkpt>
<trkpt lat="48.429879" lon="2.646489"><ele></ele><time>2021-3-5T20:12:46Z</time></trkpt>
<trkpt lat="48.429947" lon="2.646507"><ele></ele><time>2021-3-5T20:12:49Z</time></trkpt>
<trkpt lat="48.43002" lon="2.646507"><ele></ele><time>2021-3-5T20:12:52Z</time></trkpt>
<trkpt lat="48.430089" lon="2.646587"><ele></ele><time>2021-3-5T20:12:55Z</time></trkpt>
<trkpt lat="48.430165" lon="2.646725"><ele></ele><time>2021-3-5T20:12:58Z</time></trkpt>
<trkpt lat="48.430235" lon="2.646852"><ele></ele><time>2021-3-5T20:13:1Z</time></trkpt>
<trkpt lat="48.43029" lon="2.646952"><ele></ele><time>2021-3-5T20:13:4Z</time></trkpt>
<trkpt lat="48.43037" lon="2.647103"><ele></ele><time>2021-3-5T20:13:7Z</time></trkpt>
<trkpt lat="48.430455" lon="2.647266"><ele></ele><time>2021-3-5T20:13:10Z</time></trkpt>
<trkpt lat="48.430649" lon="2.647509"><ele></ele><time>2021-3-5T20:13:13Z</time></trkpt>
<trkpt lat="48.430736" lon="2.647677"><ele></ele><time>2021-3-5T20:13:16Z</time></trkpt>
<trkpt lat="48.430784" lon="2.647899"><ele></ele><time>2021-3-5T20:13:19Z</time></trkpt>
<trkpt lat="48.430825" lon="2.648075"><ele></ele><time>2021-3-5T20:13:22Z</time></trkpt>
<trkpt lat="48.430876" lon="2.648151"><ele></ele><time>2021-3-5T20:13:25Z</time></trkpt>
<trkpt lat="48.430948" lon="2.648179"><ele></ele><time>2021-3-5T20:13:28Z</time></trkpt>
<trkpt lat="48.431019" lon="2.64818"><ele></ele><time>2021-3-5T20:13:31Z</time></trkpt>
<trkpt lat="48.43107" lon="2.648123"><ele></ele><time>2021-3-5T20:13:34Z</time></trkpt>
<trkpt lat="48.4311" lon="2.648088"><ele></ele><time>2021-3-5T20:13:37Z</time></trkpt>
<trkpt lat="48.431111" lon="2.64808"><ele></ele><time>2021-3-5T20:13:40Z</time></trkpt>
<trkpt lat="48.43112" lon="2.648069"><ele></ele><time>2021-3-5T20:13:43Z</time></trkpt>
<trkpt lat="48.431126" lon="2.648065"><ele></ele><time>2021-3-5T20:13:46Z</time></trkpt>
<trkpt lat="48.431136" lon="2.648073"><ele></ele><time>2021-3-5T20:13:49Z</time></trkpt>
<trkpt lat="48.43114" lon="2.648078"><ele></ele><time>2021-3-5T20:13:52Z</time></trkpt>
<trkpt lat="48.431144" lon="2.648084"><ele></ele><time>2021-3-5T20:13:55Z</time></trkpt>
<trkpt lat="48.431152" lon="2.648069"><ele></ele><time>2021-3-5T20:13:58Z</time></trkpt>
<trkpt lat="48.431157" lon="2.648054"><ele></ele><time>2021-3-5T20:14:1Z</time></trkpt>
<trkpt lat="48.431197" lon="2.648013"><ele></ele><time>2021-3-5T20:14:4Z</time></trkpt>
<trkpt lat="48.431288" lon="2.647974"><ele></ele><time>2021-3-5T20:14:7Z</time></trkpt>
<trkpt lat="48.4314" lon="2.647912"><ele></ele><time>2021-3-5T20:14:10Z</time></trkpt>
<trkpt lat="48.431499" lon="2.647863"><ele></ele><time>2021-3-5T20:14:13Z</time></trkpt>
<trkpt lat="48.431556" lon="2.647803"><ele></ele><time>2021-3-5T20:14:16Z</time></trkpt>
<trkpt lat="48.431627" lon="2.647718"><ele></ele><time>2021-3-5T20:14:19Z</time></trkpt>
<trkpt lat="48.431675" lon="2.647684"><ele></ele><time>2021-3-5T20:14:22Z</time></trkpt>
<trkpt lat="48.431745" lon="2.647586"><ele></ele><time>2021-3-5T20:14:25Z</time></trkpt>
<trkpt lat="48.431785" lon="2.647483"><ele></ele><time>2021-3-5T20:14:28Z</time></trkpt>
<trkpt lat="48.431821" lon="2.647387"><ele></ele><time>2021-3-5T20:14:31Z</time></trkpt>
<trkpt lat="48.431844" lon="2.647312"><ele></ele><time>2021-3-5T20:14:34Z</time></trkpt>
<trkpt lat="48.431872" lon="2.647231"><ele></ele><time>2021-3-5T20:14:37Z</time></trkpt>
<trkpt lat="48.431875" lon="2.647216"><ele></ele><time>2021-3-5T20:14:40Z</time></trkpt>
<trkpt lat="48.431895" lon="2.647152"><ele></ele><time>2021-3-5T20:14:43Z</time></trkpt>
<trkpt lat="48.431956" lon="2.647045"><ele></ele><time>2021-3-5T20:14:46Z</time></trkpt>
<trkpt lat="48.432053" lon="2.646914"><ele></ele><time>2021-3-5T20:14:49Z</time></trkpt>
<trkpt lat="48.43211" lon="2.646821"><ele></ele><time>2021-3-5T20:14:52Z</time></trkpt>
<trkpt lat="48.432201" lon="2.646687"><ele></ele><time>2021-3-5T20:14:55Z</time></trkpt>
<trkpt lat="48.43224" lon="2.646552"><ele></ele><time>2021-3-5T20:14:58Z</time></trkpt>
<trkpt lat="48.432282" lon="2.646373"><ele></ele><time>2021-3-5T20:15:1Z</time></trkpt>
<trkpt lat="48.432306" lon="2.646235"><ele></ele><time>2021-3-5T20:15:4Z</time></trkpt>
<trkpt lat="48.432347" lon="2.645973"><ele></ele><time>2021-3-5T20:15:7Z</time></trkpt>
<trkpt lat="48.432362" lon="2.645817"><ele></ele><time>2021-3-5T20:15:10Z</time></trkpt>
<trkpt lat="48.432369" lon="2.645711"><ele></ele><time>2021-3-5T20:15:13Z</time></trkpt>
<trkpt lat="48.432419" lon="2.645552"><ele></ele><time>2021-3-5T20:15:16Z</time></trkpt>
<trkpt lat="48.432482" lon="2.645371"><ele></ele><time>2021-3-5T20:15:19Z</time></trkpt>
<trkpt lat="48.432577" lon="2.645254"><ele></ele><time>2021-3-5T20:15:22Z</time></trkpt>
<trkpt lat="48.432668" lon="2.645174"><ele></ele><time>2021-3-5T20:15:25Z</time></trkpt>
<trkpt lat="48.432737" lon="2.645073"><ele></ele><time>2021-3-5T20:15:28Z</time></trkpt>
<trkpt lat="48.432825" lon="2.644981"><ele></ele><time>2021-3-5T20:15:31Z</time></trkpt>
<trkpt lat="48.432911" lon="2.644917"><ele></ele><time>2021-3-5T20:15:34Z</time></trkpt>
<trkpt lat="48.432997" lon="2.644866"><ele></ele><time>2021-3-5T20:15:37Z</time></trkpt>
<trkpt lat="48.433079" lon="2.644803"><ele></ele><time>2021-3-5T20:15:40Z</time></trkpt>
<trkpt lat="48.433144" lon="2.644723"><ele></ele><time>2021-3-5T20:15:43Z</time></trkpt>
<trkpt lat="48.433256" lon="2.644645"><ele></ele><time>2021-3-5T20:15:46Z</time></trkpt>
<trkpt lat="48.433375" lon="2.644558"><ele></ele><time>2021-3-5T20:15:49Z</time></trkpt>
<trkpt lat="48.433544" lon="2.644353"><ele></ele><time>2021-3-5T20:15:52Z</time></trkpt>
<trkpt lat="48.433661" lon="2.644195"><ele></ele><time>2021-3-5T20:15:55Z</time></trkpt>
<trkpt lat="48.433677" lon="2.644021"><ele></ele><time>2021-3-5T20:15:58Z</time></trkpt>
<trkpt lat="48.433659" lon="2.643843"><ele></ele><time>2021-3-5T20:16:1Z</time></trkpt>
<trkpt lat="48.433676" lon="2.6436"><ele></ele><time>2021-3-5T20:16:4Z</time></trkpt>
<trkpt lat="48.433676" lon="2.643385"><ele></ele><time>2021-3-5T20:16:7Z</time></trkpt>
<trkpt lat="48.433695" lon="2.643237"><ele></ele><time>2021-3-5T20:16:10Z</time></trkpt>
<trkpt lat="48.433703" lon="2.643132"><ele></ele><time>2021-3-5T20:16:13Z</time></trkpt>
<trkpt lat="48.433666" lon="2.642968"><ele></ele><time>2021-3-5T20:16:16Z</time></trkpt>
<trkpt lat="48.433628" lon="2.642774"><ele></ele><time>2021-3-5T20:16:19Z</time></trkpt>
<trkpt lat="48.43366" lon="2.642575"><ele></ele><time>2021-3-5T20:16:22Z</time></trkpt>
<trkpt lat="48.433666" lon="2.642379"><ele></ele><time>2021-3-5T20:16:25Z</time></trkpt>
<trkpt lat="48.433672" lon="2.642248"><ele></ele><time>2021-3-5T20:16:28Z</time></trkpt>
<trkpt lat="48.433675" lon="2.642093"><ele></ele><time>2021-3-5T20:16:31Z</time></trkpt>
<trkpt lat="48.433645" lon="2.641925"><ele></ele><time>2021-3-5T20:16:34Z</time></trkpt>
<trkpt lat="48.433647" lon="2.641808"><ele></ele><time>2021-3-5T20:16:37Z</time></trkpt>
<trkpt lat="48.433646" lon="2.641656"><ele></ele><time>2021-3-5T20:16:40Z</time></trkpt>
<trkpt lat="48.433629" lon="2.641504"><ele></ele><time>2021-3-5T20:16:43Z</time></trkpt>
<trkpt lat="48.433609" lon="2.641374"><ele></ele><time>2021-3-5T20:16:46Z</time></trkpt>
<trkpt lat="48.433577" lon="2.641264"><ele></ele><time>2021-3-5T20:16:49Z</time></trkpt>
<trkpt lat="48.433522" lon="2.641194"><ele></ele><time>2021-3-5T20:16:52Z</time></trkpt>
<trkpt lat="48.433468" lon="2.641122"><ele></ele><time>2021-3-5T20:16:55Z</time></trkpt>
<trkpt lat="48.433438" lon="2.64106"><ele></ele><time>2021-3-5T20:16:58Z</time></trkpt>
<trkpt lat="48.433444" lon="2.641051"><ele></ele><time>2021-3-5T20:17:1Z</time></trkpt>
<trkpt lat="48.433457" lon="2.641043"><ele></ele><time>2021-3-5T20:17:4Z</time></trkpt>
<trkpt lat="48.433479" lon="2.641069"><ele></ele><time>2021-3-5T20:17:7Z</time></trkpt>
<trkpt lat="48.433519" lon="2.641123"><ele></ele><time>2021-3-5T20:17:10Z</time></trkpt>
<trkpt lat="48.433555" lon="2.641185"><ele></ele><time>2021-3-5T20:17:13Z</time></trkpt>
<trkpt lat="48.43359" lon="2.641252"><ele></ele><time>2021-3-5T20:17:16Z</time></trkpt>
<trkpt lat="48.433606" lon="2.641331"><ele></ele><time>2021-3-5T20:17:19Z</time></trkpt>
<trkpt lat="48.433631" lon="2.641451"><ele></ele><time>2021-3-5T20:17:22Z</time></trkpt>
<trkpt lat="48.433674" lon="2.641502"><ele></ele><time>2021-3-5T20:17:25Z</time></trkpt>
<trkpt lat="48.433729" lon="2.641492"><ele></ele><time>2021-3-5T20:17:28Z</time></trkpt>
<trkpt lat="48.433816" lon="2.641497"><ele></ele><time>2021-3-5T20:17:31Z</time></trkpt>
<trkpt lat="48.433897" lon="2.641505"><ele></ele><time>2021-3-5T20:17:34Z</time></trkpt>
<trkpt lat="48.433961" lon="2.641515"><ele></ele><time>2021-3-5T20:17:37Z</time></trkpt>
<trkpt lat="48.434042" lon="2.641526"><ele></ele><time>2021-3-5T20:17:40Z</time></trkpt>
<trkpt lat="48.434086" lon="2.641553"><ele></ele><time>2021-3-5T20:17:43Z</time></trkpt>
<trkpt lat="48.434146" lon="2.641586"><ele></ele><time>2021-3-5T20:17:46Z</time></trkpt>
<trkpt lat="48.434226" lon="2.641579"><ele></ele><time>2021-3-5T20:17:49Z</time></trkpt>
<trkpt lat="48.434288" lon="2.6416"><ele></ele><time>2021-3-5T20:17:52Z</time></trkpt>
<trkpt lat="48.434373" lon="2.641589"><ele></ele><time>2021-3-5T20:17:55Z</time></trkpt>
<trkpt lat="48.43442" lon="2.641565"><ele></ele><time>2021-3-5T20:17:58Z</time></trkpt>
<trkpt lat="48.43449" lon="2.64158"><ele></ele><time>2021-3-5T20:18:1Z</time></trkpt>
<trkpt lat="48.434573" lon="2.641596"><ele></ele><time>2021-3-5T20:18:4Z</time></trkpt>
<trkpt lat="48.434655" lon="2.641628"><ele></ele><time>2021-3-5T20:18:7Z</time></trkpt>
<trkpt lat="48.434744" lon="2.641617"><ele></ele><time>2021-3-5T20:18:10Z</time></trkpt>
<trkpt lat="48.434783" lon="2.641595"><ele></ele><time>2021-3-5T20:18:13Z</time></trkpt>
<trkpt lat="48.43482" lon="2.641573"><ele></ele><time>2021-3-5T20:18:16Z</time></trkpt>
<trkpt lat="48.434872" lon="2.641587"><ele></ele><time>2021-3-5T20:18:19Z</time></trkpt>
<trkpt lat="48.434905" lon="2.641602"><ele></ele><time>2021-3-5T20:18:22Z</time></trkpt>
<trkpt lat="48.434933" lon="2.641632"><ele></ele><time>2021-3-5T20:18:25Z</time></trkpt>
<trkpt lat="48.434948" lon="2.641625"><ele></ele><time>2021-3-5T20:18:28Z</time></trkpt>
<trkpt lat="48.434957" lon="2.641615"><ele></ele><time>2021-3-5T20:18:31Z</time></trkpt>
<trkpt lat="48.43499" lon="2.641586"><ele></ele><time>2021-3-5T20:18:34Z</time></trkpt>
<trkpt lat="48.435008" lon="2.64156"><ele></ele><time>2021-3-5T20:18:37Z</time></trkpt>
<trkpt lat="48.43502" lon="2.641552"><ele></ele><time>2021-3-5T20:18:40Z</time></trkpt>
<trkpt lat="48.435041" lon="2.641554"><ele></ele><time>2021-3-5T20:18:43Z</time></trkpt>
<trkpt lat="48.435077" lon="2.641553"><ele></ele><time>2021-3-5T20:18:46Z</time></trkpt>
<trkpt lat="48.435093" lon="2.641569"><ele></ele><time>2021-3-5T20:18:49Z</time></trkpt>
<trkpt lat="48.435111" lon="2.64158"><ele></ele><time>2021-3-5T20:18:52Z</time></trkpt>
<trkpt lat="48.435137" lon="2.641581"><ele></ele><time>2021-3-5T20:18:55Z</time></trkpt>
<trkpt lat="48.435151" lon="2.641586"><ele></ele><time>2021-3-5T20:18:58Z</time></trkpt>
<trkpt lat="48.43518" lon="2.641618"><ele></ele><time>2021-3-5T20:19:1Z</time></trkpt>
<trkpt lat="48.435191" lon="2.641649"><ele></ele><time>2021-3-5T20:19:4Z</time></trkpt>
<trkpt lat="48.435194" lon="2.641687"><ele></ele><time>2021-3-5T20:19:7Z</time></trkpt>
<trkpt lat="48.435191" lon="2.641723"><ele></ele><time>2021-3-5T20:19:10Z</time></trkpt>
<trkpt lat="48.435213" lon="2.641731"><ele></ele><time>2021-3-5T20:19:13Z</time></trkpt>
<trkpt lat="48.43523" lon="2.6418"><ele></ele><time>2021-3-5T20:19:16Z</time></trkpt>
<trkpt lat="48.435258" lon="2.641901"><ele></ele><time>2021-3-5T20:19:19Z</time></trkpt>
<trkpt lat="48.43532" lon="2.642016"><ele></ele><time>2021-3-5T20:19:22Z</time></trkpt>
<trkpt lat="48.435365" lon="2.642115"><ele></ele><time>2021-3-5T20:19:25Z</time></trkpt>
<trkpt lat="48.435412" lon="2.642254"><ele></ele><time>2021-3-5T20:19:28Z</time></trkpt>
<trkpt lat="48.435426" lon="2.642354"><ele></ele><time>2021-3-5T20:19:31Z</time></trkpt>
<trkpt lat="48.435431" lon="2.642426"><ele></ele><time>2021-3-5T20:19:34Z</time></trkpt>
<trkpt lat="48.435466" lon="2.642497"><ele></ele><time>2021-3-5T20:19:37Z</time></trkpt>
<trkpt lat="48.435464" lon="2.642522"><ele></ele><time>2021-3-5T20:19:40Z</time></trkpt>
<trkpt lat="48.435453" lon="2.642526"><ele></ele><time>2021-3-5T20:19:43Z</time></trkpt>
<trkpt lat="48.435467" lon="2.642545"><ele></ele><time>2021-3-5T20:19:46Z</time></trkpt>
<trkpt lat="48.435503" lon="2.64261"><ele></ele><time>2021-3-5T20:19:49Z</time></trkpt>
<trkpt lat="48.435527" lon="2.642702"><ele></ele><time>2021-3-5T20:19:52Z</time></trkpt>
<trkpt lat="48.435609" lon="2.642751"><ele></ele><time>2021-3-5T20:19:55Z</time></trkpt>
<trkpt lat="48.435662" lon="2.642781"><ele></ele><time>2021-3-5T20:19:58Z</time></trkpt>
<trkpt lat="48.435716" lon="2.642746"><ele></ele><time>2021-3-5T20:20:1Z</time></trkpt>
<trkpt lat="48.43579" lon="2.642811"><ele></ele><time>2021-3-5T20:20:4Z</time></trkpt>
<trkpt lat="48.435849" lon="2.642946"><ele></ele><time>2021-3-5T20:20:7Z</time></trkpt>
<trkpt lat="48.435881" lon="2.643095"><ele></ele><time>2021-3-5T20:20:10Z</time></trkpt>
<trkpt lat="48.435921" lon="2.643178"><ele></ele><time>2021-3-5T20:20:13Z</time></trkpt>
<trkpt lat="48.435985" lon="2.643247"><ele></ele><time>2021-3-5T20:20:16Z</time></trkpt>
<trkpt lat="48.436063" lon="2.643389"><ele></ele><time>2021-3-5T20:20:19Z</time></trkpt>
<trkpt lat="48.43618" lon="2.643653"><ele></ele><time>2021-3-5T20:20:22Z</time></trkpt>
<trkpt lat="48.436245" lon="2.64385"><ele></ele><time>2021-3-5T20:20:25Z</time></trkpt>
<trkpt lat="48.43632" lon="2.643963"><ele></ele><time>2021-3-5T20:20:28Z</time></trkpt>
<trkpt lat="48.436388" lon="2.643905"><ele></ele><time>2021-3-5T20:20:31Z</time></trkpt>
<trkpt lat="48.436457" lon="2.643842"><ele></ele><time>2021-3-5T20:20:34Z</time></trkpt>
<trkpt lat="48.436529" lon="2.643712"><ele></ele><time>2021-3-5T20:20:37Z</time></trkpt>
<trkpt lat="48.436588" lon="2.643609"><ele></ele><time>2021-3-5T20:20:40Z</time></trkpt>
<trkpt lat="48.43668" lon="2.64352"><ele></ele><time>2021-3-5T20:20:43Z</time></trkpt>
<trkpt lat="48.43679" lon="2.643452"><ele></ele><time>2021-3-5T20:20:46Z</time></trkpt>
<trkpt lat="48.437058" lon="2.643501"><ele></ele><time>2021-3-5T20:20:49Z</time></trkpt>
<trkpt lat="48.437179" lon="2.643498"><ele></ele><time>2021-3-5T20:20:52Z</time></trkpt>
<trkpt lat="48.437331" lon="2.64347"><ele></ele><time>2021-3-5T20:20:55Z</time></trkpt>
<trkpt lat="48.437455" lon="2.643455"><ele></ele><time>2021-3-5T20:20:58Z</time></trkpt>
<trkpt lat="48.43758" lon="2.643391"><ele></ele><time>2021-3-5T20:21:1Z</time></trkpt>
<trkpt lat="48.437732" lon="2.643325"><ele></ele><time>2021-3-5T20:21:4Z</time></trkpt>
<trkpt lat="48.437851" lon="2.643251"><ele></ele><time>2021-3-5T20:21:7Z</time></trkpt>
<trkpt lat="48.438023" lon="2.643137"><ele></ele><time>2021-3-5T20:21:10Z</time></trkpt>
<trkpt lat="48.43818" lon="2.643024"><ele></ele><time>2021-3-5T20:21:13Z</time></trkpt>
<trkpt lat="48.43833" lon="2.642899"><ele></ele><time>2021-3-5T20:21:16Z</time></trkpt>
<trkpt lat="48.438424" lon="2.642801"><ele></ele><time>2021-3-5T20:21:19Z</time></trkpt>
<trkpt lat="48.438588" lon="2.642731"><ele></ele><time>2021-3-5T20:21:22Z</time></trkpt>
<trkpt lat="48.438851" lon="2.642677"><ele></ele><time>2021-3-5T20:21:25Z</time></trkpt>
<trkpt lat="48.438898" lon="2.64245"><ele></ele><time>2021-3-5T20:21:28Z</time></trkpt>
<trkpt lat="48.438953" lon="2.642232"><ele></ele><time>2021-3-5T20:21:31Z</time></trkpt>
<trkpt lat="48.438992" lon="2.641964"><ele></ele><time>2021-3-5T20:21:34Z</time></trkpt>
<trkpt lat="48.439026" lon="2.641694"><ele></ele><time>2021-3-5T20:21:37Z</time></trkpt>
<trkpt lat="48.43908" lon="2.641411"><ele></ele><time>2021-3-5T20:21:40Z</time></trkpt>
<trkpt lat="48.439143" lon="2.641166"><ele></ele><time>2021-3-5T20:21:43Z</time></trkpt>
<trkpt lat="48.439175" lon="2.640894"><ele></ele><time>2021-3-5T20:21:46Z</time></trkpt>
<trkpt lat="48.4392" lon="2.640675"><ele></ele><time>2021-3-5T20:21:49Z</time></trkpt>
<trkpt lat="48.439264" lon="2.640436"><ele></ele><time>2021-3-5T20:21:52Z</time></trkpt>
<trkpt lat="48.439306" lon="2.640193"><ele></ele><time>2021-3-5T20:21:55Z</time></trkpt>
<trkpt lat="48.439352" lon="2.639975"><ele></ele><time>2021-3-5T20:21:58Z</time></trkpt>
<trkpt lat="48.439396" lon="2.639766"><ele></ele><time>2021-3-5T20:22:1Z</time></trkpt>
<trkpt lat="48.43944" lon="2.639523"><ele></ele><time>2021-3-5T20:22:4Z</time></trkpt>
<trkpt lat="48.439476" lon="2.639286"><ele></ele><time>2021-3-5T20:22:7Z</time></trkpt>
<trkpt lat="48.439526" lon="2.639046"><ele></ele><time>2021-3-5T20:22:10Z</time></trkpt>
<trkpt lat="48.439589" lon="2.638824"><ele></ele><time>2021-3-5T20:22:13Z</time></trkpt>
<trkpt lat="48.439613" lon="2.63858"><ele></ele><time>2021-3-5T20:22:16Z</time></trkpt>
<trkpt lat="48.439634" lon="2.638329"><ele></ele><time>2021-3-5T20:22:19Z</time></trkpt>
<trkpt lat="48.439655" lon="2.638065"><ele></ele><time>2021-3-5T20:22:22Z</time></trkpt>
<trkpt lat="48.439678" lon="2.637851"><ele></ele><time>2021-3-5T20:22:25Z</time></trkpt>
<trkpt lat="48.439709" lon="2.637614"><ele></ele><time>2021-3-5T20:22:28Z</time></trkpt>
<trkpt lat="48.439754" lon="2.637435"><ele></ele><time>2021-3-5T20:22:31Z</time></trkpt>
<trkpt lat="48.439771" lon="2.637226"><ele></ele><time>2021-3-5T20:22:34Z</time></trkpt>
<trkpt lat="48.439776" lon="2.637021"><ele></ele><time>2021-3-5T20:22:37Z</time></trkpt>
<trkpt lat="48.439787" lon="2.636832"><ele></ele><time>2021-3-5T20:22:40Z</time></trkpt>
<trkpt lat="48.439811" lon="2.636667"><ele></ele><time>2021-3-5T20:22:43Z</time></trkpt>
<trkpt lat="48.439851" lon="2.636495"><ele></ele><time>2021-3-5T20:22:46Z</time></trkpt>
<trkpt lat="48.439872" lon="2.63627"><ele></ele><time>2021-3-5T20:22:49Z</time></trkpt>
<trkpt lat="48.439907" lon="2.636088"><ele></ele><time>2021-3-5T20:22:52Z</time></trkpt>
<trkpt lat="48.439951" lon="2.63592"><ele></ele><time>2021-3-5T20:22:55Z</time></trkpt>
<trkpt lat="48.43996" lon="2.635706"><ele></ele><time>2021-3-5T20:22:58Z</time></trkpt>
<trkpt lat="48.439954" lon="2.635498"><ele></ele><time>2021-3-5T20:23:1Z</time></trkpt>
<trkpt lat="48.439988" lon="2.635298"><ele></ele><time>2021-3-5T20:23:4Z</time></trkpt>
<trkpt lat="48.439992" lon="2.635062"><ele></ele><time>2021-3-5T20:23:7Z</time></trkpt>
<trkpt lat="48.440025" lon="2.634836"><ele></ele><time>2021-3-5T20:23:10Z</time></trkpt>
<trkpt lat="48.440061" lon="2.634632"><ele></ele><time>2021-3-5T20:23:13Z</time></trkpt>
<trkpt lat="48.440092" lon="2.634446"><ele></ele><time>2021-3-5T20:23:16Z</time></trkpt>
<trkpt lat="48.440104" lon="2.634291"><ele></ele><time>2021-3-5T20:23:19Z</time></trkpt>
<trkpt lat="48.440105" lon="2.634122"><ele></ele><time>2021-3-5T20:23:22Z</time></trkpt>
<trkpt lat="48.440146" lon="2.633957"><ele></ele><time>2021-3-5T20:23:25Z</time></trkpt>
<trkpt lat="48.440178" lon="2.633772"><ele></ele><time>2021-3-5T20:23:28Z</time></trkpt>
<trkpt lat="48.440208" lon="2.633557"><ele></ele><time>2021-3-5T20:23:31Z</time></trkpt>
<trkpt lat="48.440217" lon="2.633344"><ele></ele><time>2021-3-5T20:23:34Z</time></trkpt>
<trkpt lat="48.440253" lon="2.633184"><ele></ele><time>2021-3-5T20:23:37Z</time></trkpt>
<trkpt lat="48.440263" lon="2.632898"><ele></ele><time>2021-3-5T20:23:40Z</time></trkpt>
<trkpt lat="48.440286" lon="2.632701"><ele></ele><time>2021-3-5T20:23:43Z</time></trkpt>
<trkpt lat="48.440313" lon="2.632503"><ele></ele><time>2021-3-5T20:23:46Z</time></trkpt>
<trkpt lat="48.440328" lon="2.632304"><ele></ele><time>2021-3-5T20:23:49Z</time></trkpt>
<trkpt lat="48.440311" lon="2.632118"><ele></ele><time>2021-3-5T20:23:52Z</time></trkpt>
<trkpt lat="48.440347" lon="2.632017"><ele></ele><time>2021-3-5T20:23:55Z</time></trkpt>
<trkpt lat="48.440381" lon="2.631849"><ele></ele><time>2021-3-5T20:23:58Z</time></trkpt>
<trkpt lat="48.44042" lon="2.63165"><ele></ele><time>2021-3-5T20:24:1Z</time></trkpt>
<trkpt lat="48.440499" lon="2.631492"><ele></ele><time>2021-3-5T20:24:4Z</time></trkpt>
<trkpt lat="48.440496" lon="2.631246"><ele></ele><time>2021-3-5T20:24:7Z</time></trkpt>
<trkpt lat="48.440527" lon="2.631022"><ele></ele><time>2021-3-5T20:24:10Z</time></trkpt>
<trkpt lat="48.440576" lon="2.630838"><ele></ele><time>2021-3-5T20:24:13Z</time></trkpt>
<trkpt lat="48.440594" lon="2.630653"><ele></ele><time>2021-3-5T20:24:16Z</time></trkpt>
<trkpt lat="48.440607" lon="2.630519"><ele></ele><time>2021-3-5T20:24:19Z</time></trkpt>
<trkpt lat="48.440597" lon="2.630419"><ele></ele><time>2021-3-5T20:24:22Z</time></trkpt>
<trkpt lat="48.440616" lon="2.630197"><ele></ele><time>2021-3-5T20:24:25Z</time></trkpt>
<trkpt lat="48.440639" lon="2.630044"><ele></ele><time>2021-3-5T20:24:28Z</time></trkpt>
<trkpt lat="48.440639" lon="2.629833"><ele></ele><time>2021-3-5T20:24:31Z</time></trkpt>
<trkpt lat="48.440647" lon="2.629674"><ele></ele><time>2021-3-5T20:24:34Z</time></trkpt>
<trkpt lat="48.440629" lon="2.629575"><ele></ele><time>2021-3-5T20:24:37Z</time></trkpt>
<trkpt lat="48.440615" lon="2.629395"><ele></ele><time>2021-3-5T20:24:40Z</time></trkpt>
<trkpt lat="48.440609" lon="2.629294"><ele></ele><time>2021-3-5T20:24:43Z</time></trkpt>
<trkpt lat="48.440593" lon="2.629127"><ele></ele><time>2021-3-5T20:24:46Z</time></trkpt>
<trkpt lat="48.440587" lon="2.628992"><ele></ele><time>2021-3-5T20:24:49Z</time></trkpt>
<trkpt lat="48.440574" lon="2.628834"><ele></ele><time>2021-3-5T20:24:52Z</time></trkpt>
<trkpt lat="48.440561" lon="2.62866"><ele></ele><time>2021-3-5T20:24:55Z</time></trkpt>
<trkpt lat="48.440575" lon="2.628527"><ele></ele><time>2021-3-5T20:24:58Z</time></trkpt>
<trkpt lat="48.440577" lon="2.628434"><ele></ele><time>2021-3-5T20:25:1Z</time></trkpt>
<trkpt lat="48.440575" lon="2.628332"><ele></ele><time>2021-3-5T20:25:4Z</time></trkpt>
<trkpt lat="48.44055" lon="2.628194"><ele></ele><time>2021-3-5T20:25:7Z</time></trkpt>
<trkpt lat="48.440541" lon="2.628035"><ele></ele><time>2021-3-5T20:25:10Z</time></trkpt>
<trkpt lat="48.440508" lon="2.627891"><ele></ele><time>2021-3-5T20:25:13Z</time></trkpt>
<trkpt lat="48.440489" lon="2.627733"><ele></ele><time>2021-3-5T20:25:16Z</time></trkpt>
<trkpt lat="48.440482" lon="2.62756"><ele></ele><time>2021-3-5T20:25:19Z</time></trkpt>
<trkpt lat="48.440493" lon="2.627431"><ele></ele><time>2021-3-5T20:25:22Z</time></trkpt>
<trkpt lat="48.440513" lon="2.62732"><ele></ele><time>2021-3-5T20:25:25Z</time></trkpt>
<trkpt lat="48.440547" lon="2.627225"><ele></ele><time>2021-3-5T20:25:28Z</time></trkpt>
<trkpt lat="48.440552" lon="2.627059"><ele></ele><time>2021-3-5T20:25:31Z</time></trkpt>
<trkpt lat="48.440563" lon="2.626898"><ele></ele><time>2021-3-5T20:25:34Z</time></trkpt>
<trkpt lat="48.440597" lon="2.626719"><ele></ele><time>2021-3-5T20:25:37Z</time></trkpt>
<trkpt lat="48.440626" lon="2.626533"><ele></ele><time>2021-3-5T20:25:40Z</time></trkpt>
<trkpt lat="48.440636" lon="2.626309"><ele></ele><time>2021-3-5T20:25:43Z</time></trkpt>
<trkpt lat="48.440672" lon="2.626117"><ele></ele><time>2021-3-5T20:25:46Z</time></trkpt>
<trkpt lat="48.440703" lon="2.625935"><ele></ele><time>2021-3-5T20:25:49Z</time></trkpt>
<trkpt lat="48.440744" lon="2.625813"><ele></ele><time>2021-3-5T20:25:52Z</time></trkpt>
<trkpt lat="48.440778" lon="2.625696"><ele></ele><time>2021-3-5T20:25:55Z</time></trkpt>
<trkpt lat="48.440804" lon="2.625565"><ele></ele><time>2021-3-5T20:25:58Z</time></trkpt>
<trkpt lat="48.440811" lon="2.625391"><ele></ele><time>2021-3-5T20:26:1Z</time></trkpt>
<trkpt lat="48.440863" lon="2.625239"><ele></ele><time>2021-3-5T20:26:4Z</time></trkpt>
<trkpt lat="48.440899" lon="2.625129"><ele></ele><time>2021-3-5T20:26:7Z</time></trkpt>
<trkpt lat="48.4409" lon="2.625014"><ele></ele><time>2021-3-5T20:26:10Z</time></trkpt>
<trkpt lat="48.440966" lon="2.624853"><ele></ele><time>2021-3-5T20:26:13Z</time></trkpt>
<trkpt lat="48.440996" lon="2.624661"><ele></ele><time>2021-3-5T20:26:16Z</time></trkpt>
<trkpt lat="48.441016" lon="2.624498"><ele></ele><time>2021-3-5T20:26:19Z</time></trkpt>
<trkpt lat="48.441038" lon="2.624325"><ele></ele><time>2021-3-5T20:26:22Z</time></trkpt>
<trkpt lat="48.441052" lon="2.624187"><ele></ele><time>2021-3-5T20:26:25Z</time></trkpt>
<trkpt lat="48.441031" lon="2.624041"><ele></ele><time>2021-3-5T20:26:28Z</time></trkpt>
<trkpt lat="48.441064" lon="2.623933"><ele></ele><time>2021-3-5T20:26:31Z</time></trkpt>
<trkpt lat="48.441072" lon="2.623729"><ele></ele><time>2021-3-5T20:26:34Z</time></trkpt>
<trkpt lat="48.441087" lon="2.623608"><ele></ele><time>2021-3-5T20:26:37Z</time></trkpt>
<trkpt lat="48.441125" lon="2.62348"><ele></ele><time>2021-3-5T20:26:40Z</time></trkpt>
<trkpt lat="48.441134" lon="2.62332"><ele></ele><time>2021-3-5T20:26:43Z</time></trkpt>
<trkpt lat="48.441122" lon="2.623193"><ele></ele><time>2021-3-5T20:26:46Z</time></trkpt>
<trkpt lat="48.441138" lon="2.623006"><ele></ele><time>2021-3-5T20:26:49Z</time></trkpt>
<trkpt lat="48.441215" lon="2.622818"><ele></ele><time>2021-3-5T20:26:52Z</time></trkpt>
<trkpt lat="48.441246" lon="2.622668"><ele></ele><time>2021-3-5T20:26:55Z</time></trkpt>
<trkpt lat="48.441259" lon="2.622541"><ele></ele><time>2021-3-5T20:26:58Z</time></trkpt>
<trkpt lat="48.441279" lon="2.622383"><ele></ele><time>2021-3-5T20:27:1Z</time></trkpt>
<trkpt lat="48.441307" lon="2.622187"><ele></ele><time>2021-3-5T20:27:4Z</time></trkpt>
<trkpt lat="48.441354" lon="2.622079"><ele></ele><time>2021-3-5T20:27:7Z</time></trkpt>
<trkpt lat="48.441409" lon="2.621942"><ele></ele><time>2021-3-5T20:27:10Z</time></trkpt>
<trkpt lat="48.441418" lon="2.621736"><ele></ele><time>2021-3-5T20:27:13Z</time></trkpt>
<trkpt lat="48.441433" lon="2.621581"><ele></ele><time>2021-3-5T20:27:16Z</time></trkpt>
<trkpt lat="48.441473" lon="2.621449"><ele></ele><time>2021-3-5T20:27:19Z</time></trkpt>
<trkpt lat="48.441495" lon="2.621311"><ele></ele><time>2021-3-5T20:27:22Z</time></trkpt>
<trkpt lat="48.44154" lon="2.621168"><ele></ele><time>2021-3-5T20:27:25Z</time></trkpt>
<trkpt lat="48.441561" lon="2.621004"><ele></ele><time>2021-3-5T20:27:28Z</time></trkpt>
<trkpt lat="48.441602" lon="2.620833"><ele></ele><time>2021-3-5T20:27:31Z</time></trkpt>
<trkpt lat="48.441611" lon="2.620667"><ele></ele><time>2021-3-5T20:27:34Z</time></trkpt>
<trkpt lat="48.441638" lon="2.62049"><ele></ele><time>2021-3-5T20:27:37Z</time></trkpt>
<trkpt lat="48.441684" lon="2.620415"><ele></ele><time>2021-3-5T20:27:40Z</time></trkpt>
<trkpt lat="48.441697" lon="2.620266"><ele></ele><time>2021-3-5T20:27:43Z</time></trkpt>
<trkpt lat="48.441704" lon="2.620119"><ele></ele><time>2021-3-5T20:27:46Z</time></trkpt>
<trkpt lat="48.441701" lon="2.619807"><ele></ele><time>2021-3-5T20:27:49Z</time></trkpt>
<trkpt lat="48.441737" lon="2.619577"><ele></ele><time>2021-3-5T20:27:52Z</time></trkpt>
<trkpt lat="48.441789" lon="2.619403"><ele></ele><time>2021-3-5T20:27:55Z</time></trkpt>
<trkpt lat="48.441816" lon="2.619243"><ele></ele><time>2021-3-5T20:27:58Z</time></trkpt>
<trkpt lat="48.441828" lon="2.61908"><ele></ele><time>2021-3-5T20:28:1Z</time></trkpt>
<trkpt lat="48.441853" lon="2.618906"><ele></ele><time>2021-3-5T20:28:4Z</time></trkpt>
<trkpt lat="48.441859" lon="2.618764"><ele></ele><time>2021-3-5T20:28:7Z</time></trkpt>
<trkpt lat="48.441888" lon="2.618617"><ele></ele><time>2021-3-5T20:28:10Z</time></trkpt>
<trkpt lat="48.441949" lon="2.618473"><ele></ele><time>2021-3-5T20:28:13Z</time></trkpt>
<trkpt lat="48.441982" lon="2.618321"><ele></ele><time>2021-3-5T20:28:16Z</time></trkpt>
<trkpt lat="48.44201" lon="2.618178"><ele></ele><time>2021-3-5T20:28:19Z</time></trkpt>
<trkpt lat="48.442028" lon="2.618004"><ele></ele><time>2021-3-5T20:28:22Z</time></trkpt>
<trkpt lat="48.44203" lon="2.617848"><ele></ele><time>2021-3-5T20:28:25Z</time></trkpt>
<trkpt lat="48.442084" lon="2.617745"><ele></ele><time>2021-3-5T20:28:28Z</time></trkpt>
<trkpt lat="48.442068" lon="2.617539"><ele></ele><time>2021-3-5T20:28:31Z</time></trkpt>
<trkpt lat="48.442119" lon="2.617336"><ele></ele><time>2021-3-5T20:28:34Z</time></trkpt>
<trkpt lat="48.442141" lon="2.617164"><ele></ele><time>2021-3-5T20:28:37Z</time></trkpt>
<trkpt lat="48.442167" lon="2.616992"><ele></ele><time>2021-3-5T20:28:40Z</time></trkpt>
<trkpt lat="48.44218" lon="2.61685"><ele></ele><time>2021-3-5T20:28:43Z</time></trkpt>
<trkpt lat="48.442181" lon="2.6167"><ele></ele><time>2021-3-5T20:28:46Z</time></trkpt>
<trkpt lat="48.442211" lon="2.616553"><ele></ele><time>2021-3-5T20:28:49Z</time></trkpt>
<trkpt lat="48.442234" lon="2.616426"><ele></ele><time>2021-3-5T20:28:52Z</time></trkpt>
<trkpt lat="48.442266" lon="2.61628"><ele></ele><time>2021-3-5T20:28:55Z</time></trkpt>
<trkpt lat="48.442315" lon="2.616153"><ele></ele><time>2021-3-5T20:28:58Z</time></trkpt>
<trkpt lat="48.442342" lon="2.616022"><ele></ele><time>2021-3-5T20:29:1Z</time></trkpt>
<trkpt lat="48.442354" lon="2.615984"><ele></ele><time>2021-3-5T20:29:4Z</time></trkpt>
<trkpt lat="48.442366" lon="2.615984"><ele></ele><time>2021-3-5T20:29:7Z</time></trkpt>
<trkpt lat="48.442353" lon="2.615998"><ele></ele><time>2021-3-5T20:29:10Z</time></trkpt>
<trkpt lat="48.44235" lon="2.615995"><ele></ele><time>2021-3-5T20:29:13Z</time></trkpt>
</trkseg></trk></gpx>